<?xml version='1.0' encoding='UTF-8'?><gpx version="1.1" creator="JPX - https://github.com/jenetics/jpx" xmlns="http://www.topografix.com/GPX/1/1"><trk><trkseg><trkpt lat="44.0388883" lon="11.9992117"><ele>120.0</ele><time>2026-04-12T07:40:24.941Z</time></trkpt><trkpt lat="44.03895" lon="11.9991417"><ele>120.0</ele><time>2026-04-12T07:40:27.941Z</time></trkpt><trkpt lat="44.03899" lon="11.9990383"><ele>120.0</ele><time>2026-04-12T07:40:29.942Z</time></trkpt><trkpt lat="44.039015" lon="11.9989133"><ele>120.0</ele><time>2026-04-12T07:40:31.941Z</time></trkpt><trkpt lat="44.03905" lon="11.998795"><ele>120.0</ele><time>2026-04-12T07:40:33.942Z</time></trkpt><trkpt lat="44.0390967" lon="11.9986933"><ele>120.0</ele><time>2026-04-12T07:40:35.941Z</time></trkpt><trkpt lat="44.0391517" lon="11.998595"><ele>120.0</ele><time>2026-04-12T07:40:37.94Z</time></trkpt><trkpt lat="44.0392183" lon="11.99846"><ele>120.0</ele><time>2026-04-12T07:40:39.94Z</time></trkpt><trkpt lat="44.0392917" lon="11.99834"><ele>120.0</ele><time>2026-04-12T07:40:41.941Z</time></trkpt><trkpt lat="44.03935" lon="11.9982217"><ele>120.0</ele><time>2026-04-12T07:40:43.94Z</time></trkpt><trkpt lat="44.0393817" lon="11.99813"><ele>120.0</ele><time>2026-04-12T07:40:45.94Z</time></trkpt><trkpt lat="44.0394017" lon="11.998025"><ele>120.16666666666667</ele><time>2026-04-12T07:40:48.941Z</time></trkpt><trkpt lat="44.0394633" lon="11.998"><ele>120.33333333333334</ele><time>2026-04-12T07:40:52.94Z</time></trkpt><trkpt lat="44.0394183" lon="11.998075"><ele>120.5</ele><time>2026-04-12T07:40:56.94Z</time></trkpt><trkpt lat="44.03946" lon="11.9980033"><ele>120.66666666666667</ele><time>2026-04-12T07:41:02.94Z</time></trkpt><trkpt lat="44.039525" lon="11.9979533"><ele>120.83333333333334</ele><time>2026-04-12T07:41:05.94Z</time></trkpt><trkpt lat="44.0395283" lon="11.9978317"><ele>121.0</ele><time>2026-04-12T07:41:09.94Z</time></trkpt><trkpt lat="44.039455" lon="11.9977117"><ele>121.00000000000001</ele><time>2026-04-12T07:41:11.94Z</time></trkpt><trkpt lat="44.0394083" lon="11.9976233"><ele>121.0</ele><time>2026-04-12T07:41:12.94Z</time></trkpt><trkpt lat="44.0393517" lon="11.9975267"><ele>121.0</ele><time>2026-04-12T07:41:13.94Z</time></trkpt><trkpt lat="44.03929" lon="11.9974233"><ele>121.0</ele><time>2026-04-12T07:41:14.941Z</time></trkpt><trkpt lat="44.039225" lon="11.9973267"><ele>121.00000000000001</ele><time>2026-04-12T07:41:15.941Z</time></trkpt><trkpt lat="44.039165" lon="11.9972367"><ele>121.0</ele><time>2026-04-12T07:41:16.941Z</time></trkpt><trkpt lat="44.0391117" lon="11.9971417"><ele>121.4</ele><time>2026-04-12T07:41:17.94Z</time></trkpt><trkpt lat="44.0390517" lon="11.9970433"><ele>121.8</ele><time>2026-04-12T07:41:18.94Z</time></trkpt><trkpt lat="44.0389883" lon="11.99694"><ele>122.20000000000002</ele><time>2026-04-12T07:41:19.941Z</time></trkpt><trkpt lat="44.0389283" lon="11.9968283"><ele>122.60000000000001</ele><time>2026-04-12T07:41:20.941Z</time></trkpt><trkpt lat="44.03888" lon="11.9967033"><ele>123.0</ele><time>2026-04-12T07:41:21.94Z</time></trkpt><trkpt lat="44.0388383" lon="11.9965633"><ele>126.0</ele><time>2026-04-12T07:41:22.941Z</time></trkpt><trkpt lat="44.0388033" lon="11.9964233"><ele>129.0</ele><time>2026-04-12T07:41:23.94Z</time></trkpt><trkpt lat="44.0387717" lon="11.9962783"><ele>132.0</ele><time>2026-04-12T07:41:24.94Z</time></trkpt><trkpt lat="44.0387517" lon="11.9961167"><ele>135.0</ele><time>2026-04-12T07:41:25.94Z</time></trkpt><trkpt lat="44.0387367" lon="11.995955"><ele>137.0</ele><time>2026-04-12T07:41:26.94Z</time></trkpt><trkpt lat="44.0387183" lon="11.9957833"><ele>139.0</ele><time>2026-04-12T07:41:27.94Z</time></trkpt><trkpt lat="44.0387083" lon="11.995605"><ele>141.0</ele><time>2026-04-12T07:41:28.941Z</time></trkpt><trkpt lat="44.0387067" lon="11.9954217"><ele>143.0</ele><time>2026-04-12T07:41:29.94Z</time></trkpt><trkpt lat="44.0386967" lon="11.9952467"><ele>143.0</ele><time>2026-04-12T07:41:30.94Z</time></trkpt><trkpt lat="44.03868" lon="11.9950617"><ele>143.0</ele><time>2026-04-12T07:41:31.94Z</time></trkpt><trkpt lat="44.038665" lon="11.9948917"><ele>143.0</ele><time>2026-04-12T07:41:32.941Z</time></trkpt><trkpt lat="44.0386333" lon="11.9947267"><ele>143.0</ele><time>2026-04-12T07:41:33.94Z</time></trkpt><trkpt lat="44.0385867" lon="11.9945683"><ele>142.25</ele><time>2026-04-12T07:41:34.94Z</time></trkpt><trkpt lat="44.0385283" lon="11.9944017"><ele>141.5</ele><time>2026-04-12T07:41:35.94Z</time></trkpt><trkpt lat="44.0384583" lon="11.994245"><ele>140.75</ele><time>2026-04-12T07:41:36.94Z</time></trkpt><trkpt lat="44.03838" lon="11.994105"><ele>140.0</ele><time>2026-04-12T07:41:37.94Z</time></trkpt><trkpt lat="44.0382833" lon="11.9939833"><ele>141.5</ele><time>2026-04-12T07:41:38.94Z</time></trkpt><trkpt lat="44.0381767" lon="11.9938717"><ele>143.0</ele><time>2026-04-12T07:41:39.94Z</time></trkpt><trkpt lat="44.0380667" lon="11.9937717"><ele>144.5</ele><time>2026-04-12T07:41:40.94Z</time></trkpt><trkpt lat="44.0379583" lon="11.9936683"><ele>146.0</ele><time>2026-04-12T07:41:41.94Z</time></trkpt><trkpt lat="44.0378483" lon="11.9935683"><ele>146.0</ele><time>2026-04-12T07:41:42.94Z</time></trkpt><trkpt lat="44.0377383" lon="11.9934683"><ele>146.0</ele><time>2026-04-12T07:41:43.94Z</time></trkpt><trkpt lat="44.0376217" lon="11.9933783"><ele>146.0</ele><time>2026-04-12T07:41:44.941Z</time></trkpt><trkpt lat="44.0375117" lon="11.9932867"><ele>146.0</ele><time>2026-04-12T07:41:45.94Z</time></trkpt><trkpt lat="44.037405" lon="11.9931933"><ele>146.75</ele><time>2026-04-12T07:41:46.94Z</time></trkpt><trkpt lat="44.037295" lon="11.9931067"><ele>147.5</ele><time>2026-04-12T07:41:47.94Z</time></trkpt><trkpt lat="44.0371833" lon="11.99302"><ele>148.25</ele><time>2026-04-12T07:41:48.94Z</time></trkpt><trkpt lat="44.03708" lon="11.99293"><ele>149.0</ele><time>2026-04-12T07:41:49.94Z</time></trkpt><trkpt lat="44.0369717" lon="11.9928417"><ele>149.0</ele><time>2026-04-12T07:41:50.94Z</time></trkpt><trkpt lat="44.03687" lon="11.9927567"><ele>149.0</ele><time>2026-04-12T07:41:51.94Z</time></trkpt><trkpt lat="44.0367783" lon="11.99268"><ele>149.0</ele><time>2026-04-12T07:41:52.94Z</time></trkpt><trkpt lat="44.03669" lon="11.9926"><ele>149.0</ele><time>2026-04-12T07:41:53.94Z</time></trkpt><trkpt lat="44.0366017" lon="11.992495"><ele>149.0</ele><time>2026-04-12T07:41:54.94Z</time></trkpt><trkpt lat="44.0365267" lon="11.99242"><ele>149.0</ele><time>2026-04-12T07:41:55.94Z</time></trkpt><trkpt lat="44.0364483" lon="11.9923367"><ele>149.0</ele><time>2026-04-12T07:41:56.94Z</time></trkpt><trkpt lat="44.036375" lon="11.9922433"><ele>149.0</ele><time>2026-04-12T07:41:57.941Z</time></trkpt><trkpt lat="44.0363017" lon="11.9921533"><ele>149.0</ele><time>2026-04-12T07:41:58.94Z</time></trkpt><trkpt lat="44.0362433" lon="11.9920583"><ele>149.0</ele><time>2026-04-12T07:41:59.94Z</time></trkpt><trkpt lat="44.036185" lon="11.9919567"><ele>149.0</ele><time>2026-04-12T07:42:00.94Z</time></trkpt><trkpt lat="44.0361233" lon="11.99185"><ele>149.0</ele><time>2026-04-12T07:42:01.941Z</time></trkpt><trkpt lat="44.036055" lon="11.9917433"><ele>149.0</ele><time>2026-04-12T07:42:02.94Z</time></trkpt><trkpt lat="44.035985" lon="11.9916317"><ele>149.0</ele><time>2026-04-12T07:42:03.941Z</time></trkpt><trkpt lat="44.035915" lon="11.991515"><ele>149.0</ele><time>2026-04-12T07:42:04.94Z</time></trkpt><trkpt lat="44.0358417" lon="11.9913967"><ele>150.5</ele><time>2026-04-12T07:42:05.94Z</time></trkpt><trkpt lat="44.0357717" lon="11.991275"><ele>152.0</ele><time>2026-04-12T07:42:06.94Z</time></trkpt><trkpt lat="44.0356933" lon="11.991155"><ele>153.5</ele><time>2026-04-12T07:42:07.94Z</time></trkpt><trkpt lat="44.0356067" lon="11.9910333"><ele>155.0</ele><time>2026-04-12T07:42:08.94Z</time></trkpt><trkpt lat="44.03553" lon="11.9909167"><ele>153.66666666666666</ele><time>2026-04-12T07:42:09.94Z</time></trkpt><trkpt lat="44.035465" lon="11.9908033"><ele>152.33333333333331</ele><time>2026-04-12T07:42:10.94Z</time></trkpt><trkpt lat="44.0354033" lon="11.9907117"><ele>151.0</ele><time>2026-04-12T07:42:11.94Z</time></trkpt><trkpt lat="44.0353533" lon="11.9906267"><ele>149.66666666666666</ele><time>2026-04-12T07:42:12.941Z</time></trkpt><trkpt lat="44.035305" lon="11.9905517"><ele>148.33333333333334</ele><time>2026-04-12T07:42:13.94Z</time></trkpt><trkpt lat="44.035235" lon="11.9904583"><ele>147.0</ele><time>2026-04-12T07:42:15.94Z</time></trkpt><trkpt lat="44.03517" lon="11.9904983"><ele>147.0</ele><time>2026-04-12T07:42:18.94Z</time></trkpt><trkpt lat="44.0352483" lon="11.9905517"><ele>147.0</ele><time>2026-04-12T07:42:30.94Z</time></trkpt><trkpt lat="44.0353333" lon="11.99062"><ele>147.0</ele><time>2026-04-12T07:42:32.941Z</time></trkpt><trkpt lat="44.0353883" lon="11.9906967"><ele>147.0</ele><time>2026-04-12T07:42:33.941Z</time></trkpt><trkpt lat="44.0354567" lon="11.99082"><ele>147.0</ele><time>2026-04-12T07:42:34.94Z</time></trkpt><trkpt lat="44.03555" lon="11.9909883"><ele>146.33333333333334</ele><time>2026-04-12T07:42:35.94Z</time></trkpt><trkpt lat="44.035665" lon="11.991195"><ele>145.66666666666669</ele><time>2026-04-12T07:42:36.94Z</time></trkpt><trkpt lat="44.0357933" lon="11.9913967"><ele>145.0</ele><time>2026-04-12T07:42:37.94Z</time></trkpt><trkpt lat="44.0359117" lon="11.9915833"><ele>146.0</ele><time>2026-04-12T07:42:38.94Z</time></trkpt><trkpt lat="44.0360167" lon="11.991755"><ele>147.0</ele><time>2026-04-12T07:42:39.94Z</time></trkpt><trkpt lat="44.036115" lon="11.9918867"><ele>148.0</ele><time>2026-04-12T07:42:40.94Z</time></trkpt><trkpt lat="44.0361883" lon="11.992015"><ele>149.0</ele><time>2026-04-12T07:42:41.94Z</time></trkpt><trkpt lat="44.0362467" lon="11.9921117"><ele>149.0</ele><time>2026-04-12T07:42:42.941Z</time></trkpt><trkpt lat="44.03629" lon="11.99218"><ele>149.0</ele><time>2026-04-12T07:42:43.94Z</time></trkpt><trkpt lat="44.03633" lon="11.9922717"><ele>149.0</ele><time>2026-04-12T07:42:45.941Z</time></trkpt><trkpt lat="44.0362267" lon="11.992325"><ele>149.0</ele><time>2026-04-12T07:42:49.941Z</time></trkpt><trkpt lat="44.0361333" lon="11.992385"><ele>149.0</ele><time>2026-04-12T07:42:51.941Z</time></trkpt><trkpt lat="44.036065" lon="11.9924833"><ele>149.8</ele><time>2026-04-12T07:42:53.94Z</time></trkpt><trkpt lat="44.03601" lon="11.9926033"><ele>150.60000000000002</ele><time>2026-04-12T07:42:55.94Z</time></trkpt><trkpt lat="44.03595" lon="11.9927383"><ele>151.4</ele><time>2026-04-12T07:42:57.94Z</time></trkpt><trkpt lat="44.0359167" lon="11.9928933"><ele>152.20000000000002</ele><time>2026-04-12T07:42:59.94Z</time></trkpt><trkpt lat="44.0358717" lon="11.9930183"><ele>153.0</ele><time>2026-04-12T07:43:01.94Z</time></trkpt><trkpt lat="44.035815" lon="11.9931617"><ele>154.60000000000002</ele><time>2026-04-12T07:43:03.94Z</time></trkpt><trkpt lat="44.0357717" lon="11.993325"><ele>156.20000000000002</ele><time>2026-04-12T07:43:05.94Z</time></trkpt><trkpt lat="44.0357167" lon="11.993465"><ele>157.8</ele><time>2026-04-12T07:43:07.94Z</time></trkpt><trkpt lat="44.03565" lon="11.9935533"><ele>159.4</ele><time>2026-04-12T07:43:09.94Z</time></trkpt><trkpt lat="44.0356133" lon="11.9936367"><ele>161.0</ele><time>2026-04-12T07:43:11.94Z</time></trkpt><trkpt lat="44.0355783" lon="11.993755"><ele>162.8</ele><time>2026-04-12T07:43:13.94Z</time></trkpt><trkpt lat="44.0355767" lon="11.9938867"><ele>164.60000000000002</ele><time>2026-04-12T07:43:15.94Z</time></trkpt><trkpt lat="44.03561" lon="11.99399"><ele>166.4</ele><time>2026-04-12T07:43:17.94Z</time></trkpt><trkpt lat="44.0356517" lon="11.9940983"><ele>168.2</ele><time>2026-04-12T07:43:19.94Z</time></trkpt><trkpt lat="44.0356517" lon="11.994205"><ele>170.0</ele><time>2026-04-12T07:43:21.941Z</time></trkpt><trkpt lat="44.035605" lon="11.9943733"><ele>171.16666666666666</ele><time>2026-04-12T07:43:23.94Z</time></trkpt><trkpt lat="44.03557" lon="11.9944767"><ele>172.33333333333331</ele><time>2026-04-12T07:43:24.941Z</time></trkpt><trkpt lat="44.0355417" lon="11.9945833"><ele>173.5</ele><time>2026-04-12T07:43:25.94Z</time></trkpt><trkpt lat="44.03551" lon="11.99469"><ele>174.66666666666666</ele><time>2026-04-12T07:43:26.94Z</time></trkpt><trkpt lat="44.0354783" lon="11.9947883"><ele>175.83333333333334</ele><time>2026-04-12T07:43:27.94Z</time></trkpt><trkpt lat="44.0354483" lon="11.9948817"><ele>177.0</ele><time>2026-04-12T07:43:28.94Z</time></trkpt><trkpt lat="44.0354317" lon="11.9949733"><ele>178.16666666666666</ele><time>2026-04-12T07:43:29.94Z</time></trkpt><trkpt lat="44.0354133" lon="11.9950717"><ele>179.33333333333334</ele><time>2026-04-12T07:43:30.94Z</time></trkpt><trkpt lat="44.0354017" lon="11.995175"><ele>180.5</ele><time>2026-04-12T07:43:31.94Z</time></trkpt><trkpt lat="44.0354033" lon="11.9952817"><ele>181.66666666666669</ele><time>2026-04-12T07:43:32.94Z</time></trkpt><trkpt lat="44.0354183" lon="11.995375"><ele>182.83333333333334</ele><time>2026-04-12T07:43:33.94Z</time></trkpt><trkpt lat="44.03547" lon="11.995525"><ele>184.0</ele><time>2026-04-12T07:43:35.94Z</time></trkpt><trkpt lat="44.0354983" lon="11.99561"><ele>184.0</ele><time>2026-04-12T07:43:36.94Z</time></trkpt><trkpt lat="44.0355283" lon="11.9956967"><ele>184.0</ele><time>2026-04-12T07:43:37.94Z</time></trkpt><trkpt lat="44.0355883" lon="11.9958083"><ele>184.0</ele><time>2026-04-12T07:43:39.94Z</time></trkpt><trkpt lat="44.035625" lon="11.995915"><ele>184.0</ele><time>2026-04-12T07:43:41.941Z</time></trkpt><trkpt lat="44.0356067" lon="11.996085"><ele>184.0</ele><time>2026-04-12T07:43:43.94Z</time></trkpt><trkpt lat="44.0355967" lon="11.996195"><ele>187.6</ele><time>2026-04-12T07:43:44.94Z</time></trkpt><trkpt lat="44.03558" lon="11.9962933"><ele>191.2</ele><time>2026-04-12T07:43:45.94Z</time></trkpt><trkpt lat="44.0355483" lon="11.9964383"><ele>194.79999999999998</ele><time>2026-04-12T07:43:47.94Z</time></trkpt><trkpt lat="44.0355017" lon="11.9965733"><ele>198.39999999999998</ele><time>2026-04-12T07:43:49.941Z</time></trkpt><trkpt lat="44.0354583" lon="11.996725"><ele>202.0</ele><time>2026-04-12T07:43:51.941Z</time></trkpt><trkpt lat="44.03544" lon="11.99683"><ele>204.83333333333331</ele><time>2026-04-12T07:43:53.94Z</time></trkpt><trkpt lat="44.0354533" lon="11.996965"><ele>207.66666666666666</ele><time>2026-04-12T07:43:55.94Z</time></trkpt><trkpt lat="44.0354683" lon="11.9970567"><ele>210.5</ele><time>2026-04-12T07:43:56.941Z</time></trkpt><trkpt lat="44.03548" lon="11.9971633"><ele>213.33333333333331</ele><time>2026-04-12T07:43:57.94Z</time></trkpt><trkpt lat="44.0354917" lon="11.99726"><ele>216.16666666666666</ele><time>2026-04-12T07:43:58.94Z</time></trkpt><trkpt lat="44.0355017" lon="11.9973583"><ele>219.0</ele><time>2026-04-12T07:43:59.94Z</time></trkpt><trkpt lat="44.0355067" lon="11.9974667"><ele>222.57142857142858</ele><time>2026-04-12T07:44:00.941Z</time></trkpt><trkpt lat="44.03551" lon="11.9975683"><ele>226.1428571428571</ele><time>2026-04-12T07:44:01.94Z</time></trkpt><trkpt lat="44.03551" lon="11.9976683"><ele>229.7142857142857</ele><time>2026-04-12T07:44:02.94Z</time></trkpt><trkpt lat="44.0355117" lon="11.9977667"><ele>233.28571428571428</ele><time>2026-04-12T07:44:03.94Z</time></trkpt><trkpt lat="44.0355083" lon="11.9978683"><ele>236.85714285714283</ele><time>2026-04-12T07:44:04.94Z</time></trkpt><trkpt lat="44.0355017" lon="11.9979717"><ele>240.4285714285714</ele><time>2026-04-12T07:44:05.94Z</time></trkpt><trkpt lat="44.035495" lon="11.99807"><ele>243.99999999999997</ele><time>2026-04-12T07:44:06.94Z</time></trkpt><trkpt lat="44.03551" lon="11.9982133"><ele>243.99999999999997</ele><time>2026-04-12T07:44:08.94Z</time></trkpt><trkpt lat="44.0355467" lon="11.9983083"><ele>244.0</ele><time>2026-04-12T07:44:10.94Z</time></trkpt><trkpt lat="44.0355933" lon="11.998405"><ele>244.0</ele><time>2026-04-12T07:44:12.941Z</time></trkpt><trkpt lat="44.0355533" lon="11.9984967"><ele>244.0</ele><time>2026-04-12T07:44:14.94Z</time></trkpt><trkpt lat="44.0354467" lon="11.998545"><ele>243.99999999999997</ele><time>2026-04-12T07:44:16.94Z</time></trkpt><trkpt lat="44.0353833" lon="11.9985683"><ele>244.0</ele><time>2026-04-12T07:44:18.94Z</time></trkpt><trkpt lat="44.0353117" lon="11.9985567"><ele>245.99999999999997</ele><time>2026-04-12T07:45:15.941Z</time></trkpt><trkpt lat="44.035245" lon="11.99861"><ele>248.0</ele><time>2026-04-12T07:45:18.94Z</time></trkpt><trkpt lat="44.0351833" lon="11.998675"><ele>250.0</ele><time>2026-04-12T07:45:20.94Z</time></trkpt><trkpt lat="44.035135" lon="11.9987883"><ele>252.0</ele><time>2026-04-12T07:45:22.941Z</time></trkpt><trkpt lat="44.035095" lon="11.998885"><ele>253.99999999999997</ele><time>2026-04-12T07:45:24.941Z</time></trkpt><trkpt lat="44.0350467" lon="11.9989667"><ele>256.0</ele><time>2026-04-12T07:45:26.94Z</time></trkpt><trkpt lat="44.034995" lon="11.999055"><ele>260.40000000000003</ele><time>2026-04-12T07:45:28.94Z</time></trkpt><trkpt lat="44.03494" lon="11.999175"><ele>264.8</ele><time>2026-04-12T07:45:30.94Z</time></trkpt><trkpt lat="44.0348733" lon="11.99927"><ele>269.20000000000005</ele><time>2026-04-12T07:45:32.94Z</time></trkpt><trkpt lat="44.0347833" lon="11.99934"><ele>273.6</ele><time>2026-04-12T07:45:34.94Z</time></trkpt><trkpt lat="44.034685" lon="11.9994233"><ele>278.0</ele><time>2026-04-12T07:45:36.941Z</time></trkpt><trkpt lat="44.034605" lon="11.9995383"><ele>278.0</ele><time>2026-04-12T07:45:38.94Z</time></trkpt><trkpt lat="44.03455" lon="11.99968"><ele>278.0</ele><time>2026-04-12T07:45:40.94Z</time></trkpt><trkpt lat="44.0345217" lon="11.999825"><ele>278.0</ele><time>2026-04-12T07:45:42.94Z</time></trkpt><trkpt lat="44.0345" lon="11.999955"><ele>278.0</ele><time>2026-04-12T07:45:44.94Z</time></trkpt><trkpt lat="44.0344933" lon="12.00007"><ele>278.0</ele><time>2026-04-12T07:45:46.941Z</time></trkpt><trkpt lat="44.0345133" lon="12.000165"><ele>278.0</ele><time>2026-04-12T07:45:48.94Z</time></trkpt><trkpt lat="44.0345633" lon="12.0002517"><ele>278.0</ele><time>2026-04-12T07:45:50.94Z</time></trkpt><trkpt lat="44.0345583" lon="12.0003517"><ele>278.0</ele><time>2026-04-12T07:45:52.94Z</time></trkpt><trkpt lat="44.034525" lon="12.0004583"><ele>278.0</ele><time>2026-04-12T07:45:54.941Z</time></trkpt><trkpt lat="44.0344817" lon="12.0005383"><ele>278.0</ele><time>2026-04-12T07:45:56.94Z</time></trkpt><trkpt lat="44.03444" lon="12.0006233"><ele>278.0</ele><time>2026-04-12T07:45:58.94Z</time></trkpt><trkpt lat="44.0343883" lon="12.000685"><ele>278.0</ele><time>2026-04-12T07:46:00.94Z</time></trkpt><trkpt lat="44.034325" lon="12.0007467"><ele>278.0</ele><time>2026-04-12T07:46:03.94Z</time></trkpt><trkpt lat="44.0342483" lon="12.0007867"><ele>278.0</ele><time>2026-04-12T07:49:06.939Z</time></trkpt><trkpt lat="44.0341433" lon="12.000845"><ele>278.0</ele><time>2026-04-12T07:49:08.939Z</time></trkpt><trkpt lat="44.03406" lon="12.0009117"><ele>278.0</ele><time>2026-04-12T07:49:10.939Z</time></trkpt><trkpt lat="44.0340017" lon="12.0010167"><ele>278.2</ele><time>2026-04-12T07:49:12.939Z</time></trkpt><trkpt lat="44.03396" lon="12.0011533"><ele>278.4</ele><time>2026-04-12T07:49:14.939Z</time></trkpt><trkpt lat="44.0339017" lon="12.001295"><ele>278.59999999999997</ele><time>2026-04-12T07:49:16.939Z</time></trkpt><trkpt lat="44.0338583" lon="12.001365"><ele>278.8</ele><time>2026-04-12T07:49:17.939Z</time></trkpt><trkpt lat="44.03381" lon="12.0014317"><ele>279.0</ele><time>2026-04-12T07:49:18.939Z</time></trkpt><trkpt lat="44.0337433" lon="12.0015517"><ele>282.1666666666667</ele><time>2026-04-12T07:49:20.94Z</time></trkpt><trkpt lat="44.0336917" lon="12.0016967"><ele>285.3333333333333</ele><time>2026-04-12T07:49:22.939Z</time></trkpt><trkpt lat="44.0336567" lon="12.0017717"><ele>288.5</ele><time>2026-04-12T07:49:23.94Z</time></trkpt><trkpt lat="44.0336167" lon="12.00184"><ele>291.66666666666663</ele><time>2026-04-12T07:49:24.939Z</time></trkpt><trkpt lat="44.03357" lon="12.001915"><ele>294.8333333333333</ele><time>2026-04-12T07:49:25.939Z</time></trkpt><trkpt lat="44.0335283" lon="12.0019933"><ele>298.0</ele><time>2026-04-12T07:49:26.94Z</time></trkpt><trkpt lat="44.0334833" lon="12.00207"><ele>298.0</ele><time>2026-04-12T07:49:27.939Z</time></trkpt><trkpt lat="44.0334083" lon="12.0021933"><ele>298.0</ele><time>2026-04-12T07:49:29.939Z</time></trkpt><trkpt lat="44.03335" lon="12.0022917"><ele>298.0</ele><time>2026-04-12T07:49:31.939Z</time></trkpt><trkpt lat="44.0333167" lon="12.00239"><ele>298.0</ele><time>2026-04-12T07:49:33.939Z</time></trkpt><trkpt lat="44.0332733" lon="12.0024783"><ele>298.0</ele><time>2026-04-12T07:49:35.939Z</time></trkpt><trkpt lat="44.0332233" lon="12.0025617"><ele>298.0</ele><time>2026-04-12T07:49:37.939Z</time></trkpt><trkpt lat="44.0331683" lon="12.00264"><ele>303.2</ele><time>2026-04-12T07:49:39.939Z</time></trkpt><trkpt lat="44.0331233" lon="12.0027517"><ele>308.4</ele><time>2026-04-12T07:49:42.939Z</time></trkpt><trkpt lat="44.0330717" lon="12.0028333"><ele>313.59999999999997</ele><time>2026-04-12T07:49:44.94Z</time></trkpt><trkpt lat="44.0330017" lon="12.0029433"><ele>318.8</ele><time>2026-04-12T07:49:46.939Z</time></trkpt><trkpt lat="44.0329667" lon="12.0030683"><ele>324.0</ele><time>2026-04-12T07:49:48.939Z</time></trkpt><trkpt lat="44.03295" lon="12.0031767"><ele>324.0</ele><time>2026-04-12T07:49:50.939Z</time></trkpt><trkpt lat="44.0329417" lon="12.0032917"><ele>324.0</ele><time>2026-04-12T07:49:52.939Z</time></trkpt><trkpt lat="44.0329233" lon="12.0034283"><ele>324.0</ele><time>2026-04-12T07:49:54.939Z</time></trkpt><trkpt lat="44.0328833" lon="12.0035417"><ele>324.0</ele><time>2026-04-12T07:49:56.939Z</time></trkpt><trkpt lat="44.0328283" lon="12.0036367"><ele>324.0</ele><time>2026-04-12T07:49:58.939Z</time></trkpt><trkpt lat="44.0327683" lon="12.00376"><ele>327.8333333333333</ele><time>2026-04-12T07:50:00.939Z</time></trkpt><trkpt lat="44.03275" lon="12.003845"><ele>331.6666666666667</ele><time>2026-04-12T07:50:01.939Z</time></trkpt><trkpt lat="44.0327117" lon="12.0039967"><ele>335.5</ele><time>2026-04-12T07:50:03.939Z</time></trkpt><trkpt lat="44.0326633" lon="12.00412"><ele>339.33333333333337</ele><time>2026-04-12T07:50:05.939Z</time></trkpt><trkpt lat="44.0325983" lon="12.00411"><ele>343.1666666666667</ele><time>2026-04-12T07:50:43.939Z</time></trkpt><trkpt lat="44.03253" lon="12.0041383"><ele>347.0</ele><time>2026-04-12T07:50:46.939Z</time></trkpt><trkpt lat="44.0324317" lon="12.0041367"><ele>349.1666666666667</ele><time>2026-04-12T07:50:49.94Z</time></trkpt><trkpt lat="44.0323517" lon="12.0041217"><ele>351.33333333333337</ele><time>2026-04-12T07:50:51.939Z</time></trkpt><trkpt lat="44.0322783" lon="12.0041033"><ele>353.5</ele><time>2026-04-12T07:50:53.94Z</time></trkpt><trkpt lat="44.0322117" lon="12.0040683"><ele>355.6666666666667</ele><time>2026-04-12T07:50:55.939Z</time></trkpt><trkpt lat="44.0321417" lon="12.0040217"><ele>357.8333333333333</ele><time>2026-04-12T07:50:58.94Z</time></trkpt><trkpt lat="44.0320767" lon="12.0040033"><ele>360.0</ele><time>2026-04-12T07:51:01.939Z</time></trkpt><trkpt lat="44.0319783" lon="12.0039733"><ele>360.0</ele><time>2026-04-12T07:51:04.939Z</time></trkpt><trkpt lat="44.03189" lon="12.003925"><ele>360.0</ele><time>2026-04-12T07:51:06.94Z</time></trkpt><trkpt lat="44.031785" lon="12.003865"><ele>360.0</ele><time>2026-04-12T07:51:08.939Z</time></trkpt><trkpt lat="44.031705" lon="12.00383"><ele>360.0</ele><time>2026-04-12T07:51:10.94Z</time></trkpt><trkpt lat="44.0315833" lon="12.00383"><ele>360.0</ele><time>2026-04-12T07:51:12.94Z</time></trkpt><trkpt lat="44.031475" lon="12.003835"><ele>359.0</ele><time>2026-04-12T07:51:14.94Z</time></trkpt><trkpt lat="44.0314" lon="12.0038067"><ele>358.0</ele><time>2026-04-12T07:51:16.939Z</time></trkpt><trkpt lat="44.031335" lon="12.0037783"><ele>357.0</ele><time>2026-04-12T07:51:18.939Z</time></trkpt><trkpt lat="44.0312383" lon="12.00378"><ele>356.0</ele><time>2026-04-12T07:51:21.939Z</time></trkpt><trkpt lat="44.03116" lon="12.0037783"><ele>355.0</ele><time>2026-04-12T07:51:23.94Z</time></trkpt><trkpt lat="44.0310933" lon="12.0037633"><ele>354.0</ele><time>2026-04-12T07:51:25.939Z</time></trkpt><trkpt lat="44.0310183" lon="12.0037667"><ele>354.0</ele><time>2026-04-12T07:51:28.939Z</time></trkpt><trkpt lat="44.0309533" lon="12.00378"><ele>354.0</ele><time>2026-04-12T07:51:32.939Z</time></trkpt><trkpt lat="44.0310233" lon="12.003755"><ele>354.0</ele><time>2026-04-12T07:54:09.938Z</time></trkpt><trkpt lat="44.0311017" lon="12.0037567"><ele>354.0</ele><time>2026-04-12T07:54:12.938Z</time></trkpt><trkpt lat="44.0311933" lon="12.0037617"><ele>354.0</ele><time>2026-04-12T07:54:15.939Z</time></trkpt><trkpt lat="44.0312567" lon="12.0037533"><ele>354.0</ele><time>2026-04-12T07:54:17.939Z</time></trkpt><trkpt lat="44.0313183" lon="12.0037717"><ele>354.0</ele><time>2026-04-12T07:54:21.938Z</time></trkpt><trkpt lat="44.031395" lon="12.0037983"><ele>354.0</ele><time>2026-04-12T07:54:23.938Z</time></trkpt><trkpt lat="44.03148" lon="12.0038367"><ele>354.0</ele><time>2026-04-12T07:54:25.938Z</time></trkpt><trkpt lat="44.0315533" lon="12.003825"><ele>354.0</ele><time>2026-04-12T07:54:27.938Z</time></trkpt><trkpt lat="44.03163" lon="12.0038133"><ele>354.0</ele><time>2026-04-12T07:54:29.938Z</time></trkpt><trkpt lat="44.0317" lon="12.0038417"><ele>354.0</ele><time>2026-04-12T07:54:31.939Z</time></trkpt><trkpt lat="44.0317917" lon="12.0038967"><ele>354.0</ele><time>2026-04-12T07:54:33.938Z</time></trkpt><trkpt lat="44.0318817" lon="12.00397"><ele>355.0</ele><time>2026-04-12T07:54:35.938Z</time></trkpt><trkpt lat="44.031975" lon="12.003985"><ele>356.0</ele><time>2026-04-12T07:54:37.938Z</time></trkpt><trkpt lat="44.0320517" lon="12.0039883"><ele>357.0</ele><time>2026-04-12T07:54:39.938Z</time></trkpt><trkpt lat="44.0321183" lon="12.0040217"><ele>358.0</ele><time>2026-04-12T07:54:41.939Z</time></trkpt><trkpt lat="44.03219" lon="12.0040517"><ele>359.0</ele><time>2026-04-12T07:54:43.938Z</time></trkpt><trkpt lat="44.03225" lon="12.0041"><ele>360.0</ele><time>2026-04-12T07:54:45.938Z</time></trkpt><trkpt lat="44.0323117" lon="12.0041233"><ele>360.0</ele><time>2026-04-12T07:54:47.938Z</time></trkpt><trkpt lat="44.032405" lon="12.0041517"><ele>360.0</ele><time>2026-04-12T07:54:50.938Z</time></trkpt><trkpt lat="44.0324767" lon="12.0041683"><ele>360.0</ele><time>2026-04-12T07:54:52.938Z</time></trkpt><trkpt lat="44.032555" lon="12.00414"><ele>360.0</ele><time>2026-04-12T07:54:54.938Z</time></trkpt><trkpt lat="44.0326183" lon="12.00416"><ele>360.0</ele><time>2026-04-12T07:54:58.938Z</time></trkpt><trkpt lat="44.0325633" lon="12.0042133"><ele>360.0</ele><time>2026-04-12T07:55:01.938Z</time></trkpt><trkpt lat="44.0324833" lon="12.0042817"><ele>364.8</ele><time>2026-04-12T07:55:03.938Z</time></trkpt><trkpt lat="44.0324333" lon="12.0044"><ele>369.6</ele><time>2026-04-12T07:55:05.939Z</time></trkpt><trkpt lat="44.03242" lon="12.0044867"><ele>374.4</ele><time>2026-04-12T07:55:07.939Z</time></trkpt><trkpt lat="44.032365" lon="12.00456"><ele>379.2</ele><time>2026-04-12T07:55:38.939Z</time></trkpt><trkpt lat="44.0322767" lon="12.0046833"><ele>384.0</ele><time>2026-04-12T07:55:52.938Z</time></trkpt><trkpt lat="44.03217" lon="12.00467"><ele>384.0</ele><time>2026-04-12T08:00:05.937Z</time></trkpt><trkpt lat="44.0321367" lon="12.0045867"><ele>384.0</ele><time>2026-04-12T08:00:10.938Z</time></trkpt><trkpt lat="44.032135" lon="12.0044933"><ele>384.0</ele><time>2026-04-12T08:00:14.937Z</time></trkpt><trkpt lat="44.032045" lon="12.0044083"><ele>384.0</ele><time>2026-04-12T08:00:31.937Z</time></trkpt><trkpt lat="44.0320067" lon="12.0043267"><ele>384.0</ele><time>2026-04-12T08:00:36.937Z</time></trkpt><trkpt lat="44.0320183" lon="12.0042283"><ele>384.0</ele><time>2026-04-12T08:00:42.937Z</time></trkpt><trkpt lat="44.032" lon="12.0041333"><ele>380.0</ele><time>2026-04-12T08:01:10.937Z</time></trkpt><trkpt lat="44.032" lon="12.0040267"><ele>376.0</ele><time>2026-04-12T08:01:13.937Z</time></trkpt><trkpt lat="44.0319367" lon="12.0039583"><ele>372.0</ele><time>2026-04-12T08:01:17.937Z</time></trkpt><trkpt lat="44.0318733" lon="12.00392"><ele>368.0</ele><time>2026-04-12T08:01:20.937Z</time></trkpt><trkpt lat="44.0317883" lon="12.0038717"><ele>364.0</ele><time>2026-04-12T08:01:23.937Z</time></trkpt><trkpt lat="44.0316983" lon="12.0038283"><ele>360.0</ele><time>2026-04-12T08:01:25.937Z</time></trkpt><trkpt lat="44.0315833" lon="12.00382"><ele>359.0</ele><time>2026-04-12T08:01:27.937Z</time></trkpt><trkpt lat="44.0314817" lon="12.0038117"><ele>358.0</ele><time>2026-04-12T08:01:29.937Z</time></trkpt><trkpt lat="44.0314" lon="12.0037883"><ele>357.0</ele><time>2026-04-12T08:01:31.937Z</time></trkpt><trkpt lat="44.031335" lon="12.0037683"><ele>356.0</ele><time>2026-04-12T08:01:33.937Z</time></trkpt><trkpt lat="44.0312483" lon="12.0037817"><ele>355.0</ele><time>2026-04-12T08:01:36.938Z</time></trkpt><trkpt lat="44.0311817" lon="12.0037817"><ele>354.0</ele><time>2026-04-12T08:01:59.937Z</time></trkpt><trkpt lat="44.031115" lon="12.0037517"><ele>354.0</ele><time>2026-04-12T08:02:01.938Z</time></trkpt><trkpt lat="44.0310483" lon="12.0037283"><ele>354.0</ele><time>2026-04-12T08:02:03.937Z</time></trkpt><trkpt lat="44.0309467" lon="12.0037467"><ele>354.0</ele><time>2026-04-12T08:02:09.937Z</time></trkpt><trkpt lat="44.030825" lon="12.003845"><ele>354.0</ele><time>2026-04-12T08:04:09.937Z</time></trkpt><trkpt lat="44.0308883" lon="12.003785"><ele>354.0</ele><time>2026-04-12T08:15:02.935Z</time></trkpt><trkpt lat="44.0309567" lon="12.0037733"><ele>354.0</ele><time>2026-04-12T08:15:05.935Z</time></trkpt><trkpt lat="44.0310333" lon="12.00375"><ele>354.0</ele><time>2026-04-12T08:15:08.935Z</time></trkpt><trkpt lat="44.0311017" lon="12.0037583"><ele>354.0</ele><time>2026-04-12T08:15:10.935Z</time></trkpt><trkpt lat="44.0311817" lon="12.0037717"><ele>354.0</ele><time>2026-04-12T08:15:12.935Z</time></trkpt><trkpt lat="44.0312483" lon="12.0037717"><ele>354.0</ele><time>2026-04-12T08:15:14.935Z</time></trkpt><trkpt lat="44.03132" lon="12.00377"><ele>354.0</ele><time>2026-04-12T08:15:16.936Z</time></trkpt><trkpt lat="44.0314117" lon="12.00381"><ele>354.0</ele><time>2026-04-12T08:15:18.936Z</time></trkpt><trkpt lat="44.031515" lon="12.003815"><ele>354.0</ele><time>2026-04-12T08:15:20.935Z</time></trkpt><trkpt lat="44.0316217" lon="12.0038117"><ele>354.0</ele><time>2026-04-12T08:15:22.935Z</time></trkpt><trkpt lat="44.031695" lon="12.0038383"><ele>354.0</ele><time>2026-04-12T08:15:24.936Z</time></trkpt><trkpt lat="44.0317983" lon="12.0038867"><ele>354.0</ele><time>2026-04-12T08:15:26.936Z</time></trkpt><trkpt lat="44.0319" lon="12.0039517"><ele>355.0</ele><time>2026-04-12T08:15:28.936Z</time></trkpt><trkpt lat="44.0320083" lon="12.0039867"><ele>356.0</ele><time>2026-04-12T08:15:30.935Z</time></trkpt><trkpt lat="44.0320917" lon="12.0040133"><ele>357.0</ele><time>2026-04-12T08:15:32.935Z</time></trkpt><trkpt lat="44.032155" lon="12.0040317"><ele>358.0</ele><time>2026-04-12T08:15:34.935Z</time></trkpt><trkpt lat="44.03222" lon="12.0040767"><ele>359.0</ele><time>2026-04-12T08:15:36.935Z</time></trkpt><trkpt lat="44.0322867" lon="12.0041017"><ele>360.0</ele><time>2026-04-12T08:15:38.935Z</time></trkpt><trkpt lat="44.0323617" lon="12.0041117"><ele>360.0</ele><time>2026-04-12T08:15:40.935Z</time></trkpt><trkpt lat="44.032465" lon="12.00412"><ele>360.0</ele><time>2026-04-12T08:15:42.935Z</time></trkpt><trkpt lat="44.0325667" lon="12.004095"><ele>360.0</ele><time>2026-04-12T08:15:44.935Z</time></trkpt><trkpt lat="44.0326417" lon="12.0040683"><ele>360.0</ele><time>2026-04-12T08:15:46.935Z</time></trkpt><trkpt lat="44.0327083" lon="12.00399"><ele>360.0</ele><time>2026-04-12T08:15:48.935Z</time></trkpt><trkpt lat="44.0327567" lon="12.0038883"><ele>357.8333333333333</ele><time>2026-04-12T08:15:50.935Z</time></trkpt><trkpt lat="44.0327933" lon="12.0037783"><ele>355.6666666666667</ele><time>2026-04-12T08:15:52.934Z</time></trkpt><trkpt lat="44.0328383" lon="12.0036783"><ele>353.5</ele><time>2026-04-12T08:15:54.934Z</time></trkpt><trkpt lat="44.0328833" lon="12.0035767"><ele>351.33333333333337</ele><time>2026-04-12T08:15:56.934Z</time></trkpt><trkpt lat="44.0329233" lon="12.00347"><ele>349.1666666666667</ele><time>2026-04-12T08:15:58.934Z</time></trkpt><trkpt lat="44.0329467" lon="12.003375"><ele>347.0</ele><time>2026-04-12T08:16:00.934Z</time></trkpt><trkpt lat="44.03295" lon="12.0032633"><ele>343.7142857142857</ele><time>2026-04-12T08:16:03.934Z</time></trkpt><trkpt lat="44.0329667" lon="12.0031717"><ele>340.4285714285714</ele><time>2026-04-12T08:16:06.934Z</time></trkpt><trkpt lat="44.0329883" lon="12.003075"><ele>337.1428571428571</ele><time>2026-04-12T08:16:10.934Z</time></trkpt><trkpt lat="44.0330067" lon="12.0029717"><ele>333.8571428571429</ele><time>2026-04-12T08:16:13.934Z</time></trkpt><trkpt lat="44.033045" lon="12.0028917"><ele>330.57142857142856</ele><time>2026-04-12T08:16:15.934Z</time></trkpt><trkpt lat="44.033095" lon="12.00283"><ele>327.2857142857143</ele><time>2026-04-12T08:16:17.935Z</time></trkpt><trkpt lat="44.0331567" lon="12.0027467"><ele>324.0</ele><time>2026-04-12T08:16:20.934Z</time></trkpt><trkpt lat="44.033195" lon="12.0026267"><ele>324.0</ele><time>2026-04-12T08:16:34.934Z</time></trkpt><trkpt lat="44.0332383" lon="12.002535"><ele>324.0</ele><time>2026-04-12T08:16:37.934Z</time></trkpt><trkpt lat="44.0332817" lon="12.0024617"><ele>324.0</ele><time>2026-04-12T08:16:39.934Z</time></trkpt><trkpt lat="44.0333217" lon="12.0023883"><ele>324.0</ele><time>2026-04-12T08:16:41.934Z</time></trkpt><trkpt lat="44.0333567" lon="12.0022817"><ele>324.0</ele><time>2026-04-12T08:16:45.935Z</time></trkpt><trkpt lat="44.033405" lon="12.0021867"><ele>324.0</ele><time>2026-04-12T08:16:48.934Z</time></trkpt><trkpt lat="44.0334483" lon="12.00212"><ele>324.0</ele><time>2026-04-12T08:16:50.934Z</time></trkpt><trkpt lat="44.03351" lon="12.00203"><ele>319.6666666666667</ele><time>2026-04-12T08:16:53.935Z</time></trkpt><trkpt lat="44.033565" lon="12.00195"><ele>315.3333333333333</ele><time>2026-04-12T08:16:56.934Z</time></trkpt><trkpt lat="44.0336033" lon="12.00187"><ele>311.0</ele><time>2026-04-12T08:16:58.934Z</time></trkpt><trkpt lat="44.0336383" lon="12.0017917"><ele>306.66666666666663</ele><time>2026-04-12T08:17:00.934Z</time></trkpt><trkpt lat="44.0336917" lon="12.001685"><ele>302.3333333333333</ele><time>2026-04-12T08:17:03.935Z</time></trkpt><trkpt lat="44.0337267" lon="12.0016017"><ele>298.0</ele><time>2026-04-12T08:17:05.934Z</time></trkpt><trkpt lat="44.03376" lon="12.001505"><ele>294.8333333333333</ele><time>2026-04-12T08:17:07.934Z</time></trkpt><trkpt lat="44.0338117" lon="12.0014183"><ele>291.66666666666663</ele><time>2026-04-12T08:17:09.934Z</time></trkpt><trkpt lat="44.0338683" lon="12.0013267"><ele>288.5</ele><time>2026-04-12T08:17:11.935Z</time></trkpt><trkpt lat="44.0339117" lon="12.0012417"><ele>285.3333333333333</ele><time>2026-04-12T08:17:13.934Z</time></trkpt><trkpt lat="44.0339483" lon="12.0011583"><ele>282.1666666666667</ele><time>2026-04-12T08:17:15.935Z</time></trkpt><trkpt lat="44.0339767" lon="12.00107"><ele>279.0</ele><time>2026-04-12T08:17:17.934Z</time></trkpt><trkpt lat="44.0340067" lon="12.0009667"><ele>279.0</ele><time>2026-04-12T08:17:19.934Z</time></trkpt><trkpt lat="44.034065" lon="12.000875"><ele>279.0</ele><time>2026-04-12T08:17:21.934Z</time></trkpt><trkpt lat="44.0341567" lon="12.0008183"><ele>279.0</ele><time>2026-04-12T08:17:23.934Z</time></trkpt><trkpt lat="44.0342367" lon="12.0007733"><ele>279.0</ele><time>2026-04-12T08:17:25.935Z</time></trkpt><trkpt lat="44.0343133" lon="12.0007317"><ele>279.0</ele><time>2026-04-12T08:17:27.934Z</time></trkpt><trkpt lat="44.034385" lon="12.0006733"><ele>279.0</ele><time>2026-04-12T08:17:30.934Z</time></trkpt><trkpt lat="44.0344283" lon="12.0006067"><ele>278.8</ele><time>2026-04-12T08:17:54.934Z</time></trkpt><trkpt lat="44.0345017" lon="12.0004817"><ele>278.59999999999997</ele><time>2026-04-12T08:17:56.935Z</time></trkpt><trkpt lat="44.03455" lon="12.0003667"><ele>278.4</ele><time>2026-04-12T08:17:58.934Z</time></trkpt><trkpt lat="44.0345717" lon="12.00025"><ele>278.2</ele><time>2026-04-12T08:18:00.934Z</time></trkpt><trkpt lat="44.0345183" lon="12.0001417"><ele>278.0</ele><time>2026-04-12T08:18:03.934Z</time></trkpt><trkpt lat="44.03448" lon="12.00006"><ele>278.0</ele><time>2026-04-12T08:18:05.935Z</time></trkpt><trkpt lat="44.0345117" lon="11.99994"><ele>278.0</ele><time>2026-04-12T08:18:07.935Z</time></trkpt><trkpt lat="44.03454" lon="11.9998183"><ele>278.0</ele><time>2026-04-12T08:18:09.934Z</time></trkpt><trkpt lat="44.0345567" lon="11.9996883"><ele>278.0</ele><time>2026-04-12T08:18:11.934Z</time></trkpt><trkpt lat="44.0345983" lon="11.9995567"><ele>278.0</ele><time>2026-04-12T08:18:13.935Z</time></trkpt><trkpt lat="44.0346533" lon="11.9994633"><ele>278.0</ele><time>2026-04-12T08:18:15.934Z</time></trkpt><trkpt lat="44.0347183" lon="11.9994"><ele>278.0</ele><time>2026-04-12T08:18:17.935Z</time></trkpt><trkpt lat="44.0348" lon="11.999345"><ele>278.0</ele><time>2026-04-12T08:18:19.934Z</time></trkpt><trkpt lat="44.0348817" lon="11.999275"><ele>278.0</ele><time>2026-04-12T08:18:21.934Z</time></trkpt><trkpt lat="44.0349383" lon="11.999175"><ele>278.0</ele><time>2026-04-12T08:18:23.935Z</time></trkpt><trkpt lat="44.03498" lon="11.9990667"><ele>278.0</ele><time>2026-04-12T08:18:25.934Z</time></trkpt><trkpt lat="44.0350167" lon="11.9989933"><ele>273.6</ele><time>2026-04-12T08:18:27.934Z</time></trkpt><trkpt lat="44.035075" lon="11.9989133"><ele>269.20000000000005</ele><time>2026-04-12T08:18:30.934Z</time></trkpt><trkpt lat="44.03513" lon="11.9988"><ele>264.8</ele><time>2026-04-12T08:18:33.934Z</time></trkpt><trkpt lat="44.0351867" lon="11.9986767"><ele>260.40000000000003</ele><time>2026-04-12T08:18:35.934Z</time></trkpt><trkpt lat="44.03526" lon="11.9985967"><ele>256.0</ele><time>2026-04-12T08:18:37.935Z</time></trkpt><trkpt lat="44.0353283" lon="11.9985583"><ele>255.99999999999997</ele><time>2026-04-12T08:18:39.934Z</time></trkpt><trkpt lat="44.0354183" lon="11.99852"><ele>256.0</ele><time>2026-04-12T08:18:41.934Z</time></trkpt><trkpt lat="44.0355067" lon="11.9984433"><ele>256.0</ele><time>2026-04-12T08:18:43.934Z</time></trkpt><trkpt lat="44.0355517" lon="11.9983617"><ele>256.0</ele><time>2026-04-12T08:18:45.934Z</time></trkpt><trkpt lat="44.0355517" lon="11.9982617"><ele>255.99999999999997</ele><time>2026-04-12T08:18:48.934Z</time></trkpt><trkpt lat="44.03549" lon="11.9981667"><ele>256.0</ele><time>2026-04-12T08:18:51.935Z</time></trkpt><trkpt lat="44.0354517" lon="11.998085"><ele>253.99999999999997</ele><time>2026-04-12T08:18:54.934Z</time></trkpt><trkpt lat="44.03546" lon="11.9979917"><ele>252.0</ele><time>2026-04-12T08:18:56.934Z</time></trkpt><trkpt lat="44.0354867" lon="11.9978667"><ele>250.0</ele><time>2026-04-12T08:18:58.935Z</time></trkpt><trkpt lat="44.0355067" lon="11.99775"><ele>248.0</ele><time>2026-04-12T08:19:00.934Z</time></trkpt><trkpt lat="44.0355117" lon="11.9976417"><ele>245.99999999999997</ele><time>2026-04-12T08:19:02.934Z</time></trkpt><trkpt lat="44.0355183" lon="11.9975133"><ele>244.0</ele><time>2026-04-12T08:19:04.934Z</time></trkpt><trkpt lat="44.0355183" lon="11.9973817"><ele>239.0</ele><time>2026-04-12T08:19:06.934Z</time></trkpt><trkpt lat="44.0354883" lon="11.997265"><ele>233.99999999999997</ele><time>2026-04-12T08:19:08.934Z</time></trkpt><trkpt lat="44.0354617" lon="11.9971233"><ele>228.99999999999997</ele><time>2026-04-12T08:19:10.934Z</time></trkpt><trkpt lat="44.03542" lon="11.9969833"><ele>224.0</ele><time>2026-04-12T08:19:12.934Z</time></trkpt><trkpt lat="44.0354083" lon="11.9968533"><ele>219.0</ele><time>2026-04-12T08:19:14.935Z</time></trkpt><trkpt lat="44.035445" lon="11.9967067"><ele>214.75</ele><time>2026-04-12T08:19:16.935Z</time></trkpt><trkpt lat="44.0354917" lon="11.996575"><ele>210.5</ele><time>2026-04-12T08:19:18.934Z</time></trkpt><trkpt lat="44.035545" lon="11.9964167"><ele>206.25</ele><time>2026-04-12T08:19:20.934Z</time></trkpt><trkpt lat="44.0355683" lon="11.996255"><ele>202.0</ele><time>2026-04-12T08:19:22.935Z</time></trkpt><trkpt lat="44.0355783" lon="11.9960967"><ele>201.99999999999997</ele><time>2026-04-12T08:19:24.934Z</time></trkpt><trkpt lat="44.035585" lon="11.9959667"><ele>202.0</ele><time>2026-04-12T08:19:26.934Z</time></trkpt><trkpt lat="44.035575" lon="11.995855"><ele>202.0</ele><time>2026-04-12T08:19:28.934Z</time></trkpt><trkpt lat="44.03553" lon="11.9957767"><ele>202.0</ele><time>2026-04-12T08:19:30.934Z</time></trkpt><trkpt lat="44.0354783" lon="11.9956717"><ele>201.99999999999997</ele><time>2026-04-12T08:19:32.934Z</time></trkpt><trkpt lat="44.035455" lon="11.9955817"><ele>202.0</ele><time>2026-04-12T08:19:34.934Z</time></trkpt><trkpt lat="44.03543" lon="11.9955"><ele>198.99999999999997</ele><time>2026-04-12T08:19:36.934Z</time></trkpt><trkpt lat="44.0354083" lon="11.995415"><ele>196.0</ele><time>2026-04-12T08:19:38.934Z</time></trkpt><trkpt lat="44.0353883" lon="11.9952717"><ele>193.0</ele><time>2026-04-12T08:19:40.935Z</time></trkpt><trkpt lat="44.0353917" lon="11.99518"><ele>190.0</ele><time>2026-04-12T08:19:41.934Z</time></trkpt><trkpt lat="44.0354017" lon="11.9950933"><ele>187.0</ele><time>2026-04-12T08:19:42.934Z</time></trkpt><trkpt lat="44.0354417" lon="11.9949267"><ele>184.0</ele><time>2026-04-12T08:19:44.934Z</time></trkpt><trkpt lat="44.0354683" lon="11.994845"><ele>182.25</ele><time>2026-04-12T08:19:45.934Z</time></trkpt><trkpt lat="44.035505" lon="11.9946933"><ele>180.5</ele><time>2026-04-12T08:19:47.935Z</time></trkpt><trkpt lat="44.035545" lon="11.9945467"><ele>178.75</ele><time>2026-04-12T08:19:49.934Z</time></trkpt><trkpt lat="44.0356" lon="11.9943917"><ele>177.0</ele><time>2026-04-12T08:19:51.934Z</time></trkpt><trkpt lat="44.035655" lon="11.9942667"><ele>177.0</ele><time>2026-04-12T08:19:53.934Z</time></trkpt><trkpt lat="44.035675" lon="11.9941717"><ele>177.0</ele><time>2026-04-12T08:19:55.934Z</time></trkpt><trkpt lat="44.03565" lon="11.99406"><ele>177.0</ele><time>2026-04-12T08:19:57.935Z</time></trkpt><trkpt lat="44.0355967" lon="11.9939517"><ele>177.0</ele><time>2026-04-12T08:19:59.934Z</time></trkpt><trkpt lat="44.0355633" lon="11.9938383"><ele>177.0</ele><time>2026-04-12T08:20:01.935Z</time></trkpt><trkpt lat="44.0355667" lon="11.9936883"><ele>177.0</ele><time>2026-04-12T08:20:03.935Z</time></trkpt><trkpt lat="44.0356233" lon="11.9935467"><ele>175.6</ele><time>2026-04-12T08:20:05.934Z</time></trkpt><trkpt lat="44.0356883" lon="11.99344"><ele>174.2</ele><time>2026-04-12T08:20:07.934Z</time></trkpt><trkpt lat="44.0357417" lon="11.9933383"><ele>172.8</ele><time>2026-04-12T08:20:09.934Z</time></trkpt><trkpt lat="44.0357883" lon="11.993205"><ele>171.4</ele><time>2026-04-12T08:20:11.934Z</time></trkpt><trkpt lat="44.035835" lon="11.9930817"><ele>170.0</ele><time>2026-04-12T08:20:13.934Z</time></trkpt><trkpt lat="44.0358867" lon="11.9929817"><ele>166.6</ele><time>2026-04-12T08:20:15.935Z</time></trkpt><trkpt lat="44.0359317" lon="11.9929067"><ele>163.2</ele><time>2026-04-12T08:20:17.934Z</time></trkpt><trkpt lat="44.03597" lon="11.9928133"><ele>159.8</ele><time>2026-04-12T08:20:19.934Z</time></trkpt><trkpt lat="44.0360217" lon="11.9926933"><ele>156.4</ele><time>2026-04-12T08:20:21.934Z</time></trkpt><trkpt lat="44.03608" lon="11.9925633"><ele>153.0</ele><time>2026-04-12T08:20:23.934Z</time></trkpt><trkpt lat="44.0361433" lon="11.9924467"><ele>152.33333333333334</ele><time>2026-04-12T08:20:25.934Z</time></trkpt><trkpt lat="44.036215" lon="11.99237"><ele>151.66666666666666</ele><time>2026-04-12T08:20:27.934Z</time></trkpt><trkpt lat="44.03628" lon="11.992325"><ele>151.0</ele><time>2026-04-12T08:20:29.935Z</time></trkpt><trkpt lat="44.0363383" lon="11.99229"><ele>150.33333333333331</ele><time>2026-04-12T08:20:39.934Z</time></trkpt><trkpt lat="44.0363067" lon="11.9922067"><ele>149.66666666666666</ele><time>2026-04-12T08:20:42.935Z</time></trkpt><trkpt lat="44.0362567" lon="11.99213"><ele>149.0</ele><time>2026-04-12T08:20:43.935Z</time></trkpt><trkpt lat="44.0361917" lon="11.9920167"><ele>149.0</ele><time>2026-04-12T08:20:44.934Z</time></trkpt><trkpt lat="44.03611" lon="11.9918667"><ele>149.0</ele><time>2026-04-12T08:20:45.934Z</time></trkpt><trkpt lat="44.0360033" lon="11.9916983"><ele>149.0</ele><time>2026-04-12T08:20:46.934Z</time></trkpt><trkpt lat="44.0359067" lon="11.9915283"><ele>148.0</ele><time>2026-04-12T08:20:47.934Z</time></trkpt><trkpt lat="44.0358233" lon="11.9913817"><ele>147.0</ele><time>2026-04-12T08:20:48.934Z</time></trkpt><trkpt lat="44.0357367" lon="11.9912483"><ele>146.0</ele><time>2026-04-12T08:20:49.934Z</time></trkpt><trkpt lat="44.035655" lon="11.9911283"><ele>145.0</ele><time>2026-04-12T08:20:50.934Z</time></trkpt><trkpt lat="44.0355833" lon="11.9910167"><ele>145.33333333333334</ele><time>2026-04-12T08:20:51.934Z</time></trkpt><trkpt lat="44.0355167" lon="11.9909133"><ele>145.66666666666669</ele><time>2026-04-12T08:20:52.935Z</time></trkpt><trkpt lat="44.0354533" lon="11.9908133"><ele>146.0</ele><time>2026-04-12T08:20:53.935Z</time></trkpt><trkpt lat="44.0353933" lon="11.9907233"><ele>146.33333333333334</ele><time>2026-04-12T08:20:54.934Z</time></trkpt><trkpt lat="44.035335" lon="11.9906467"><ele>146.66666666666666</ele><time>2026-04-12T08:20:55.935Z</time></trkpt><trkpt lat="44.0352767" lon="11.9905833"><ele>147.0</ele><time>2026-04-12T08:20:56.934Z</time></trkpt><trkpt lat="44.035215" lon="11.9905483"><ele>147.0</ele><time>2026-04-12T08:20:57.934Z</time></trkpt><trkpt lat="44.035135" lon="11.990535"><ele>147.0</ele><time>2026-04-12T08:20:58.934Z</time></trkpt><trkpt lat="44.0350517" lon="11.9905433"><ele>147.0</ele><time>2026-04-12T08:20:59.935Z</time></trkpt><trkpt lat="44.03497" lon="11.9905867"><ele>147.0</ele><time>2026-04-12T08:21:00.934Z</time></trkpt><trkpt lat="44.03489" lon="11.9906417"><ele>147.0</ele><time>2026-04-12T08:21:01.934Z</time></trkpt><trkpt lat="44.0348083" lon="11.9907117"><ele>147.0</ele><time>2026-04-12T08:21:02.934Z</time></trkpt><trkpt lat="44.0347333" lon="11.990795"><ele>149.2</ele><time>2026-04-12T08:21:03.934Z</time></trkpt><trkpt lat="44.0346767" lon="11.990915"><ele>151.39999999999998</ele><time>2026-04-12T08:21:04.934Z</time></trkpt><trkpt lat="44.03466" lon="11.99108"><ele>153.60000000000002</ele><time>2026-04-12T08:21:05.935Z</time></trkpt><trkpt lat="44.034645" lon="11.9912233"><ele>155.8</ele><time>2026-04-12T08:21:06.934Z</time></trkpt><trkpt lat="44.034625" lon="11.991345"><ele>158.0</ele><time>2026-04-12T08:21:07.934Z</time></trkpt><trkpt lat="44.0345883" lon="11.9914483"><ele>158.0</ele><time>2026-04-12T08:21:08.934Z</time></trkpt><trkpt lat="44.0345417" lon="11.991535"><ele>158.0</ele><time>2026-04-12T08:21:09.934Z</time></trkpt><trkpt lat="44.0344817" lon="11.9916067"><ele>158.0</ele><time>2026-04-12T08:21:10.934Z</time></trkpt><trkpt lat="44.0344117" lon="11.991655"><ele>158.0</ele><time>2026-04-12T08:21:11.934Z</time></trkpt><trkpt lat="44.0343467" lon="11.9916817"><ele>158.0</ele><time>2026-04-12T08:21:12.935Z</time></trkpt><trkpt lat="44.0342767" lon="11.9917367"><ele>158.0</ele><time>2026-04-12T08:21:14.934Z</time></trkpt><trkpt lat="44.034225" lon="11.991835"><ele>159.33333333333331</ele><time>2026-04-12T08:21:16.934Z</time></trkpt><trkpt lat="44.03417" lon="11.9919783"><ele>160.66666666666666</ele><time>2026-04-12T08:21:18.934Z</time></trkpt><trkpt lat="44.0341367" lon="11.9920633"><ele>162.0</ele><time>2026-04-12T08:21:19.934Z</time></trkpt><trkpt lat="44.0341033" lon="11.9921517"><ele>163.33333333333334</ele><time>2026-04-12T08:21:20.934Z</time></trkpt><trkpt lat="44.0340567" lon="11.9922467"><ele>164.66666666666669</ele><time>2026-04-12T08:21:21.934Z</time></trkpt><trkpt lat="44.0339983" lon="11.99233"><ele>166.0</ele><time>2026-04-12T08:21:22.934Z</time></trkpt><trkpt lat="44.0339383" lon="11.9924117"><ele>167.33333333333334</ele><time>2026-04-12T08:21:23.934Z</time></trkpt><trkpt lat="44.0338817" lon="11.992495"><ele>168.66666666666669</ele><time>2026-04-12T08:21:24.935Z</time></trkpt><trkpt lat="44.033835" lon="11.9925867"><ele>170.0</ele><time>2026-04-12T08:21:25.935Z</time></trkpt><trkpt lat="44.0337983" lon="11.9926733"><ele>171.33333333333334</ele><time>2026-04-12T08:21:26.933Z</time></trkpt><trkpt lat="44.0337717" lon="11.99283"><ele>172.66666666666666</ele><time>2026-04-12T08:21:28.933Z</time></trkpt><trkpt lat="44.0337833" lon="11.992925"><ele>174.0</ele><time>2026-04-12T08:21:29.933Z</time></trkpt><trkpt lat="44.0338017" lon="11.9930333"><ele>176.33333333333334</ele><time>2026-04-12T08:21:30.933Z</time></trkpt><trkpt lat="44.0338233" lon="11.993135"><ele>178.66666666666666</ele><time>2026-04-12T08:21:31.934Z</time></trkpt><trkpt lat="44.0338467" lon="11.99325"><ele>181.0</ele><time>2026-04-12T08:21:32.933Z</time></trkpt><trkpt lat="44.0338733" lon="11.9933583"><ele>183.33333333333331</ele><time>2026-04-12T08:21:33.933Z</time></trkpt><trkpt lat="44.033905" lon="11.9934667"><ele>185.66666666666666</ele><time>2026-04-12T08:21:34.933Z</time></trkpt><trkpt lat="44.03394" lon="11.9935767"><ele>188.0</ele><time>2026-04-12T08:21:35.933Z</time></trkpt><trkpt lat="44.0339633" lon="11.9936883"><ele>189.16666666666666</ele><time>2026-04-12T08:21:36.933Z</time></trkpt><trkpt lat="44.0339883" lon="11.993815"><ele>190.33333333333331</ele><time>2026-04-12T08:21:37.933Z</time></trkpt><trkpt lat="44.0340267" lon="11.99393"><ele>191.5</ele><time>2026-04-12T08:21:38.934Z</time></trkpt><trkpt lat="44.03408" lon="11.9940383"><ele>192.66666666666666</ele><time>2026-04-12T08:21:39.934Z</time></trkpt><trkpt lat="44.0341417" lon="11.99413"><ele>193.83333333333334</ele><time>2026-04-12T08:21:40.934Z</time></trkpt><trkpt lat="44.0341883" lon="11.9942133"><ele>195.0</ele><time>2026-04-12T08:21:41.934Z</time></trkpt><trkpt lat="44.034225" lon="11.994305"><ele>197.33333333333334</ele><time>2026-04-12T08:21:42.933Z</time></trkpt><trkpt lat="44.034245" lon="11.9944133"><ele>199.66666666666669</ele><time>2026-04-12T08:21:43.933Z</time></trkpt><trkpt lat="44.034245" lon="11.9945367"><ele>202.0</ele><time>2026-04-12T08:21:44.934Z</time></trkpt><trkpt lat="44.0342317" lon="11.9946667"><ele>204.33333333333334</ele><time>2026-04-12T08:21:45.933Z</time></trkpt><trkpt lat="44.0342183" lon="11.9947933"><ele>206.66666666666669</ele><time>2026-04-12T08:21:46.933Z</time></trkpt><trkpt lat="44.0342" lon="11.9949033"><ele>209.0</ele><time>2026-04-12T08:21:47.934Z</time></trkpt><trkpt lat="44.0341917" lon="11.9950067"><ele>209.66666666666669</ele><time>2026-04-12T08:21:48.933Z</time></trkpt><trkpt lat="44.0342033" lon="11.9950983"><ele>210.33333333333334</ele><time>2026-04-12T08:21:49.933Z</time></trkpt><trkpt lat="44.0342533" lon="11.9952633"><ele>211.0</ele><time>2026-04-12T08:21:51.934Z</time></trkpt><trkpt lat="44.034285" lon="11.995355"><ele>211.66666666666669</ele><time>2026-04-12T08:21:52.933Z</time></trkpt><trkpt lat="44.0342917" lon="11.99545"><ele>212.33333333333334</ele><time>2026-04-12T08:21:53.933Z</time></trkpt><trkpt lat="44.0342683" lon="11.9955433"><ele>213.0</ele><time>2026-04-12T08:21:54.933Z</time></trkpt><trkpt lat="44.0342233" lon="11.9956367"><ele>213.0</ele><time>2026-04-12T08:21:55.933Z</time></trkpt><trkpt lat="44.0341567" lon="11.9957367"><ele>213.0</ele><time>2026-04-12T08:21:56.933Z</time></trkpt><trkpt lat="44.03408" lon="11.99583"><ele>213.0</ele><time>2026-04-12T08:21:57.934Z</time></trkpt><trkpt lat="44.0340117" lon="11.9959233"><ele>213.0</ele><time>2026-04-12T08:21:58.933Z</time></trkpt><trkpt lat="44.03394" lon="11.9960017"><ele>213.0</ele><time>2026-04-12T08:21:59.933Z</time></trkpt><trkpt lat="44.0338617" lon="11.9960667"><ele>216.16666666666666</ele><time>2026-04-12T08:22:00.934Z</time></trkpt><trkpt lat="44.0337833" lon="11.996125"><ele>219.33333333333331</ele><time>2026-04-12T08:22:01.933Z</time></trkpt><trkpt lat="44.033705" lon="11.9961667"><ele>222.5</ele><time>2026-04-12T08:22:02.933Z</time></trkpt><trkpt lat="44.0336317" lon="11.99619"><ele>225.66666666666666</ele><time>2026-04-12T08:22:03.933Z</time></trkpt><trkpt lat="44.0335633" lon="11.9961683"><ele>228.83333333333331</ele><time>2026-04-12T08:22:04.933Z</time></trkpt><trkpt lat="44.0334933" lon="11.9961183"><ele>232.0</ele><time>2026-04-12T08:22:05.933Z</time></trkpt><trkpt lat="44.0334167" lon="11.9960617"><ele>231.99999999999997</ele><time>2026-04-12T08:22:06.933Z</time></trkpt><trkpt lat="44.0333417" lon="11.9959983"><ele>232.0</ele><time>2026-04-12T08:22:07.933Z</time></trkpt><trkpt lat="44.0332717" lon="11.9959367"><ele>232.0</ele><time>2026-04-12T08:22:08.934Z</time></trkpt><trkpt lat="44.0332067" lon="11.995865"><ele>232.0</ele><time>2026-04-12T08:22:09.934Z</time></trkpt><trkpt lat="44.0331417" lon="11.9957917"><ele>231.99999999999997</ele><time>2026-04-12T08:22:10.934Z</time></trkpt><trkpt lat="44.0330783" lon="11.995725"><ele>232.0</ele><time>2026-04-12T08:22:11.933Z</time></trkpt><trkpt lat="44.0330033" lon="11.9956667"><ele>240.2</ele><time>2026-04-12T08:22:12.933Z</time></trkpt><trkpt lat="44.0329183" lon="11.99561"><ele>248.39999999999998</ele><time>2026-04-12T08:22:13.933Z</time></trkpt><trkpt lat="44.032835" lon="11.9955417"><ele>256.6</ele><time>2026-04-12T08:22:14.933Z</time></trkpt><trkpt lat="44.0327517" lon="11.9954667"><ele>264.8</ele><time>2026-04-12T08:22:15.933Z</time></trkpt><trkpt lat="44.0326783" lon="11.995385"><ele>273.0</ele><time>2026-04-12T08:22:16.933Z</time></trkpt><trkpt lat="44.0326083" lon="11.995305"><ele>273.0</ele><time>2026-04-12T08:22:17.933Z</time></trkpt><trkpt lat="44.03254" lon="11.9952233"><ele>273.0</ele><time>2026-04-12T08:22:18.933Z</time></trkpt><trkpt lat="44.0324767" lon="11.9951383"><ele>273.0</ele><time>2026-04-12T08:22:19.933Z</time></trkpt><trkpt lat="44.0324167" lon="11.99505"><ele>273.0</ele><time>2026-04-12T08:22:20.933Z</time></trkpt><trkpt lat="44.032365" lon="11.9949733"><ele>273.0</ele><time>2026-04-12T08:22:21.933Z</time></trkpt><trkpt lat="44.032315" lon="11.99492"><ele>273.0</ele><time>2026-04-12T08:22:22.933Z</time></trkpt><trkpt lat="44.0321967" lon="11.99489"><ele>273.3333333333333</ele><time>2026-04-12T08:22:24.933Z</time></trkpt><trkpt lat="44.0321267" lon="11.9949167"><ele>273.6666666666667</ele><time>2026-04-12T08:22:25.934Z</time></trkpt><trkpt lat="44.0320533" lon="11.9949583"><ele>274.0</ele><time>2026-04-12T08:22:26.933Z</time></trkpt><trkpt lat="44.031975" lon="11.9950133"><ele>274.33333333333337</ele><time>2026-04-12T08:22:27.933Z</time></trkpt><trkpt lat="44.031905" lon="11.9950717"><ele>274.6666666666667</ele><time>2026-04-12T08:22:28.933Z</time></trkpt><trkpt lat="44.0318317" lon="11.995125"><ele>275.0</ele><time>2026-04-12T08:22:29.934Z</time></trkpt><trkpt lat="44.0317517" lon="11.9951567"><ele>280.0</ele><time>2026-04-12T08:22:30.933Z</time></trkpt><trkpt lat="44.031665" lon="11.995175"><ele>285.0</ele><time>2026-04-12T08:22:31.933Z</time></trkpt><trkpt lat="44.0315833" lon="11.9951783"><ele>290.0</ele><time>2026-04-12T08:22:32.933Z</time></trkpt><trkpt lat="44.0314967" lon="11.99518"><ele>295.0</ele><time>2026-04-12T08:22:33.933Z</time></trkpt><trkpt lat="44.0314167" lon="11.99519"><ele>300.0</ele><time>2026-04-12T08:22:34.933Z</time></trkpt><trkpt lat="44.0313367" lon="11.9951967"><ele>305.0</ele><time>2026-04-12T08:22:35.933Z</time></trkpt><trkpt lat="44.031255" lon="11.9951917"><ele>305.6666666666667</ele><time>2026-04-12T08:22:36.933Z</time></trkpt><trkpt lat="44.0311683" lon="11.9951817"><ele>306.33333333333337</ele><time>2026-04-12T08:22:37.933Z</time></trkpt><trkpt lat="44.0310783" lon="11.995185"><ele>307.0</ele><time>2026-04-12T08:22:38.934Z</time></trkpt><trkpt lat="44.0309917" lon="11.9952033"><ele>307.6666666666667</ele><time>2026-04-12T08:22:39.933Z</time></trkpt><trkpt lat="44.0309167" lon="11.9952267"><ele>308.3333333333333</ele><time>2026-04-12T08:22:40.933Z</time></trkpt><trkpt lat="44.0308517" lon="11.9952633"><ele>309.0</ele><time>2026-04-12T08:22:41.933Z</time></trkpt><trkpt lat="44.03078" lon="11.99532"><ele>309.0</ele><time>2026-04-12T08:22:42.933Z</time></trkpt><trkpt lat="44.030705" lon="11.9954117"><ele>309.0</ele><time>2026-04-12T08:22:43.933Z</time></trkpt><trkpt lat="44.0306233" lon="11.9955233"><ele>309.0</ele><time>2026-04-12T08:22:44.933Z</time></trkpt><trkpt lat="44.0305383" lon="11.9956267"><ele>309.0</ele><time>2026-04-12T08:22:45.933Z</time></trkpt><trkpt lat="44.030475" lon="11.99571"><ele>309.0</ele><time>2026-04-12T08:22:46.933Z</time></trkpt><trkpt lat="44.0303917" lon="11.9957967"><ele>309.0</ele><time>2026-04-12T08:22:48.933Z</time></trkpt><trkpt lat="44.0304083" lon="11.9959"><ele>309.0</ele><time>2026-04-12T08:22:51.933Z</time></trkpt><trkpt lat="44.0304983" lon="11.9959033"><ele>309.0</ele><time>2026-04-12T08:22:53.933Z</time></trkpt><trkpt lat="44.03056" lon="11.99588"><ele>309.0</ele><time>2026-04-12T08:22:54.934Z</time></trkpt><trkpt lat="44.0306233" lon="11.99585"><ele>309.0</ele><time>2026-04-12T08:22:55.933Z</time></trkpt><trkpt lat="44.030685" lon="11.9958217"><ele>309.0</ele><time>2026-04-12T08:22:56.933Z</time></trkpt><trkpt lat="44.030795" lon="11.9957617"><ele>310.2</ele><time>2026-04-12T08:22:58.933Z</time></trkpt><trkpt lat="44.030905" lon="11.9957183"><ele>311.4</ele><time>2026-04-12T08:23:00.933Z</time></trkpt><trkpt lat="44.0310083" lon="11.9957417"><ele>312.6</ele><time>2026-04-12T08:23:02.933Z</time></trkpt><trkpt lat="44.0310783" lon="11.995785"><ele>313.8</ele><time>2026-04-12T08:23:05.933Z</time></trkpt><trkpt lat="44.0309867" lon="11.9957333"><ele>315.0</ele><time>2026-04-12T08:23:15.933Z</time></trkpt><trkpt lat="44.030905" lon="11.9957117"><ele>315.0</ele><time>2026-04-12T08:23:17.933Z</time></trkpt><trkpt lat="44.03081" lon="11.9957333"><ele>315.0</ele><time>2026-04-12T08:23:19.933Z</time></trkpt><trkpt lat="44.030715" lon="11.995785"><ele>315.0</ele><time>2026-04-12T08:23:21.933Z</time></trkpt><trkpt lat="44.0306367" lon="11.995845"><ele>315.0</ele><time>2026-04-12T08:23:23.934Z</time></trkpt><trkpt lat="44.03056" lon="11.9958867"><ele>315.0</ele><time>2026-04-12T08:23:25.934Z</time></trkpt><trkpt lat="44.0304717" lon="11.9959233"><ele>318.0</ele><time>2026-04-12T08:23:27.933Z</time></trkpt><trkpt lat="44.0303983" lon="11.9958883"><ele>321.0</ele><time>2026-04-12T08:23:29.934Z</time></trkpt><trkpt lat="44.030335" lon="11.9958517"><ele>324.0</ele><time>2026-04-12T08:23:32.933Z</time></trkpt><trkpt lat="44.0302617" lon="11.9959067"><ele>327.0</ele><time>2026-04-12T08:23:35.933Z</time></trkpt><trkpt lat="44.0302083" lon="11.9959533"><ele>330.0</ele><time>2026-04-12T08:23:38.933Z</time></trkpt><trkpt lat="44.0301517" lon="11.9960217"><ele>333.0</ele><time>2026-04-12T08:23:41.933Z</time></trkpt><trkpt lat="44.0300883" lon="11.996075"><ele>336.0</ele><time>2026-04-12T08:23:43.934Z</time></trkpt><trkpt lat="44.0300083" lon="11.9960967"><ele>337.1666666666667</ele><time>2026-04-12T08:23:45.933Z</time></trkpt><trkpt lat="44.0299317" lon="11.9961217"><ele>338.3333333333333</ele><time>2026-04-12T08:23:47.933Z</time></trkpt><trkpt lat="44.02985" lon="11.9961283"><ele>339.5</ele><time>2026-04-12T08:23:49.933Z</time></trkpt><trkpt lat="44.0297783" lon="11.996155"><ele>340.66666666666663</ele><time>2026-04-12T08:23:51.934Z</time></trkpt><trkpt lat="44.02971" lon="11.9961933"><ele>341.8333333333333</ele><time>2026-04-12T08:23:53.933Z</time></trkpt><trkpt lat="44.029645" lon="11.9962167"><ele>343.0</ele><time>2026-04-12T08:23:55.933Z</time></trkpt><trkpt lat="44.0295717" lon="11.9962367"><ele>343.0</ele><time>2026-04-12T08:23:58.933Z</time></trkpt><trkpt lat="44.029495" lon="11.99627"><ele>343.0</ele><time>2026-04-12T08:24:12.933Z</time></trkpt><trkpt lat="44.02942" lon="11.9962767"><ele>343.0</ele><time>2026-04-12T08:24:15.934Z</time></trkpt><trkpt lat="44.0294267" lon="11.996405"><ele>343.0</ele><time>2026-04-12T08:25:09.934Z</time></trkpt><trkpt lat="44.0295117" lon="11.99642"><ele>343.0</ele><time>2026-04-12T08:25:12.933Z</time></trkpt><trkpt lat="44.0296067" lon="11.99641"><ele>343.0</ele><time>2026-04-12T08:25:15.934Z</time></trkpt><trkpt lat="44.0296783" lon="11.9964117"><ele>343.0</ele><time>2026-04-12T08:25:17.933Z</time></trkpt><trkpt lat="44.0297517" lon="11.9964683"><ele>343.0</ele><time>2026-04-12T08:25:36.933Z</time></trkpt><trkpt lat="44.0298183" lon="11.9965233"><ele>343.0</ele><time>2026-04-12T08:25:39.934Z</time></trkpt><trkpt lat="44.02987" lon="11.9966083"><ele>343.0</ele><time>2026-04-12T08:26:01.933Z</time></trkpt><trkpt lat="44.0299283" lon="11.99665"><ele>343.0</ele><time>2026-04-12T08:26:03.933Z</time></trkpt><trkpt lat="44.0299817" lon="11.99671"><ele>343.0</ele><time>2026-04-12T08:26:06.933Z</time></trkpt><trkpt lat="44.0300383" lon="11.9967683"><ele>343.0</ele><time>2026-04-12T08:26:26.934Z</time></trkpt><trkpt lat="44.0300967" lon="11.9968383"><ele>345.3333333333333</ele><time>2026-04-12T08:27:54.932Z</time></trkpt><trkpt lat="44.03017" lon="11.9968933"><ele>347.66666666666663</ele><time>2026-04-12T08:33:02.931Z</time></trkpt><trkpt lat="44.03003" lon="11.9968633"><ele>350.0</ele><time>2026-04-12T08:38:55.931Z</time></trkpt><trkpt lat="44.02996" lon="11.9968133"><ele>352.3333333333333</ele><time>2026-04-12T08:39:00.93Z</time></trkpt><trkpt lat="44.02989" lon="11.9968183"><ele>354.6666666666667</ele><time>2026-04-12T08:39:04.929Z</time></trkpt><trkpt lat="44.029925" lon="11.9969033"><ele>357.0</ele><time>2026-04-12T08:39:10.93Z</time></trkpt><trkpt lat="44.0299767" lon="11.9969717"><ele>357.0</ele><time>2026-04-12T08:39:13.93Z</time></trkpt><trkpt lat="44.030035" lon="11.9970233"><ele>357.0</ele><time>2026-04-12T08:39:16.929Z</time></trkpt><trkpt lat="44.030115" lon="11.997065"><ele>357.0</ele><time>2026-04-12T08:39:19.929Z</time></trkpt><trkpt lat="44.0301783" lon="11.997075"><ele>357.0</ele><time>2026-04-12T08:39:21.929Z</time></trkpt><trkpt lat="44.0302417" lon="11.99708"><ele>357.0</ele><time>2026-04-12T08:39:23.929Z</time></trkpt><trkpt lat="44.03031" lon="11.9970883"><ele>357.0</ele><time>2026-04-12T08:39:25.929Z</time></trkpt><trkpt lat="44.0303867" lon="11.9971267"><ele>357.0</ele><time>2026-04-12T08:39:28.93Z</time></trkpt><trkpt lat="44.0304483" lon="11.9971533"><ele>357.0</ele><time>2026-04-12T08:39:31.929Z</time></trkpt><trkpt lat="44.0305033" lon="11.9972233"><ele>357.0</ele><time>2026-04-12T08:39:34.93Z</time></trkpt><trkpt lat="44.0305583" lon="11.9972817"><ele>357.0</ele><time>2026-04-12T08:39:37.93Z</time></trkpt><trkpt lat="44.0305783" lon="11.9973833"><ele>357.0</ele><time>2026-04-12T08:39:39.93Z</time></trkpt><trkpt lat="44.0306017" lon="11.997465"><ele>357.0</ele><time>2026-04-12T08:39:41.93Z</time></trkpt><trkpt lat="44.0306067" lon="11.9975617"><ele>357.0</ele><time>2026-04-12T08:39:44.93Z</time></trkpt><trkpt lat="44.0305967" lon="11.99767"><ele>357.0</ele><time>2026-04-12T08:39:47.929Z</time></trkpt><trkpt lat="44.0305183" lon="11.99774"><ele>358.7142857142857</ele><time>2026-04-12T08:39:51.929Z</time></trkpt><trkpt lat="44.03047" lon="11.9977983"><ele>360.42857142857144</ele><time>2026-04-12T08:39:53.929Z</time></trkpt><trkpt lat="44.0304217" lon="11.9978633"><ele>362.1428571428571</ele><time>2026-04-12T08:39:55.929Z</time></trkpt><trkpt lat="44.0303767" lon="11.9979317"><ele>363.8571428571429</ele><time>2026-04-12T08:39:57.929Z</time></trkpt><trkpt lat="44.0303333" lon="11.9980017"><ele>365.57142857142856</ele><time>2026-04-12T08:39:59.929Z</time></trkpt><trkpt lat="44.0302817" lon="11.9980567"><ele>367.2857142857143</ele><time>2026-04-12T08:40:01.929Z</time></trkpt><trkpt lat="44.0302217" lon="11.9981383"><ele>369.0</ele><time>2026-04-12T08:40:04.929Z</time></trkpt><trkpt lat="44.030275" lon="11.998085"><ele>369.0</ele><time>2026-04-12T08:40:50.93Z</time></trkpt><trkpt lat="44.030335" lon="11.99802"><ele>369.0</ele><time>2026-04-12T08:40:52.93Z</time></trkpt><trkpt lat="44.0303833" lon="11.9979433"><ele>369.0</ele><time>2026-04-12T08:40:54.929Z</time></trkpt><trkpt lat="44.0304217" lon="11.9978633"><ele>369.0</ele><time>2026-04-12T08:40:56.929Z</time></trkpt><trkpt lat="44.0304383" lon="11.99777"><ele>369.0</ele><time>2026-04-12T08:41:00.93Z</time></trkpt><trkpt lat="44.03043" lon="11.997665"><ele>369.0</ele><time>2026-04-12T08:41:03.929Z</time></trkpt><trkpt lat="44.030385" lon="11.9975817"><ele>369.0</ele><time>2026-04-12T08:41:06.93Z</time></trkpt><trkpt lat="44.0303167" lon="11.9975417"><ele>369.0</ele><time>2026-04-12T08:41:11.929Z</time></trkpt><trkpt lat="44.03024" lon="11.997555"><ele>369.0</ele><time>2026-04-12T08:45:44.929Z</time></trkpt><trkpt lat="44.030265" lon="11.99766"><ele>369.0</ele><time>2026-04-12T08:45:48.929Z</time></trkpt><trkpt lat="44.0303217" lon="11.9977183"><ele>369.0</ele><time>2026-04-12T08:45:50.928Z</time></trkpt><trkpt lat="44.0303717" lon="11.997805"><ele>369.0</ele><time>2026-04-12T08:45:53.928Z</time></trkpt><trkpt lat="44.0303717" lon="11.997895"><ele>369.0</ele><time>2026-04-12T08:45:56.928Z</time></trkpt><trkpt lat="44.0303617" lon="11.9979917"><ele>369.0</ele><time>2026-04-12T08:45:59.929Z</time></trkpt><trkpt lat="44.0303017" lon="11.9980617"><ele>369.0</ele><time>2026-04-12T08:46:01.928Z</time></trkpt><trkpt lat="44.0302217" lon="11.9981283"><ele>369.0</ele><time>2026-04-12T08:47:47.927Z</time></trkpt><trkpt lat="44.0301567" lon="11.99818"><ele>369.0</ele><time>2026-04-12T08:47:49.927Z</time></trkpt><trkpt lat="44.030085" lon="11.99826"><ele>369.0</ele><time>2026-04-12T08:47:51.928Z</time></trkpt><trkpt lat="44.0299783" lon="11.9983667"><ele>369.0</ele><time>2026-04-12T08:47:53.928Z</time></trkpt><trkpt lat="44.0299233" lon="11.9984267"><ele>375.1428571428571</ele><time>2026-04-12T08:47:54.928Z</time></trkpt><trkpt lat="44.0298717" lon="11.9984867"><ele>381.2857142857143</ele><time>2026-04-12T08:47:55.927Z</time></trkpt><trkpt lat="44.02981" lon="11.9985267"><ele>387.42857142857144</ele><time>2026-04-12T08:47:56.928Z</time></trkpt><trkpt lat="44.0297433" lon="11.9985517"><ele>393.57142857142856</ele><time>2026-04-12T08:47:57.927Z</time></trkpt><trkpt lat="44.029675" lon="11.9985583"><ele>399.7142857142857</ele><time>2026-04-12T08:47:58.927Z</time></trkpt><trkpt lat="44.029605" lon="11.9985533"><ele>405.85714285714283</ele><time>2026-04-12T08:47:59.928Z</time></trkpt><trkpt lat="44.0295417" lon="11.99853"><ele>412.0</ele><time>2026-04-12T08:48:00.927Z</time></trkpt><trkpt lat="44.02948" lon="11.998495"><ele>412.00000000000006</ele><time>2026-04-12T08:48:01.927Z</time></trkpt><trkpt lat="44.0293967" lon="11.9984717"><ele>412.0</ele><time>2026-04-12T08:48:03.927Z</time></trkpt><trkpt lat="44.0293783" lon="11.9986033"><ele>412.0</ele><time>2026-04-12T08:48:30.927Z</time></trkpt><trkpt lat="44.0293983" lon="11.9987017"><ele>412.0</ele><time>2026-04-12T08:48:32.927Z</time></trkpt><trkpt lat="44.0294417" lon="11.9988333"><ele>412.00000000000006</ele><time>2026-04-12T08:48:34.927Z</time></trkpt><trkpt lat="44.0294783" lon="11.9989083"><ele>412.0</ele><time>2026-04-12T08:48:35.927Z</time></trkpt><trkpt lat="44.0295333" lon="11.999055"><ele>410.00000000000006</ele><time>2026-04-12T08:48:37.927Z</time></trkpt><trkpt lat="44.02956" lon="11.9991967"><ele>408.0</ele><time>2026-04-12T08:48:39.927Z</time></trkpt><trkpt lat="44.0295717" lon="11.99931"><ele>406.0</ele><time>2026-04-12T08:48:41.927Z</time></trkpt><trkpt lat="44.0295733" lon="11.9994083"><ele>404.0</ele><time>2026-04-12T08:48:43.928Z</time></trkpt><trkpt lat="44.0295717" lon="11.9995333"><ele>402.00000000000006</ele><time>2026-04-12T08:48:46.927Z</time></trkpt><trkpt lat="44.0295217" lon="11.9996217"><ele>400.0</ele><time>2026-04-12T08:48:49.927Z</time></trkpt><trkpt lat="44.0294533" lon="11.9996467"><ele>400.0</ele><time>2026-04-12T08:48:58.927Z</time></trkpt><trkpt lat="44.0293917" lon="11.9996667"><ele>400.0</ele><time>2026-04-12T08:49:00.927Z</time></trkpt><trkpt lat="44.0293" lon="11.9996833"><ele>400.0</ele><time>2026-04-12T08:49:02.927Z</time></trkpt><trkpt lat="44.0291883" lon="11.9997117"><ele>400.0</ele><time>2026-04-12T08:49:04.927Z</time></trkpt><trkpt lat="44.0290767" lon="11.9997283"><ele>400.0</ele><time>2026-04-12T08:49:06.928Z</time></trkpt><trkpt lat="44.0289983" lon="11.9997117"><ele>400.00000000000006</ele><time>2026-04-12T08:49:08.927Z</time></trkpt><trkpt lat="44.028925" lon="11.9996933"><ele>400.0</ele><time>2026-04-12T08:49:16.927Z</time></trkpt><trkpt lat="44.0288383" lon="11.9997233"><ele>400.0</ele><time>2026-04-12T08:49:19.927Z</time></trkpt><trkpt lat="44.0289133" lon="11.9997317"><ele>400.0</ele><time>2026-04-12T08:51:23.926Z</time></trkpt><trkpt lat="44.02902" lon="11.9997567"><ele>400.00000000000006</ele><time>2026-04-12T08:51:25.926Z</time></trkpt><trkpt lat="44.0291167" lon="11.9997667"><ele>400.0</ele><time>2026-04-12T08:51:27.927Z</time></trkpt><trkpt lat="44.0291883" lon="11.9997383"><ele>400.0</ele><time>2026-04-12T08:51:29.926Z</time></trkpt><trkpt lat="44.029275" lon="11.9997183"><ele>400.0</ele><time>2026-04-12T08:51:31.926Z</time></trkpt><trkpt lat="44.0293833" lon="11.99969"><ele>400.0</ele><time>2026-04-12T08:51:33.926Z</time></trkpt><trkpt lat="44.02949" lon="11.9996517"><ele>400.0</ele><time>2026-04-12T08:51:35.926Z</time></trkpt><trkpt lat="44.0295517" lon="11.99959"><ele>400.0</ele><time>2026-04-12T08:51:37.926Z</time></trkpt><trkpt lat="44.0295683" lon="11.9994733"><ele>400.0</ele><time>2026-04-12T08:51:40.927Z</time></trkpt><trkpt lat="44.029575" lon="11.9993517"><ele>400.0</ele><time>2026-04-12T08:51:42.926Z</time></trkpt><trkpt lat="44.0295717" lon="11.99922"><ele>400.0</ele><time>2026-04-12T08:51:44.927Z</time></trkpt><trkpt lat="44.0295333" lon="11.9990633"><ele>400.0</ele><time>2026-04-12T08:51:46.926Z</time></trkpt><trkpt lat="44.0294767" lon="11.9989217"><ele>400.0</ele><time>2026-04-12T08:51:48.927Z</time></trkpt><trkpt lat="44.0294317" lon="11.9988217"><ele>402.00000000000006</ele><time>2026-04-12T08:51:50.926Z</time></trkpt><trkpt lat="44.0293983" lon="11.9987433"><ele>404.0</ele><time>2026-04-12T08:51:52.926Z</time></trkpt><trkpt lat="44.0293733" lon="11.9986583"><ele>406.0</ele><time>2026-04-12T08:51:55.926Z</time></trkpt><trkpt lat="44.02937" lon="11.99857"><ele>408.0</ele><time>2026-04-12T08:51:58.926Z</time></trkpt><trkpt lat="44.0293267" lon="11.9984517"><ele>410.00000000000006</ele><time>2026-04-12T08:52:07.926Z</time></trkpt><trkpt lat="44.0292483" lon="11.9984383"><ele>412.0</ele><time>2026-04-12T08:52:09.927Z</time></trkpt><trkpt lat="44.0291617" lon="11.9984133"><ele>412.8</ele><time>2026-04-12T08:52:11.927Z</time></trkpt><trkpt lat="44.0290867" lon="11.9983733"><ele>413.6</ele><time>2026-04-12T08:52:13.927Z</time></trkpt><trkpt lat="44.0290083" lon="11.998345"><ele>414.40000000000003</ele><time>2026-04-12T08:52:15.926Z</time></trkpt><trkpt lat="44.0289383" lon="11.998315"><ele>415.20000000000005</ele><time>2026-04-12T08:52:17.926Z</time></trkpt><trkpt lat="44.02885" lon="11.9983317"><ele>416.0</ele><time>2026-04-12T08:52:19.926Z</time></trkpt><trkpt lat="44.0287217" lon="11.9983817"><ele>419.8333333333333</ele><time>2026-04-12T08:53:18.926Z</time></trkpt><trkpt lat="44.0286417" lon="11.9984367"><ele>423.66666666666663</ele><time>2026-04-12T08:53:22.926Z</time></trkpt><trkpt lat="44.02853" lon="11.9985067"><ele>427.5</ele><time>2026-04-12T08:54:46.925Z</time></trkpt><trkpt lat="44.02847" lon="11.9985467"><ele>431.33333333333337</ele><time>2026-04-12T08:54:49.925Z</time></trkpt><trkpt lat="44.02841" lon="11.9985767"><ele>435.1666666666667</ele><time>2026-04-12T08:54:51.925Z</time></trkpt><trkpt lat="44.0283467" lon="11.9985817"><ele>439.0</ele><time>2026-04-12T08:54:53.925Z</time></trkpt><trkpt lat="44.0282767" lon="11.9986017"><ele>441.0</ele><time>2026-04-12T08:54:56.925Z</time></trkpt><trkpt lat="44.0282067" lon="11.9985517"><ele>443.0</ele><time>2026-04-12T08:55:14.925Z</time></trkpt><trkpt lat="44.028125" lon="11.9984967"><ele>445.0</ele><time>2026-04-12T08:55:16.926Z</time></trkpt><trkpt lat="44.028045" lon="11.99844"><ele>447.0</ele><time>2026-04-12T08:55:18.925Z</time></trkpt><trkpt lat="44.027955" lon="11.9983633"><ele>449.0</ele><time>2026-04-12T08:55:20.925Z</time></trkpt><trkpt lat="44.0278733" lon="11.9982617"><ele>443.99999999999994</ele><time>2026-04-12T08:55:22.925Z</time></trkpt><trkpt lat="44.027815" lon="11.99818"><ele>439.0</ele><time>2026-04-12T08:55:24.925Z</time></trkpt><trkpt lat="44.0277483" lon="11.9981533"><ele>434.0</ele><time>2026-04-12T08:55:26.926Z</time></trkpt><trkpt lat="44.027675" lon="11.99816"><ele>429.0</ele><time>2026-04-12T08:55:28.925Z</time></trkpt><trkpt lat="44.0275917" lon="11.9981667"><ele>423.99999999999994</ele><time>2026-04-12T08:55:30.925Z</time></trkpt><trkpt lat="44.0275167" lon="11.9981667"><ele>419.0</ele><time>2026-04-12T08:55:32.925Z</time></trkpt><trkpt lat="44.02745" lon="11.9981683"><ele>418.99999999999994</ele><time>2026-04-12T08:55:34.926Z</time></trkpt><trkpt lat="44.027375" lon="11.9981933"><ele>419.0</ele><time>2026-04-12T08:55:36.925Z</time></trkpt><trkpt lat="44.02731" lon="11.99824"><ele>419.0</ele><time>2026-04-12T08:55:38.925Z</time></trkpt><trkpt lat="44.0272183" lon="11.9982833"><ele>419.0</ele><time>2026-04-12T08:55:40.925Z</time></trkpt><trkpt lat="44.0271283" lon="11.99832"><ele>418.99999999999994</ele><time>2026-04-12T08:55:42.925Z</time></trkpt><trkpt lat="44.0270467" lon="11.9983517"><ele>419.0</ele><time>2026-04-12T08:55:44.925Z</time></trkpt><trkpt lat="44.0269467" lon="11.998375"><ele>426.0</ele><time>2026-04-12T08:55:46.925Z</time></trkpt><trkpt lat="44.0268383" lon="11.99842"><ele>433.0</ele><time>2026-04-12T08:55:48.925Z</time></trkpt><trkpt lat="44.0267333" lon="11.9984517"><ele>440.0</ele><time>2026-04-12T08:55:50.926Z</time></trkpt><trkpt lat="44.0266233" lon="11.9984567"><ele>447.0</ele><time>2026-04-12T08:55:52.926Z</time></trkpt><trkpt lat="44.0265317" lon="11.9984633"><ele>454.0</ele><time>2026-04-12T08:55:54.926Z</time></trkpt><trkpt lat="44.0264633" lon="11.998475"><ele>454.00000000000006</ele><time>2026-04-12T08:55:56.926Z</time></trkpt><trkpt lat="44.02639" lon="11.9984883"><ele>454.0</ele><time>2026-04-12T08:55:58.926Z</time></trkpt><trkpt lat="44.0263117" lon="11.9984967"><ele>454.0</ele><time>2026-04-12T08:56:00.925Z</time></trkpt><trkpt lat="44.02622" lon="11.9984817"><ele>454.0</ele><time>2026-04-12T08:56:02.925Z</time></trkpt><trkpt lat="44.0261417" lon="11.99849"><ele>454.00000000000006</ele><time>2026-04-12T08:56:04.925Z</time></trkpt><trkpt lat="44.0260733" lon="11.9984583"><ele>454.0</ele><time>2026-04-12T08:56:06.925Z</time></trkpt><trkpt lat="44.0260133" lon="11.9983867"><ele>449.1666666666667</ele><time>2026-04-12T08:56:08.926Z</time></trkpt><trkpt lat="44.0259433" lon="11.9983167"><ele>444.33333333333337</ele><time>2026-04-12T08:56:10.925Z</time></trkpt><trkpt lat="44.0258783" lon="11.9981817"><ele>439.5</ele><time>2026-04-12T08:56:19.925Z</time></trkpt><trkpt lat="44.0258533" lon="11.9980883"><ele>434.66666666666663</ele><time>2026-04-12T08:56:46.925Z</time></trkpt><trkpt lat="44.0258533" lon="11.998"><ele>429.8333333333333</ele><time>2026-04-12T08:56:48.925Z</time></trkpt><trkpt lat="44.0259067" lon="11.99787"><ele>425.0</ele><time>2026-04-12T08:57:54.925Z</time></trkpt><trkpt lat="44.0259533" lon="11.9977417"><ele>424.99999999999994</ele><time>2026-04-12T08:57:56.925Z</time></trkpt><trkpt lat="44.0259783" lon="11.9975917"><ele>425.0</ele><time>2026-04-12T08:57:58.926Z</time></trkpt><trkpt lat="44.0259883" lon="11.9975033"><ele>425.0</ele><time>2026-04-12T08:57:59.925Z</time></trkpt><trkpt lat="44.0259967" lon="11.997405"><ele>425.0</ele><time>2026-04-12T08:58:00.925Z</time></trkpt><trkpt lat="44.0260167" lon="11.9973"><ele>424.99999999999994</ele><time>2026-04-12T08:58:01.925Z</time></trkpt><trkpt lat="44.0260333" lon="11.9971967"><ele>425.0</ele><time>2026-04-12T08:58:02.925Z</time></trkpt><trkpt lat="44.0260517" lon="11.9970883"><ele>424.8333333333333</ele><time>2026-04-12T08:58:03.925Z</time></trkpt><trkpt lat="44.02606" lon="11.9969383"><ele>424.66666666666663</ele><time>2026-04-12T08:58:05.925Z</time></trkpt><trkpt lat="44.0260267" lon="11.9967783"><ele>424.5</ele><time>2026-04-12T08:58:07.925Z</time></trkpt><trkpt lat="44.0260233" lon="11.9966817"><ele>424.33333333333337</ele><time>2026-04-12T08:58:08.925Z</time></trkpt><trkpt lat="44.026025" lon="11.9965883"><ele>424.1666666666667</ele><time>2026-04-12T08:58:09.925Z</time></trkpt><trkpt lat="44.0260183" lon="11.996495"><ele>424.0</ele><time>2026-04-12T08:58:10.925Z</time></trkpt><trkpt lat="44.0259883" lon="11.9963933"><ele>424.00000000000006</ele><time>2026-04-12T08:58:11.925Z</time></trkpt><trkpt lat="44.025955" lon="11.996315"><ele>424.0</ele><time>2026-04-12T08:58:12.925Z</time></trkpt><trkpt lat="44.025865" lon="11.9962117"><ele>424.0</ele><time>2026-04-12T08:58:14.925Z</time></trkpt><trkpt lat="44.0258" lon="11.996185"><ele>424.0</ele><time>2026-04-12T08:58:15.926Z</time></trkpt><trkpt lat="44.025735" lon="11.996145"><ele>424.00000000000006</ele><time>2026-04-12T08:58:16.926Z</time></trkpt><trkpt lat="44.0256717" lon="11.9961033"><ele>424.0</ele><time>2026-04-12T08:58:17.925Z</time></trkpt><trkpt lat="44.0255717" lon="11.9960817"><ele>429.1666666666667</ele><time>2026-04-12T08:58:19.926Z</time></trkpt><trkpt lat="44.02547" lon="11.9961433"><ele>434.33333333333337</ele><time>2026-04-12T08:58:21.925Z</time></trkpt><trkpt lat="44.0254067" lon="11.996195"><ele>439.5</ele><time>2026-04-12T08:58:22.924Z</time></trkpt><trkpt lat="44.0253433" lon="11.9962533"><ele>444.66666666666663</ele><time>2026-04-12T08:58:23.924Z</time></trkpt><trkpt lat="44.025285" lon="11.9963183"><ele>449.8333333333333</ele><time>2026-04-12T08:58:24.924Z</time></trkpt><trkpt lat="44.0252283" lon="11.99638"><ele>455.0</ele><time>2026-04-12T08:58:25.925Z</time></trkpt><trkpt lat="44.02517" lon="11.9964483"><ele>455.0</ele><time>2026-04-12T08:58:26.924Z</time></trkpt><trkpt lat="44.0250767" lon="11.996515"><ele>455.0</ele><time>2026-04-12T08:58:28.924Z</time></trkpt><trkpt lat="44.0249417" lon="11.9965217"><ele>455.0</ele><time>2026-04-12T08:58:30.924Z</time></trkpt><trkpt lat="44.0248517" lon="11.9965117"><ele>455.0</ele><time>2026-04-12T08:58:31.924Z</time></trkpt><trkpt lat="44.0247833" lon="11.9964967"><ele>455.0</ele><time>2026-04-12T08:58:32.924Z</time></trkpt><trkpt lat="44.0246933" lon="11.9965083"><ele>457.4</ele><time>2026-04-12T08:58:34.924Z</time></trkpt><trkpt lat="44.0246417" lon="11.996595"><ele>459.8</ele><time>2026-04-12T08:58:37.925Z</time></trkpt><trkpt lat="44.024605" lon="11.9966833"><ele>462.20000000000005</ele><time>2026-04-12T08:58:51.924Z</time></trkpt><trkpt lat="44.02459" lon="11.996815"><ele>464.6</ele><time>2026-04-12T08:58:53.924Z</time></trkpt><trkpt lat="44.0246033" lon="11.9969667"><ele>467.0</ele><time>2026-04-12T08:58:55.924Z</time></trkpt><trkpt lat="44.02458" lon="11.997115"><ele>471.0</ele><time>2026-04-12T08:58:57.924Z</time></trkpt><trkpt lat="44.0245667" lon="11.9972383"><ele>475.00000000000006</ele><time>2026-04-12T08:58:59.924Z</time></trkpt><trkpt lat="44.0245733" lon="11.997355"><ele>479.00000000000006</ele><time>2026-04-12T08:59:01.924Z</time></trkpt><trkpt lat="44.0245367" lon="11.997505"><ele>483.0</ele><time>2026-04-12T08:59:03.924Z</time></trkpt><trkpt lat="44.0245033" lon="11.9975917"><ele>487.0</ele><time>2026-04-12T08:59:04.924Z</time></trkpt><trkpt lat="44.02447" lon="11.9977433"><ele>487.50000000000006</ele><time>2026-04-12T08:59:06.924Z</time></trkpt><trkpt lat="44.0244333" lon="11.99785"><ele>488.0</ele><time>2026-04-12T08:59:08.925Z</time></trkpt><trkpt lat="44.0243833" lon="11.9979183"><ele>488.5</ele><time>2026-04-12T08:59:10.924Z</time></trkpt><trkpt lat="44.024345" lon="11.99801"><ele>489.0</ele><time>2026-04-12T08:59:13.924Z</time></trkpt><trkpt lat="44.024335" lon="11.9981217"><ele>489.50000000000006</ele><time>2026-04-12T08:59:16.925Z</time></trkpt><trkpt lat="44.0243233" lon="11.9982717"><ele>490.0</ele><time>2026-04-12T09:00:14.924Z</time></trkpt><trkpt lat="44.0242933" lon="11.998385"><ele>491.33333333333337</ele><time>2026-04-12T09:00:16.924Z</time></trkpt><trkpt lat="44.0242617" lon="11.9985"><ele>492.6666666666667</ele><time>2026-04-12T09:00:18.924Z</time></trkpt><trkpt lat="44.024215" lon="11.9986"><ele>494.0</ele><time>2026-04-12T09:00:20.924Z</time></trkpt><trkpt lat="44.0241583" lon="11.9986667"><ele>495.33333333333337</ele><time>2026-04-12T09:00:22.924Z</time></trkpt><trkpt lat="44.0240983" lon="11.99873"><ele>496.6666666666667</ele><time>2026-04-12T09:00:24.924Z</time></trkpt><trkpt lat="44.0241" lon="11.9988433"><ele>498.0</ele><time>2026-04-12T09:00:28.925Z</time></trkpt><trkpt lat="44.0241533" lon="11.9989317"><ele>498.0</ele><time>2026-04-12T09:00:30.925Z</time></trkpt><trkpt lat="44.0241783" lon="11.9990583"><ele>498.0</ele><time>2026-04-12T09:00:32.924Z</time></trkpt><trkpt lat="44.0241817" lon="11.9991683"><ele>498.0</ele><time>2026-04-12T09:00:34.925Z</time></trkpt><trkpt lat="44.024165" lon="11.999285"><ele>498.0</ele><time>2026-04-12T09:00:37.924Z</time></trkpt><trkpt lat="44.0241733" lon="11.9994117"><ele>498.0</ele><time>2026-04-12T09:01:00.925Z</time></trkpt><trkpt lat="44.0241683" lon="11.9993183"><ele>498.0</ele><time>2026-04-12T09:04:40.923Z</time></trkpt><trkpt lat="44.024175" lon="11.9992183"><ele>498.0</ele><time>2026-04-12T09:04:42.923Z</time></trkpt><trkpt lat="44.0241767" lon="11.9991217"><ele>498.0</ele><time>2026-04-12T09:04:44.923Z</time></trkpt><trkpt lat="44.0241567" lon="11.9989967"><ele>498.0</ele><time>2026-04-12T09:04:47.923Z</time></trkpt><trkpt lat="44.024135" lon="11.9989"><ele>498.0</ele><time>2026-04-12T09:04:50.923Z</time></trkpt><trkpt lat="44.024075" lon="11.99883"><ele>498.0</ele><time>2026-04-12T09:04:53.924Z</time></trkpt><trkpt lat="44.0240967" lon="11.99874"><ele>498.0</ele><time>2026-04-12T09:04:56.923Z</time></trkpt><trkpt lat="44.02416" lon="11.9986767"><ele>498.0</ele><time>2026-04-12T09:04:59.923Z</time></trkpt><trkpt lat="44.0242133" lon="11.9985883"><ele>498.0</ele><time>2026-04-12T09:05:02.924Z</time></trkpt><trkpt lat="44.02425" lon="11.9984667"><ele>498.0</ele><time>2026-04-12T09:05:05.924Z</time></trkpt><trkpt lat="44.0242883" lon="11.9983733"><ele>498.0</ele><time>2026-04-12T09:05:07.923Z</time></trkpt><trkpt lat="44.0243167" lon="11.9982833"><ele>498.0</ele><time>2026-04-12T09:05:09.923Z</time></trkpt><trkpt lat="44.0243383" lon="11.99819"><ele>498.0</ele><time>2026-04-12T09:05:11.923Z</time></trkpt><trkpt lat="44.02435" lon="11.9980617"><ele>496.6666666666667</ele><time>2026-04-12T09:05:14.923Z</time></trkpt><trkpt lat="44.0243783" lon="11.997965"><ele>495.33333333333337</ele><time>2026-04-12T09:05:16.923Z</time></trkpt><trkpt lat="44.024435" lon="11.997875"><ele>494.0</ele><time>2026-04-12T09:05:19.923Z</time></trkpt><trkpt lat="44.0244767" lon="11.9977633"><ele>492.6666666666667</ele><time>2026-04-12T09:05:22.923Z</time></trkpt><trkpt lat="44.0245017" lon="11.9976667"><ele>491.33333333333337</ele><time>2026-04-12T09:05:25.923Z</time></trkpt><trkpt lat="44.0245433" lon="11.9975783"><ele>490.0</ele><time>2026-04-12T09:05:27.923Z</time></trkpt><trkpt lat="44.0245883" lon="11.9974933"><ele>489.57142857142856</ele><time>2026-04-12T09:05:29.924Z</time></trkpt><trkpt lat="44.024595" lon="11.997405"><ele>489.1428571428571</ele><time>2026-04-12T09:05:32.923Z</time></trkpt><trkpt lat="44.0245833" lon="11.9972967"><ele>488.7142857142857</ele><time>2026-04-12T09:05:35.923Z</time></trkpt><trkpt lat="44.0245833" lon="11.99718"><ele>488.2857142857143</ele><time>2026-04-12T09:05:38.923Z</time></trkpt><trkpt lat="44.024605" lon="11.9970833"><ele>487.85714285714283</ele><time>2026-04-12T09:05:41.923Z</time></trkpt><trkpt lat="44.0245983" lon="11.99699"><ele>487.42857142857144</ele><time>2026-04-12T09:05:44.923Z</time></trkpt><trkpt lat="44.0245867" lon="11.9968967"><ele>487.0</ele><time>2026-04-12T09:05:47.923Z</time></trkpt><trkpt lat="44.0245883" lon="11.9967867"><ele>487.00000000000006</ele><time>2026-04-12T09:05:50.924Z</time></trkpt><trkpt lat="44.0246267" lon="11.9966883"><ele>487.0</ele><time>2026-04-12T09:05:54.923Z</time></trkpt><trkpt lat="44.0246583" lon="11.9965817"><ele>487.0</ele><time>2026-04-12T09:05:57.923Z</time></trkpt><trkpt lat="44.02464" lon="11.9964817"><ele>487.0</ele><time>2026-04-12T09:06:01.923Z</time></trkpt><trkpt lat="44.0245867" lon="11.9964017"><ele>487.00000000000006</ele><time>2026-04-12T09:06:06.922Z</time></trkpt><trkpt lat="44.024525" lon="11.996335"><ele>487.0</ele><time>2026-04-12T09:06:10.922Z</time></trkpt><trkpt lat="44.024465" lon="11.9962767"><ele>483.6666666666667</ele><time>2026-04-12T09:06:13.922Z</time></trkpt><trkpt lat="44.0244167" lon="11.996185"><ele>480.33333333333337</ele><time>2026-04-12T09:06:16.922Z</time></trkpt><trkpt lat="44.0243833" lon="11.996075"><ele>477.0</ele><time>2026-04-12T09:06:47.922Z</time></trkpt><trkpt lat="44.02433" lon="11.9959367"><ele>473.66666666666663</ele><time>2026-04-12T09:07:25.922Z</time></trkpt><trkpt lat="44.02428" lon="11.99586"><ele>470.3333333333333</ele><time>2026-04-12T09:07:28.923Z</time></trkpt><trkpt lat="44.0242283" lon="11.9957783"><ele>467.0</ele><time>2026-04-12T09:07:31.922Z</time></trkpt><trkpt lat="44.0241" lon="11.995745"><ele>465.40000000000003</ele><time>2026-04-12T09:11:52.921Z</time></trkpt><trkpt lat="44.0240467" lon="11.9956133"><ele>463.80000000000007</ele><time>2026-04-12T09:12:42.921Z</time></trkpt><trkpt lat="44.02397" lon="11.995455"><ele>462.2</ele><time>2026-04-12T09:13:41.92Z</time></trkpt><trkpt lat="44.0239183" lon="11.9953733"><ele>460.6</ele><time>2026-04-12T09:13:44.92Z</time></trkpt><trkpt lat="44.0238667" lon="11.9953133"><ele>459.0</ele><time>2026-04-12T09:14:06.92Z</time></trkpt><trkpt lat="44.0238117" lon="11.9952533"><ele>459.0</ele><time>2026-04-12T09:14:08.92Z</time></trkpt><trkpt lat="44.023745" lon="11.9951817"><ele>459.0</ele><time>2026-04-12T09:14:10.921Z</time></trkpt><trkpt lat="44.0236867" lon="11.9951"><ele>459.0</ele><time>2026-04-12T09:14:13.92Z</time></trkpt><trkpt lat="44.023645" lon="11.9950117"><ele>459.0</ele><time>2026-04-12T09:14:16.92Z</time></trkpt><trkpt lat="44.0236133" lon="11.9949167"><ele>459.0</ele><time>2026-04-12T09:14:20.92Z</time></trkpt><trkpt lat="44.02353" lon="11.994785"><ele>459.0</ele><time>2026-04-12T09:14:44.92Z</time></trkpt><trkpt lat="44.0234283" lon="11.994665"><ele>458.79999999999995</ele><time>2026-04-12T09:14:56.92Z</time></trkpt><trkpt lat="44.023335" lon="11.9945433"><ele>458.59999999999997</ele><time>2026-04-12T09:16:24.921Z</time></trkpt><trkpt lat="44.023315" lon="11.994455"><ele>458.4</ele><time>2026-04-12T09:16:57.92Z</time></trkpt><trkpt lat="44.023275" lon="11.9943317"><ele>458.2</ele><time>2026-04-12T09:18:16.919Z</time></trkpt><trkpt lat="44.0232583" lon="11.9941983"><ele>458.0</ele><time>2026-04-12T09:27:17.917Z</time></trkpt><trkpt lat="44.0231783" lon="11.99405"><ele>453.57142857142856</ele><time>2026-04-12T09:33:12.916Z</time></trkpt><trkpt lat="44.0231733" lon="11.993935"><ele>449.14285714285717</ele><time>2026-04-12T09:33:16.916Z</time></trkpt><trkpt lat="44.0231467" lon="11.9938483"><ele>444.7142857142857</ele><time>2026-04-12T09:33:19.915Z</time></trkpt><trkpt lat="44.0231133" lon="11.9937667"><ele>440.2857142857143</ele><time>2026-04-12T09:33:21.915Z</time></trkpt><trkpt lat="44.02307" lon="11.9937"><ele>435.8571428571429</ele><time>2026-04-12T09:33:25.915Z</time></trkpt><trkpt lat="44.0229967" lon="11.9936967"><ele>431.42857142857144</ele><time>2026-04-12T09:33:28.916Z</time></trkpt><trkpt lat="44.0229267" lon="11.99368"><ele>427.0</ele><time>2026-04-12T09:33:30.915Z</time></trkpt><trkpt lat="44.0228583" lon="11.99367"><ele>427.00000000000006</ele><time>2026-04-12T09:33:34.915Z</time></trkpt><trkpt lat="44.0229217" lon="11.9936833"><ele>427.0</ele><time>2026-04-12T09:33:48.915Z</time></trkpt><trkpt lat="44.0230117" lon="11.9936917"><ele>427.0</ele><time>2026-04-12T09:33:51.916Z</time></trkpt><trkpt lat="44.0230817" lon="11.9937017"><ele>427.0</ele><time>2026-04-12T09:33:57.915Z</time></trkpt><trkpt lat="44.022995" lon="11.993685"><ele>427.00000000000006</ele><time>2026-04-12T09:35:20.915Z</time></trkpt><trkpt lat="44.0229133" lon="11.9936717"><ele>427.0</ele><time>2026-04-12T09:35:22.915Z</time></trkpt><trkpt lat="44.0228233" lon="11.9936783"><ele>427.00000000000006</ele><time>2026-04-12T09:35:38.916Z</time></trkpt><trkpt lat="44.0227517" lon="11.9937083"><ele>427.0</ele><time>2026-04-12T09:35:40.915Z</time></trkpt><trkpt lat="44.02268" lon="11.993705"><ele>427.0</ele><time>2026-04-12T09:35:45.915Z</time></trkpt><trkpt lat="44.0225833" lon="11.9937217"><ele>427.0</ele><time>2026-04-12T09:35:47.916Z</time></trkpt><trkpt lat="44.0224867" lon="11.9937217"><ele>427.00000000000006</ele><time>2026-04-12T09:35:49.915Z</time></trkpt><trkpt lat="44.0224017" lon="11.9937083"><ele>427.0</ele><time>2026-04-12T09:35:51.915Z</time></trkpt><trkpt lat="44.0223" lon="11.9936967"><ele>427.00000000000006</ele><time>2026-04-12T09:35:53.915Z</time></trkpt><trkpt lat="44.0222183" lon="11.9936983"><ele>427.0</ele><time>2026-04-12T09:35:55.915Z</time></trkpt><trkpt lat="44.0223133" lon="11.9937067"><ele>427.0</ele><time>2026-04-12T09:36:36.915Z</time></trkpt><trkpt lat="44.0223983" lon="11.9936967"><ele>427.0</ele><time>2026-04-12T09:36:39.914Z</time></trkpt><trkpt lat="44.022475" lon="11.9937083"><ele>427.00000000000006</ele><time>2026-04-12T09:36:42.914Z</time></trkpt><trkpt lat="44.0225417" lon="11.9937133"><ele>427.0</ele><time>2026-04-12T09:36:45.915Z</time></trkpt><trkpt lat="44.0226217" lon="11.9937"><ele>427.00000000000006</ele><time>2026-04-12T09:36:50.915Z</time></trkpt><trkpt lat="44.02271" lon="11.9937083"><ele>427.0</ele><time>2026-04-12T09:37:04.914Z</time></trkpt><trkpt lat="44.022785" lon="11.9937033"><ele>427.0</ele><time>2026-04-12T09:37:06.914Z</time></trkpt><trkpt lat="44.0228817" lon="11.9937017"><ele>427.0</ele><time>2026-04-12T09:37:08.914Z</time></trkpt><trkpt lat="44.0229783" lon="11.9936933"><ele>427.00000000000006</ele><time>2026-04-12T09:37:10.914Z</time></trkpt><trkpt lat="44.0230483" lon="11.9936733"><ele>427.0</ele><time>2026-04-12T09:37:12.914Z</time></trkpt><trkpt lat="44.0230967" lon="11.9936117"><ele>427.0</ele><time>2026-04-12T09:37:14.914Z</time></trkpt><trkpt lat="44.0231233" lon="11.9934983"><ele>427.00000000000006</ele><time>2026-04-12T09:37:16.915Z</time></trkpt><trkpt lat="44.02315" lon="11.9933683"><ele>427.00000000000006</ele><time>2026-04-12T09:37:18.914Z</time></trkpt><trkpt lat="44.0231767" lon="11.9932333"><ele>427.0</ele><time>2026-04-12T09:37:20.914Z</time></trkpt><trkpt lat="44.023195" lon="11.9931167"><ele>427.0</ele><time>2026-04-12T09:37:22.914Z</time></trkpt><trkpt lat="44.0232183" lon="11.992965"><ele>423.0</ele><time>2026-04-12T09:37:24.914Z</time></trkpt><trkpt lat="44.023245" lon="11.9928167"><ele>419.00000000000006</ele><time>2026-04-12T09:37:26.914Z</time></trkpt><trkpt lat="44.023285" lon="11.9926683"><ele>415.0</ele><time>2026-04-12T09:37:28.914Z</time></trkpt><trkpt lat="44.023325" lon="11.99256"><ele>411.0</ele><time>2026-04-12T09:37:30.915Z</time></trkpt><trkpt lat="44.0233917" lon="11.9925133"><ele>407.0</ele><time>2026-04-12T09:37:32.914Z</time></trkpt><trkpt lat="44.0234767" lon="11.992525"><ele>404.6</ele><time>2026-04-12T09:37:34.915Z</time></trkpt><trkpt lat="44.0235617" lon="11.992585"><ele>402.20000000000005</ele><time>2026-04-12T09:37:36.914Z</time></trkpt><trkpt lat="44.0236333" lon="11.9926483"><ele>399.8</ele><time>2026-04-12T09:37:38.914Z</time></trkpt><trkpt lat="44.0237233" lon="11.99274"><ele>397.4</ele><time>2026-04-12T09:37:40.914Z</time></trkpt><trkpt lat="44.023805" lon="11.992825"><ele>395.0</ele><time>2026-04-12T09:37:42.914Z</time></trkpt><trkpt lat="44.0239017" lon="11.992925"><ele>394.99999999999994</ele><time>2026-04-12T09:37:44.915Z</time></trkpt><trkpt lat="44.0239383" lon="11.9930083"><ele>395.0</ele><time>2026-04-12T09:37:45.914Z</time></trkpt><trkpt lat="44.0239717" lon="11.9931117"><ele>395.0</ele><time>2026-04-12T09:37:46.914Z</time></trkpt><trkpt lat="44.0240067" lon="11.9932233"><ele>395.0</ele><time>2026-04-12T09:37:47.914Z</time></trkpt><trkpt lat="44.0240317" lon="11.9933383"><ele>394.99999999999994</ele><time>2026-04-12T09:37:48.914Z</time></trkpt><trkpt lat="44.02406" lon="11.9934483"><ele>395.0</ele><time>2026-04-12T09:37:49.914Z</time></trkpt><trkpt lat="44.0240917" lon="11.9935417"><ele>395.16666666666663</ele><time>2026-04-12T09:37:50.914Z</time></trkpt><trkpt lat="44.0241317" lon="11.99362"><ele>395.3333333333333</ele><time>2026-04-12T09:37:51.915Z</time></trkpt><trkpt lat="44.02418" lon="11.9936867"><ele>395.5</ele><time>2026-04-12T09:37:52.914Z</time></trkpt><trkpt lat="44.0242717" lon="11.993755"><ele>395.66666666666663</ele><time>2026-04-12T09:37:54.914Z</time></trkpt><trkpt lat="44.024345" lon="11.9937617"><ele>395.8333333333333</ele><time>2026-04-12T09:37:56.915Z</time></trkpt><trkpt lat="44.024405" lon="11.99368"><ele>396.0</ele><time>2026-04-12T09:37:58.914Z</time></trkpt><trkpt lat="44.0244383" lon="11.9935967"><ele>396.0</ele><time>2026-04-12T09:37:59.914Z</time></trkpt><trkpt lat="44.0244783" lon="11.9935067"><ele>396.0</ele><time>2026-04-12T09:38:00.914Z</time></trkpt><trkpt lat="44.0245317" lon="11.99344"><ele>396.0</ele><time>2026-04-12T09:38:01.914Z</time></trkpt><trkpt lat="44.0245833" lon="11.9933733"><ele>396.0</ele><time>2026-04-12T09:38:02.914Z</time></trkpt><trkpt lat="44.0246417" lon="11.9933217"><ele>396.0</ele><time>2026-04-12T09:38:03.914Z</time></trkpt><trkpt lat="44.024705" lon="11.99327"><ele>396.0</ele><time>2026-04-12T09:38:04.914Z</time></trkpt><trkpt lat="44.024775" lon="11.9932"><ele>396.0</ele><time>2026-04-12T09:38:05.914Z</time></trkpt><trkpt lat="44.0248333" lon="11.9931033"><ele>391.75</ele><time>2026-04-12T09:38:06.914Z</time></trkpt><trkpt lat="44.0249017" lon="11.9929933"><ele>387.5</ele><time>2026-04-12T09:38:07.914Z</time></trkpt><trkpt lat="44.024965" lon="11.99285"><ele>383.25</ele><time>2026-04-12T09:38:08.915Z</time></trkpt><trkpt lat="44.02505" lon="11.99271"><ele>379.0</ele><time>2026-04-12T09:38:09.914Z</time></trkpt><trkpt lat="44.0251417" lon="11.9925767"><ele>372.75</ele><time>2026-04-12T09:38:10.915Z</time></trkpt><trkpt lat="44.0252417" lon="11.9924567"><ele>366.5</ele><time>2026-04-12T09:38:11.914Z</time></trkpt><trkpt lat="44.0253333" lon="11.9923633"><ele>360.25</ele><time>2026-04-12T09:38:12.914Z</time></trkpt><trkpt lat="44.0254217" lon="11.99227"><ele>354.0</ele><time>2026-04-12T09:38:13.914Z</time></trkpt><trkpt lat="44.0255" lon="11.9921967"><ele>354.0</ele><time>2026-04-12T09:38:14.914Z</time></trkpt><trkpt lat="44.0255833" lon="11.9921467"><ele>354.0</ele><time>2026-04-12T09:38:15.914Z</time></trkpt><trkpt lat="44.0256633" lon="11.9921083"><ele>354.0</ele><time>2026-04-12T09:38:16.914Z</time></trkpt><trkpt lat="44.0257433" lon="11.9920767"><ele>354.0</ele><time>2026-04-12T09:38:17.915Z</time></trkpt><trkpt lat="44.0258133" lon="11.99204"><ele>354.0</ele><time>2026-04-12T09:38:18.914Z</time></trkpt><trkpt lat="44.0258733" lon="11.9919867"><ele>354.0</ele><time>2026-04-12T09:38:19.914Z</time></trkpt><trkpt lat="44.0259217" lon="11.9919117"><ele>354.1666666666667</ele><time>2026-04-12T09:38:20.914Z</time></trkpt><trkpt lat="44.02597" lon="11.9918317"><ele>354.3333333333333</ele><time>2026-04-12T09:38:21.915Z</time></trkpt><trkpt lat="44.0260167" lon="11.9917517"><ele>354.5</ele><time>2026-04-12T09:38:22.914Z</time></trkpt><trkpt lat="44.0260633" lon="11.9916783"><ele>354.66666666666663</ele><time>2026-04-12T09:38:23.915Z</time></trkpt><trkpt lat="44.0261167" lon="11.991615"><ele>354.8333333333333</ele><time>2026-04-12T09:38:24.914Z</time></trkpt><trkpt lat="44.02621" lon="11.99154"><ele>355.0</ele><time>2026-04-12T09:38:26.914Z</time></trkpt><trkpt lat="44.0262833" lon="11.9915117"><ele>352.2</ele><time>2026-04-12T09:38:28.914Z</time></trkpt><trkpt lat="44.0263383" lon="11.9914483"><ele>349.4</ele><time>2026-04-12T09:38:31.914Z</time></trkpt><trkpt lat="44.0263233" lon="11.991345"><ele>346.6</ele><time>2026-04-12T09:38:34.914Z</time></trkpt><trkpt lat="44.0262283" lon="11.99128"><ele>343.8</ele><time>2026-04-12T09:38:36.914Z</time></trkpt><trkpt lat="44.0261217" lon="11.991195"><ele>341.0</ele><time>2026-04-12T09:38:38.915Z</time></trkpt><trkpt lat="44.026085" lon="11.9910633"><ele>341.0</ele><time>2026-04-12T09:38:40.914Z</time></trkpt><trkpt lat="44.0260933" lon="11.990975"><ele>341.0</ele><time>2026-04-12T09:38:41.914Z</time></trkpt><trkpt lat="44.0261233" lon="11.990885"><ele>341.0</ele><time>2026-04-12T09:38:42.915Z</time></trkpt><trkpt lat="44.0261717" lon="11.9907883"><ele>341.0</ele><time>2026-04-12T09:38:43.915Z</time></trkpt><trkpt lat="44.026225" lon="11.9907033"><ele>341.0</ele><time>2026-04-12T09:38:44.914Z</time></trkpt><trkpt lat="44.02628" lon="11.9906283"><ele>341.0</ele><time>2026-04-12T09:38:45.914Z</time></trkpt><trkpt lat="44.0263317" lon="11.9905533"><ele>338.1666666666667</ele><time>2026-04-12T09:38:46.915Z</time></trkpt><trkpt lat="44.0263783" lon="11.99048"><ele>335.33333333333337</ele><time>2026-04-12T09:38:47.914Z</time></trkpt><trkpt lat="44.02642" lon="11.9903967"><ele>332.5</ele><time>2026-04-12T09:38:48.914Z</time></trkpt><trkpt lat="44.02645" lon="11.99029"><ele>329.6666666666667</ele><time>2026-04-12T09:38:49.915Z</time></trkpt><trkpt lat="44.0264733" lon="11.9901883"><ele>326.8333333333333</ele><time>2026-04-12T09:38:50.914Z</time></trkpt><trkpt lat="44.0265" lon="11.9900867"><ele>324.0</ele><time>2026-04-12T09:38:51.914Z</time></trkpt><trkpt lat="44.02653" lon="11.98999"><ele>321.0</ele><time>2026-04-12T09:38:52.914Z</time></trkpt><trkpt lat="44.0265717" lon="11.98989"><ele>318.0</ele><time>2026-04-12T09:38:53.914Z</time></trkpt><trkpt lat="44.026615" lon="11.9898"><ele>315.0</ele><time>2026-04-12T09:38:54.915Z</time></trkpt><trkpt lat="44.0266517" lon="11.98972"><ele>312.0</ele><time>2026-04-12T09:38:55.914Z</time></trkpt><trkpt lat="44.0267017" lon="11.98956"><ele>309.0</ele><time>2026-04-12T09:38:57.914Z</time></trkpt><trkpt lat="44.0267217" lon="11.9894767"><ele>306.0</ele><time>2026-04-12T09:38:58.915Z</time></trkpt><trkpt lat="44.0267483" lon="11.9893967"><ele>306.0</ele><time>2026-04-12T09:38:59.914Z</time></trkpt><trkpt lat="44.02679" lon="11.9893067"><ele>306.0</ele><time>2026-04-12T09:39:00.914Z</time></trkpt><trkpt lat="44.0268467" lon="11.9892267"><ele>306.0</ele><time>2026-04-12T09:39:01.915Z</time></trkpt><trkpt lat="44.0269083" lon="11.9891583"><ele>306.0</ele><time>2026-04-12T09:39:02.914Z</time></trkpt><trkpt lat="44.0269633" lon="11.989105"><ele>306.0</ele><time>2026-04-12T09:39:03.915Z</time></trkpt><trkpt lat="44.0270183" lon="11.98906"><ele>306.0</ele><time>2026-04-12T09:39:04.914Z</time></trkpt><trkpt lat="44.02714" lon="11.98903"><ele>302.2</ele><time>2026-04-12T09:39:06.914Z</time></trkpt><trkpt lat="44.0272567" lon="11.9889683"><ele>298.40000000000003</ele><time>2026-04-12T09:39:08.915Z</time></trkpt><trkpt lat="44.027305" lon="11.9888383"><ele>294.6</ele><time>2026-04-12T09:39:10.914Z</time></trkpt><trkpt lat="44.02728" lon="11.9887"><ele>290.8</ele><time>2026-04-12T09:39:12.915Z</time></trkpt><trkpt lat="44.027185" lon="11.9886183"><ele>287.0</ele><time>2026-04-12T09:39:14.914Z</time></trkpt><trkpt lat="44.02712" lon="11.9886217"><ele>287.0</ele><time>2026-04-12T09:39:15.914Z</time></trkpt><trkpt lat="44.027045" lon="11.9886433"><ele>287.0</ele><time>2026-04-12T09:39:16.914Z</time></trkpt><trkpt lat="44.02697" lon="11.9886683"><ele>287.0</ele><time>2026-04-12T09:39:17.915Z</time></trkpt><trkpt lat="44.026885" lon="11.9886967"><ele>287.0</ele><time>2026-04-12T09:39:18.914Z</time></trkpt><trkpt lat="44.0268083" lon="11.988725"><ele>287.0</ele><time>2026-04-12T09:39:19.914Z</time></trkpt><trkpt lat="44.0267417" lon="11.98873"><ele>287.0</ele><time>2026-04-12T09:39:20.915Z</time></trkpt><trkpt lat="44.026675" lon="11.9887267"><ele>286.1666666666667</ele><time>2026-04-12T09:39:21.914Z</time></trkpt><trkpt lat="44.0266033" lon="11.9887083"><ele>285.33333333333337</ele><time>2026-04-12T09:39:22.915Z</time></trkpt><trkpt lat="44.02653" lon="11.9886833"><ele>284.5</ele><time>2026-04-12T09:39:23.914Z</time></trkpt><trkpt lat="44.0264583" lon="11.9886333"><ele>283.6666666666667</ele><time>2026-04-12T09:39:24.914Z</time></trkpt><trkpt lat="44.0263867" lon="11.9885717"><ele>282.8333333333333</ele><time>2026-04-12T09:39:25.914Z</time></trkpt><trkpt lat="44.0263317" lon="11.98852"><ele>282.0</ele><time>2026-04-12T09:39:26.914Z</time></trkpt><trkpt lat="44.02627" lon="11.988465"><ele>282.0</ele><time>2026-04-12T09:39:27.914Z</time></trkpt><trkpt lat="44.0261583" lon="11.9884033"><ele>282.0</ele><time>2026-04-12T09:39:29.914Z</time></trkpt><trkpt lat="44.0260917" lon="11.9883667"><ele>282.0</ele><time>2026-04-12T09:39:31.914Z</time></trkpt><trkpt lat="44.0260633" lon="11.9882783"><ele>282.0</ele><time>2026-04-12T09:39:34.914Z</time></trkpt><trkpt lat="44.0260867" lon="11.9881483"><ele>282.0</ele><time>2026-04-12T09:39:36.914Z</time></trkpt><trkpt lat="44.0261433" lon="11.98802"><ele>279.6666666666667</ele><time>2026-04-12T09:39:38.914Z</time></trkpt><trkpt lat="44.0262167" lon="11.987955"><ele>277.3333333333333</ele><time>2026-04-12T09:39:40.914Z</time></trkpt><trkpt lat="44.0263267" lon="11.9879633"><ele>275.0</ele><time>2026-04-12T09:39:42.914Z</time></trkpt><trkpt lat="44.0263933" lon="11.9880117"><ele>272.66666666666663</ele><time>2026-04-12T09:39:43.914Z</time></trkpt><trkpt lat="44.02646" lon="11.9880983"><ele>270.3333333333333</ele><time>2026-04-12T09:39:44.914Z</time></trkpt><trkpt lat="44.0265217" lon="11.9881667"><ele>268.0</ele><time>2026-04-12T09:39:45.915Z</time></trkpt><trkpt lat="44.0265833" lon="11.9882183"><ele>267.2</ele><time>2026-04-12T09:39:46.915Z</time></trkpt><trkpt lat="44.02665" lon="11.9882433"><ele>266.4</ele><time>2026-04-12T09:39:47.914Z</time></trkpt><trkpt lat="44.0267167" lon="11.9882583"><ele>265.59999999999997</ele><time>2026-04-12T09:39:48.914Z</time></trkpt><trkpt lat="44.0268333" lon="11.9882517"><ele>264.8</ele><time>2026-04-12T09:39:50.914Z</time></trkpt><trkpt lat="44.0269367" lon="11.9881967"><ele>264.0</ele><time>2026-04-12T09:39:52.915Z</time></trkpt><trkpt lat="44.027035" lon="11.9880867"><ele>264.0</ele><time>2026-04-12T09:39:54.914Z</time></trkpt><trkpt lat="44.027085" lon="11.988015"><ele>264.0</ele><time>2026-04-12T09:39:55.914Z</time></trkpt><trkpt lat="44.027135" lon="11.9879383"><ele>264.0</ele><time>2026-04-12T09:39:56.914Z</time></trkpt><trkpt lat="44.027185" lon="11.9878567"><ele>264.0</ele><time>2026-04-12T09:39:57.915Z</time></trkpt><trkpt lat="44.0272267" lon="11.9877783"><ele>264.0</ele><time>2026-04-12T09:39:58.914Z</time></trkpt><trkpt lat="44.0272683" lon="11.9876933"><ele>264.0</ele><time>2026-04-12T09:39:59.914Z</time></trkpt><trkpt lat="44.0273017" lon="11.9876183"><ele>264.0</ele><time>2026-04-12T09:40:00.914Z</time></trkpt><trkpt lat="44.027345" lon="11.98746"><ele>262.85714285714283</ele><time>2026-04-12T09:40:02.914Z</time></trkpt><trkpt lat="44.02736" lon="11.98737"><ele>261.7142857142857</ele><time>2026-04-12T09:40:03.914Z</time></trkpt><trkpt lat="44.0273717" lon="11.9872783"><ele>260.57142857142856</ele><time>2026-04-12T09:40:04.914Z</time></trkpt><trkpt lat="44.02738" lon="11.987185"><ele>259.42857142857144</ele><time>2026-04-12T09:40:05.914Z</time></trkpt><trkpt lat="44.0273883" lon="11.987085"><ele>258.2857142857143</ele><time>2026-04-12T09:40:06.915Z</time></trkpt><trkpt lat="44.0274017" lon="11.98699"><ele>257.1428571428571</ele><time>2026-04-12T09:40:07.914Z</time></trkpt><trkpt lat="44.0274317" lon="11.9869067"><ele>256.0</ele><time>2026-04-12T09:40:08.915Z</time></trkpt><trkpt lat="44.02751" lon="11.9867783"><ele>255.99999999999997</ele><time>2026-04-12T09:40:10.914Z</time></trkpt><trkpt lat="44.02756" lon="11.98672"><ele>256.0</ele><time>2026-04-12T09:40:11.914Z</time></trkpt><trkpt lat="44.02762" lon="11.9866683"><ele>256.0</ele><time>2026-04-12T09:40:12.914Z</time></trkpt><trkpt lat="44.02768" lon="11.9866217"><ele>256.0</ele><time>2026-04-12T09:40:13.914Z</time></trkpt><trkpt lat="44.027735" lon="11.9865783"><ele>255.99999999999997</ele><time>2026-04-12T09:40:14.915Z</time></trkpt><trkpt lat="44.0277933" lon="11.9865433"><ele>256.0</ele><time>2026-04-12T09:40:15.915Z</time></trkpt><trkpt lat="44.0279117" lon="11.9864917"><ele>254.8</ele><time>2026-04-12T09:40:17.914Z</time></trkpt><trkpt lat="44.0280317" lon="11.9864667"><ele>253.60000000000002</ele><time>2026-04-12T09:40:19.913Z</time></trkpt><trkpt lat="44.028155" lon="11.98648"><ele>252.4</ele><time>2026-04-12T09:40:21.913Z</time></trkpt><trkpt lat="44.02822" lon="11.98653"><ele>251.2</ele><time>2026-04-12T09:40:22.914Z</time></trkpt><trkpt lat="44.02829" lon="11.9865983"><ele>250.0</ele><time>2026-04-12T09:40:23.913Z</time></trkpt><trkpt lat="44.02836" lon="11.9866817"><ele>249.99999999999997</ele><time>2026-04-12T09:40:24.913Z</time></trkpt><trkpt lat="44.0284183" lon="11.9867617"><ele>250.0</ele><time>2026-04-12T09:40:25.913Z</time></trkpt><trkpt lat="44.0284583" lon="11.986845"><ele>250.0</ele><time>2026-04-12T09:40:26.913Z</time></trkpt><trkpt lat="44.0285317" lon="11.9869683"><ele>250.0</ele><time>2026-04-12T09:40:28.914Z</time></trkpt><trkpt lat="44.0285883" lon="11.9870617"><ele>249.99999999999997</ele><time>2026-04-12T09:40:30.914Z</time></trkpt><trkpt lat="44.0286633" lon="11.9869933"><ele>250.0</ele><time>2026-04-12T09:40:33.913Z</time></trkpt><trkpt lat="44.0286583" lon="11.9868783"><ele>250.0</ele><time>2026-04-12T09:40:35.913Z</time></trkpt><trkpt lat="44.028615" lon="11.9867183"><ele>250.0</ele><time>2026-04-12T09:40:37.913Z</time></trkpt><trkpt lat="44.02858" lon="11.9866233"><ele>250.0</ele><time>2026-04-12T09:40:38.913Z</time></trkpt><trkpt lat="44.02853" lon="11.9865217"><ele>250.0</ele><time>2026-04-12T09:40:39.913Z</time></trkpt><trkpt lat="44.0284717" lon="11.9863967"><ele>250.0</ele><time>2026-04-12T09:40:40.914Z</time></trkpt><trkpt lat="44.0284217" lon="11.9862633"><ele>247.0</ele><time>2026-04-12T09:40:41.913Z</time></trkpt><trkpt lat="44.0283667" lon="11.98614"><ele>244.0</ele><time>2026-04-12T09:40:42.913Z</time></trkpt><trkpt lat="44.02831" lon="11.9860317"><ele>241.0</ele><time>2026-04-12T09:40:43.914Z</time></trkpt><trkpt lat="44.0282533" lon="11.9859383"><ele>238.0</ele><time>2026-04-12T09:40:44.913Z</time></trkpt><trkpt lat="44.0281917" lon="11.9858517"><ele>235.0</ele><time>2026-04-12T09:40:45.914Z</time></trkpt><trkpt lat="44.0281267" lon="11.985785"><ele>229.83333333333331</ele><time>2026-04-12T09:40:46.913Z</time></trkpt><trkpt lat="44.0280617" lon="11.9857367"><ele>224.66666666666666</ele><time>2026-04-12T09:40:47.913Z</time></trkpt><trkpt lat="44.0279983" lon="11.985705"><ele>219.5</ele><time>2026-04-12T09:40:48.913Z</time></trkpt><trkpt lat="44.027925" lon="11.9856983"><ele>214.33333333333331</ele><time>2026-04-12T09:40:49.913Z</time></trkpt><trkpt lat="44.027855" lon="11.9857167"><ele>209.16666666666666</ele><time>2026-04-12T09:40:50.913Z</time></trkpt><trkpt lat="44.02775" lon="11.9857983"><ele>204.0</ele><time>2026-04-12T09:40:52.913Z</time></trkpt><trkpt lat="44.0276733" lon="11.98582"><ele>204.0</ele><time>2026-04-12T09:40:54.913Z</time></trkpt><trkpt lat="44.0276617" lon="11.9857033"><ele>204.0</ele><time>2026-04-12T09:40:56.913Z</time></trkpt><trkpt lat="44.0277017" lon="11.985615"><ele>204.0</ele><time>2026-04-12T09:40:57.913Z</time></trkpt><trkpt lat="44.0277767" lon="11.9855167"><ele>204.0</ele><time>2026-04-12T09:40:58.913Z</time></trkpt><trkpt lat="44.027855" lon="11.98542"><ele>204.0</ele><time>2026-04-12T09:40:59.913Z</time></trkpt><trkpt lat="44.0279183" lon="11.98533"><ele>204.0</ele><time>2026-04-12T09:41:00.913Z</time></trkpt><trkpt lat="44.0279717" lon="11.9852417"><ele>204.0</ele><time>2026-04-12T09:41:01.914Z</time></trkpt><trkpt lat="44.028015" lon="11.985145"><ele>204.0</ele><time>2026-04-12T09:41:02.913Z</time></trkpt><trkpt lat="44.02805" lon="11.98504"><ele>204.0</ele><time>2026-04-12T09:41:03.913Z</time></trkpt><trkpt lat="44.028085" lon="11.9849333"><ele>204.0</ele><time>2026-04-12T09:41:04.913Z</time></trkpt><trkpt lat="44.028125" lon="11.9848233"><ele>204.0</ele><time>2026-04-12T09:41:05.913Z</time></trkpt><trkpt lat="44.0281683" lon="11.984725"><ele>202.16666666666666</ele><time>2026-04-12T09:41:06.913Z</time></trkpt><trkpt lat="44.0282233" lon="11.9846367"><ele>200.33333333333331</ele><time>2026-04-12T09:41:07.913Z</time></trkpt><trkpt lat="44.02828" lon="11.9845583"><ele>198.5</ele><time>2026-04-12T09:41:08.913Z</time></trkpt><trkpt lat="44.02833" lon="11.984485"><ele>196.66666666666666</ele><time>2026-04-12T09:41:09.914Z</time></trkpt><trkpt lat="44.0283767" lon="11.984405"><ele>194.83333333333331</ele><time>2026-04-12T09:41:10.913Z</time></trkpt><trkpt lat="44.0284183" lon="11.9843083"><ele>193.0</ele><time>2026-04-12T09:41:11.913Z</time></trkpt><trkpt lat="44.0284467" lon="11.9841983"><ele>188.8</ele><time>2026-04-12T09:41:12.913Z</time></trkpt><trkpt lat="44.02847" lon="11.9840817"><ele>184.60000000000002</ele><time>2026-04-12T09:41:13.913Z</time></trkpt><trkpt lat="44.0284933" lon="11.9839733"><ele>180.39999999999998</ele><time>2026-04-12T09:41:14.913Z</time></trkpt><trkpt lat="44.0285217" lon="11.9838917"><ele>176.2</ele><time>2026-04-12T09:41:15.913Z</time></trkpt><trkpt lat="44.0285967" lon="11.983765"><ele>172.0</ele><time>2026-04-12T09:41:17.914Z</time></trkpt><trkpt lat="44.0286967" lon="11.9836783"><ele>172.0</ele><time>2026-04-12T09:41:19.913Z</time></trkpt><trkpt lat="44.02882" lon="11.9836183"><ele>172.0</ele><time>2026-04-12T09:41:21.913Z</time></trkpt><trkpt lat="44.0288883" lon="11.98358"><ele>172.0</ele><time>2026-04-12T09:41:22.913Z</time></trkpt><trkpt lat="44.0289517" lon="11.983545"><ele>172.0</ele><time>2026-04-12T09:41:23.913Z</time></trkpt><trkpt lat="44.0290133" lon="11.983515"><ele>172.0</ele><time>2026-04-12T09:41:24.913Z</time></trkpt><trkpt lat="44.0290733" lon="11.9834817"><ele>172.0</ele><time>2026-04-12T09:41:25.914Z</time></trkpt><trkpt lat="44.0291583" lon="11.9834033"><ele>169.4</ele><time>2026-04-12T09:41:27.914Z</time></trkpt><trkpt lat="44.029215" lon="11.983295"><ele>166.79999999999998</ele><time>2026-04-12T09:41:29.913Z</time></trkpt><trkpt lat="44.0292633" lon="11.9832067"><ele>164.2</ele><time>2026-04-12T09:41:31.913Z</time></trkpt><trkpt lat="44.0293167" lon="11.9831417"><ele>161.6</ele><time>2026-04-12T09:41:34.913Z</time></trkpt><trkpt lat="44.029325" lon="11.9830117"><ele>159.0</ele><time>2026-04-12T09:45:10.912Z</time></trkpt><trkpt lat="44.029255" lon="11.982895"><ele>159.0</ele><time>2026-04-12T09:45:12.913Z</time></trkpt><trkpt lat="44.0291883" lon="11.9828133"><ele>159.0</ele><time>2026-04-12T09:45:13.913Z</time></trkpt><trkpt lat="44.029095" lon="11.9827017"><ele>159.0</ele><time>2026-04-12T09:45:14.912Z</time></trkpt><trkpt lat="44.0289683" lon="11.9825717"><ele>159.0</ele><time>2026-04-12T09:45:15.912Z</time></trkpt><trkpt lat="44.028845" lon="11.9824333"><ele>160.75</ele><time>2026-04-12T09:45:16.913Z</time></trkpt><trkpt lat="44.0287333" lon="11.9823033"><ele>162.5</ele><time>2026-04-12T09:45:17.912Z</time></trkpt><trkpt lat="44.028635" lon="11.9821867"><ele>164.25</ele><time>2026-04-12T09:45:18.912Z</time></trkpt><trkpt lat="44.0285333" lon="11.98208"><ele>166.0</ele><time>2026-04-12T09:45:19.912Z</time></trkpt><trkpt lat="44.0284333" lon="11.9819667"><ele>166.0</ele><time>2026-04-12T09:45:20.913Z</time></trkpt><trkpt lat="44.028335" lon="11.9818433"><ele>166.0</ele><time>2026-04-12T09:45:21.912Z</time></trkpt><trkpt lat="44.0282333" lon="11.98172"><ele>166.0</ele><time>2026-04-12T09:45:22.912Z</time></trkpt><trkpt lat="44.0281283" lon="11.9815933"><ele>166.0</ele><time>2026-04-12T09:45:23.912Z</time></trkpt><trkpt lat="44.02802" lon="11.9814683"><ele>166.75</ele><time>2026-04-12T09:45:24.912Z</time></trkpt><trkpt lat="44.02792" lon="11.98134"><ele>167.5</ele><time>2026-04-12T09:45:25.913Z</time></trkpt><trkpt lat="44.02783" lon="11.981205"><ele>168.25</ele><time>2026-04-12T09:45:26.912Z</time></trkpt><trkpt lat="44.027745" lon="11.9810667"><ele>169.0</ele><time>2026-04-12T09:45:27.912Z</time></trkpt><trkpt lat="44.0275983" lon="11.9807683"><ele>169.0</ele><time>2026-04-12T09:45:29.912Z</time></trkpt><trkpt lat="44.0275367" lon="11.9805933"><ele>169.0</ele><time>2026-04-12T09:45:30.912Z</time></trkpt><trkpt lat="44.0274767" lon="11.9804333"><ele>169.0</ele><time>2026-04-12T09:45:31.912Z</time></trkpt><trkpt lat="44.0274183" lon="11.9802783"><ele>169.0</ele><time>2026-04-12T09:45:32.913Z</time></trkpt><trkpt lat="44.02736" lon="11.9801317"><ele>172.0</ele><time>2026-04-12T09:45:33.912Z</time></trkpt><trkpt lat="44.0272983" lon="11.9799933"><ele>175.0</ele><time>2026-04-12T09:45:34.912Z</time></trkpt><trkpt lat="44.0272383" lon="11.9798567"><ele>178.0</ele><time>2026-04-12T09:45:35.912Z</time></trkpt><trkpt lat="44.0271583" lon="11.97973"><ele>181.0</ele><time>2026-04-12T09:45:36.912Z</time></trkpt><trkpt lat="44.02708" lon="11.9796067"><ele>181.0</ele><time>2026-04-12T09:45:37.912Z</time></trkpt><trkpt lat="44.0269917" lon="11.9794967"><ele>181.0</ele><time>2026-04-12T09:45:38.912Z</time></trkpt><trkpt lat="44.02691" lon="11.9793867"><ele>181.0</ele><time>2026-04-12T09:45:39.912Z</time></trkpt><trkpt lat="44.0268233" lon="11.9792867"><ele>181.0</ele><time>2026-04-12T09:45:40.912Z</time></trkpt><trkpt lat="44.026745" lon="11.9791867"><ele>181.4</ele><time>2026-04-12T09:45:41.912Z</time></trkpt><trkpt lat="44.026665" lon="11.9790883"><ele>181.8</ele><time>2026-04-12T09:45:42.912Z</time></trkpt><trkpt lat="44.026585" lon="11.97899"><ele>182.20000000000002</ele><time>2026-04-12T09:45:43.912Z</time></trkpt><trkpt lat="44.0265083" lon="11.9788933"><ele>182.60000000000002</ele><time>2026-04-12T09:45:44.913Z</time></trkpt><trkpt lat="44.0264333" lon="11.97879"><ele>183.0</ele><time>2026-04-12T09:45:45.912Z</time></trkpt><trkpt lat="44.02636" lon="11.9786733"><ele>183.0</ele><time>2026-04-12T09:45:46.912Z</time></trkpt><trkpt lat="44.0262917" lon="11.97855"><ele>183.0</ele><time>2026-04-12T09:45:47.912Z</time></trkpt><trkpt lat="44.0262183" lon="11.978405"><ele>183.0</ele><time>2026-04-12T09:45:48.912Z</time></trkpt><trkpt lat="44.0261233" lon="11.9782233"><ele>183.0</ele><time>2026-04-12T09:45:49.912Z</time></trkpt><trkpt lat="44.0260067" lon="11.977995"><ele>183.0</ele><time>2026-04-12T09:45:50.913Z</time></trkpt><trkpt lat="44.0258917" lon="11.977745"><ele>183.0</ele><time>2026-04-12T09:45:51.912Z</time></trkpt><trkpt lat="44.0257883" lon="11.9775133"><ele>183.0</ele><time>2026-04-12T09:45:52.912Z</time></trkpt><trkpt lat="44.025695" lon="11.9773"><ele>183.0</ele><time>2026-04-12T09:45:53.912Z</time></trkpt><trkpt lat="44.0256067" lon="11.9771033"><ele>183.0</ele><time>2026-04-12T09:45:54.913Z</time></trkpt><trkpt lat="44.0255183" lon="11.9769267"><ele>183.0</ele><time>2026-04-12T09:45:55.912Z</time></trkpt><trkpt lat="44.02544" lon="11.9767633"><ele>182.66666666666666</ele><time>2026-04-12T09:45:56.912Z</time></trkpt><trkpt lat="44.02537" lon="11.9766033"><ele>182.33333333333331</ele><time>2026-04-12T09:45:57.912Z</time></trkpt><trkpt lat="44.025285" lon="11.976425"><ele>182.0</ele><time>2026-04-12T09:45:58.912Z</time></trkpt><trkpt lat="44.0251767" lon="11.9762117"><ele>182.0</ele><time>2026-04-12T09:45:59.912Z</time></trkpt><trkpt lat="44.0250483" lon="11.97601"><ele>182.0</ele><time>2026-04-12T09:46:00.912Z</time></trkpt><trkpt lat="44.02492" lon="11.9758467"><ele>182.0</ele><time>2026-04-12T09:46:01.912Z</time></trkpt><trkpt lat="44.0247983" lon="11.9757167"><ele>185.0</ele><time>2026-04-12T09:46:02.912Z</time></trkpt><trkpt lat="44.02468" lon="11.9755967"><ele>188.0</ele><time>2026-04-12T09:46:03.912Z</time></trkpt><trkpt lat="44.0245567" lon="11.975475"><ele>191.0</ele><time>2026-04-12T09:46:04.912Z</time></trkpt><trkpt lat="44.0244183" lon="11.975345"><ele>191.0</ele><time>2026-04-12T09:46:05.912Z</time></trkpt><trkpt lat="44.0242783" lon="11.9752267"><ele>191.0</ele><time>2026-04-12T09:46:06.913Z</time></trkpt><trkpt lat="44.0241533" lon="11.975105"><ele>191.0</ele><time>2026-04-12T09:46:07.913Z</time></trkpt><trkpt lat="44.024025" lon="11.974985"><ele>193.0</ele><time>2026-04-12T09:46:08.913Z</time></trkpt><trkpt lat="44.0238983" lon="11.9748633"><ele>195.0</ele><time>2026-04-12T09:46:09.912Z</time></trkpt><trkpt lat="44.02377" lon="11.9747483"><ele>197.0</ele><time>2026-04-12T09:46:10.912Z</time></trkpt><trkpt lat="44.0236417" lon="11.9746333"><ele>197.0</ele><time>2026-04-12T09:46:11.912Z</time></trkpt><trkpt lat="44.0235217" lon="11.9745183"><ele>197.0</ele><time>2026-04-12T09:46:12.912Z</time></trkpt><trkpt lat="44.0234" lon="11.9744033"><ele>197.0</ele><time>2026-04-12T09:46:13.912Z</time></trkpt><trkpt lat="44.0232783" lon="11.974285"><ele>197.0</ele><time>2026-04-12T09:46:14.913Z</time></trkpt><trkpt lat="44.0231567" lon="11.97417"><ele>196.5</ele><time>2026-04-12T09:46:15.912Z</time></trkpt><trkpt lat="44.0230317" lon="11.974065"><ele>196.0</ele><time>2026-04-12T09:46:16.912Z</time></trkpt><trkpt lat="44.0229117" lon="11.9739483"><ele>195.5</ele><time>2026-04-12T09:46:17.913Z</time></trkpt><trkpt lat="44.0227917" lon="11.9738417"><ele>195.0</ele><time>2026-04-12T09:46:18.912Z</time></trkpt><trkpt lat="44.022675" lon="11.9737317"><ele>195.0</ele><time>2026-04-12T09:46:19.912Z</time></trkpt><trkpt lat="44.0225567" lon="11.9736167"><ele>195.0</ele><time>2026-04-12T09:46:20.912Z</time></trkpt><trkpt lat="44.0224417" lon="11.97351"><ele>195.0</ele><time>2026-04-12T09:46:21.912Z</time></trkpt><trkpt lat="44.0223267" lon="11.9733967"><ele>195.0</ele><time>2026-04-12T09:46:22.912Z</time></trkpt><trkpt lat="44.0222067" lon="11.9732867"><ele>194.25</ele><time>2026-04-12T09:46:23.913Z</time></trkpt><trkpt lat="44.0220867" lon="11.9731783"><ele>193.5</ele><time>2026-04-12T09:46:24.913Z</time></trkpt><trkpt lat="44.0219617" lon="11.9730633"><ele>192.75</ele><time>2026-04-12T09:46:25.913Z</time></trkpt><trkpt lat="44.0218417" lon="11.9729533"><ele>192.0</ele><time>2026-04-12T09:46:26.912Z</time></trkpt><trkpt lat="44.0217217" lon="11.972845"><ele>191.75</ele><time>2026-04-12T09:46:27.912Z</time></trkpt><trkpt lat="44.0216033" lon="11.97274"><ele>191.5</ele><time>2026-04-12T09:46:28.912Z</time></trkpt><trkpt lat="44.02149" lon="11.9726317"><ele>191.25</ele><time>2026-04-12T09:46:29.912Z</time></trkpt><trkpt lat="44.021375" lon="11.9725183"><ele>191.0</ele><time>2026-04-12T09:46:30.913Z</time></trkpt><trkpt lat="44.0212517" lon="11.9724067"><ele>191.0</ele><time>2026-04-12T09:46:31.912Z</time></trkpt><trkpt lat="44.0211267" lon="11.9722917"><ele>191.0</ele><time>2026-04-12T09:46:32.913Z</time></trkpt><trkpt lat="44.0209983" lon="11.9721717"><ele>191.0</ele><time>2026-04-12T09:46:33.913Z</time></trkpt><trkpt lat="44.02087" lon="11.9720483"><ele>191.33333333333331</ele><time>2026-04-12T09:46:34.912Z</time></trkpt><trkpt lat="44.0207417" lon="11.9719317"><ele>191.66666666666666</ele><time>2026-04-12T09:46:35.912Z</time></trkpt><trkpt lat="44.0206167" lon="11.9718083"><ele>192.0</ele><time>2026-04-12T09:46:36.912Z</time></trkpt><trkpt lat="44.02049" lon="11.9716883"><ele>192.0</ele><time>2026-04-12T09:46:37.913Z</time></trkpt><trkpt lat="44.020365" lon="11.97157"><ele>192.0</ele><time>2026-04-12T09:46:38.913Z</time></trkpt><trkpt lat="44.0202367" lon="11.971455"><ele>192.0</ele><time>2026-04-12T09:46:39.912Z</time></trkpt><trkpt lat="44.0201117" lon="11.9713383"><ele>192.0</ele><time>2026-04-12T09:46:40.912Z</time></trkpt><trkpt lat="44.0199867" lon="11.9712167"><ele>192.0</ele><time>2026-04-12T09:46:41.913Z</time></trkpt><trkpt lat="44.0198633" lon="11.9710967"><ele>192.0</ele><time>2026-04-12T09:46:42.913Z</time></trkpt><trkpt lat="44.0197417" lon="11.9709817"><ele>192.5</ele><time>2026-04-12T09:46:43.912Z</time></trkpt><trkpt lat="44.0196183" lon="11.9708633"><ele>193.0</ele><time>2026-04-12T09:46:44.912Z</time></trkpt><trkpt lat="44.0194933" lon="11.9707483"><ele>193.5</ele><time>2026-04-12T09:46:45.912Z</time></trkpt><trkpt lat="44.01937" lon="11.9706383"><ele>194.0</ele><time>2026-04-12T09:46:46.912Z</time></trkpt><trkpt lat="44.019245" lon="11.9705233"><ele>198.25</ele><time>2026-04-12T09:46:47.912Z</time></trkpt><trkpt lat="44.0191233" lon="11.970405"><ele>202.5</ele><time>2026-04-12T09:46:48.913Z</time></trkpt><trkpt lat="44.0190033" lon="11.9702867"><ele>206.75</ele><time>2026-04-12T09:46:49.912Z</time></trkpt><trkpt lat="44.0188817" lon="11.9701717"><ele>211.0</ele><time>2026-04-12T09:46:50.913Z</time></trkpt><trkpt lat="44.0187617" lon="11.9700517"><ele>212.5</ele><time>2026-04-12T09:46:51.912Z</time></trkpt><trkpt lat="44.0186433" lon="11.9699417"><ele>214.0</ele><time>2026-04-12T09:46:52.913Z</time></trkpt><trkpt lat="44.0185217" lon="11.969835"><ele>215.5</ele><time>2026-04-12T09:46:53.913Z</time></trkpt><trkpt lat="44.0183967" lon="11.969735"><ele>217.0</ele><time>2026-04-12T09:46:54.912Z</time></trkpt><trkpt lat="44.018275" lon="11.96963"><ele>217.0</ele><time>2026-04-12T09:46:55.912Z</time></trkpt><trkpt lat="44.0181567" lon="11.9695217"><ele>217.0</ele><time>2026-04-12T09:46:56.913Z</time></trkpt><trkpt lat="44.0180417" lon="11.969405"><ele>217.0</ele><time>2026-04-12T09:46:57.913Z</time></trkpt><trkpt lat="44.0179283" lon="11.9692833"><ele>217.0</ele><time>2026-04-12T09:46:58.912Z</time></trkpt><trkpt lat="44.0178267" lon="11.9691533"><ele>212.33333333333331</ele><time>2026-04-12T09:46:59.912Z</time></trkpt><trkpt lat="44.0177233" lon="11.96902"><ele>207.66666666666669</ele><time>2026-04-12T09:47:00.912Z</time></trkpt><trkpt lat="44.0176317" lon="11.9688867"><ele>203.0</ele><time>2026-04-12T09:47:01.912Z</time></trkpt><trkpt lat="44.0174767" lon="11.9686233"><ele>203.0</ele><time>2026-04-12T09:47:03.912Z</time></trkpt><trkpt lat="44.017405" lon="11.968495"><ele>203.0</ele><time>2026-04-12T09:47:04.912Z</time></trkpt><trkpt lat="44.0173433" lon="11.9683583"><ele>203.0</ele><time>2026-04-12T09:47:05.912Z</time></trkpt><trkpt lat="44.0172817" lon="11.9682167"><ele>203.0</ele><time>2026-04-12T09:47:06.913Z</time></trkpt><trkpt lat="44.017225" lon="11.9680783"><ele>201.75</ele><time>2026-04-12T09:47:07.912Z</time></trkpt><trkpt lat="44.0171683" lon="11.9679317"><ele>200.5</ele><time>2026-04-12T09:47:08.913Z</time></trkpt><trkpt lat="44.01711" lon="11.9677767"><ele>199.25</ele><time>2026-04-12T09:47:09.912Z</time></trkpt><trkpt lat="44.0170567" lon="11.9676217"><ele>198.0</ele><time>2026-04-12T09:47:10.913Z</time></trkpt><trkpt lat="44.017015" lon="11.9674567"><ele>196.25</ele><time>2026-04-12T09:47:11.912Z</time></trkpt><trkpt lat="44.0169683" lon="11.967285"><ele>194.5</ele><time>2026-04-12T09:47:12.912Z</time></trkpt><trkpt lat="44.0169233" lon="11.9671167"><ele>192.75</ele><time>2026-04-12T09:47:13.912Z</time></trkpt><trkpt lat="44.0168817" lon="11.9669517"><ele>191.0</ele><time>2026-04-12T09:47:14.912Z</time></trkpt><trkpt lat="44.0168367" lon="11.966785"><ele>190.75</ele><time>2026-04-12T09:47:15.912Z</time></trkpt><trkpt lat="44.016785" lon="11.96662"><ele>190.5</ele><time>2026-04-12T09:47:16.913Z</time></trkpt><trkpt lat="44.01673" lon="11.9664567"><ele>190.25</ele><time>2026-04-12T09:47:17.912Z</time></trkpt><trkpt lat="44.016675" lon="11.9662983"><ele>190.0</ele><time>2026-04-12T09:47:18.912Z</time></trkpt><trkpt lat="44.0166183" lon="11.9661433"><ele>188.25</ele><time>2026-04-12T09:47:19.912Z</time></trkpt><trkpt lat="44.0165617" lon="11.9659983"><ele>186.5</ele><time>2026-04-12T09:47:20.913Z</time></trkpt><trkpt lat="44.016495" lon="11.9658633"><ele>184.75</ele><time>2026-04-12T09:47:21.912Z</time></trkpt><trkpt lat="44.0164217" lon="11.9657317"><ele>183.0</ele><time>2026-04-12T09:47:22.912Z</time></trkpt><trkpt lat="44.0163433" lon="11.9656067"><ele>181.75</ele><time>2026-04-12T09:47:23.912Z</time></trkpt><trkpt lat="44.0162533" lon="11.9654867"><ele>180.5</ele><time>2026-04-12T09:47:24.912Z</time></trkpt><trkpt lat="44.0161583" lon="11.9653717"><ele>179.25</ele><time>2026-04-12T09:47:25.912Z</time></trkpt><trkpt lat="44.0160667" lon="11.965255"><ele>178.0</ele><time>2026-04-12T09:47:26.913Z</time></trkpt><trkpt lat="44.0159717" lon="11.965145"><ele>178.0</ele><time>2026-04-12T09:47:27.912Z</time></trkpt><trkpt lat="44.0158767" lon="11.965035"><ele>178.0</ele><time>2026-04-12T09:47:28.912Z</time></trkpt><trkpt lat="44.01578" lon="11.9649217"><ele>178.0</ele><time>2026-04-12T09:47:29.913Z</time></trkpt><trkpt lat="44.01568" lon="11.9648117"><ele>178.0</ele><time>2026-04-12T09:47:30.912Z</time></trkpt><trkpt lat="44.015585" lon="11.964695"><ele>179.75</ele><time>2026-04-12T09:47:31.911Z</time></trkpt><trkpt lat="44.015485" lon="11.9645783"><ele>181.5</ele><time>2026-04-12T09:47:32.911Z</time></trkpt><trkpt lat="44.0153933" lon="11.964465"><ele>183.25</ele><time>2026-04-12T09:47:33.911Z</time></trkpt><trkpt lat="44.0153017" lon="11.96436"><ele>185.0</ele><time>2026-04-12T09:47:34.911Z</time></trkpt><trkpt lat="44.0152133" lon="11.964245"><ele>183.5</ele><time>2026-04-12T09:47:35.912Z</time></trkpt><trkpt lat="44.0151233" lon="11.964135"><ele>182.0</ele><time>2026-04-12T09:47:36.911Z</time></trkpt><trkpt lat="44.0150333" lon="11.9640267"><ele>180.5</ele><time>2026-04-12T09:47:37.911Z</time></trkpt><trkpt lat="44.0149417" lon="11.9639167"><ele>179.0</ele><time>2026-04-12T09:47:38.912Z</time></trkpt><trkpt lat="44.0148533" lon="11.963805"><ele>183.5</ele><time>2026-04-12T09:47:39.911Z</time></trkpt><trkpt lat="44.014765" lon="11.9636967"><ele>188.0</ele><time>2026-04-12T09:47:40.912Z</time></trkpt><trkpt lat="44.014675" lon="11.9635867"><ele>192.5</ele><time>2026-04-12T09:47:41.911Z</time></trkpt><trkpt lat="44.0145867" lon="11.9634783"><ele>197.0</ele><time>2026-04-12T09:47:42.912Z</time></trkpt><trkpt lat="44.0144933" lon="11.9633717"><ele>194.75</ele><time>2026-04-12T09:47:43.911Z</time></trkpt><trkpt lat="44.0143967" lon="11.96326"><ele>192.5</ele><time>2026-04-12T09:47:44.911Z</time></trkpt><trkpt lat="44.0143" lon="11.963145"><ele>190.25</ele><time>2026-04-12T09:47:45.912Z</time></trkpt><trkpt lat="44.0142083" lon="11.9630217"><ele>188.0</ele><time>2026-04-12T09:47:46.911Z</time></trkpt><trkpt lat="44.0141217" lon="11.96289"><ele>190.0</ele><time>2026-04-12T09:47:47.911Z</time></trkpt><trkpt lat="44.01404" lon="11.9627583"><ele>192.0</ele><time>2026-04-12T09:47:48.911Z</time></trkpt><trkpt lat="44.0139583" lon="11.9626217"><ele>194.0</ele><time>2026-04-12T09:47:49.911Z</time></trkpt><trkpt lat="44.0138783" lon="11.962475"><ele>196.0</ele><time>2026-04-12T09:47:50.911Z</time></trkpt><trkpt lat="44.013805" lon="11.962325"><ele>196.0</ele><time>2026-04-12T09:47:51.912Z</time></trkpt><trkpt lat="44.0137267" lon="11.96217"><ele>196.0</ele><time>2026-04-12T09:47:52.912Z</time></trkpt><trkpt lat="44.01365" lon="11.9620233"><ele>196.0</ele><time>2026-04-12T09:47:53.911Z</time></trkpt><trkpt lat="44.0135733" lon="11.96187"><ele>196.0</ele><time>2026-04-12T09:47:54.911Z</time></trkpt><trkpt lat="44.013495" lon="11.9617217"><ele>194.25</ele><time>2026-04-12T09:47:55.911Z</time></trkpt><trkpt lat="44.0134167" lon="11.961575"><ele>192.5</ele><time>2026-04-12T09:47:56.911Z</time></trkpt><trkpt lat="44.0133417" lon="11.9614283"><ele>190.75</ele><time>2026-04-12T09:47:57.911Z</time></trkpt><trkpt lat="44.0132783" lon="11.9612817"><ele>189.0</ele><time>2026-04-12T09:47:58.911Z</time></trkpt><trkpt lat="44.0132267" lon="11.96113"><ele>192.25</ele><time>2026-04-12T09:47:59.911Z</time></trkpt><trkpt lat="44.0131783" lon="11.9609867"><ele>195.5</ele><time>2026-04-12T09:48:00.911Z</time></trkpt><trkpt lat="44.01314" lon="11.9608367"><ele>198.75</ele><time>2026-04-12T09:48:01.912Z</time></trkpt><trkpt lat="44.0131117" lon="11.9606833"><ele>202.0</ele><time>2026-04-12T09:48:02.911Z</time></trkpt><trkpt lat="44.0130917" lon="11.9605333"><ele>202.0</ele><time>2026-04-12T09:48:03.911Z</time></trkpt><trkpt lat="44.01307" lon="11.9603717"><ele>202.0</ele><time>2026-04-12T09:48:04.911Z</time></trkpt><trkpt lat="44.0130383" lon="11.9602067"><ele>202.0</ele><time>2026-04-12T09:48:05.912Z</time></trkpt><trkpt lat="44.0130117" lon="11.960035"><ele>202.0</ele><time>2026-04-12T09:48:06.911Z</time></trkpt><trkpt lat="44.012985" lon="11.959855"><ele>199.75</ele><time>2026-04-12T09:48:07.911Z</time></trkpt><trkpt lat="44.0129583" lon="11.959675"><ele>197.5</ele><time>2026-04-12T09:48:08.912Z</time></trkpt><trkpt lat="44.0129317" lon="11.9594867"><ele>195.25</ele><time>2026-04-12T09:48:09.911Z</time></trkpt><trkpt lat="44.01291" lon="11.9592983"><ele>193.0</ele><time>2026-04-12T09:48:10.912Z</time></trkpt><trkpt lat="44.0128817" lon="11.9591067"><ele>191.75</ele><time>2026-04-12T09:48:11.911Z</time></trkpt><trkpt lat="44.0128517" lon="11.958915"><ele>190.5</ele><time>2026-04-12T09:48:12.911Z</time></trkpt><trkpt lat="44.0128267" lon="11.958725"><ele>189.25</ele><time>2026-04-12T09:48:13.911Z</time></trkpt><trkpt lat="44.0128" lon="11.9585317"><ele>188.0</ele><time>2026-04-12T09:48:14.911Z</time></trkpt><trkpt lat="44.0127683" lon="11.9583417"><ele>187.25</ele><time>2026-04-12T09:48:15.911Z</time></trkpt><trkpt lat="44.0127333" lon="11.9581583"><ele>186.5</ele><time>2026-04-12T09:48:16.911Z</time></trkpt><trkpt lat="44.0127067" lon="11.957965"><ele>185.75</ele><time>2026-04-12T09:48:17.911Z</time></trkpt><trkpt lat="44.0126817" lon="11.9577783"><ele>185.0</ele><time>2026-04-12T09:48:18.911Z</time></trkpt><trkpt lat="44.0126567" lon="11.9575883"><ele>184.75</ele><time>2026-04-12T09:48:19.911Z</time></trkpt><trkpt lat="44.01263" lon="11.9573933"><ele>184.5</ele><time>2026-04-12T09:48:20.911Z</time></trkpt><trkpt lat="44.012605" lon="11.9572083"><ele>184.25</ele><time>2026-04-12T09:48:21.911Z</time></trkpt><trkpt lat="44.0125767" lon="11.9570183"><ele>184.0</ele><time>2026-04-12T09:48:22.911Z</time></trkpt><trkpt lat="44.0125483" lon="11.9568333"><ele>183.5</ele><time>2026-04-12T09:48:23.912Z</time></trkpt><trkpt lat="44.0125133" lon="11.95664"><ele>183.0</ele><time>2026-04-12T09:48:24.912Z</time></trkpt><trkpt lat="44.0124817" lon="11.956445"><ele>182.5</ele><time>2026-04-12T09:48:25.911Z</time></trkpt><trkpt lat="44.0124567" lon="11.9562517"><ele>182.0</ele><time>2026-04-12T09:48:26.911Z</time></trkpt><trkpt lat="44.0124283" lon="11.9560617"><ele>184.75</ele><time>2026-04-12T09:48:27.911Z</time></trkpt><trkpt lat="44.0124" lon="11.95587"><ele>187.5</ele><time>2026-04-12T09:48:28.912Z</time></trkpt><trkpt lat="44.0123667" lon="11.95567"><ele>190.25</ele><time>2026-04-12T09:48:29.911Z</time></trkpt><trkpt lat="44.0123383" lon="11.9554767"><ele>193.0</ele><time>2026-04-12T09:48:30.911Z</time></trkpt><trkpt lat="44.0123067" lon="11.9552783"><ele>193.0</ele><time>2026-04-12T09:48:31.911Z</time></trkpt><trkpt lat="44.01227" lon="11.95509"><ele>193.0</ele><time>2026-04-12T09:48:32.911Z</time></trkpt><trkpt lat="44.012235" lon="11.9548983"><ele>193.0</ele><time>2026-04-12T09:48:33.911Z</time></trkpt><trkpt lat="44.0121967" lon="11.9547133"><ele>193.0</ele><time>2026-04-12T09:48:34.912Z</time></trkpt><trkpt lat="44.0121533" lon="11.9545283"><ele>193.0</ele><time>2026-04-12T09:48:35.911Z</time></trkpt><trkpt lat="44.012105" lon="11.954355"><ele>193.0</ele><time>2026-04-12T09:48:36.911Z</time></trkpt><trkpt lat="44.0120567" lon="11.9541817"><ele>193.0</ele><time>2026-04-12T09:48:37.911Z</time></trkpt><trkpt lat="44.0120067" lon="11.9540067"><ele>193.0</ele><time>2026-04-12T09:48:38.912Z</time></trkpt><trkpt lat="44.011945" lon="11.9538467"><ele>192.25</ele><time>2026-04-12T09:48:39.911Z</time></trkpt><trkpt lat="44.0118917" lon="11.9536883"><ele>191.5</ele><time>2026-04-12T09:48:40.911Z</time></trkpt><trkpt lat="44.0118367" lon="11.9535333"><ele>190.75</ele><time>2026-04-12T09:48:41.912Z</time></trkpt><trkpt lat="44.0117833" lon="11.9533767"><ele>190.0</ele><time>2026-04-12T09:48:42.911Z</time></trkpt><trkpt lat="44.0117333" lon="11.9532267"><ele>189.0</ele><time>2026-04-12T09:48:43.911Z</time></trkpt><trkpt lat="44.0116833" lon="11.953075"><ele>188.0</ele><time>2026-04-12T09:48:44.911Z</time></trkpt><trkpt lat="44.0116283" lon="11.9529217"><ele>187.0</ele><time>2026-04-12T09:48:45.912Z</time></trkpt><trkpt lat="44.0115733" lon="11.9527717"><ele>186.0</ele><time>2026-04-12T09:48:46.911Z</time></trkpt><trkpt lat="44.0115217" lon="11.9526117"><ele>188.75</ele><time>2026-04-12T09:48:47.911Z</time></trkpt><trkpt lat="44.01147" lon="11.9524533"><ele>191.5</ele><time>2026-04-12T09:48:48.911Z</time></trkpt><trkpt lat="44.011415" lon="11.9523"><ele>194.25</ele><time>2026-04-12T09:48:49.911Z</time></trkpt><trkpt lat="44.0113667" lon="11.95214"><ele>197.0</ele><time>2026-04-12T09:48:50.911Z</time></trkpt><trkpt lat="44.0113133" lon="11.951975"><ele>197.0</ele><time>2026-04-12T09:48:51.911Z</time></trkpt><trkpt lat="44.0112583" lon="11.9518083"><ele>197.0</ele><time>2026-04-12T09:48:52.911Z</time></trkpt><trkpt lat="44.011205" lon="11.9516367"><ele>197.0</ele><time>2026-04-12T09:48:53.911Z</time></trkpt><trkpt lat="44.0111483" lon="11.95146"><ele>197.0</ele><time>2026-04-12T09:48:54.911Z</time></trkpt><trkpt lat="44.0110867" lon="11.95127"><ele>196.0</ele><time>2026-04-12T09:48:55.911Z</time></trkpt><trkpt lat="44.0110067" lon="11.95104"><ele>195.0</ele><time>2026-04-12T09:48:56.911Z</time></trkpt><trkpt lat="44.0109283" lon="11.9507867"><ele>194.0</ele><time>2026-04-12T09:48:57.912Z</time></trkpt><trkpt lat="44.010845" lon="11.95055"><ele>197.33333333333334</ele><time>2026-04-12T09:48:58.911Z</time></trkpt><trkpt lat="44.0107717" lon="11.9503333"><ele>200.66666666666669</ele><time>2026-04-12T09:48:59.912Z</time></trkpt><trkpt lat="44.0107033" lon="11.95012"><ele>204.0</ele><time>2026-04-12T09:49:00.912Z</time></trkpt><trkpt lat="44.010635" lon="11.9499167"><ele>204.0</ele><time>2026-04-12T09:49:01.911Z</time></trkpt><trkpt lat="44.0105633" lon="11.949715"><ele>204.0</ele><time>2026-04-12T09:49:02.911Z</time></trkpt><trkpt lat="44.010495" lon="11.949515"><ele>204.0</ele><time>2026-04-12T09:49:03.911Z</time></trkpt><trkpt lat="44.01043" lon="11.9493083"><ele>203.0</ele><time>2026-04-12T09:49:04.911Z</time></trkpt><trkpt lat="44.010365" lon="11.9491083"><ele>202.0</ele><time>2026-04-12T09:49:05.911Z</time></trkpt><trkpt lat="44.0102883" lon="11.94892"><ele>201.0</ele><time>2026-04-12T09:49:06.911Z</time></trkpt><trkpt lat="44.0102217" lon="11.9487317"><ele>201.0</ele><time>2026-04-12T09:49:07.911Z</time></trkpt><trkpt lat="44.0101483" lon="11.9485467"><ele>201.0</ele><time>2026-04-12T09:49:08.912Z</time></trkpt><trkpt lat="44.0100667" lon="11.9483733"><ele>201.0</ele><time>2026-04-12T09:49:09.912Z</time></trkpt><trkpt lat="44.0099783" lon="11.9482017"><ele>200.5</ele><time>2026-04-12T09:49:10.911Z</time></trkpt><trkpt lat="44.00989" lon="11.9480383"><ele>200.0</ele><time>2026-04-12T09:49:11.911Z</time></trkpt><trkpt lat="44.0098067" lon="11.9478683"><ele>199.5</ele><time>2026-04-12T09:49:12.911Z</time></trkpt><trkpt lat="44.00973" lon="11.9476983"><ele>199.0</ele><time>2026-04-12T09:49:13.911Z</time></trkpt><trkpt lat="44.0096533" lon="11.9475233"><ele>199.0</ele><time>2026-04-12T09:49:14.911Z</time></trkpt><trkpt lat="44.0095783" lon="11.94735"><ele>199.0</ele><time>2026-04-12T09:49:15.911Z</time></trkpt><trkpt lat="44.0095" lon="11.9471783"><ele>199.0</ele><time>2026-04-12T09:49:16.911Z</time></trkpt><trkpt lat="44.0094133" lon="11.9470217"><ele>199.0</ele><time>2026-04-12T09:49:17.911Z</time></trkpt><trkpt lat="44.0093283" lon="11.9468633"><ele>198.25</ele><time>2026-04-12T09:49:18.911Z</time></trkpt><trkpt lat="44.00925" lon="11.9467"><ele>197.5</ele><time>2026-04-12T09:49:19.911Z</time></trkpt><trkpt lat="44.0091767" lon="11.94653"><ele>196.75</ele><time>2026-04-12T09:49:20.912Z</time></trkpt><trkpt lat="44.0090983" lon="11.9463733"><ele>196.0</ele><time>2026-04-12T09:49:21.911Z</time></trkpt><trkpt lat="44.0090283" lon="11.9462133"><ele>198.0</ele><time>2026-04-12T09:49:22.911Z</time></trkpt><trkpt lat="44.00895" lon="11.94607"><ele>200.0</ele><time>2026-04-12T09:49:23.911Z</time></trkpt><trkpt lat="44.0088717" lon="11.9459267"><ele>202.0</ele><time>2026-04-12T09:49:24.911Z</time></trkpt><trkpt lat="44.0087817" lon="11.9457933"><ele>204.0</ele><time>2026-04-12T09:49:25.911Z</time></trkpt><trkpt lat="44.00867" lon="11.9456833"><ele>204.0</ele><time>2026-04-12T09:49:26.911Z</time></trkpt><trkpt lat="44.0085467" lon="11.9455817"><ele>204.0</ele><time>2026-04-12T09:49:27.911Z</time></trkpt><trkpt lat="44.0084133" lon="11.9454783"><ele>204.0</ele><time>2026-04-12T09:49:28.912Z</time></trkpt><trkpt lat="44.0082783" lon="11.94537"><ele>208.66666666666669</ele><time>2026-04-12T09:49:29.912Z</time></trkpt><trkpt lat="44.0081417" lon="11.9452633"><ele>213.33333333333334</ele><time>2026-04-12T09:49:30.912Z</time></trkpt><trkpt lat="44.0080083" lon="11.94516"><ele>218.0</ele><time>2026-04-12T09:49:31.911Z</time></trkpt><trkpt lat="44.00787" lon="11.9450633"><ele>218.0</ele><time>2026-04-12T09:49:32.911Z</time></trkpt><trkpt lat="44.00773" lon="11.9449717"><ele>218.0</ele><time>2026-04-12T09:49:33.911Z</time></trkpt><trkpt lat="44.007605" lon="11.9448733"><ele>218.0</ele><time>2026-04-12T09:49:34.912Z</time></trkpt><trkpt lat="44.0074883" lon="11.9447917"><ele>218.0</ele><time>2026-04-12T09:49:35.912Z</time></trkpt><trkpt lat="44.007375" lon="11.9447267"><ele>218.0</ele><time>2026-04-12T09:49:36.911Z</time></trkpt><trkpt lat="44.0072783" lon="11.9446567"><ele>218.0</ele><time>2026-04-12T09:49:37.912Z</time></trkpt><trkpt lat="44.00718" lon="11.9445917"><ele>218.0</ele><time>2026-04-12T09:49:38.911Z</time></trkpt><trkpt lat="44.0070867" lon="11.94453"><ele>218.0</ele><time>2026-04-12T09:49:39.912Z</time></trkpt><trkpt lat="44.0069867" lon="11.9444667"><ele>218.0</ele><time>2026-04-12T09:49:40.912Z</time></trkpt><trkpt lat="44.0068933" lon="11.944395"><ele>218.0</ele><time>2026-04-12T09:49:41.911Z</time></trkpt><trkpt lat="44.0068" lon="11.9443183"><ele>218.0</ele><time>2026-04-12T09:49:42.911Z</time></trkpt><trkpt lat="44.0067167" lon="11.9442233"><ele>218.0</ele><time>2026-04-12T09:49:43.911Z</time></trkpt><trkpt lat="44.0066367" lon="11.9441233"><ele>218.0</ele><time>2026-04-12T09:49:44.912Z</time></trkpt><trkpt lat="44.0065683" lon="11.944005"><ele>218.0</ele><time>2026-04-12T09:49:45.911Z</time></trkpt><trkpt lat="44.0065083" lon="11.9438817"><ele>219.0</ele><time>2026-04-12T09:49:46.911Z</time></trkpt><trkpt lat="44.0064567" lon="11.9437517"><ele>220.0</ele><time>2026-04-12T09:49:47.912Z</time></trkpt><trkpt lat="44.0064217" lon="11.9436133"><ele>221.0</ele><time>2026-04-12T09:49:48.911Z</time></trkpt><trkpt lat="44.0063967" lon="11.943475"><ele>222.0</ele><time>2026-04-12T09:49:49.911Z</time></trkpt><trkpt lat="44.0063833" lon="11.9433333"><ele>223.0</ele><time>2026-04-12T09:49:50.912Z</time></trkpt><trkpt lat="44.0063867" lon="11.943195"><ele>223.0</ele><time>2026-04-12T09:49:51.911Z</time></trkpt><trkpt lat="44.0064" lon="11.94305"><ele>223.0</ele><time>2026-04-12T09:49:52.911Z</time></trkpt><trkpt lat="44.00642" lon="11.94291"><ele>223.0</ele><time>2026-04-12T09:49:53.911Z</time></trkpt><trkpt lat="44.0064367" lon="11.94277"><ele>223.0</ele><time>2026-04-12T09:49:54.912Z</time></trkpt><trkpt lat="44.006455" lon="11.9426317"><ele>223.0</ele><time>2026-04-12T09:49:55.911Z</time></trkpt><trkpt lat="44.00648" lon="11.94249"><ele>223.2</ele><time>2026-04-12T09:49:56.911Z</time></trkpt><trkpt lat="44.006505" lon="11.942355"><ele>223.4</ele><time>2026-04-12T09:49:57.912Z</time></trkpt><trkpt lat="44.0065317" lon="11.9422333"><ele>223.59999999999997</ele><time>2026-04-12T09:49:58.911Z</time></trkpt><trkpt lat="44.0065633" lon="11.94212"><ele>223.79999999999998</ele><time>2026-04-12T09:49:59.911Z</time></trkpt><trkpt lat="44.0066033" lon="11.94201"><ele>224.0</ele><time>2026-04-12T09:50:00.911Z</time></trkpt><trkpt lat="44.00665" lon="11.9419167"><ele>223.00000000000003</ele><time>2026-04-12T09:50:01.911Z</time></trkpt><trkpt lat="44.0067083" lon="11.94183"><ele>222.0</ele><time>2026-04-12T09:50:02.911Z</time></trkpt><trkpt lat="44.00677" lon="11.94176"><ele>221.0</ele><time>2026-04-12T09:50:03.911Z</time></trkpt><trkpt lat="44.0068233" lon="11.9416883"><ele>220.0</ele><time>2026-04-12T09:50:04.911Z</time></trkpt><trkpt lat="44.006875" lon="11.9416083"><ele>219.00000000000003</ele><time>2026-04-12T09:50:05.911Z</time></trkpt><trkpt lat="44.0069217" lon="11.9415267"><ele>218.0</ele><time>2026-04-12T09:50:06.911Z</time></trkpt><trkpt lat="44.0069667" lon="11.9414567"><ele>218.0</ele><time>2026-04-12T09:50:07.912Z</time></trkpt><trkpt lat="44.0070033" lon="11.941385"><ele>218.0</ele><time>2026-04-12T09:50:08.911Z</time></trkpt><trkpt lat="44.0070833" lon="11.9412617"><ele>218.0</ele><time>2026-04-12T09:50:10.911Z</time></trkpt><trkpt lat="44.0071683" lon="11.9411717"><ele>218.0</ele><time>2026-04-12T09:50:12.912Z</time></trkpt><trkpt lat="44.00723" lon="11.941035"><ele>218.0</ele><time>2026-04-12T09:50:14.911Z</time></trkpt><trkpt lat="44.0072567" lon="11.9409417"><ele>218.28571428571428</ele><time>2026-04-12T09:50:15.912Z</time></trkpt><trkpt lat="44.0072817" lon="11.9408533"><ele>218.57142857142858</ele><time>2026-04-12T09:50:16.912Z</time></trkpt><trkpt lat="44.0072983" lon="11.9407683"><ele>218.85714285714283</ele><time>2026-04-12T09:50:17.911Z</time></trkpt><trkpt lat="44.0073133" lon="11.940615"><ele>219.14285714285714</ele><time>2026-04-12T09:50:19.912Z</time></trkpt><trkpt lat="44.00731" lon="11.9405267"><ele>219.42857142857142</ele><time>2026-04-12T09:50:20.911Z</time></trkpt><trkpt lat="44.0073033" lon="11.940435"><ele>219.7142857142857</ele><time>2026-04-12T09:50:21.912Z</time></trkpt><trkpt lat="44.0072983" lon="11.9403383"><ele>220.0</ele><time>2026-04-12T09:50:22.911Z</time></trkpt><trkpt lat="44.00729" lon="11.94018"><ele>220.0</ele><time>2026-04-12T09:50:24.912Z</time></trkpt><trkpt lat="44.007285" lon="11.94005"><ele>220.0</ele><time>2026-04-12T09:50:26.911Z</time></trkpt><trkpt lat="44.0072767" lon="11.93993"><ele>220.0</ele><time>2026-04-12T09:50:28.911Z</time></trkpt><trkpt lat="44.0072683" lon="11.9397883"><ele>220.0</ele><time>2026-04-12T09:50:30.911Z</time></trkpt><trkpt lat="44.0072617" lon="11.9396367"><ele>220.0</ele><time>2026-04-12T09:50:32.912Z</time></trkpt><trkpt lat="44.00725" lon="11.939485"><ele>219.8</ele><time>2026-04-12T09:50:34.912Z</time></trkpt><trkpt lat="44.0072283" lon="11.93934"><ele>219.6</ele><time>2026-04-12T09:50:36.912Z</time></trkpt><trkpt lat="44.0072233" lon="11.9391967"><ele>219.39999999999998</ele><time>2026-04-12T09:50:38.911Z</time></trkpt><trkpt lat="44.0072183" lon="11.9390683"><ele>219.2</ele><time>2026-04-12T09:50:40.911Z</time></trkpt><trkpt lat="44.00721" lon="11.9389533"><ele>219.0</ele><time>2026-04-12T09:50:42.912Z</time></trkpt><trkpt lat="44.0072" lon="11.93883"><ele>219.0</ele><time>2026-04-12T09:50:44.911Z</time></trkpt><trkpt lat="44.007185" lon="11.9387"><ele>218.99999999999997</ele><time>2026-04-12T09:50:46.912Z</time></trkpt><trkpt lat="44.0071833" lon="11.9385583"><ele>218.99999999999997</ele><time>2026-04-12T09:50:48.912Z</time></trkpt><trkpt lat="44.0071767" lon="11.9384033"><ele>219.0</ele><time>2026-04-12T09:50:50.911Z</time></trkpt><trkpt lat="44.007165" lon="11.9382567"><ele>219.0</ele><time>2026-04-12T09:50:52.912Z</time></trkpt><trkpt lat="44.00716" lon="11.9381167"><ele>219.0</ele><time>2026-04-12T09:50:54.912Z</time></trkpt><trkpt lat="44.0071667" lon="11.9379917"><ele>218.99999999999997</ele><time>2026-04-12T09:50:56.912Z</time></trkpt><trkpt lat="44.0071717" lon="11.9379017"><ele>218.99999999999997</ele><time>2026-04-12T09:50:58.911Z</time></trkpt><trkpt lat="44.0071467" lon="11.9377617"><ele>219.0</ele><time>2026-04-12T09:52:47.911Z</time></trkpt><trkpt lat="44.0071467" lon="11.937555"><ele>219.0</ele><time>2026-04-12T09:52:49.91Z</time></trkpt><trkpt lat="44.0071383" lon="11.9373767"><ele>219.0</ele><time>2026-04-12T09:52:50.91Z</time></trkpt><trkpt lat="44.0071183" lon="11.937145"><ele>219.0</ele><time>2026-04-12T09:52:51.911Z</time></trkpt><trkpt lat="44.0071033" lon="11.9369217"><ele>219.0</ele><time>2026-04-12T09:52:52.91Z</time></trkpt><trkpt lat="44.0070833" lon="11.93672"><ele>219.0</ele><time>2026-04-12T09:52:53.911Z</time></trkpt><trkpt lat="44.00707" lon="11.9365367"><ele>219.0</ele><time>2026-04-12T09:52:54.911Z</time></trkpt><trkpt lat="44.0070583" lon="11.936385"><ele>219.0</ele><time>2026-04-12T09:52:55.91Z</time></trkpt><trkpt lat="44.007045" lon="11.9362233"><ele>219.0</ele><time>2026-04-12T09:52:56.91Z</time></trkpt><trkpt lat="44.0070317" lon="11.9360633"><ele>219.0</ele><time>2026-04-12T09:52:57.91Z</time></trkpt><trkpt lat="44.007025" lon="11.9358983"><ele>219.0</ele><time>2026-04-12T09:52:58.911Z</time></trkpt><trkpt lat="44.0070183" lon="11.9357367"><ele>219.0</ele><time>2026-04-12T09:52:59.91Z</time></trkpt><trkpt lat="44.0070067" lon="11.9355783"><ele>219.0</ele><time>2026-04-12T09:53:00.91Z</time></trkpt><trkpt lat="44.0069983" lon="11.9354267"><ele>219.0</ele><time>2026-04-12T09:53:01.91Z</time></trkpt><trkpt lat="44.00698" lon="11.9352767"><ele>219.0</ele><time>2026-04-12T09:53:02.91Z</time></trkpt><trkpt lat="44.006965" lon="11.9351167"><ele>219.0</ele><time>2026-04-12T09:53:03.91Z</time></trkpt><trkpt lat="44.006955" lon="11.93494"><ele>219.0</ele><time>2026-04-12T09:53:04.91Z</time></trkpt><trkpt lat="44.00695" lon="11.9347633"><ele>219.0</ele><time>2026-04-12T09:53:05.91Z</time></trkpt><trkpt lat="44.00693" lon="11.9345883"><ele>219.0</ele><time>2026-04-12T09:53:06.911Z</time></trkpt><trkpt lat="44.0069083" lon="11.93442"><ele>219.0</ele><time>2026-04-12T09:53:07.91Z</time></trkpt><trkpt lat="44.0068867" lon="11.93425"><ele>219.0</ele><time>2026-04-12T09:53:08.911Z</time></trkpt><trkpt lat="44.0068567" lon="11.9340767"><ele>219.0</ele><time>2026-04-12T09:53:09.911Z</time></trkpt><trkpt lat="44.0068167" lon="11.9339083"><ele>219.0</ele><time>2026-04-12T09:53:10.911Z</time></trkpt><trkpt lat="44.0067683" lon="11.93374"><ele>219.0</ele><time>2026-04-12T09:53:11.91Z</time></trkpt><trkpt lat="44.0067067" lon="11.9335767"><ele>219.0</ele><time>2026-04-12T09:53:12.91Z</time></trkpt><trkpt lat="44.006645" lon="11.933415"><ele>217.5</ele><time>2026-04-12T09:53:13.91Z</time></trkpt><trkpt lat="44.0065733" lon="11.933245"><ele>216.0</ele><time>2026-04-12T09:53:14.91Z</time></trkpt><trkpt lat="44.0064967" lon="11.9330717"><ele>214.5</ele><time>2026-04-12T09:53:15.91Z</time></trkpt><trkpt lat="44.00643" lon="11.9329033"><ele>213.0</ele><time>2026-04-12T09:53:16.911Z</time></trkpt><trkpt lat="44.00636" lon="11.93274"><ele>213.0</ele><time>2026-04-12T09:53:17.91Z</time></trkpt><trkpt lat="44.0063" lon="11.9325767"><ele>213.0</ele><time>2026-04-12T09:53:18.91Z</time></trkpt><trkpt lat="44.0062317" lon="11.93242"><ele>213.0</ele><time>2026-04-12T09:53:19.911Z</time></trkpt><trkpt lat="44.0061667" lon="11.9322683"><ele>213.0</ele><time>2026-04-12T09:53:20.911Z</time></trkpt><trkpt lat="44.0061" lon="11.9321167"><ele>212.75</ele><time>2026-04-12T09:53:21.91Z</time></trkpt><trkpt lat="44.0060317" lon="11.93196"><ele>212.5</ele><time>2026-04-12T09:53:22.91Z</time></trkpt><trkpt lat="44.005965" lon="11.9318067"><ele>212.25</ele><time>2026-04-12T09:53:23.911Z</time></trkpt><trkpt lat="44.0058967" lon="11.9316567"><ele>212.0</ele><time>2026-04-12T09:53:24.91Z</time></trkpt><trkpt lat="44.0058283" lon="11.9314983"><ele>213.75</ele><time>2026-04-12T09:53:25.91Z</time></trkpt><trkpt lat="44.0057583" lon="11.9313367"><ele>215.5</ele><time>2026-04-12T09:53:26.91Z</time></trkpt><trkpt lat="44.0056917" lon="11.9311733"><ele>217.25</ele><time>2026-04-12T09:53:27.91Z</time></trkpt><trkpt lat="44.00562" lon="11.9310083"><ele>219.0</ele><time>2026-04-12T09:53:28.91Z</time></trkpt><trkpt lat="44.005555" lon="11.9308333"><ele>221.0</ele><time>2026-04-12T09:53:29.911Z</time></trkpt><trkpt lat="44.00549" lon="11.9306583"><ele>223.0</ele><time>2026-04-12T09:53:30.91Z</time></trkpt><trkpt lat="44.00543" lon="11.9304767"><ele>225.0</ele><time>2026-04-12T09:53:31.91Z</time></trkpt><trkpt lat="44.0053783" lon="11.930295"><ele>227.0</ele><time>2026-04-12T09:53:32.91Z</time></trkpt><trkpt lat="44.005335" lon="11.9301117"><ele>228.5</ele><time>2026-04-12T09:53:33.91Z</time></trkpt><trkpt lat="44.0053" lon="11.92992"><ele>230.0</ele><time>2026-04-12T09:53:34.91Z</time></trkpt><trkpt lat="44.005275" lon="11.92973"><ele>231.5</ele><time>2026-04-12T09:53:35.91Z</time></trkpt><trkpt lat="44.0052633" lon="11.9295367"><ele>233.0</ele><time>2026-04-12T09:53:36.91Z</time></trkpt><trkpt lat="44.0052583" lon="11.929335"><ele>233.25</ele><time>2026-04-12T09:53:37.911Z</time></trkpt><trkpt lat="44.0052583" lon="11.9291417"><ele>233.5</ele><time>2026-04-12T09:53:38.91Z</time></trkpt><trkpt lat="44.005275" lon="11.9289483"><ele>233.75</ele><time>2026-04-12T09:53:39.91Z</time></trkpt><trkpt lat="44.0053017" lon="11.928745"><ele>234.0</ele><time>2026-04-12T09:53:40.91Z</time></trkpt><trkpt lat="44.0053233" lon="11.9285517"><ele>234.5</ele><time>2026-04-12T09:53:41.91Z</time></trkpt><trkpt lat="44.0053467" lon="11.9283583"><ele>235.0</ele><time>2026-04-12T09:53:42.91Z</time></trkpt><trkpt lat="44.00537" lon="11.928165"><ele>235.5</ele><time>2026-04-12T09:53:43.911Z</time></trkpt><trkpt lat="44.00539" lon="11.9279633"><ele>236.0</ele><time>2026-04-12T09:53:44.91Z</time></trkpt><trkpt lat="44.00541" lon="11.92777"><ele>236.0</ele><time>2026-04-12T09:53:45.91Z</time></trkpt><trkpt lat="44.00541" lon="11.92757"><ele>236.0</ele><time>2026-04-12T09:53:46.91Z</time></trkpt><trkpt lat="44.005405" lon="11.927375"><ele>236.0</ele><time>2026-04-12T09:53:47.91Z</time></trkpt><trkpt lat="44.0053917" lon="11.927175"><ele>236.0</ele><time>2026-04-12T09:53:48.91Z</time></trkpt><trkpt lat="44.00537" lon="11.9269733"><ele>236.5</ele><time>2026-04-12T09:53:49.91Z</time></trkpt><trkpt lat="44.00533" lon="11.9267733"><ele>237.0</ele><time>2026-04-12T09:53:50.911Z</time></trkpt><trkpt lat="44.0052917" lon="11.92657"><ele>237.5</ele><time>2026-04-12T09:53:51.91Z</time></trkpt><trkpt lat="44.0052533" lon="11.9263717"><ele>238.0</ele><time>2026-04-12T09:53:52.911Z</time></trkpt><trkpt lat="44.00521" lon="11.9261733"><ele>238.0</ele><time>2026-04-12T09:53:53.911Z</time></trkpt><trkpt lat="44.0051633" lon="11.9259783"><ele>238.0</ele><time>2026-04-12T09:53:54.91Z</time></trkpt><trkpt lat="44.0051133" lon="11.925785"><ele>238.0</ele><time>2026-04-12T09:53:55.91Z</time></trkpt><trkpt lat="44.005075" lon="11.9255933"><ele>238.0</ele><time>2026-04-12T09:53:56.91Z</time></trkpt><trkpt lat="44.0050333" lon="11.9253983"><ele>238.5</ele><time>2026-04-12T09:53:57.91Z</time></trkpt><trkpt lat="44.0049833" lon="11.9252117"><ele>239.0</ele><time>2026-04-12T09:53:58.911Z</time></trkpt><trkpt lat="44.0049367" lon="11.9250167"><ele>239.5</ele><time>2026-04-12T09:53:59.91Z</time></trkpt><trkpt lat="44.0048967" lon="11.924815"><ele>240.0</ele><time>2026-04-12T09:54:00.91Z</time></trkpt><trkpt lat="44.0048617" lon="11.9246183"><ele>240.0</ele><time>2026-04-12T09:54:01.91Z</time></trkpt><trkpt lat="44.0048067" lon="11.92442"><ele>240.0</ele><time>2026-04-12T09:54:02.911Z</time></trkpt><trkpt lat="44.0047533" lon="11.924205"><ele>240.0</ele><time>2026-04-12T09:54:03.91Z</time></trkpt><trkpt lat="44.0046983" lon="11.9239583"><ele>239.33333333333331</ele><time>2026-04-12T09:54:04.91Z</time></trkpt><trkpt lat="44.0046417" lon="11.9237233"><ele>238.66666666666666</ele><time>2026-04-12T09:54:05.91Z</time></trkpt><trkpt lat="44.0045917" lon="11.923495"><ele>238.0</ele><time>2026-04-12T09:54:06.911Z</time></trkpt><trkpt lat="44.0045417" lon="11.923275"><ele>237.33333333333331</ele><time>2026-04-12T09:54:07.911Z</time></trkpt><trkpt lat="44.0044983" lon="11.9230567"><ele>236.66666666666669</ele><time>2026-04-12T09:54:08.91Z</time></trkpt><trkpt lat="44.004445" lon="11.9228283"><ele>236.0</ele><time>2026-04-12T09:54:09.91Z</time></trkpt><trkpt lat="44.0043867" lon="11.9226217"><ele>235.66666666666669</ele><time>2026-04-12T09:54:10.91Z</time></trkpt><trkpt lat="44.0043233" lon="11.9224217"><ele>235.33333333333331</ele><time>2026-04-12T09:54:11.911Z</time></trkpt><trkpt lat="44.0042517" lon="11.9222267"><ele>235.0</ele><time>2026-04-12T09:54:12.91Z</time></trkpt><trkpt lat="44.0041733" lon="11.9220333"><ele>242.0</ele><time>2026-04-12T09:54:13.91Z</time></trkpt><trkpt lat="44.004095" lon="11.9218467"><ele>249.0</ele><time>2026-04-12T09:54:14.91Z</time></trkpt><trkpt lat="44.004025" lon="11.9216567"><ele>256.0</ele><time>2026-04-12T09:54:15.91Z</time></trkpt><trkpt lat="44.0039517" lon="11.921465"><ele>256.0</ele><time>2026-04-12T09:54:16.91Z</time></trkpt><trkpt lat="44.0038783" lon="11.921275"><ele>256.0</ele><time>2026-04-12T09:54:17.91Z</time></trkpt><trkpt lat="44.0038083" lon="11.9210817"><ele>256.0</ele><time>2026-04-12T09:54:18.91Z</time></trkpt><trkpt lat="44.0037367" lon="11.9208917"><ele>249.66666666666666</ele><time>2026-04-12T09:54:19.91Z</time></trkpt><trkpt lat="44.003665" lon="11.9206967"><ele>243.33333333333331</ele><time>2026-04-12T09:54:20.91Z</time></trkpt><trkpt lat="44.0036017" lon="11.9205017"><ele>237.0</ele><time>2026-04-12T09:54:21.91Z</time></trkpt><trkpt lat="44.0035317" lon="11.9203117"><ele>237.0</ele><time>2026-04-12T09:54:22.91Z</time></trkpt><trkpt lat="44.003455" lon="11.9201233"><ele>237.0</ele><time>2026-04-12T09:54:23.91Z</time></trkpt><trkpt lat="44.0033883" lon="11.9199333"><ele>237.0</ele><time>2026-04-12T09:54:24.911Z</time></trkpt><trkpt lat="44.0033283" lon="11.9197433"><ele>236.75</ele><time>2026-04-12T09:54:25.91Z</time></trkpt><trkpt lat="44.0032667" lon="11.91956"><ele>236.5</ele><time>2026-04-12T09:54:26.91Z</time></trkpt><trkpt lat="44.003205" lon="11.9193833"><ele>236.25</ele><time>2026-04-12T09:54:27.91Z</time></trkpt><trkpt lat="44.0031433" lon="11.9192117"><ele>236.0</ele><time>2026-04-12T09:54:28.91Z</time></trkpt><trkpt lat="44.003085" lon="11.919035"><ele>236.0</ele><time>2026-04-12T09:54:29.91Z</time></trkpt><trkpt lat="44.0030233" lon="11.91886"><ele>236.0</ele><time>2026-04-12T09:54:30.91Z</time></trkpt><trkpt lat="44.002965" lon="11.9186867"><ele>236.0</ele><time>2026-04-12T09:54:31.911Z</time></trkpt><trkpt lat="44.0029067" lon="11.91852"><ele>236.0</ele><time>2026-04-12T09:54:32.91Z</time></trkpt><trkpt lat="44.002855" lon="11.918345"><ele>232.0</ele><time>2026-04-12T09:54:33.91Z</time></trkpt><trkpt lat="44.002805" lon="11.918165"><ele>228.0</ele><time>2026-04-12T09:54:34.91Z</time></trkpt><trkpt lat="44.0027517" lon="11.9179883"><ele>224.0</ele><time>2026-04-12T09:54:35.911Z</time></trkpt><trkpt lat="44.0027017" lon="11.9178117"><ele>220.0</ele><time>2026-04-12T09:54:36.91Z</time></trkpt><trkpt lat="44.0026417" lon="11.9176283"><ele>220.75</ele><time>2026-04-12T09:54:37.911Z</time></trkpt><trkpt lat="44.002595" lon="11.9174467"><ele>221.5</ele><time>2026-04-12T09:54:38.91Z</time></trkpt><trkpt lat="44.0025467" lon="11.9172633"><ele>222.25</ele><time>2026-04-12T09:54:39.91Z</time></trkpt><trkpt lat="44.0025033" lon="11.9170767"><ele>223.0</ele><time>2026-04-12T09:54:40.91Z</time></trkpt><trkpt lat="44.00246" lon="11.9168867"><ele>221.0</ele><time>2026-04-12T09:54:41.911Z</time></trkpt><trkpt lat="44.00242" lon="11.9167017"><ele>219.0</ele><time>2026-04-12T09:54:42.91Z</time></trkpt><trkpt lat="44.00238" lon="11.91652"><ele>217.0</ele><time>2026-04-12T09:54:43.911Z</time></trkpt><trkpt lat="44.0023383" lon="11.9163367"><ele>215.0</ele><time>2026-04-12T09:54:44.91Z</time></trkpt><trkpt lat="44.0022817" lon="11.916155"><ele>215.0</ele><time>2026-04-12T09:54:45.91Z</time></trkpt><trkpt lat="44.002215" lon="11.9159817"><ele>215.0</ele><time>2026-04-12T09:54:46.91Z</time></trkpt><trkpt lat="44.0021433" lon="11.9158117"><ele>215.0</ele><time>2026-04-12T09:54:47.91Z</time></trkpt><trkpt lat="44.002065" lon="11.9156517"><ele>215.0</ele><time>2026-04-12T09:54:48.91Z</time></trkpt><trkpt lat="44.0019783" lon="11.915495"><ele>213.25</ele><time>2026-04-12T09:54:49.911Z</time></trkpt><trkpt lat="44.0018817" lon="11.915345"><ele>211.5</ele><time>2026-04-12T09:54:50.91Z</time></trkpt><trkpt lat="44.0017833" lon="11.915205"><ele>209.75</ele><time>2026-04-12T09:54:51.91Z</time></trkpt><trkpt lat="44.00168" lon="11.9150733"><ele>208.0</ele><time>2026-04-12T09:54:52.91Z</time></trkpt><trkpt lat="44.0015717" lon="11.91495"><ele>206.0</ele><time>2026-04-12T09:54:53.91Z</time></trkpt><trkpt lat="44.0014583" lon="11.914835"><ele>204.0</ele><time>2026-04-12T09:54:54.91Z</time></trkpt><trkpt lat="44.0013417" lon="11.9147217"><ele>202.0</ele><time>2026-04-12T09:54:55.91Z</time></trkpt><trkpt lat="44.0012283" lon="11.91462"><ele>200.0</ele><time>2026-04-12T09:54:56.91Z</time></trkpt><trkpt lat="44.00112" lon="11.9145133"><ele>200.0</ele><time>2026-04-12T09:54:57.911Z</time></trkpt><trkpt lat="44.001015" lon="11.9144167"><ele>200.0</ele><time>2026-04-12T09:54:58.911Z</time></trkpt><trkpt lat="44.00091" lon="11.9143217"><ele>200.0</ele><time>2026-04-12T09:54:59.91Z</time></trkpt><trkpt lat="44.0008083" lon="11.914235"><ele>200.0</ele><time>2026-04-12T09:55:00.91Z</time></trkpt><trkpt lat="44.0007167" lon="11.9141467"><ele>202.4</ele><time>2026-04-12T09:55:01.91Z</time></trkpt><trkpt lat="44.000625" lon="11.9140633"><ele>204.8</ele><time>2026-04-12T09:55:02.91Z</time></trkpt><trkpt lat="44.0005233" lon="11.914"><ele>207.2</ele><time>2026-04-12T09:55:03.911Z</time></trkpt><trkpt lat="44.0004133" lon="11.9139583"><ele>209.6</ele><time>2026-04-12T09:55:04.91Z</time></trkpt><trkpt lat="44.00031" lon="11.9139283"><ele>212.0</ele><time>2026-04-12T09:55:05.91Z</time></trkpt><trkpt lat="44.000205" lon="11.9139067"><ele>212.0</ele><time>2026-04-12T09:55:06.91Z</time></trkpt><trkpt lat="44.0001083" lon="11.91389"><ele>212.0</ele><time>2026-04-12T09:55:07.91Z</time></trkpt><trkpt lat="44.0000183" lon="11.91387"><ele>212.0</ele><time>2026-04-12T09:55:08.91Z</time></trkpt><trkpt lat="43.9999317" lon="11.91385"><ele>212.0</ele><time>2026-04-12T09:55:09.91Z</time></trkpt><trkpt lat="43.9998483" lon="11.91383"><ele>212.0</ele><time>2026-04-12T09:55:10.91Z</time></trkpt><trkpt lat="43.9997533" lon="11.9138083"><ele>212.0</ele><time>2026-04-12T09:55:11.909Z</time></trkpt><trkpt lat="43.9996517" lon="11.9137833"><ele>212.0</ele><time>2026-04-12T09:55:12.911Z</time></trkpt><trkpt lat="43.9995533" lon="11.91376"><ele>212.0</ele><time>2026-04-12T09:55:13.91Z</time></trkpt><trkpt lat="43.999455" lon="11.91374"><ele>212.0</ele><time>2026-04-12T09:55:14.91Z</time></trkpt><trkpt lat="43.9993567" lon="11.9137183"><ele>212.0</ele><time>2026-04-12T09:55:15.911Z</time></trkpt><trkpt lat="43.9992567" lon="11.91369"><ele>213.0</ele><time>2026-04-12T09:55:16.91Z</time></trkpt><trkpt lat="43.9991567" lon="11.9136717"><ele>214.0</ele><time>2026-04-12T09:55:17.91Z</time></trkpt><trkpt lat="43.99906" lon="11.91365"><ele>215.0</ele><time>2026-04-12T09:55:18.91Z</time></trkpt><trkpt lat="43.9989567" lon="11.9136333"><ele>216.0</ele><time>2026-04-12T09:55:19.91Z</time></trkpt><trkpt lat="43.9988567" lon="11.9136067"><ele>217.0</ele><time>2026-04-12T09:55:20.91Z</time></trkpt><trkpt lat="43.9987483" lon="11.913585"><ele>217.0</ele><time>2026-04-12T09:55:21.91Z</time></trkpt><trkpt lat="43.9986367" lon="11.913565"><ele>217.0</ele><time>2026-04-12T09:55:22.91Z</time></trkpt><trkpt lat="43.99853" lon="11.9135317"><ele>217.0</ele><time>2026-04-12T09:55:23.909Z</time></trkpt><trkpt lat="43.99842" lon="11.9135133"><ele>217.0</ele><time>2026-04-12T09:55:24.909Z</time></trkpt><trkpt lat="43.9983183" lon="11.9134883"><ele>217.0</ele><time>2026-04-12T09:55:25.909Z</time></trkpt><trkpt lat="43.9982167" lon="11.9134667"><ele>217.6</ele><time>2026-04-12T09:55:26.909Z</time></trkpt><trkpt lat="43.9981183" lon="11.913445"><ele>218.2</ele><time>2026-04-12T09:55:27.909Z</time></trkpt><trkpt lat="43.9980183" lon="11.9134183"><ele>218.8</ele><time>2026-04-12T09:55:28.909Z</time></trkpt><trkpt lat="43.9979183" lon="11.91339"><ele>219.4</ele><time>2026-04-12T09:55:29.91Z</time></trkpt><trkpt lat="43.997825" lon="11.9133667"><ele>220.0</ele><time>2026-04-12T09:55:30.909Z</time></trkpt><trkpt lat="43.997725" lon="11.9133467"><ele>220.8</ele><time>2026-04-12T09:55:31.909Z</time></trkpt><trkpt lat="43.997625" lon="11.9133233"><ele>221.6</ele><time>2026-04-12T09:55:32.909Z</time></trkpt><trkpt lat="43.9975283" lon="11.9133067"><ele>222.39999999999998</ele><time>2026-04-12T09:55:33.909Z</time></trkpt><trkpt lat="43.9974317" lon="11.9132867"><ele>223.2</ele><time>2026-04-12T09:55:34.909Z</time></trkpt><trkpt lat="43.9973383" lon="11.9132617"><ele>224.0</ele><time>2026-04-12T09:55:35.909Z</time></trkpt><trkpt lat="43.9972483" lon="11.913235"><ele>224.66666666666669</ele><time>2026-04-12T09:55:36.909Z</time></trkpt><trkpt lat="43.9971617" lon="11.91321"><ele>225.33333333333334</ele><time>2026-04-12T09:55:37.909Z</time></trkpt><trkpt lat="43.99708" lon="11.9131867"><ele>226.0</ele><time>2026-04-12T09:55:38.909Z</time></trkpt><trkpt lat="43.9970033" lon="11.9131683"><ele>226.66666666666669</ele><time>2026-04-12T09:55:39.909Z</time></trkpt><trkpt lat="43.99693" lon="11.9131517"><ele>227.33333333333334</ele><time>2026-04-12T09:55:40.91Z</time></trkpt><trkpt lat="43.9968633" lon="11.913135"><ele>228.0</ele><time>2026-04-12T09:55:41.909Z</time></trkpt><trkpt lat="43.996755" lon="11.9130983"><ele>228.0</ele><time>2026-04-12T09:55:43.91Z</time></trkpt><trkpt lat="43.996665" lon="11.9130183"><ele>228.0</ele><time>2026-04-12T09:55:45.909Z</time></trkpt><trkpt lat="43.9966083" lon="11.91288"><ele>228.0</ele><time>2026-04-12T09:55:47.909Z</time></trkpt><trkpt lat="43.99659" lon="11.91276"><ele>228.0</ele><time>2026-04-12T09:55:49.91Z</time></trkpt><trkpt lat="43.996585" lon="11.912645"><ele>228.0</ele><time>2026-04-12T09:55:54.909Z</time></trkpt><trkpt lat="43.99658" lon="11.91255"><ele>228.83333333333334</ele><time>2026-04-12T09:55:56.909Z</time></trkpt><trkpt lat="43.9965767" lon="11.9124517"><ele>229.66666666666669</ele><time>2026-04-12T09:55:58.909Z</time></trkpt><trkpt lat="43.9965817" lon="11.9123483"><ele>230.5</ele><time>2026-04-12T09:56:00.909Z</time></trkpt><trkpt lat="43.9965867" lon="11.9122433"><ele>231.33333333333334</ele><time>2026-04-12T09:56:02.909Z</time></trkpt><trkpt lat="43.9966117" lon="11.9121283"><ele>232.16666666666669</ele><time>2026-04-12T09:56:04.909Z</time></trkpt><trkpt lat="43.996635" lon="11.9120233"><ele>233.0</ele><time>2026-04-12T09:56:06.91Z</time></trkpt><trkpt lat="43.99666" lon="11.91194"><ele>232.8</ele><time>2026-04-12T09:56:08.909Z</time></trkpt><trkpt lat="43.9966717" lon="11.91184"><ele>232.60000000000002</ele><time>2026-04-12T09:56:10.909Z</time></trkpt><trkpt lat="43.996685" lon="11.911675"><ele>232.39999999999998</ele><time>2026-04-12T09:56:12.909Z</time></trkpt><trkpt lat="43.9967033" lon="11.9115133"><ele>232.2</ele><time>2026-04-12T09:56:14.909Z</time></trkpt><trkpt lat="43.9967233" lon="11.9113517"><ele>232.0</ele><time>2026-04-12T09:56:16.909Z</time></trkpt><trkpt lat="43.99672" lon="11.9112233"><ele>232.33333333333331</ele><time>2026-04-12T09:56:18.909Z</time></trkpt><trkpt lat="43.9966917" lon="11.9111417"><ele>232.66666666666666</ele><time>2026-04-12T09:56:21.909Z</time></trkpt><trkpt lat="43.996635" lon="11.91118"><ele>233.0</ele><time>2026-04-12T09:56:25.909Z</time></trkpt><trkpt lat="43.9967083" lon="11.9111967"><ele>233.33333333333331</ele><time>2026-04-12T09:57:23.909Z</time></trkpt><trkpt lat="43.9967417" lon="11.9110717"><ele>233.66666666666666</ele><time>2026-04-12T09:57:25.909Z</time></trkpt><trkpt lat="43.9967633" lon="11.9109533"><ele>234.0</ele><time>2026-04-12T09:57:26.91Z</time></trkpt><trkpt lat="43.9967917" lon="11.9108083"><ele>234.2</ele><time>2026-04-12T09:57:27.909Z</time></trkpt><trkpt lat="43.9967967" lon="11.9106717"><ele>234.39999999999998</ele><time>2026-04-12T09:57:28.91Z</time></trkpt><trkpt lat="43.99678" lon="11.91055"><ele>234.6</ele><time>2026-04-12T09:57:29.909Z</time></trkpt><trkpt lat="43.9967383" lon="11.9104433"><ele>234.8</ele><time>2026-04-12T09:57:30.91Z</time></trkpt><trkpt lat="43.9966783" lon="11.910355"><ele>235.0</ele><time>2026-04-12T09:57:31.909Z</time></trkpt><trkpt lat="43.9965917" lon="11.9102817"><ele>235.25</ele><time>2026-04-12T09:57:32.91Z</time></trkpt><trkpt lat="43.9964767" lon="11.9102017"><ele>235.5</ele><time>2026-04-12T09:57:33.909Z</time></trkpt><trkpt lat="43.9963683" lon="11.910115"><ele>235.75</ele><time>2026-04-12T09:57:34.909Z</time></trkpt><trkpt lat="43.99627" lon="11.910025"><ele>236.0</ele><time>2026-04-12T09:57:35.909Z</time></trkpt><trkpt lat="43.9961667" lon="11.9099333"><ele>236.20000000000002</ele><time>2026-04-12T09:57:36.909Z</time></trkpt><trkpt lat="43.99607" lon="11.9098467"><ele>236.40000000000003</ele><time>2026-04-12T09:57:37.909Z</time></trkpt><trkpt lat="43.9959817" lon="11.9097567"><ele>236.6</ele><time>2026-04-12T09:57:38.91Z</time></trkpt><trkpt lat="43.9959" lon="11.9096767"><ele>236.8</ele><time>2026-04-12T09:57:39.909Z</time></trkpt><trkpt lat="43.9958183" lon="11.9096083"><ele>237.0</ele><time>2026-04-12T09:57:40.909Z</time></trkpt><trkpt lat="43.995735" lon="11.90954"><ele>237.0</ele><time>2026-04-12T09:57:41.909Z</time></trkpt><trkpt lat="43.99565" lon="11.9094633"><ele>237.0</ele><time>2026-04-12T09:57:42.91Z</time></trkpt><trkpt lat="43.995555" lon="11.9093883"><ele>237.0</ele><time>2026-04-12T09:57:43.909Z</time></trkpt><trkpt lat="43.9954667" lon="11.9093067"><ele>237.0</ele><time>2026-04-12T09:57:44.909Z</time></trkpt><trkpt lat="43.995385" lon="11.909225"><ele>237.0</ele><time>2026-04-12T09:57:45.909Z</time></trkpt><trkpt lat="43.9953" lon="11.9091583"><ele>237.33333333333334</ele><time>2026-04-12T09:57:46.91Z</time></trkpt><trkpt lat="43.9952167" lon="11.9090867"><ele>237.66666666666669</ele><time>2026-04-12T09:57:47.909Z</time></trkpt><trkpt lat="43.9951433" lon="11.90902"><ele>238.0</ele><time>2026-04-12T09:57:48.91Z</time></trkpt><trkpt lat="43.9950733" lon="11.9089633"><ele>238.33333333333334</ele><time>2026-04-12T09:57:49.909Z</time></trkpt><trkpt lat="43.9950167" lon="11.9089117"><ele>238.66666666666669</ele><time>2026-04-12T09:57:50.909Z</time></trkpt><trkpt lat="43.9949367" lon="11.9088283"><ele>239.0</ele><time>2026-04-12T09:57:52.909Z</time></trkpt><trkpt lat="43.9948717" lon="11.9087767"><ele>239.00000000000003</ele><time>2026-04-12T09:57:54.909Z</time></trkpt><trkpt lat="43.9948183" lon="11.9087"><ele>239.0</ele><time>2026-04-12T09:57:56.909Z</time></trkpt><trkpt lat="43.99476" lon="11.9085967"><ele>239.0</ele><time>2026-04-12T09:57:59.909Z</time></trkpt><trkpt lat="43.9947683" lon="11.9085067"><ele>239.0</ele><time>2026-04-12T09:58:02.909Z</time></trkpt><trkpt lat="43.9948283" lon="11.90857"><ele>239.00000000000003</ele><time>2026-04-12T09:58:05.909Z</time></trkpt><trkpt lat="43.99486" lon="11.9086633"><ele>239.0</ele><time>2026-04-12T09:58:08.91Z</time></trkpt><trkpt lat="43.9949083" lon="11.9087383"><ele>239.0</ele><time>2026-04-12T09:58:12.909Z</time></trkpt><trkpt lat="43.9949583" lon="11.9088067"><ele>239.0</ele><time>2026-04-12T09:58:15.91Z</time></trkpt></trkseg><trkseg><trkpt lat="43.9950767" lon="11.90904"><ele>240.0</ele><time>2026-04-12T10:57:52.042Z</time></trkpt><trkpt lat="43.99517" lon="11.9091417"><ele>240.0</ele><time>2026-04-12T10:57:59.045Z</time></trkpt><trkpt lat="43.9952267" lon="11.9091983"><ele>240.0</ele><time>2026-04-12T10:58:00.046Z</time></trkpt><trkpt lat="43.9952883" lon="11.909255"><ele>240.0</ele><time>2026-04-12T10:58:01.046Z</time></trkpt><trkpt lat="43.9953633" lon="11.9092933"><ele>240.0</ele><time>2026-04-12T10:58:02.041Z</time></trkpt><trkpt lat="43.9954283" lon="11.90934"><ele>240.0</ele><time>2026-04-12T10:58:03.044Z</time></trkpt><trkpt lat="43.9954933" lon="11.9093867"><ele>239.66666666666666</ele><time>2026-04-12T10:58:04.04Z</time></trkpt><trkpt lat="43.9955533" lon="11.90944"><ele>239.33333333333331</ele><time>2026-04-12T10:58:05.045Z</time></trkpt><trkpt lat="43.99561" lon="11.9094917"><ele>239.0</ele><time>2026-04-12T10:58:06.043Z</time></trkpt><trkpt lat="43.995665" lon="11.9095417"><ele>238.66666666666666</ele><time>2026-04-12T10:58:07.046Z</time></trkpt><trkpt lat="43.9957583" lon="11.90962"><ele>238.33333333333331</ele><time>2026-04-12T10:58:09.041Z</time></trkpt><trkpt lat="43.99583" lon="11.909675"><ele>238.0</ele><time>2026-04-12T10:58:11.045Z</time></trkpt><trkpt lat="43.995905" lon="11.9097417"><ele>238.0</ele><time>2026-04-12T10:58:13.045Z</time></trkpt><trkpt lat="43.9959783" lon="11.9098117"><ele>238.0</ele><time>2026-04-12T10:58:15.04Z</time></trkpt><trkpt lat="43.9960717" lon="11.9098817"><ele>238.0</ele><time>2026-04-12T10:58:17.043Z</time></trkpt><trkpt lat="43.996145" lon="11.9099783"><ele>238.0</ele><time>2026-04-12T10:58:19.045Z</time></trkpt><trkpt lat="43.9961567" lon="11.91011"><ele>238.0</ele><time>2026-04-12T10:58:21.046Z</time></trkpt><trkpt lat="43.9960917" lon="11.91022"><ele>237.83333333333331</ele><time>2026-04-12T10:58:23.044Z</time></trkpt><trkpt lat="43.996005" lon="11.9102667"><ele>237.66666666666666</ele><time>2026-04-12T10:58:25.045Z</time></trkpt><trkpt lat="43.995905" lon="11.910205"><ele>237.5</ele><time>2026-04-12T10:58:27.046Z</time></trkpt><trkpt lat="43.9958467" lon="11.9101533"><ele>237.33333333333331</ele><time>2026-04-12T10:58:28.045Z</time></trkpt><trkpt lat="43.995785" lon="11.9101017"><ele>237.16666666666666</ele><time>2026-04-12T10:58:29.045Z</time></trkpt><trkpt lat="43.9957083" lon="11.910045"><ele>237.0</ele><time>2026-04-12T10:58:30.045Z</time></trkpt><trkpt lat="43.9956117" lon="11.9099817"><ele>237.0</ele><time>2026-04-12T10:58:31.045Z</time></trkpt><trkpt lat="43.9954917" lon="11.9099183"><ele>237.0</ele><time>2026-04-12T10:58:32.045Z</time></trkpt><trkpt lat="43.99538" lon="11.9098633"><ele>237.0</ele><time>2026-04-12T10:58:33.046Z</time></trkpt><trkpt lat="43.9952817" lon="11.9098117"><ele>237.0</ele><time>2026-04-12T10:58:34.046Z</time></trkpt><trkpt lat="43.9951883" lon="11.9097483"><ele>237.0</ele><time>2026-04-12T10:58:35.042Z</time></trkpt><trkpt lat="43.995095" lon="11.9096967"><ele>237.0</ele><time>2026-04-12T10:58:36.046Z</time></trkpt><trkpt lat="43.9950033" lon="11.9096317"><ele>237.0</ele><time>2026-04-12T10:58:37.045Z</time></trkpt><trkpt lat="43.9949133" lon="11.9095767"><ele>237.0</ele><time>2026-04-12T10:58:38.043Z</time></trkpt><trkpt lat="43.9948233" lon="11.9095367"><ele>237.0</ele><time>2026-04-12T10:58:39.046Z</time></trkpt><trkpt lat="43.9947433" lon="11.9094967"><ele>236.2</ele><time>2026-04-12T10:58:40.041Z</time></trkpt><trkpt lat="43.994665" lon="11.9094683"><ele>235.39999999999998</ele><time>2026-04-12T10:58:42.043Z</time></trkpt><trkpt lat="43.9946283" lon="11.909585"><ele>234.60000000000002</ele><time>2026-04-12T10:58:45.045Z</time></trkpt><trkpt lat="43.994575" lon="11.9097433"><ele>233.8</ele><time>2026-04-12T10:58:47.041Z</time></trkpt><trkpt lat="43.9945217" lon="11.9098583"><ele>233.0</ele><time>2026-04-12T10:58:49.046Z</time></trkpt><trkpt lat="43.99446" lon="11.9099533"><ele>233.0</ele><time>2026-04-12T10:58:51.045Z</time></trkpt><trkpt lat="43.9943367" lon="11.9100083"><ele>233.0</ele><time>2026-04-12T10:58:53.045Z</time></trkpt><trkpt lat="43.9942717" lon="11.9100167"><ele>233.0</ele><time>2026-04-12T10:58:54.046Z</time></trkpt><trkpt lat="43.9941533" lon="11.9100133"><ele>233.0</ele><time>2026-04-12T10:58:56.045Z</time></trkpt><trkpt lat="43.9940833" lon="11.9100017"><ele>233.0</ele><time>2026-04-12T10:58:57.046Z</time></trkpt><trkpt lat="43.994" lon="11.9099783"><ele>233.0</ele><time>2026-04-12T10:58:58.045Z</time></trkpt><trkpt lat="43.9938983" lon="11.9099483"><ele>233.0</ele><time>2026-04-12T10:58:59.045Z</time></trkpt><trkpt lat="43.9937933" lon="11.909925"><ele>233.0</ele><time>2026-04-12T10:59:00.044Z</time></trkpt><trkpt lat="43.9936617" lon="11.9098883"><ele>233.0</ele><time>2026-04-12T10:59:01.045Z</time></trkpt><trkpt lat="43.993525" lon="11.9098483"><ele>233.0</ele><time>2026-04-12T10:59:02.045Z</time></trkpt><trkpt lat="43.993405" lon="11.909805"><ele>233.0</ele><time>2026-04-12T10:59:03.045Z</time></trkpt><trkpt lat="43.9932917" lon="11.90975"><ele>233.0</ele><time>2026-04-12T10:59:04.045Z</time></trkpt><trkpt lat="43.99317" lon="11.909675"><ele>233.0</ele><time>2026-04-12T10:59:05.045Z</time></trkpt><trkpt lat="43.9930333" lon="11.9095833"><ele>232.5</ele><time>2026-04-12T10:59:06.042Z</time></trkpt><trkpt lat="43.99289" lon="11.9095017"><ele>232.0</ele><time>2026-04-12T10:59:07.045Z</time></trkpt><trkpt lat="43.992765" lon="11.9094233"><ele>231.5</ele><time>2026-04-12T10:59:08.045Z</time></trkpt><trkpt lat="43.9926533" lon="11.9093567"><ele>231.0</ele><time>2026-04-12T10:59:09.045Z</time></trkpt><trkpt lat="43.99256" lon="11.9092983"><ele>231.60000000000002</ele><time>2026-04-12T10:59:10.045Z</time></trkpt><trkpt lat="43.99249" lon="11.9092417"><ele>232.20000000000002</ele><time>2026-04-12T10:59:11.041Z</time></trkpt><trkpt lat="43.9924233" lon="11.9091283"><ele>232.79999999999998</ele><time>2026-04-12T10:59:13.045Z</time></trkpt><trkpt lat="43.9924083" lon="11.9090383"><ele>233.39999999999998</ele><time>2026-04-12T10:59:15.045Z</time></trkpt><trkpt lat="43.9923233" lon="11.9090583"><ele>234.0</ele><time>2026-04-12T10:59:18.045Z</time></trkpt><trkpt lat="43.9922333" lon="11.909185"><ele>233.6</ele><time>2026-04-12T10:59:20.045Z</time></trkpt><trkpt lat="43.9921617" lon="11.90928"><ele>233.2</ele><time>2026-04-12T10:59:21.041Z</time></trkpt><trkpt lat="43.9920967" lon="11.9093783"><ele>232.79999999999998</ele><time>2026-04-12T10:59:22.046Z</time></trkpt><trkpt lat="43.9920467" lon="11.90949"><ele>232.39999999999998</ele><time>2026-04-12T10:59:23.043Z</time></trkpt><trkpt lat="43.9920217" lon="11.9096217"><ele>232.0</ele><time>2026-04-12T10:59:24.045Z</time></trkpt><trkpt lat="43.992015" lon="11.9097533"><ele>232.0</ele><time>2026-04-12T10:59:25.045Z</time></trkpt><trkpt lat="43.99201" lon="11.9098933"><ele>232.0</ele><time>2026-04-12T10:59:26.046Z</time></trkpt><trkpt lat="43.991995" lon="11.9100333"><ele>232.0</ele><time>2026-04-12T10:59:27.046Z</time></trkpt><trkpt lat="43.9919867" lon="11.910175"><ele>232.0</ele><time>2026-04-12T10:59:28.043Z</time></trkpt><trkpt lat="43.99198" lon="11.9103183"><ele>232.0</ele><time>2026-04-12T10:59:29.045Z</time></trkpt><trkpt lat="43.9919683" lon="11.9104567"><ele>230.49999999999997</ele><time>2026-04-12T10:59:30.045Z</time></trkpt><trkpt lat="43.991955" lon="11.9105933"><ele>229.0</ele><time>2026-04-12T10:59:31.045Z</time></trkpt><trkpt lat="43.9919483" lon="11.9107233"><ele>227.5</ele><time>2026-04-12T10:59:32.046Z</time></trkpt><trkpt lat="43.9919467" lon="11.9108467"><ele>226.0</ele><time>2026-04-12T10:59:33.043Z</time></trkpt><trkpt lat="43.99195" lon="11.910955"><ele>224.49999999999997</ele><time>2026-04-12T10:59:34.045Z</time></trkpt><trkpt lat="43.99196" lon="11.91105"><ele>223.0</ele><time>2026-04-12T10:59:35.045Z</time></trkpt><trkpt lat="43.9919917" lon="11.9111333"><ele>220.66666666666666</ele><time>2026-04-12T10:59:36.046Z</time></trkpt><trkpt lat="43.9920367" lon="11.911195"><ele>218.33333333333331</ele><time>2026-04-12T10:59:37.045Z</time></trkpt><trkpt lat="43.992155" lon="11.9112583"><ele>216.0</ele><time>2026-04-12T10:59:39.045Z</time></trkpt><trkpt lat="43.9922333" lon="11.9112717"><ele>213.66666666666669</ele><time>2026-04-12T10:59:40.045Z</time></trkpt><trkpt lat="43.99232" lon="11.9113133"><ele>211.33333333333334</ele><time>2026-04-12T10:59:41.044Z</time></trkpt><trkpt lat="43.9924017" lon="11.91135"><ele>209.0</ele><time>2026-04-12T10:59:42.044Z</time></trkpt><trkpt lat="43.992475" lon="11.9113717"><ele>208.79999999999998</ele><time>2026-04-12T10:59:43.045Z</time></trkpt><trkpt lat="43.9925867" lon="11.911395"><ele>208.6</ele><time>2026-04-12T10:59:45.045Z</time></trkpt><trkpt lat="43.992695" lon="11.9114317"><ele>208.4</ele><time>2026-04-12T10:59:47.045Z</time></trkpt><trkpt lat="43.9928017" lon="11.91149"><ele>208.2</ele><time>2026-04-12T10:59:49.044Z</time></trkpt><trkpt lat="43.9928783" lon="11.9115967"><ele>208.0</ele><time>2026-04-12T10:59:51.045Z</time></trkpt><trkpt lat="43.9928967" lon="11.911705"><ele>208.49999999999997</ele><time>2026-04-12T10:59:53.038Z</time></trkpt><trkpt lat="43.9929133" lon="11.911805"><ele>209.0</ele><time>2026-04-12T10:59:55.044Z</time></trkpt><trkpt lat="43.9929367" lon="11.9119117"><ele>209.5</ele><time>2026-04-12T10:59:57.045Z</time></trkpt><trkpt lat="43.993005" lon="11.9119817"><ele>210.0</ele><time>2026-04-12T10:59:59.046Z</time></trkpt><trkpt lat="43.9931017" lon="11.91198"><ele>210.49999999999997</ele><time>2026-04-12T11:00:01.04Z</time></trkpt><trkpt lat="43.9931767" lon="11.9119967"><ele>211.0</ele><time>2026-04-12T11:00:02.045Z</time></trkpt><trkpt lat="43.9932517" lon="11.9120433"><ele>210.99999999999997</ele><time>2026-04-12T11:00:03.046Z</time></trkpt><trkpt lat="43.9933233" lon="11.9121183"><ele>211.0</ele><time>2026-04-12T11:00:04.046Z</time></trkpt><trkpt lat="43.9933717" lon="11.9122067"><ele>211.0</ele><time>2026-04-12T11:00:05.045Z</time></trkpt><trkpt lat="43.993405" lon="11.9122983"><ele>211.0</ele><time>2026-04-12T11:00:06.046Z</time></trkpt><trkpt lat="43.993415" lon="11.9123983"><ele>210.99999999999997</ele><time>2026-04-12T11:00:07.045Z</time></trkpt><trkpt lat="43.99339" lon="11.9125033"><ele>211.0</ele><time>2026-04-12T11:00:08.045Z</time></trkpt><trkpt lat="43.993335" lon="11.912615"><ele>212.20000000000002</ele><time>2026-04-12T11:00:09.045Z</time></trkpt><trkpt lat="43.9932767" lon="11.9127333"><ele>213.4</ele><time>2026-04-12T11:00:10.043Z</time></trkpt><trkpt lat="43.9932333" lon="11.9128517"><ele>214.6</ele><time>2026-04-12T11:00:11.045Z</time></trkpt><trkpt lat="43.9931917" lon="11.9129683"><ele>215.8</ele><time>2026-04-12T11:00:12.045Z</time></trkpt><trkpt lat="43.9931533" lon="11.9130783"><ele>217.0</ele><time>2026-04-12T11:00:13.046Z</time></trkpt><trkpt lat="43.993115" lon="11.9131617"><ele>217.0</ele><time>2026-04-12T11:00:14.045Z</time></trkpt><trkpt lat="43.9930833" lon="11.91324"><ele>217.0</ele><time>2026-04-12T11:00:15.045Z</time></trkpt><trkpt lat="43.9930567" lon="11.9133217"><ele>217.0</ele><time>2026-04-12T11:00:16.042Z</time></trkpt><trkpt lat="43.9930367" lon="11.913485"><ele>217.0</ele><time>2026-04-12T11:00:18.043Z</time></trkpt><trkpt lat="43.9931367" lon="11.91362"><ele>217.0</ele><time>2026-04-12T11:00:20.04Z</time></trkpt><trkpt lat="43.9932317" lon="11.9136817"><ele>216.5</ele><time>2026-04-12T11:00:21.046Z</time></trkpt><trkpt lat="43.9933517" lon="11.9137517"><ele>216.0</ele><time>2026-04-12T11:00:22.044Z</time></trkpt><trkpt lat="43.9934867" lon="11.9138333"><ele>215.5</ele><time>2026-04-12T11:00:23.045Z</time></trkpt><trkpt lat="43.9936133" lon="11.9139133"><ele>215.0</ele><time>2026-04-12T11:00:24.043Z</time></trkpt><trkpt lat="43.99372" lon="11.913975"><ele>215.00000000000003</ele><time>2026-04-12T11:00:25.045Z</time></trkpt><trkpt lat="43.993795" lon="11.91403"><ele>215.0</ele><time>2026-04-12T11:00:26.04Z</time></trkpt><trkpt lat="43.9938283" lon="11.914105"><ele>215.0</ele><time>2026-04-12T11:00:27.045Z</time></trkpt><trkpt lat="43.9938383" lon="11.9142083"><ele>215.0</ele><time>2026-04-12T11:00:28.045Z</time></trkpt><trkpt lat="43.99383" lon="11.914315"><ele>215.00000000000003</ele><time>2026-04-12T11:00:29.046Z</time></trkpt><trkpt lat="43.9938283" lon="11.9144517"><ele>215.0</ele><time>2026-04-12T11:00:30.045Z</time></trkpt><trkpt lat="43.9938617" lon="11.9146283"><ele>215.66666666666669</ele><time>2026-04-12T11:00:31.046Z</time></trkpt><trkpt lat="43.9939183" lon="11.9148483"><ele>216.33333333333331</ele><time>2026-04-12T11:00:32.045Z</time></trkpt><trkpt lat="43.9939933" lon="11.91508"><ele>217.0</ele><time>2026-04-12T11:00:33.043Z</time></trkpt><trkpt lat="43.9940533" lon="11.9152783"><ele>216.75</ele><time>2026-04-12T11:00:34.045Z</time></trkpt><trkpt lat="43.9941083" lon="11.9154617"><ele>216.5</ele><time>2026-04-12T11:00:35.046Z</time></trkpt><trkpt lat="43.99416" lon="11.915645"><ele>216.25</ele><time>2026-04-12T11:00:36.044Z</time></trkpt><trkpt lat="43.9942083" lon="11.9158083"><ele>216.0</ele><time>2026-04-12T11:00:37.043Z</time></trkpt><trkpt lat="43.9942567" lon="11.91596"><ele>216.60000000000002</ele><time>2026-04-12T11:00:38.045Z</time></trkpt><trkpt lat="43.9942967" lon="11.9160983"><ele>217.20000000000002</ele><time>2026-04-12T11:00:39.045Z</time></trkpt><trkpt lat="43.9943417" lon="11.916225"><ele>217.79999999999998</ele><time>2026-04-12T11:00:40.042Z</time></trkpt><trkpt lat="43.994365" lon="11.9163417"><ele>218.39999999999998</ele><time>2026-04-12T11:00:41.046Z</time></trkpt><trkpt lat="43.994375" lon="11.9164517"><ele>219.0</ele><time>2026-04-12T11:00:42.045Z</time></trkpt><trkpt lat="43.9943583" lon="11.9165517"><ele>219.0</ele><time>2026-04-12T11:00:43.045Z</time></trkpt><trkpt lat="43.994335" lon="11.916645"><ele>219.0</ele><time>2026-04-12T11:00:44.045Z</time></trkpt><trkpt lat="43.994315" lon="11.9167433"><ele>219.0</ele><time>2026-04-12T11:00:45.045Z</time></trkpt><trkpt lat="43.9943" lon="11.9168417"><ele>219.0</ele><time>2026-04-12T11:00:46.044Z</time></trkpt><trkpt lat="43.9942983" lon="11.9169383"><ele>219.0</ele><time>2026-04-12T11:00:47.043Z</time></trkpt><trkpt lat="43.9943" lon="11.9170367"><ele>219.0</ele><time>2026-04-12T11:00:48.045Z</time></trkpt><trkpt lat="43.9943067" lon="11.9171317"><ele>219.0</ele><time>2026-04-12T11:00:49.046Z</time></trkpt><trkpt lat="43.99432" lon="11.9172233"><ele>219.33333333333334</ele><time>2026-04-12T11:00:50.046Z</time></trkpt><trkpt lat="43.9943467" lon="11.9173167"><ele>219.66666666666669</ele><time>2026-04-12T11:00:51.045Z</time></trkpt><trkpt lat="43.9943883" lon="11.917405"><ele>220.0</ele><time>2026-04-12T11:00:52.045Z</time></trkpt><trkpt lat="43.99444" lon="11.9174967"><ele>220.33333333333334</ele><time>2026-04-12T11:00:53.046Z</time></trkpt><trkpt lat="43.9944983" lon="11.917595"><ele>220.66666666666669</ele><time>2026-04-12T11:00:54.046Z</time></trkpt><trkpt lat="43.9945617" lon="11.9176933"><ele>221.0</ele><time>2026-04-12T11:00:55.046Z</time></trkpt><trkpt lat="43.99462" lon="11.9177983"><ele>223.4</ele><time>2026-04-12T11:00:56.043Z</time></trkpt><trkpt lat="43.9946767" lon="11.9179"><ele>225.8</ele><time>2026-04-12T11:00:57.045Z</time></trkpt><trkpt lat="43.9947333" lon="11.9180017"><ele>228.20000000000002</ele><time>2026-04-12T11:00:58.046Z</time></trkpt><trkpt lat="43.994785" lon="11.9181033"><ele>230.60000000000002</ele><time>2026-04-12T11:00:59.045Z</time></trkpt><trkpt lat="43.9948433" lon="11.9181983"><ele>233.0</ele><time>2026-04-12T11:01:00.045Z</time></trkpt><trkpt lat="43.9949" lon="11.91829"><ele>233.00000000000003</ele><time>2026-04-12T11:01:01.045Z</time></trkpt><trkpt lat="43.9949517" lon="11.9183833"><ele>233.0</ele><time>2026-04-12T11:01:02.045Z</time></trkpt><trkpt lat="43.995005" lon="11.9184733"><ele>233.0</ele><time>2026-04-12T11:01:03.046Z</time></trkpt><trkpt lat="43.99505" lon="11.91857"><ele>233.0</ele><time>2026-04-12T11:01:04.04Z</time></trkpt><trkpt lat="43.9950833" lon="11.9186483"><ele>233.00000000000003</ele><time>2026-04-12T11:01:05.042Z</time></trkpt><trkpt lat="43.995135" lon="11.9187867"><ele>233.0</ele><time>2026-04-12T11:01:07.045Z</time></trkpt><trkpt lat="43.9951833" lon="11.9189"><ele>233.0</ele><time>2026-04-12T11:01:09.045Z</time></trkpt><trkpt lat="43.99526" lon="11.9189717"><ele>233.0</ele><time>2026-04-12T11:01:11.046Z</time></trkpt><trkpt lat="43.9953483" lon="11.9190317"><ele>233.0</ele><time>2026-04-12T11:01:13.046Z</time></trkpt><trkpt lat="43.9954467" lon="11.9190933"><ele>233.0</ele><time>2026-04-12T11:01:15.045Z</time></trkpt><trkpt lat="43.99553" lon="11.91918"><ele>233.0</ele><time>2026-04-12T11:01:17.045Z</time></trkpt><trkpt lat="43.9955717" lon="11.9193233"><ele>236.50000000000003</ele><time>2026-04-12T11:01:19.045Z</time></trkpt><trkpt lat="43.9955667" lon="11.919495"><ele>240.0</ele><time>2026-04-12T11:01:21.045Z</time></trkpt><trkpt lat="43.9955567" lon="11.9195833"><ele>243.5</ele><time>2026-04-12T11:01:22.046Z</time></trkpt><trkpt lat="43.9955433" lon="11.9196733"><ele>247.0</ele><time>2026-04-12T11:01:23.045Z</time></trkpt><trkpt lat="43.9955267" lon="11.919775"><ele>250.50000000000003</ele><time>2026-04-12T11:01:24.046Z</time></trkpt><trkpt lat="43.995515" lon="11.9198817"><ele>254.0</ele><time>2026-04-12T11:01:25.046Z</time></trkpt><trkpt lat="43.9955117" lon="11.91999"><ele>256.33333333333337</ele><time>2026-04-12T11:01:26.046Z</time></trkpt><trkpt lat="43.9955133" lon="11.9200967"><ele>258.6666666666667</ele><time>2026-04-12T11:01:27.044Z</time></trkpt><trkpt lat="43.9955117" lon="11.920205"><ele>261.0</ele><time>2026-04-12T11:01:28.045Z</time></trkpt><trkpt lat="43.9955067" lon="11.9203067"><ele>263.3333333333333</ele><time>2026-04-12T11:01:29.044Z</time></trkpt><trkpt lat="43.995505" lon="11.9204067"><ele>265.66666666666663</ele><time>2026-04-12T11:01:30.044Z</time></trkpt><trkpt lat="43.9955233" lon="11.92053"><ele>268.0</ele><time>2026-04-12T11:01:32.045Z</time></trkpt><trkpt lat="43.9954783" lon="11.9206"><ele>268.0</ele><time>2026-04-12T11:02:02.044Z</time></trkpt><trkpt lat="43.9954717" lon="11.920505"><ele>268.0</ele><time>2026-04-12T11:02:04.045Z</time></trkpt><trkpt lat="43.995465" lon="11.9203817"><ele>268.0</ele><time>2026-04-12T11:02:06.043Z</time></trkpt><trkpt lat="43.9954567" lon="11.92027"><ele>268.0</ele><time>2026-04-12T11:02:09.044Z</time></trkpt><trkpt lat="43.9954067" lon="11.9201617"><ele>268.0</ele><time>2026-04-12T11:02:12.044Z</time></trkpt><trkpt lat="43.9953733" lon="11.9200617"><ele>268.0</ele><time>2026-04-12T11:02:14.043Z</time></trkpt><trkpt lat="43.9953567" lon="11.91995"><ele>268.0</ele><time>2026-04-12T11:02:16.044Z</time></trkpt><trkpt lat="43.995325" lon="11.919855"><ele>268.0</ele><time>2026-04-12T11:02:18.044Z</time></trkpt><trkpt lat="43.9952717" lon="11.9198017"><ele>268.0</ele><time>2026-04-12T11:02:20.044Z</time></trkpt><trkpt lat="43.9951983" lon="11.919825"><ele>268.0</ele><time>2026-04-12T11:02:23.038Z</time></trkpt><trkpt lat="43.9951917" lon="11.919925"><ele>268.0</ele><time>2026-04-12T11:02:56.045Z</time></trkpt><trkpt lat="43.99519" lon="11.9200217"><ele>268.0</ele><time>2026-04-12T11:02:58.04Z</time></trkpt><trkpt lat="43.9952" lon="11.92016"><ele>268.0</ele><time>2026-04-12T11:03:01.044Z</time></trkpt><trkpt lat="43.995195" lon="11.9202567"><ele>268.0</ele><time>2026-04-12T11:03:03.045Z</time></trkpt><trkpt lat="43.99519" lon="11.9203483"><ele>268.0</ele><time>2026-04-12T11:03:05.044Z</time></trkpt><trkpt lat="43.9952117" lon="11.9204583"><ele>268.0</ele><time>2026-04-12T11:03:08.044Z</time></trkpt><trkpt lat="43.995245" lon="11.920555"><ele>268.0</ele><time>2026-04-12T11:03:14.045Z</time></trkpt><trkpt lat="43.9952817" lon="11.9206767"><ele>268.0</ele><time>2026-04-12T11:03:16.044Z</time></trkpt><trkpt lat="43.9953117" lon="11.9207917"><ele>271.0</ele><time>2026-04-12T11:03:18.045Z</time></trkpt><trkpt lat="43.99531" lon="11.9209117"><ele>274.0</ele><time>2026-04-12T11:03:30.042Z</time></trkpt><trkpt lat="43.9952833" lon="11.9210233"><ele>277.0</ele><time>2026-04-12T11:03:33.045Z</time></trkpt><trkpt lat="43.9952667" lon="11.9211283"><ele>280.0</ele><time>2026-04-12T11:03:35.044Z</time></trkpt><trkpt lat="43.9952633" lon="11.9212217"><ele>283.0</ele><time>2026-04-12T11:03:38.045Z</time></trkpt><trkpt lat="43.9952817" lon="11.92135"><ele>286.0</ele><time>2026-04-12T11:03:48.044Z</time></trkpt><trkpt lat="43.99528" lon="11.921475"><ele>286.0</ele><time>2026-04-12T11:03:50.044Z</time></trkpt><trkpt lat="43.9952617" lon="11.921585"><ele>286.0</ele><time>2026-04-12T11:03:52.045Z</time></trkpt><trkpt lat="43.9952333" lon="11.9216667"><ele>286.0</ele><time>2026-04-12T11:03:54.044Z</time></trkpt><trkpt lat="43.9951967" lon="11.9217533"><ele>286.0</ele><time>2026-04-12T11:03:56.044Z</time></trkpt><trkpt lat="43.9952017" lon="11.9218817"><ele>286.0</ele><time>2026-04-12T11:04:07.044Z</time></trkpt><trkpt lat="43.9952067" lon="11.9220383"><ele>286.0</ele><time>2026-04-12T11:04:14.044Z</time></trkpt><trkpt lat="43.99522" lon="11.922135"><ele>288.8333333333333</ele><time>2026-04-12T11:04:16.045Z</time></trkpt><trkpt lat="43.995245" lon="11.9222567"><ele>291.66666666666663</ele><time>2026-04-12T11:04:38.043Z</time></trkpt><trkpt lat="43.9952567" lon="11.9223783"><ele>294.5</ele><time>2026-04-12T11:04:40.041Z</time></trkpt><trkpt lat="43.9952533" lon="11.9224683"><ele>297.3333333333333</ele><time>2026-04-12T11:04:42.045Z</time></trkpt><trkpt lat="43.9952433" lon="11.9225617"><ele>300.1666666666667</ele><time>2026-04-12T11:04:44.044Z</time></trkpt><trkpt lat="43.9952383" lon="11.9226533"><ele>303.0</ele><time>2026-04-12T11:04:46.044Z</time></trkpt><trkpt lat="43.995225" lon="11.9227517"><ele>307.0</ele><time>2026-04-12T11:04:48.044Z</time></trkpt><trkpt lat="43.9951917" lon="11.92287"><ele>311.0</ele><time>2026-04-12T11:04:50.044Z</time></trkpt><trkpt lat="43.9951483" lon="11.922995"><ele>315.0</ele><time>2026-04-12T11:04:52.044Z</time></trkpt><trkpt lat="43.9950817" lon="11.9231417"><ele>319.0</ele><time>2026-04-12T11:04:54.038Z</time></trkpt><trkpt lat="43.9950533" lon="11.9232233"><ele>323.0</ele><time>2026-04-12T11:04:55.042Z</time></trkpt><trkpt lat="43.9950033" lon="11.9233583"><ele>327.0</ele><time>2026-04-12T11:04:57.044Z</time></trkpt><trkpt lat="43.9949733" lon="11.9234883"><ele>331.0</ele><time>2026-04-12T11:04:59.045Z</time></trkpt><trkpt lat="43.9949667" lon="11.92362"><ele>335.0</ele><time>2026-04-12T11:05:01.044Z</time></trkpt><trkpt lat="43.9949883" lon="11.9237283"><ele>339.0</ele><time>2026-04-12T11:05:03.044Z</time></trkpt><trkpt lat="43.9949867" lon="11.9238367"><ele>343.0</ele><time>2026-04-12T11:05:06.045Z</time></trkpt><trkpt lat="43.995015" lon="11.9239967"><ele>343.0</ele><time>2026-04-12T11:12:57.042Z</time></trkpt><trkpt lat="43.9949933" lon="11.92409"><ele>343.0</ele><time>2026-04-12T11:12:59.042Z</time></trkpt><trkpt lat="43.9949683" lon="11.9241883"><ele>343.0</ele><time>2026-04-12T11:13:01.042Z</time></trkpt><trkpt lat="43.9949433" lon="11.92427"><ele>343.0</ele><time>2026-04-12T11:13:06.042Z</time></trkpt><trkpt lat="43.9949767" lon="11.92418"><ele>343.0</ele><time>2026-04-12T11:19:29.041Z</time></trkpt><trkpt lat="43.9949867" lon="11.9240933"><ele>343.0</ele><time>2026-04-12T11:19:31.042Z</time></trkpt><trkpt lat="43.9949933" lon="11.9240033"><ele>343.0</ele><time>2026-04-12T11:19:34.042Z</time></trkpt><trkpt lat="43.9950417" lon="11.92389"><ele>343.0</ele><time>2026-04-12T11:19:55.041Z</time></trkpt><trkpt lat="43.9950433" lon="11.9237517"><ele>343.0</ele><time>2026-04-12T11:20:36.041Z</time></trkpt><trkpt lat="43.9950433" lon="11.9235917"><ele>343.0</ele><time>2026-04-12T11:20:41.042Z</time></trkpt><trkpt lat="43.995055" lon="11.923495"><ele>343.0</ele><time>2026-04-12T11:20:43.042Z</time></trkpt><trkpt lat="43.9950867" lon="11.9234017"><ele>343.0</ele><time>2026-04-12T11:20:45.041Z</time></trkpt><trkpt lat="43.9951283" lon="11.9232567"><ele>339.66666666666663</ele><time>2026-04-12T11:20:48.042Z</time></trkpt><trkpt lat="43.9951767" lon="11.9231233"><ele>336.3333333333333</ele><time>2026-04-12T11:20:51.041Z</time></trkpt><trkpt lat="43.9952183" lon="11.9230367"><ele>333.0</ele><time>2026-04-12T11:20:53.041Z</time></trkpt><trkpt lat="43.9952617" lon="11.922945"><ele>329.6666666666667</ele><time>2026-04-12T11:20:55.041Z</time></trkpt><trkpt lat="43.9952933" lon="11.9228417"><ele>326.33333333333337</ele><time>2026-04-12T11:20:57.041Z</time></trkpt><trkpt lat="43.9953067" lon="11.922705"><ele>323.0</ele><time>2026-04-12T11:20:59.041Z</time></trkpt><trkpt lat="43.9952917" lon="11.92257"><ele>319.6666666666667</ele><time>2026-04-12T11:21:01.042Z</time></trkpt><trkpt lat="43.9952883" lon="11.922445"><ele>316.33333333333337</ele><time>2026-04-12T11:21:03.041Z</time></trkpt><trkpt lat="43.9952917" lon="11.9223367"><ele>313.0</ele><time>2026-04-12T11:21:05.041Z</time></trkpt><trkpt lat="43.9952683" lon="11.9222517"><ele>309.6666666666667</ele><time>2026-04-12T11:21:07.041Z</time></trkpt><trkpt lat="43.9952467" lon="11.9221267"><ele>306.3333333333333</ele><time>2026-04-12T11:21:10.04Z</time></trkpt><trkpt lat="43.9952067" lon="11.9220317"><ele>303.0</ele><time>2026-04-12T11:21:13.04Z</time></trkpt><trkpt lat="43.99518" lon="11.9219117"><ele>303.0</ele><time>2026-04-12T11:21:18.041Z</time></trkpt><trkpt lat="43.9952083" lon="11.9218033"><ele>303.0</ele><time>2026-04-12T11:21:20.04Z</time></trkpt><trkpt lat="43.995255" lon="11.921665"><ele>303.0</ele><time>2026-04-12T11:21:22.04Z</time></trkpt><trkpt lat="43.9952967" lon="11.9215517"><ele>303.0</ele><time>2026-04-12T11:21:24.04Z</time></trkpt><trkpt lat="43.9952883" lon="11.9214267"><ele>303.0</ele><time>2026-04-12T11:21:26.04Z</time></trkpt><trkpt lat="43.995285" lon="11.9213083"><ele>299.6</ele><time>2026-04-12T11:21:28.04Z</time></trkpt><trkpt lat="43.9952617" lon="11.9211033"><ele>296.20000000000005</ele><time>2026-04-12T11:21:39.04Z</time></trkpt><trkpt lat="43.99528" lon="11.9210033"><ele>292.8</ele><time>2026-04-12T11:21:42.04Z</time></trkpt><trkpt lat="43.99531" lon="11.9208917"><ele>289.40000000000003</ele><time>2026-04-12T11:21:45.04Z</time></trkpt><trkpt lat="43.9953433" lon="11.9208017"><ele>286.0</ele><time>2026-04-12T11:21:47.041Z</time></trkpt><trkpt lat="43.9953133" lon="11.9206783"><ele>283.0</ele><time>2026-04-12T11:21:50.04Z</time></trkpt><trkpt lat="43.9952783" lon="11.9205867"><ele>280.0</ele><time>2026-04-12T11:21:52.04Z</time></trkpt><trkpt lat="43.9952283" lon="11.9204733"><ele>277.0</ele><time>2026-04-12T11:21:55.04Z</time></trkpt><trkpt lat="43.9952033" lon="11.9203767"><ele>274.0</ele><time>2026-04-12T11:21:57.041Z</time></trkpt><trkpt lat="43.9952117" lon="11.9202683"><ele>271.0</ele><time>2026-04-12T11:21:59.041Z</time></trkpt><trkpt lat="43.9952233" lon="11.92017"><ele>268.0</ele><time>2026-04-12T11:22:01.04Z</time></trkpt><trkpt lat="43.9952117" lon="11.92007"><ele>265.66666666666663</ele><time>2026-04-12T11:22:05.04Z</time></trkpt><trkpt lat="43.99519" lon="11.9199733"><ele>263.3333333333333</ele><time>2026-04-12T11:23:16.041Z</time></trkpt><trkpt lat="43.995195" lon="11.9198567"><ele>261.0</ele><time>2026-04-12T11:23:21.04Z</time></trkpt><trkpt lat="43.9952533" lon="11.91978"><ele>258.6666666666667</ele><time>2026-04-12T11:23:33.04Z</time></trkpt><trkpt lat="43.9953217" lon="11.919715"><ele>256.33333333333337</ele><time>2026-04-12T11:23:36.04Z</time></trkpt><trkpt lat="43.9953583" lon="11.919625"><ele>254.0</ele><time>2026-04-12T11:23:39.041Z</time></trkpt><trkpt lat="43.9953667" lon="11.919515"><ele>254.00000000000003</ele><time>2026-04-12T11:23:43.041Z</time></trkpt><trkpt lat="43.99532" lon="11.9194517"><ele>254.0</ele><time>2026-04-12T11:23:46.04Z</time></trkpt><trkpt lat="43.99524" lon="11.9194767"><ele>254.0</ele><time>2026-04-12T11:23:50.041Z</time></trkpt><trkpt lat="43.9951667" lon="11.9195333"><ele>254.0</ele><time>2026-04-12T11:23:53.04Z</time></trkpt><trkpt lat="43.9950983" lon="11.919575"><ele>254.00000000000003</ele><time>2026-04-12T11:23:55.04Z</time></trkpt><trkpt lat="43.99503" lon="11.9196033"><ele>254.0</ele><time>2026-04-12T11:23:58.041Z</time></trkpt><trkpt lat="43.9949467" lon="11.9195983"><ele>256.83333333333337</ele><time>2026-04-12T11:24:01.04Z</time></trkpt><trkpt lat="43.9948767" lon="11.9195917"><ele>259.6666666666667</ele><time>2026-04-12T11:24:03.04Z</time></trkpt><trkpt lat="43.9947733" lon="11.919575"><ele>262.5</ele><time>2026-04-12T11:24:09.04Z</time></trkpt><trkpt lat="43.9947083" lon="11.9195783"><ele>265.3333333333333</ele><time>2026-04-12T11:24:24.04Z</time></trkpt><trkpt lat="43.9946317" lon="11.9195917"><ele>268.16666666666663</ele><time>2026-04-12T11:24:26.039Z</time></trkpt><trkpt lat="43.994565" lon="11.9196133"><ele>271.0</ele><time>2026-04-12T11:24:28.041Z</time></trkpt><trkpt lat="43.9944967" lon="11.91965"><ele>271.0</ele><time>2026-04-12T11:24:30.04Z</time></trkpt><trkpt lat="43.9944333" lon="11.91965"><ele>271.0</ele><time>2026-04-12T11:24:33.04Z</time></trkpt><trkpt lat="43.994365" lon="11.91963"><ele>271.0</ele><time>2026-04-12T11:24:38.04Z</time></trkpt><trkpt lat="43.99432" lon="11.9195333"><ele>271.0</ele><time>2026-04-12T11:24:41.041Z</time></trkpt><trkpt lat="43.9942567" lon="11.9195833"><ele>271.0</ele><time>2026-04-12T11:24:49.041Z</time></trkpt><trkpt lat="43.9941733" lon="11.9196183"><ele>271.0</ele><time>2026-04-12T11:24:52.04Z</time></trkpt><trkpt lat="43.99409" lon="11.91964"><ele>271.16666666666663</ele><time>2026-04-12T11:24:54.04Z</time></trkpt><trkpt lat="43.994025" lon="11.91967"><ele>271.3333333333333</ele><time>2026-04-12T11:24:56.04Z</time></trkpt><trkpt lat="43.9939417" lon="11.91971"><ele>271.5</ele><time>2026-04-12T11:24:58.04Z</time></trkpt><trkpt lat="43.99388" lon="11.9197317"><ele>271.6666666666667</ele><time>2026-04-12T11:24:59.04Z</time></trkpt><trkpt lat="43.993815" lon="11.91975"><ele>271.83333333333337</ele><time>2026-04-12T11:25:00.04Z</time></trkpt><trkpt lat="43.99372" lon="11.9197667"><ele>272.0</ele><time>2026-04-12T11:25:02.04Z</time></trkpt><trkpt lat="43.9936383" lon="11.919825"><ele>272.0</ele><time>2026-04-12T11:25:04.04Z</time></trkpt><trkpt lat="43.9935583" lon="11.9199067"><ele>272.0</ele><time>2026-04-12T11:25:06.04Z</time></trkpt><trkpt lat="43.9934683" lon="11.91998"><ele>272.0</ele><time>2026-04-12T11:25:08.041Z</time></trkpt><trkpt lat="43.9934133" lon="11.9200467"><ele>272.0</ele><time>2026-04-12T11:25:10.039Z</time></trkpt><trkpt lat="43.9933717" lon="11.9201167"><ele>272.0</ele><time>2026-04-12T11:25:13.039Z</time></trkpt><trkpt lat="43.9933217" lon="11.9201967"><ele>272.0</ele><time>2026-04-12T11:25:16.039Z</time></trkpt><trkpt lat="43.9933017" lon="11.92035"><ele>275.6666666666667</ele><time>2026-04-12T11:25:22.039Z</time></trkpt><trkpt lat="43.9932983" lon="11.9204883"><ele>279.33333333333337</ele><time>2026-04-12T11:25:24.04Z</time></trkpt><trkpt lat="43.9932983" lon="11.920615"><ele>283.0</ele><time>2026-04-12T11:25:26.039Z</time></trkpt><trkpt lat="43.9932867" lon="11.920715"><ele>286.6666666666667</ele><time>2026-04-12T11:25:28.039Z</time></trkpt><trkpt lat="43.9932533" lon="11.9208217"><ele>290.3333333333333</ele><time>2026-04-12T11:25:30.039Z</time></trkpt><trkpt lat="43.993225" lon="11.9209517"><ele>294.0</ele><time>2026-04-12T11:25:32.039Z</time></trkpt><trkpt lat="43.9932067" lon="11.9211183"><ele>296.0</ele><time>2026-04-12T11:25:34.04Z</time></trkpt><trkpt lat="43.9931833" lon="11.92127"><ele>298.0</ele><time>2026-04-12T11:25:36.039Z</time></trkpt><trkpt lat="43.9931583" lon="11.9214267"><ele>300.0</ele><time>2026-04-12T11:25:38.04Z</time></trkpt><trkpt lat="43.9931083" lon="11.9215717"><ele>302.0</ele><time>2026-04-12T11:25:40.039Z</time></trkpt><trkpt lat="43.9930367" lon="11.9217117"><ele>304.83333333333337</ele><time>2026-04-12T11:25:42.039Z</time></trkpt><trkpt lat="43.9929933" lon="11.921785"><ele>307.6666666666667</ele><time>2026-04-12T11:25:43.04Z</time></trkpt><trkpt lat="43.9929483" lon="11.9218617"><ele>310.5</ele><time>2026-04-12T11:25:44.04Z</time></trkpt><trkpt lat="43.9928983" lon="11.921935"><ele>313.3333333333333</ele><time>2026-04-12T11:25:45.04Z</time></trkpt><trkpt lat="43.99284" lon="11.922005"><ele>316.16666666666663</ele><time>2026-04-12T11:25:46.039Z</time></trkpt><trkpt lat="43.9927717" lon="11.92208"><ele>319.0</ele><time>2026-04-12T11:25:47.039Z</time></trkpt><trkpt lat="43.9926983" lon="11.92216"><ele>319.0</ele><time>2026-04-12T11:25:48.039Z</time></trkpt><trkpt lat="43.9926333" lon="11.9222483"><ele>319.0</ele><time>2026-04-12T11:25:49.039Z</time></trkpt><trkpt lat="43.9925517" lon="11.9223533"><ele>319.0</ele><time>2026-04-12T11:25:50.039Z</time></trkpt><trkpt lat="43.99248" lon="11.9224533"><ele>319.0</ele><time>2026-04-12T11:25:51.039Z</time></trkpt><trkpt lat="43.9924167" lon="11.9225467"><ele>319.0</ele><time>2026-04-12T11:25:52.039Z</time></trkpt><trkpt lat="43.9923517" lon="11.9226317"><ele>321.3333333333333</ele><time>2026-04-12T11:25:53.039Z</time></trkpt><trkpt lat="43.9922983" lon="11.92271"><ele>323.66666666666663</ele><time>2026-04-12T11:25:54.039Z</time></trkpt><trkpt lat="43.9922533" lon="11.92278"><ele>326.0</ele><time>2026-04-12T11:25:55.039Z</time></trkpt><trkpt lat="43.9921617" lon="11.9228783"><ele>328.3333333333333</ele><time>2026-04-12T11:25:57.039Z</time></trkpt><trkpt lat="43.99211" lon="11.9229333"><ele>330.6666666666667</ele><time>2026-04-12T11:25:59.039Z</time></trkpt><trkpt lat="43.99217" lon="11.9228767"><ele>333.0</ele><time>2026-04-12T11:28:47.038Z</time></trkpt><trkpt lat="43.9922317" lon="11.9228167"><ele>333.0</ele><time>2026-04-12T11:28:49.038Z</time></trkpt><trkpt lat="43.9923183" lon="11.9227117"><ele>333.0</ele><time>2026-04-12T11:28:51.039Z</time></trkpt><trkpt lat="43.9923633" lon="11.922645"><ele>333.0</ele><time>2026-04-12T11:28:52.038Z</time></trkpt><trkpt lat="43.99241" lon="11.9225733"><ele>333.0</ele><time>2026-04-12T11:28:53.039Z</time></trkpt><trkpt lat="43.9924567" lon="11.9225067"><ele>333.0</ele><time>2026-04-12T11:28:54.038Z</time></trkpt><trkpt lat="43.9925033" lon="11.922445"><ele>333.0</ele><time>2026-04-12T11:28:55.038Z</time></trkpt><trkpt lat="43.9925617" lon="11.9223733"><ele>330.6666666666667</ele><time>2026-04-12T11:28:56.038Z</time></trkpt><trkpt lat="43.992615" lon="11.9223133"><ele>328.3333333333333</ele><time>2026-04-12T11:28:57.038Z</time></trkpt><trkpt lat="43.9926633" lon="11.92225"><ele>326.0</ele><time>2026-04-12T11:28:58.038Z</time></trkpt><trkpt lat="43.992745" lon="11.9221517"><ele>323.66666666666663</ele><time>2026-04-12T11:29:00.038Z</time></trkpt><trkpt lat="43.9928183" lon="11.92206"><ele>321.3333333333333</ele><time>2026-04-12T11:29:02.038Z</time></trkpt><trkpt lat="43.9929" lon="11.921965"><ele>319.0</ele><time>2026-04-12T11:29:04.038Z</time></trkpt><trkpt lat="43.9929467" lon="11.9218967"><ele>319.0</ele><time>2026-04-12T11:29:05.038Z</time></trkpt><trkpt lat="43.99299" lon="11.9218267"><ele>319.0</ele><time>2026-04-12T11:29:06.038Z</time></trkpt><trkpt lat="43.99303" lon="11.9217533"><ele>319.0</ele><time>2026-04-12T11:29:07.039Z</time></trkpt><trkpt lat="43.993075" lon="11.921675"><ele>319.0</ele><time>2026-04-12T11:29:08.038Z</time></trkpt><trkpt lat="43.9931183" lon="11.92159"><ele>319.0</ele><time>2026-04-12T11:29:09.038Z</time></trkpt><trkpt lat="43.993155" lon="11.921505"><ele>319.0</ele><time>2026-04-12T11:29:10.038Z</time></trkpt><trkpt lat="43.9931983" lon="11.9213567"><ele>315.59999999999997</ele><time>2026-04-12T11:29:12.038Z</time></trkpt><trkpt lat="43.9932267" lon="11.921205"><ele>312.2</ele><time>2026-04-12T11:29:14.038Z</time></trkpt><trkpt lat="43.9932233" lon="11.9210567"><ele>308.79999999999995</ele><time>2026-04-12T11:29:16.039Z</time></trkpt><trkpt lat="43.993235" lon="11.9209"><ele>305.4</ele><time>2026-04-12T11:29:18.038Z</time></trkpt><trkpt lat="43.99326" lon="11.920745"><ele>302.0</ele><time>2026-04-12T11:29:20.039Z</time></trkpt><trkpt lat="43.993285" lon="11.9205983"><ele>300.6666666666667</ele><time>2026-04-12T11:29:22.038Z</time></trkpt><trkpt lat="43.993285" lon="11.920455"><ele>299.33333333333337</ele><time>2026-04-12T11:29:24.038Z</time></trkpt><trkpt lat="43.9932833" lon="11.9203317"><ele>298.0</ele><time>2026-04-12T11:29:26.038Z</time></trkpt><trkpt lat="43.9932783" lon="11.9202383"><ele>296.6666666666667</ele><time>2026-04-12T11:29:28.038Z</time></trkpt><trkpt lat="43.993325" lon="11.9201233"><ele>295.3333333333333</ele><time>2026-04-12T11:29:33.038Z</time></trkpt><trkpt lat="43.9933817" lon="11.9200633"><ele>294.0</ele><time>2026-04-12T11:29:35.038Z</time></trkpt><trkpt lat="43.9934483" lon="11.9199983"><ele>289.59999999999997</ele><time>2026-04-12T11:29:38.038Z</time></trkpt><trkpt lat="43.9935383" lon="11.9199533"><ele>285.2</ele><time>2026-04-12T11:29:41.039Z</time></trkpt><trkpt lat="43.9936133" lon="11.9198983"><ele>280.79999999999995</ele><time>2026-04-12T11:29:44.038Z</time></trkpt><trkpt lat="43.9936833" lon="11.9198217"><ele>276.4</ele><time>2026-04-12T11:29:47.038Z</time></trkpt><trkpt lat="43.993775" lon="11.9197783"><ele>272.0</ele><time>2026-04-12T11:29:50.038Z</time></trkpt><trkpt lat="43.9938817" lon="11.919755"><ele>272.0</ele><time>2026-04-12T11:29:52.038Z</time></trkpt><trkpt lat="43.9939483" lon="11.9197417"><ele>272.0</ele><time>2026-04-12T11:29:53.038Z</time></trkpt><trkpt lat="43.994065" lon="11.919705"><ele>272.0</ele><time>2026-04-12T11:29:55.039Z</time></trkpt><trkpt lat="43.99416" lon="11.9196683"><ele>272.0</ele><time>2026-04-12T11:29:57.039Z</time></trkpt><trkpt lat="43.9942567" lon="11.9196017"><ele>272.0</ele><time>2026-04-12T11:29:59.039Z</time></trkpt><trkpt lat="43.99434" lon="11.9194817"><ele>271.8</ele><time>2026-04-12T11:30:01.038Z</time></trkpt><trkpt lat="43.9944067" lon="11.9193533"><ele>271.6</ele><time>2026-04-12T11:30:03.038Z</time></trkpt><trkpt lat="43.994485" lon="11.9192467"><ele>271.40000000000003</ele><time>2026-04-12T11:30:05.038Z</time></trkpt><trkpt lat="43.9945583" lon="11.919185"><ele>271.2</ele><time>2026-04-12T11:30:07.038Z</time></trkpt><trkpt lat="43.994625" lon="11.91915"><ele>271.0</ele><time>2026-04-12T11:30:10.038Z</time></trkpt><trkpt lat="43.9946917" lon="11.91911"><ele>265.0</ele><time>2026-04-12T11:30:15.038Z</time></trkpt><trkpt lat="43.994775" lon="11.91907"><ele>259.0</ele><time>2026-04-12T11:30:18.038Z</time></trkpt><trkpt lat="43.9948567" lon="11.91902"><ele>253.00000000000003</ele><time>2026-04-12T11:30:21.039Z</time></trkpt><trkpt lat="43.99492" lon="11.9189433"><ele>247.0</ele><time>2026-04-12T11:30:26.038Z</time></trkpt><trkpt lat="43.9950117" lon="11.9188383"><ele>241.0</ele><time>2026-04-12T11:31:05.039Z</time></trkpt><trkpt lat="43.9950667" lon="11.918765"><ele>240.99999999999997</ele><time>2026-04-12T11:31:08.038Z</time></trkpt><trkpt lat="43.9951267" lon="11.9187183"><ele>241.0</ele><time>2026-04-12T11:31:13.039Z</time></trkpt><trkpt lat="43.995095" lon="11.918635"><ele>241.0</ele><time>2026-04-12T11:31:17.039Z</time></trkpt><trkpt lat="43.99503" lon="11.91852"><ele>241.0</ele><time>2026-04-12T11:31:43.039Z</time></trkpt><trkpt lat="43.9949833" lon="11.918415"><ele>240.99999999999997</ele><time>2026-04-12T11:31:44.038Z</time></trkpt><trkpt lat="43.99492" lon="11.9182967"><ele>241.0</ele><time>2026-04-12T11:31:45.038Z</time></trkpt><trkpt lat="43.9948583" lon="11.9181883"><ele>239.4</ele><time>2026-04-12T11:31:46.038Z</time></trkpt><trkpt lat="43.9947983" lon="11.91809"><ele>237.8</ele><time>2026-04-12T11:31:47.038Z</time></trkpt><trkpt lat="43.9947383" lon="11.91799"><ele>236.20000000000002</ele><time>2026-04-12T11:31:48.039Z</time></trkpt><trkpt lat="43.9946767" lon="11.9178883"><ele>234.60000000000002</ele><time>2026-04-12T11:31:49.038Z</time></trkpt><trkpt lat="43.99462" lon="11.91779"><ele>233.0</ele><time>2026-04-12T11:31:50.038Z</time></trkpt><trkpt lat="43.994565" lon="11.9176967"><ele>233.00000000000003</ele><time>2026-04-12T11:31:51.035Z</time></trkpt><trkpt lat="43.9945083" lon="11.91761"><ele>233.0</ele><time>2026-04-12T11:31:52.032Z</time></trkpt><trkpt lat="43.9944617" lon="11.91752"><ele>233.0</ele><time>2026-04-12T11:31:53.039Z</time></trkpt><trkpt lat="43.9944083" lon="11.9174317"><ele>233.0</ele><time>2026-04-12T11:31:54.038Z</time></trkpt><trkpt lat="43.9943617" lon="11.9173383"><ele>233.00000000000003</ele><time>2026-04-12T11:31:55.035Z</time></trkpt><trkpt lat="43.994325" lon="11.9172367"><ele>233.0</ele><time>2026-04-12T11:31:56.038Z</time></trkpt><trkpt lat="43.994305" lon="11.9170133"><ele>231.00000000000003</ele><time>2026-04-12T11:31:58.038Z</time></trkpt><trkpt lat="43.994305" lon="11.9169017"><ele>229.0</ele><time>2026-04-12T11:31:59.038Z</time></trkpt><trkpt lat="43.99432" lon="11.9167917"><ele>227.0</ele><time>2026-04-12T11:32:00.039Z</time></trkpt><trkpt lat="43.99434" lon="11.9166833"><ele>225.0</ele><time>2026-04-12T11:32:01.038Z</time></trkpt><trkpt lat="43.9943567" lon="11.91657"><ele>223.00000000000003</ele><time>2026-04-12T11:32:02.038Z</time></trkpt><trkpt lat="43.9943717" lon="11.9164583"><ele>221.0</ele><time>2026-04-12T11:32:03.038Z</time></trkpt><trkpt lat="43.9943717" lon="11.9163383"><ele>220.8</ele><time>2026-04-12T11:32:04.038Z</time></trkpt><trkpt lat="43.9943467" lon="11.91622"><ele>220.60000000000002</ele><time>2026-04-12T11:32:05.038Z</time></trkpt><trkpt lat="43.9943" lon="11.9160967"><ele>220.4</ele><time>2026-04-12T11:32:06.038Z</time></trkpt><trkpt lat="43.99425" lon="11.9159483"><ele>220.2</ele><time>2026-04-12T11:32:07.039Z</time></trkpt><trkpt lat="43.9942067" lon="11.9157833"><ele>220.0</ele><time>2026-04-12T11:32:08.038Z</time></trkpt><trkpt lat="43.994155" lon="11.9156083"><ele>220.0</ele><time>2026-04-12T11:32:09.039Z</time></trkpt><trkpt lat="43.9941" lon="11.9154317"><ele>220.0</ele><time>2026-04-12T11:32:10.038Z</time></trkpt><trkpt lat="43.9940517" lon="11.915265"><ele>220.0</ele><time>2026-04-12T11:32:11.038Z</time></trkpt><trkpt lat="43.9940083" lon="11.9151083"><ele>220.0</ele><time>2026-04-12T11:32:12.038Z</time></trkpt><trkpt lat="43.9939633" lon="11.914955"><ele>219.4</ele><time>2026-04-12T11:32:13.038Z</time></trkpt><trkpt lat="43.9939217" lon="11.91481"><ele>218.8</ele><time>2026-04-12T11:32:14.038Z</time></trkpt><trkpt lat="43.9938833" lon="11.9146767"><ele>218.2</ele><time>2026-04-12T11:32:15.038Z</time></trkpt><trkpt lat="43.9938533" lon="11.9145567"><ele>217.6</ele><time>2026-04-12T11:32:16.039Z</time></trkpt><trkpt lat="43.99383" lon="11.9144433"><ele>217.0</ele><time>2026-04-12T11:32:17.038Z</time></trkpt><trkpt lat="43.9938267" lon="11.9143267"><ele>216.66666666666666</ele><time>2026-04-12T11:32:18.038Z</time></trkpt><trkpt lat="43.99383" lon="11.9142283"><ele>216.33333333333331</ele><time>2026-04-12T11:32:19.038Z</time></trkpt><trkpt lat="43.9938283" lon="11.91414"><ele>216.0</ele><time>2026-04-12T11:32:20.038Z</time></trkpt><trkpt lat="43.993765" lon="11.9140017"><ele>215.66666666666669</ele><time>2026-04-12T11:32:22.039Z</time></trkpt><trkpt lat="43.9936933" lon="11.9139483"><ele>215.33333333333334</ele><time>2026-04-12T11:32:23.038Z</time></trkpt><trkpt lat="43.9935917" lon="11.9138967"><ele>215.0</ele><time>2026-04-12T11:32:24.038Z</time></trkpt><trkpt lat="43.9934933" lon="11.913845"><ele>215.00000000000003</ele><time>2026-04-12T11:32:25.038Z</time></trkpt><trkpt lat="43.9934017" lon="11.9137867"><ele>215.0</ele><time>2026-04-12T11:32:26.038Z</time></trkpt><trkpt lat="43.9933133" lon="11.9137283"><ele>215.0</ele><time>2026-04-12T11:32:27.037Z</time></trkpt><trkpt lat="43.993245" lon="11.9136717"><ele>215.0</ele><time>2026-04-12T11:32:28.038Z</time></trkpt><trkpt lat="43.9931717" lon="11.9136267"><ele>215.00000000000003</ele><time>2026-04-12T11:32:29.038Z</time></trkpt><trkpt lat="43.9931083" lon="11.9135867"><ele>215.0</ele><time>2026-04-12T11:32:30.038Z</time></trkpt><trkpt lat="43.9930383" lon="11.91346"><ele>215.33333333333334</ele><time>2026-04-12T11:32:32.038Z</time></trkpt><trkpt lat="43.99306" lon="11.91331"><ele>215.66666666666669</ele><time>2026-04-12T11:32:34.038Z</time></trkpt><trkpt lat="43.9931183" lon="11.9131717"><ele>216.0</ele><time>2026-04-12T11:32:36.038Z</time></trkpt><trkpt lat="43.9931517" lon="11.913085"><ele>216.33333333333331</ele><time>2026-04-12T11:32:37.037Z</time></trkpt><trkpt lat="43.9931783" lon="11.912995"><ele>216.66666666666666</ele><time>2026-04-12T11:32:38.037Z</time></trkpt><trkpt lat="43.9932067" lon="11.9129117"><ele>217.0</ele><time>2026-04-12T11:32:39.038Z</time></trkpt><trkpt lat="43.9932617" lon="11.9127633"><ele>217.0</ele><time>2026-04-12T11:32:41.037Z</time></trkpt><trkpt lat="43.9933167" lon="11.9126233"><ele>217.0</ele><time>2026-04-12T11:32:43.037Z</time></trkpt><trkpt lat="43.9933483" lon="11.91252"><ele>217.0</ele><time>2026-04-12T11:32:45.037Z</time></trkpt><trkpt lat="43.99338" lon="11.91242"><ele>217.0</ele><time>2026-04-12T11:32:47.037Z</time></trkpt><trkpt lat="43.9933983" lon="11.9122933"><ele>217.0</ele><time>2026-04-12T11:32:49.037Z</time></trkpt><trkpt lat="43.99336" lon="11.9121583"><ele>215.8</ele><time>2026-04-12T11:32:51.036Z</time></trkpt><trkpt lat="43.9933067" lon="11.91209"><ele>214.6</ele><time>2026-04-12T11:32:52.038Z</time></trkpt><trkpt lat="43.99316" lon="11.9119817"><ele>213.4</ele><time>2026-04-12T11:32:54.037Z</time></trkpt><trkpt lat="43.99308" lon="11.91196"><ele>212.20000000000002</ele><time>2026-04-12T11:32:55.037Z</time></trkpt><trkpt lat="43.99301" lon="11.9119533"><ele>211.0</ele><time>2026-04-12T11:32:56.037Z</time></trkpt><trkpt lat="43.99294" lon="11.9119417"><ele>211.0</ele><time>2026-04-12T11:32:57.038Z</time></trkpt><trkpt lat="43.9928833" lon="11.9119"><ele>211.0</ele><time>2026-04-12T11:32:58.038Z</time></trkpt><trkpt lat="43.992845" lon="11.9117467"><ele>211.0</ele><time>2026-04-12T11:33:00.038Z</time></trkpt><trkpt lat="43.9928283" lon="11.91157"><ele>211.0</ele><time>2026-04-12T11:33:02.037Z</time></trkpt><trkpt lat="43.9927833" lon="11.9114117"><ele>211.0</ele><time>2026-04-12T11:33:04.033Z</time></trkpt><trkpt lat="43.9926667" lon="11.91135"><ele>210.5</ele><time>2026-04-12T11:33:06.038Z</time></trkpt><trkpt lat="43.992595" lon="11.91133"><ele>210.0</ele><time>2026-04-12T11:33:07.037Z</time></trkpt><trkpt lat="43.99242" lon="11.9113083"><ele>209.5</ele><time>2026-04-12T11:33:09.037Z</time></trkpt><trkpt lat="43.9923283" lon="11.9112867"><ele>209.0</ele><time>2026-04-12T11:33:10.037Z</time></trkpt><trkpt lat="43.9921583" lon="11.9112533"><ele>209.0</ele><time>2026-04-12T11:33:12.037Z</time></trkpt><trkpt lat="43.9920933" lon="11.9112317"><ele>209.0</ele><time>2026-04-12T11:33:13.037Z</time></trkpt><trkpt lat="43.992035" lon="11.91119"><ele>209.0</ele><time>2026-04-12T11:33:14.037Z</time></trkpt><trkpt lat="43.9919917" lon="11.9111233"><ele>209.0</ele><time>2026-04-12T11:33:15.037Z</time></trkpt><trkpt lat="43.9919633" lon="11.91104"><ele>209.0</ele><time>2026-04-12T11:33:16.037Z</time></trkpt><trkpt lat="43.9919583" lon="11.9109383"><ele>209.0</ele><time>2026-04-12T11:33:17.035Z</time></trkpt><trkpt lat="43.99196" lon="11.910825"><ele>209.0</ele><time>2026-04-12T11:33:18.037Z</time></trkpt><trkpt lat="43.9919717" lon="11.91059"><ele>213.66666666666669</ele><time>2026-04-12T11:33:20.037Z</time></trkpt><trkpt lat="43.991975" lon="11.9104733"><ele>218.33333333333331</ele><time>2026-04-12T11:33:21.036Z</time></trkpt><trkpt lat="43.9919817" lon="11.910245"><ele>223.0</ele><time>2026-04-12T11:33:23.037Z</time></trkpt><trkpt lat="43.9920067" lon="11.9099183"><ele>224.49999999999997</ele><time>2026-04-12T11:33:26.037Z</time></trkpt><trkpt lat="43.99202" lon="11.9098083"><ele>226.0</ele><time>2026-04-12T11:33:27.037Z</time></trkpt><trkpt lat="43.99203" lon="11.9096983"><ele>227.5</ele><time>2026-04-12T11:33:28.037Z</time></trkpt><trkpt lat="43.992045" lon="11.90959"><ele>229.0</ele><time>2026-04-12T11:33:29.037Z</time></trkpt><trkpt lat="43.9920717" lon="11.9094883"><ele>230.49999999999997</ele><time>2026-04-12T11:33:30.037Z</time></trkpt><trkpt lat="43.9921033" lon="11.909395"><ele>232.0</ele><time>2026-04-12T11:33:31.037Z</time></trkpt><trkpt lat="43.9921983" lon="11.9092317"><ele>231.83333333333331</ele><time>2026-04-12T11:33:33.037Z</time></trkpt><trkpt lat="43.9922483" lon="11.9091733"><ele>231.66666666666666</ele><time>2026-04-12T11:33:34.037Z</time></trkpt><trkpt lat="43.9923017" lon="11.9091267"><ele>231.5</ele><time>2026-04-12T11:33:35.037Z</time></trkpt><trkpt lat="43.9923867" lon="11.9091317"><ele>231.33333333333331</ele><time>2026-04-12T11:33:37.037Z</time></trkpt><trkpt lat="43.9924433" lon="11.90918"><ele>231.16666666666666</ele><time>2026-04-12T11:33:38.037Z</time></trkpt><trkpt lat="43.9925133" lon="11.9092517"><ele>231.0</ele><time>2026-04-12T11:33:39.037Z</time></trkpt><trkpt lat="43.9926133" lon="11.90934"><ele>231.0</ele><time>2026-04-12T11:33:40.037Z</time></trkpt><trkpt lat="43.9927367" lon="11.9094383"><ele>231.0</ele><time>2026-04-12T11:33:41.037Z</time></trkpt><trkpt lat="43.9928533" lon="11.9095167"><ele>231.0</ele><time>2026-04-12T11:33:42.037Z</time></trkpt><trkpt lat="43.9929667" lon="11.9095933"><ele>231.0</ele><time>2026-04-12T11:33:43.037Z</time></trkpt><trkpt lat="43.9930667" lon="11.9096533"><ele>231.0</ele><time>2026-04-12T11:33:44.037Z</time></trkpt><trkpt lat="43.9931833" lon="11.909705"><ele>231.00000000000003</ele><time>2026-04-12T11:33:45.038Z</time></trkpt><trkpt lat="43.99328" lon="11.9097617"><ele>231.00000000000003</ele><time>2026-04-12T11:33:46.037Z</time></trkpt><trkpt lat="43.99338" lon="11.9098067"><ele>231.0</ele><time>2026-04-12T11:33:47.037Z</time></trkpt><trkpt lat="43.9934783" lon="11.9098533"><ele>231.0</ele><time>2026-04-12T11:33:48.037Z</time></trkpt><trkpt lat="43.9935817" lon="11.909895"><ele>231.4</ele><time>2026-04-12T11:33:49.037Z</time></trkpt><trkpt lat="43.9936867" lon="11.909915"><ele>231.8</ele><time>2026-04-12T11:33:50.037Z</time></trkpt><trkpt lat="43.9937917" lon="11.90992"><ele>232.20000000000002</ele><time>2026-04-12T11:33:51.037Z</time></trkpt><trkpt lat="43.993895" lon="11.9099517"><ele>232.60000000000002</ele><time>2026-04-12T11:33:52.037Z</time></trkpt><trkpt lat="43.9939933" lon="11.9099683"><ele>233.0</ele><time>2026-04-12T11:33:53.037Z</time></trkpt><trkpt lat="43.9940767" lon="11.909965"><ele>233.00000000000003</ele><time>2026-04-12T11:33:54.037Z</time></trkpt><trkpt lat="43.9941583" lon="11.9099783"><ele>233.0</ele><time>2026-04-12T11:33:55.037Z</time></trkpt><trkpt lat="43.9942417" lon="11.909995"><ele>233.0</ele><time>2026-04-12T11:33:56.037Z</time></trkpt><trkpt lat="43.9943317" lon="11.91001"><ele>233.0</ele><time>2026-04-12T11:33:57.037Z</time></trkpt><trkpt lat="43.9944117" lon="11.910015"><ele>233.00000000000003</ele><time>2026-04-12T11:33:58.038Z</time></trkpt><trkpt lat="43.9944833" lon="11.910005"><ele>233.0</ele><time>2026-04-12T11:33:59.037Z</time></trkpt><trkpt lat="43.99458" lon="11.9099333"><ele>233.0</ele><time>2026-04-12T11:34:01.037Z</time></trkpt><trkpt lat="43.994625" lon="11.9097817"><ele>233.0</ele><time>2026-04-12T11:34:03.038Z</time></trkpt><trkpt lat="43.994645" lon="11.9096967"><ele>233.0</ele><time>2026-04-12T11:34:04.037Z</time></trkpt><trkpt lat="43.994685" lon="11.9095467"><ele>233.0</ele><time>2026-04-12T11:34:06.037Z</time></trkpt><trkpt lat="43.9947367" lon="11.909475"><ele>233.0</ele><time>2026-04-12T11:34:09.037Z</time></trkpt><trkpt lat="43.9948183" lon="11.9095167"><ele>233.0</ele><time>2026-04-12T11:34:11.038Z</time></trkpt><trkpt lat="43.9948833" lon="11.9095567"><ele>233.0</ele><time>2026-04-12T11:34:12.037Z</time></trkpt><trkpt lat="43.9949683" lon="11.9096117"><ele>233.0</ele><time>2026-04-12T11:34:13.037Z</time></trkpt><trkpt lat="43.9950683" lon="11.9096783"><ele>233.0</ele><time>2026-04-12T11:34:14.037Z</time></trkpt><trkpt lat="43.995185" lon="11.9097417"><ele>233.0</ele><time>2026-04-12T11:34:15.037Z</time></trkpt><trkpt lat="43.995295" lon="11.909815"><ele>233.8</ele><time>2026-04-12T11:34:16.037Z</time></trkpt><trkpt lat="43.9953967" lon="11.9098717"><ele>234.60000000000002</ele><time>2026-04-12T11:34:17.037Z</time></trkpt><trkpt lat="43.9954983" lon="11.9099167"><ele>235.39999999999998</ele><time>2026-04-12T11:34:18.037Z</time></trkpt><trkpt lat="43.9955917" lon="11.9099667"><ele>236.2</ele><time>2026-04-12T11:34:19.037Z</time></trkpt><trkpt lat="43.9956883" lon="11.910005"><ele>237.0</ele><time>2026-04-12T11:34:20.037Z</time></trkpt><trkpt lat="43.9957683" lon="11.9100533"><ele>236.83333333333334</ele><time>2026-04-12T11:34:21.037Z</time></trkpt><trkpt lat="43.9958417" lon="11.9101067"><ele>236.66666666666669</ele><time>2026-04-12T11:34:22.037Z</time></trkpt><trkpt lat="43.9959067" lon="11.91017"><ele>236.5</ele><time>2026-04-12T11:34:23.037Z</time></trkpt><trkpt lat="43.9959567" lon="11.910225"><ele>236.33333333333334</ele><time>2026-04-12T11:34:24.037Z</time></trkpt><trkpt lat="43.99603" lon="11.9103033"><ele>236.16666666666669</ele><time>2026-04-12T11:34:26.037Z</time></trkpt><trkpt lat="43.99604" lon="11.910445"><ele>236.0</ele><time>2026-04-12T11:34:29.037Z</time></trkpt><trkpt lat="43.9960883" lon="11.9105817"><ele>236.00000000000003</ele><time>2026-04-12T11:34:31.037Z</time></trkpt><trkpt lat="43.9961567" lon="11.9106433"><ele>236.0</ele><time>2026-04-12T11:34:32.037Z</time></trkpt><trkpt lat="43.996235" lon="11.9106883"><ele>236.0</ele><time>2026-04-12T11:34:33.038Z</time></trkpt><trkpt lat="43.99631" lon="11.910735"><ele>236.0</ele><time>2026-04-12T11:34:34.037Z</time></trkpt><trkpt lat="43.9963833" lon="11.9107817"><ele>236.00000000000003</ele><time>2026-04-12T11:34:35.037Z</time></trkpt><trkpt lat="43.9964567" lon="11.9108217"><ele>236.0</ele><time>2026-04-12T11:34:36.037Z</time></trkpt><trkpt lat="43.9965617" lon="11.9108983"><ele>235.8</ele><time>2026-04-12T11:34:38.037Z</time></trkpt><trkpt lat="43.9966533" lon="11.910975"><ele>235.60000000000002</ele><time>2026-04-12T11:34:40.037Z</time></trkpt><trkpt lat="43.9967183" lon="11.91104"><ele>235.4</ele><time>2026-04-12T11:34:42.037Z</time></trkpt><trkpt lat="43.9967267" lon="11.91117"><ele>235.2</ele><time>2026-04-12T11:34:44.038Z</time></trkpt><trkpt lat="43.9967133" lon="11.911275"><ele>235.0</ele><time>2026-04-12T11:34:45.037Z</time></trkpt><trkpt lat="43.9966967" lon="11.911415"><ele>235.0</ele><time>2026-04-12T11:34:46.037Z</time></trkpt><trkpt lat="43.9966817" lon="11.9115633"><ele>235.0</ele><time>2026-04-12T11:34:47.037Z</time></trkpt><trkpt lat="43.996665" lon="11.9117133"><ele>235.0</ele><time>2026-04-12T11:34:48.038Z</time></trkpt><trkpt lat="43.9966567" lon="11.9118467"><ele>235.0</ele><time>2026-04-12T11:34:49.037Z</time></trkpt><trkpt lat="43.9966367" lon="11.9119717"><ele>235.0</ele><time>2026-04-12T11:34:50.037Z</time></trkpt><trkpt lat="43.9966133" lon="11.9120967"><ele>234.66666666666666</ele><time>2026-04-12T11:34:51.037Z</time></trkpt><trkpt lat="43.9966017" lon="11.9122183"><ele>234.33333333333331</ele><time>2026-04-12T11:34:52.037Z</time></trkpt><trkpt lat="43.9965967" lon="11.91234"><ele>234.0</ele><time>2026-04-12T11:34:53.037Z</time></trkpt><trkpt lat="43.9965867" lon="11.9124617"><ele>233.66666666666669</ele><time>2026-04-12T11:34:54.037Z</time></trkpt><trkpt lat="43.9965783" lon="11.9125767"><ele>233.33333333333334</ele><time>2026-04-12T11:34:55.037Z</time></trkpt><trkpt lat="43.99658" lon="11.9126883"><ele>233.0</ele><time>2026-04-12T11:34:56.038Z</time></trkpt><trkpt lat="43.9965733" lon="11.9128"><ele>232.16666666666669</ele><time>2026-04-12T11:34:57.037Z</time></trkpt><trkpt lat="43.9965783" lon="11.9129"><ele>231.33333333333334</ele><time>2026-04-12T11:34:58.033Z</time></trkpt><trkpt lat="43.996595" lon="11.912995"><ele>230.5</ele><time>2026-04-12T11:34:59.037Z</time></trkpt><trkpt lat="43.9966867" lon="11.9131283"><ele>229.66666666666669</ele><time>2026-04-12T11:35:01.037Z</time></trkpt><trkpt lat="43.9967533" lon="11.91318"><ele>228.83333333333334</ele><time>2026-04-12T11:35:02.031Z</time></trkpt><trkpt lat="43.996835" lon="11.91321"><ele>228.0</ele><time>2026-04-12T11:35:03.027Z</time></trkpt><trkpt lat="43.9969117" lon="11.9132217"><ele>228.0</ele><time>2026-04-12T11:35:04.037Z</time></trkpt><trkpt lat="43.9970033" lon="11.9132367"><ele>228.0</ele><time>2026-04-12T11:35:05.037Z</time></trkpt><trkpt lat="43.9971767" lon="11.9132733"><ele>228.0</ele><time>2026-04-12T11:35:07.037Z</time></trkpt><trkpt lat="43.9973133" lon="11.9133117"><ele>228.0</ele><time>2026-04-12T11:35:09.037Z</time></trkpt><trkpt lat="43.9973933" lon="11.913345"><ele>228.0</ele><time>2026-04-12T11:35:11.037Z</time></trkpt><trkpt lat="43.9974733" lon="11.913345"><ele>228.0</ele><time>2026-04-12T11:37:32.036Z</time></trkpt><trkpt lat="43.99755" lon="11.9133533"><ele>228.0</ele><time>2026-04-12T11:37:34.036Z</time></trkpt><trkpt lat="43.99773" lon="11.9133917"><ele>228.0</ele><time>2026-04-12T11:37:37.036Z</time></trkpt><trkpt lat="43.99782" lon="11.9134133"><ele>228.0</ele><time>2026-04-12T11:37:38.036Z</time></trkpt><trkpt lat="43.9979067" lon="11.9134367"><ele>225.33333333333331</ele><time>2026-04-12T11:37:39.036Z</time></trkpt><trkpt lat="43.997985" lon="11.9134583"><ele>222.66666666666666</ele><time>2026-04-12T11:37:40.036Z</time></trkpt><trkpt lat="43.99827" lon="11.9135233"><ele>220.0</ele><time>2026-04-12T11:37:43.036Z</time></trkpt><trkpt lat="43.9984133" lon="11.9135517"><ele>219.25</ele><time>2026-04-12T11:37:44.036Z</time></trkpt><trkpt lat="43.99855" lon="11.9135867"><ele>218.5</ele><time>2026-04-12T11:37:45.036Z</time></trkpt><trkpt lat="43.99868" lon="11.913615"><ele>217.75</ele><time>2026-04-12T11:37:46.036Z</time></trkpt><trkpt lat="43.998815" lon="11.9136467"><ele>217.0</ele><time>2026-04-12T11:37:47.037Z</time></trkpt><trkpt lat="43.9989383" lon="11.913675"><ele>217.0</ele><time>2026-04-12T11:37:48.036Z</time></trkpt><trkpt lat="43.9990617" lon="11.913705"><ele>217.0</ele><time>2026-04-12T11:37:49.036Z</time></trkpt><trkpt lat="43.9991917" lon="11.9137333"><ele>217.0</ele><time>2026-04-12T11:37:50.036Z</time></trkpt><trkpt lat="43.9993167" lon="11.9137633"><ele>217.0</ele><time>2026-04-12T11:37:51.036Z</time></trkpt><trkpt lat="43.99944" lon="11.9137817"><ele>215.75</ele><time>2026-04-12T11:37:52.037Z</time></trkpt><trkpt lat="43.9995633" lon="11.913815"><ele>214.5</ele><time>2026-04-12T11:37:53.037Z</time></trkpt><trkpt lat="43.999685" lon="11.91384"><ele>213.25</ele><time>2026-04-12T11:37:54.036Z</time></trkpt><trkpt lat="43.999805" lon="11.91386"><ele>212.0</ele><time>2026-04-12T11:37:55.036Z</time></trkpt><trkpt lat="43.999925" lon="11.913885"><ele>212.0</ele><time>2026-04-12T11:37:56.036Z</time></trkpt><trkpt lat="44.000035" lon="11.913915"><ele>212.0</ele><time>2026-04-12T11:37:57.036Z</time></trkpt><trkpt lat="44.0001467" lon="11.9139383"><ele>212.0</ele><time>2026-04-12T11:37:58.036Z</time></trkpt><trkpt lat="44.0002583" lon="11.9139617"><ele>212.0</ele><time>2026-04-12T11:37:59.036Z</time></trkpt><trkpt lat="44.00037" lon="11.9139883"><ele>212.0</ele><time>2026-04-12T11:38:00.036Z</time></trkpt><trkpt lat="44.0004783" lon="11.91403"><ele>212.0</ele><time>2026-04-12T11:38:01.036Z</time></trkpt><trkpt lat="44.000585" lon="11.9140833"><ele>212.0</ele><time>2026-04-12T11:38:02.037Z</time></trkpt><trkpt lat="44.0006833" lon="11.9141517"><ele>212.0</ele><time>2026-04-12T11:38:03.036Z</time></trkpt><trkpt lat="44.0007817" lon="11.9142333"><ele>209.0</ele><time>2026-04-12T11:38:04.037Z</time></trkpt><trkpt lat="44.0008767" lon="11.91432"><ele>206.0</ele><time>2026-04-12T11:38:05.036Z</time></trkpt><trkpt lat="44.00097" lon="11.9144117"><ele>203.0</ele><time>2026-04-12T11:38:06.036Z</time></trkpt><trkpt lat="44.0010617" lon="11.914515"><ele>200.0</ele><time>2026-04-12T11:38:07.036Z</time></trkpt><trkpt lat="44.00116" lon="11.9146033"><ele>200.0</ele><time>2026-04-12T11:38:08.036Z</time></trkpt><trkpt lat="44.0012517" lon="11.91469"><ele>200.0</ele><time>2026-04-12T11:38:09.036Z</time></trkpt><trkpt lat="44.0013333" lon="11.9147633"><ele>200.0</ele><time>2026-04-12T11:38:10.037Z</time></trkpt><trkpt lat="44.0014117" lon="11.9148367"><ele>200.0</ele><time>2026-04-12T11:38:11.036Z</time></trkpt><trkpt lat="44.001485" lon="11.914905"><ele>200.0</ele><time>2026-04-12T11:38:12.036Z</time></trkpt><trkpt lat="44.0015533" lon="11.9149767"><ele>200.00000000000003</ele><time>2026-04-12T11:38:13.036Z</time></trkpt><trkpt lat="44.0016217" lon="11.9150583"><ele>200.0</ele><time>2026-04-12T11:38:14.036Z</time></trkpt><trkpt lat="44.0016883" lon="11.9151433"><ele>200.0</ele><time>2026-04-12T11:38:15.036Z</time></trkpt><trkpt lat="44.0017533" lon="11.9152283"><ele>200.0</ele><time>2026-04-12T11:38:16.036Z</time></trkpt><trkpt lat="44.0018167" lon="11.915315"><ele>200.00000000000003</ele><time>2026-04-12T11:38:17.036Z</time></trkpt><trkpt lat="44.0018667" lon="11.9154"><ele>200.0</ele><time>2026-04-12T11:38:18.036Z</time></trkpt><trkpt lat="44.00191" lon="11.9154733"><ele>201.6</ele><time>2026-04-12T11:38:19.036Z</time></trkpt><trkpt lat="44.0019783" lon="11.915595"><ele>203.2</ele><time>2026-04-12T11:38:21.036Z</time></trkpt><trkpt lat="44.0019817" lon="11.915685"><ele>204.8</ele><time>2026-04-12T11:38:23.036Z</time></trkpt><trkpt lat="44.0019017" lon="11.9157333"><ele>206.4</ele><time>2026-04-12T11:38:25.037Z</time></trkpt><trkpt lat="44.0017733" lon="11.91577"><ele>208.0</ele><time>2026-04-12T11:38:27.036Z</time></trkpt><trkpt lat="44.0017017" lon="11.9157917"><ele>207.33333333333331</ele><time>2026-04-12T11:38:28.036Z</time></trkpt><trkpt lat="44.0016" lon="11.9157983"><ele>206.66666666666666</ele><time>2026-04-12T11:38:30.036Z</time></trkpt><trkpt lat="44.00153" lon="11.915765"><ele>206.0</ele><time>2026-04-12T11:38:32.036Z</time></trkpt><trkpt lat="44.001465" lon="11.915775"><ele>205.33333333333331</ele><time>2026-04-12T11:38:35.036Z</time></trkpt><trkpt lat="44.00155" lon="11.915775"><ele>204.66666666666666</ele><time>2026-04-12T11:38:48.036Z</time></trkpt><trkpt lat="44.001575" lon="11.915865"><ele>204.0</ele><time>2026-04-12T11:38:50.036Z</time></trkpt><trkpt lat="44.0015867" lon="11.915965"><ele>205.5</ele><time>2026-04-12T11:38:52.036Z</time></trkpt><trkpt lat="44.0016133" lon="11.9160617"><ele>207.0</ele><time>2026-04-12T11:38:54.037Z</time></trkpt><trkpt lat="44.0016467" lon="11.91616"><ele>208.5</ele><time>2026-04-12T11:38:56.036Z</time></trkpt><trkpt lat="44.00169" lon="11.916275"><ele>210.0</ele><time>2026-04-12T11:38:58.036Z</time></trkpt><trkpt lat="44.00173" lon="11.9163867"><ele>211.5</ele><time>2026-04-12T11:39:00.037Z</time></trkpt><trkpt lat="44.0017783" lon="11.9164733"><ele>213.0</ele><time>2026-04-12T11:39:03.037Z</time></trkpt><trkpt lat="44.0018167" lon="11.916545"><ele>213.0</ele><time>2026-04-12T11:39:07.036Z</time></trkpt><trkpt lat="44.001765" lon="11.9164817"><ele>213.0</ele><time>2026-04-12T11:39:15.036Z</time></trkpt><trkpt lat="44.0016983" lon="11.91636"><ele>213.0</ele><time>2026-04-12T11:39:17.037Z</time></trkpt><trkpt lat="44.00165" lon="11.9162333"><ele>213.0</ele><time>2026-04-12T11:39:19.036Z</time></trkpt><trkpt lat="44.0016117" lon="11.9161067"><ele>213.0</ele><time>2026-04-12T11:39:21.036Z</time></trkpt><trkpt lat="44.0015783" lon="11.915985"><ele>212.16666666666666</ele><time>2026-04-12T11:39:23.036Z</time></trkpt><trkpt lat="44.0015733" lon="11.9158717"><ele>211.33333333333331</ele><time>2026-04-12T11:39:25.036Z</time></trkpt><trkpt lat="44.0016467" lon="11.9157933"><ele>210.5</ele><time>2026-04-12T11:39:28.036Z</time></trkpt><trkpt lat="44.0017467" lon="11.9157833"><ele>209.66666666666666</ele><time>2026-04-12T11:39:30.036Z</time></trkpt><trkpt lat="44.001835" lon="11.9157483"><ele>208.83333333333331</ele><time>2026-04-12T11:39:32.036Z</time></trkpt><trkpt lat="44.00191" lon="11.9156983"><ele>208.0</ele><time>2026-04-12T11:39:34.036Z</time></trkpt><trkpt lat="44.0019833" lon="11.9156783"><ele>207.99999999999997</ele><time>2026-04-12T11:39:36.037Z</time></trkpt><trkpt lat="44.0020517" lon="11.9157233"><ele>208.0</ele><time>2026-04-12T11:39:38.037Z</time></trkpt><trkpt lat="44.0020883" lon="11.9158017"><ele>208.0</ele><time>2026-04-12T11:39:39.036Z</time></trkpt><trkpt lat="44.0021333" lon="11.9159017"><ele>208.0</ele><time>2026-04-12T11:39:40.036Z</time></trkpt><trkpt lat="44.0021783" lon="11.9160267"><ele>207.99999999999997</ele><time>2026-04-12T11:39:41.036Z</time></trkpt><trkpt lat="44.0022267" lon="11.916165"><ele>208.0</ele><time>2026-04-12T11:39:42.036Z</time></trkpt><trkpt lat="44.002265" lon="11.916305"><ele>209.4</ele><time>2026-04-12T11:39:43.036Z</time></trkpt><trkpt lat="44.0023067" lon="11.9164433"><ele>210.8</ele><time>2026-04-12T11:39:44.036Z</time></trkpt><trkpt lat="44.0023433" lon="11.9165767"><ele>212.2</ele><time>2026-04-12T11:39:45.036Z</time></trkpt><trkpt lat="44.0023817" lon="11.9167167"><ele>213.6</ele><time>2026-04-12T11:39:46.037Z</time></trkpt><trkpt lat="44.002415" lon="11.9168517"><ele>215.0</ele><time>2026-04-12T11:39:47.028Z</time></trkpt><trkpt lat="44.0024467" lon="11.9169867"><ele>215.33333333333334</ele><time>2026-04-12T11:39:48.034Z</time></trkpt><trkpt lat="44.00248" lon="11.91712"><ele>215.66666666666669</ele><time>2026-04-12T11:39:49.029Z</time></trkpt><trkpt lat="44.00258" lon="11.9175217"><ele>216.0</ele><time>2026-04-12T11:39:52.034Z</time></trkpt><trkpt lat="44.0026367" lon="11.9178"><ele>218.0</ele><time>2026-04-12T11:39:54.036Z</time></trkpt><trkpt lat="44.0027683" lon="11.9182467"><ele>220.0</ele><time>2026-04-12T11:39:57.037Z</time></trkpt><trkpt lat="44.0028183" lon="11.9184083"><ele>224.0</ele><time>2026-04-12T11:39:58.036Z</time></trkpt><trkpt lat="44.00287" lon="11.9185583"><ele>228.0</ele><time>2026-04-12T11:39:59.036Z</time></trkpt><trkpt lat="44.00292" lon="11.9187017"><ele>232.0</ele><time>2026-04-12T11:40:00.036Z</time></trkpt><trkpt lat="44.0029717" lon="11.9188467"><ele>236.0</ele><time>2026-04-12T11:40:01.036Z</time></trkpt><trkpt lat="44.0030183" lon="11.9189933"><ele>236.0</ele><time>2026-04-12T11:40:02.036Z</time></trkpt><trkpt lat="44.003065" lon="11.9191433"><ele>236.0</ele><time>2026-04-12T11:40:03.036Z</time></trkpt><trkpt lat="44.0031167" lon="11.9192917"><ele>236.0</ele><time>2026-04-12T11:40:04.037Z</time></trkpt><trkpt lat="44.0031667" lon="11.9194417"><ele>236.0</ele><time>2026-04-12T11:40:05.037Z</time></trkpt><trkpt lat="44.0032183" lon="11.9195933"><ele>236.25</ele><time>2026-04-12T11:40:06.037Z</time></trkpt><trkpt lat="44.00327" lon="11.9197433"><ele>236.5</ele><time>2026-04-12T11:40:07.036Z</time></trkpt><trkpt lat="44.003325" lon="11.9199"><ele>236.75</ele><time>2026-04-12T11:40:08.036Z</time></trkpt><trkpt lat="44.0033767" lon="11.92006"><ele>237.0</ele><time>2026-04-12T11:40:09.036Z</time></trkpt><trkpt lat="44.00343" lon="11.9202167"><ele>237.0</ele><time>2026-04-12T11:40:10.036Z</time></trkpt><trkpt lat="44.0034883" lon="11.920375"><ele>237.0</ele><time>2026-04-12T11:40:11.036Z</time></trkpt><trkpt lat="44.003545" lon="11.920535"><ele>237.0</ele><time>2026-04-12T11:40:12.035Z</time></trkpt><trkpt lat="44.003595" lon="11.9206933"><ele>237.0</ele><time>2026-04-12T11:40:13.035Z</time></trkpt><trkpt lat="44.0036433" lon="11.9208483"><ele>241.75</ele><time>2026-04-12T11:40:14.035Z</time></trkpt><trkpt lat="44.0036967" lon="11.9210067"><ele>246.5</ele><time>2026-04-12T11:40:15.035Z</time></trkpt><trkpt lat="44.0037617" lon="11.9211533"><ele>251.25</ele><time>2026-04-12T11:40:16.035Z</time></trkpt><trkpt lat="44.0038183" lon="11.92131"><ele>256.0</ele><time>2026-04-12T11:40:17.035Z</time></trkpt><trkpt lat="44.00388" lon="11.9214583"><ele>256.0</ele><time>2026-04-12T11:40:18.035Z</time></trkpt><trkpt lat="44.0039433" lon="11.9216067"><ele>256.0</ele><time>2026-04-12T11:40:19.035Z</time></trkpt><trkpt lat="44.0040117" lon="11.92176"><ele>256.0</ele><time>2026-04-12T11:40:20.035Z</time></trkpt><trkpt lat="44.004065" lon="11.9219183"><ele>256.0</ele><time>2026-04-12T11:40:21.035Z</time></trkpt><trkpt lat="44.0041283" lon="11.9220683"><ele>251.0</ele><time>2026-04-12T11:40:22.036Z</time></trkpt><trkpt lat="44.0041883" lon="11.922225"><ele>246.0</ele><time>2026-04-12T11:40:23.035Z</time></trkpt><trkpt lat="44.0042467" lon="11.9223833"><ele>241.0</ele><time>2026-04-12T11:40:24.036Z</time></trkpt><trkpt lat="44.0043033" lon="11.922545"><ele>236.0</ele><time>2026-04-12T11:40:25.035Z</time></trkpt><trkpt lat="44.004355" lon="11.9227117"><ele>236.0</ele><time>2026-04-12T11:40:26.035Z</time></trkpt><trkpt lat="44.0044083" lon="11.9228733"><ele>236.0</ele><time>2026-04-12T11:40:27.035Z</time></trkpt><trkpt lat="44.0044533" lon="11.923045"><ele>236.0</ele><time>2026-04-12T11:40:28.035Z</time></trkpt><trkpt lat="44.0044933" lon="11.92322"><ele>236.0</ele><time>2026-04-12T11:40:29.036Z</time></trkpt><trkpt lat="44.0045367" lon="11.92339"><ele>236.5</ele><time>2026-04-12T11:40:30.035Z</time></trkpt><trkpt lat="44.0045717" lon="11.9235667"><ele>237.0</ele><time>2026-04-12T11:40:31.035Z</time></trkpt><trkpt lat="44.00461" lon="11.9237383"><ele>237.5</ele><time>2026-04-12T11:40:32.035Z</time></trkpt><trkpt lat="44.0046483" lon="11.923915"><ele>238.0</ele><time>2026-04-12T11:40:33.035Z</time></trkpt><trkpt lat="44.0046917" lon="11.9240867"><ele>238.5</ele><time>2026-04-12T11:40:34.035Z</time></trkpt><trkpt lat="44.0047317" lon="11.9242633"><ele>239.0</ele><time>2026-04-12T11:40:35.035Z</time></trkpt><trkpt lat="44.0047717" lon="11.9244383"><ele>239.5</ele><time>2026-04-12T11:40:36.035Z</time></trkpt><trkpt lat="44.0048067" lon="11.9246067"><ele>240.0</ele><time>2026-04-12T11:40:37.036Z</time></trkpt><trkpt lat="44.0048483" lon="11.9247767"><ele>240.0</ele><time>2026-04-12T11:40:38.035Z</time></trkpt><trkpt lat="44.0048833" lon="11.9249467"><ele>240.0</ele><time>2026-04-12T11:40:39.035Z</time></trkpt><trkpt lat="44.0049167" lon="11.9251133"><ele>240.0</ele><time>2026-04-12T11:40:40.035Z</time></trkpt><trkpt lat="44.004955" lon="11.9252767"><ele>240.0</ele><time>2026-04-12T11:40:41.036Z</time></trkpt><trkpt lat="44.00499" lon="11.9254317"><ele>239.6</ele><time>2026-04-12T11:40:42.035Z</time></trkpt><trkpt lat="44.00502" lon="11.9255833"><ele>239.2</ele><time>2026-04-12T11:40:43.036Z</time></trkpt><trkpt lat="44.0050517" lon="11.925735"><ele>238.8</ele><time>2026-04-12T11:40:44.035Z</time></trkpt><trkpt lat="44.00508" lon="11.9258717"><ele>238.4</ele><time>2026-04-12T11:40:45.035Z</time></trkpt><trkpt lat="44.00511" lon="11.9259933"><ele>238.0</ele><time>2026-04-12T11:40:46.035Z</time></trkpt><trkpt lat="44.0051317" lon="11.92611"><ele>237.99999999999997</ele><time>2026-04-12T11:40:47.035Z</time></trkpt><trkpt lat="44.0051517" lon="11.926215"><ele>238.0</ele><time>2026-04-12T11:40:48.035Z</time></trkpt><trkpt lat="44.0051733" lon="11.9263067"><ele>238.0</ele><time>2026-04-12T11:40:49.035Z</time></trkpt><trkpt lat="44.005195" lon="11.9263917"><ele>238.0</ele><time>2026-04-12T11:40:50.035Z</time></trkpt><trkpt lat="44.0052067" lon="11.9265417"><ele>237.99999999999997</ele><time>2026-04-12T11:40:52.035Z</time></trkpt><trkpt lat="44.0051483" lon="11.926675"><ele>238.0</ele><time>2026-04-12T11:40:54.035Z</time></trkpt><trkpt lat="44.005115" lon="11.9267533"><ele>238.16666666666666</ele><time>2026-04-12T11:40:55.035Z</time></trkpt><trkpt lat="44.0050967" lon="11.9268383"><ele>238.33333333333331</ele><time>2026-04-12T11:40:56.035Z</time></trkpt><trkpt lat="44.0051033" lon="11.9269267"><ele>238.5</ele><time>2026-04-12T11:40:57.035Z</time></trkpt><trkpt lat="44.005115" lon="11.9270567"><ele>238.66666666666669</ele><time>2026-04-12T11:40:59.035Z</time></trkpt><trkpt lat="44.0050733" lon="11.9271467"><ele>238.83333333333334</ele><time>2026-04-12T11:41:01.035Z</time></trkpt><trkpt lat="44.00498" lon="11.9272067"><ele>239.0</ele><time>2026-04-12T11:41:03.035Z</time></trkpt><trkpt lat="44.0048967" lon="11.9272533"><ele>241.6</ele><time>2026-04-12T11:41:05.035Z</time></trkpt><trkpt lat="44.00486" lon="11.9273383"><ele>244.2</ele><time>2026-04-12T11:41:11.035Z</time></trkpt><trkpt lat="44.00484" lon="11.9275217"><ele>246.79999999999998</ele><time>2026-04-12T11:41:13.035Z</time></trkpt><trkpt lat="44.00483" lon="11.9276167"><ele>249.39999999999998</ele><time>2026-04-12T11:41:14.035Z</time></trkpt><trkpt lat="44.0048167" lon="11.92771"><ele>252.0</ele><time>2026-04-12T11:41:15.035Z</time></trkpt><trkpt lat="44.0047917" lon="11.9278683"><ele>253.0</ele><time>2026-04-12T11:41:17.035Z</time></trkpt><trkpt lat="44.0047717" lon="11.9280317"><ele>254.0</ele><time>2026-04-12T11:41:19.035Z</time></trkpt><trkpt lat="44.0047417" lon="11.9282017"><ele>255.0</ele><time>2026-04-12T11:41:21.035Z</time></trkpt><trkpt lat="44.0047117" lon="11.92836"><ele>256.0</ele><time>2026-04-12T11:41:23.035Z</time></trkpt><trkpt lat="44.0046983" lon="11.9285233"><ele>257.40000000000003</ele><time>2026-04-12T11:41:25.035Z</time></trkpt><trkpt lat="44.0046883" lon="11.9287083"><ele>258.8</ele><time>2026-04-12T11:41:27.035Z</time></trkpt><trkpt lat="44.004675" lon="11.92883"><ele>260.20000000000005</ele><time>2026-04-12T11:41:28.035Z</time></trkpt><trkpt lat="44.0046467" lon="11.9289733"><ele>261.6</ele><time>2026-04-12T11:41:29.036Z</time></trkpt><trkpt lat="44.0046167" lon="11.9291217"><ele>263.0</ele><time>2026-04-12T11:41:30.035Z</time></trkpt><trkpt lat="44.0045933" lon="11.9292667"><ele>263.33333333333337</ele><time>2026-04-12T11:41:31.035Z</time></trkpt><trkpt lat="44.0045733" lon="11.9294017"><ele>263.6666666666667</ele><time>2026-04-12T11:41:32.035Z</time></trkpt><trkpt lat="44.0045533" lon="11.929535"><ele>264.0</ele><time>2026-04-12T11:41:33.036Z</time></trkpt><trkpt lat="44.0045467" lon="11.9296417"><ele>264.3333333333333</ele><time>2026-04-12T11:41:34.035Z</time></trkpt><trkpt lat="44.0045417" lon="11.9297333"><ele>264.66666666666663</ele><time>2026-04-12T11:41:35.036Z</time></trkpt><trkpt lat="44.0045517" lon="11.9298617"><ele>265.0</ele><time>2026-04-12T11:41:37.035Z</time></trkpt><trkpt lat="44.0045683" lon="11.930005"><ele>262.66666666666663</ele><time>2026-04-12T11:41:39.035Z</time></trkpt><trkpt lat="44.0045933" lon="11.9300983"><ele>260.3333333333333</ele><time>2026-04-12T11:41:40.035Z</time></trkpt><trkpt lat="44.0046283" lon="11.9302083"><ele>258.0</ele><time>2026-04-12T11:41:41.035Z</time></trkpt><trkpt lat="44.0046633" lon="11.930315"><ele>255.66666666666669</ele><time>2026-04-12T11:41:42.035Z</time></trkpt><trkpt lat="44.004695" lon="11.9304283"><ele>253.33333333333334</ele><time>2026-04-12T11:41:43.035Z</time></trkpt><trkpt lat="44.0047267" lon="11.9305383"><ele>251.0</ele><time>2026-04-12T11:41:44.035Z</time></trkpt><trkpt lat="44.0047517" lon="11.9306417"><ele>251.00000000000003</ele><time>2026-04-12T11:41:45.035Z</time></trkpt><trkpt lat="44.00478" lon="11.930745"><ele>251.0</ele><time>2026-04-12T11:41:46.035Z</time></trkpt><trkpt lat="44.004805" lon="11.9308517"><ele>251.0</ele><time>2026-04-12T11:41:47.035Z</time></trkpt><trkpt lat="44.00483" lon="11.9309417"><ele>251.0</ele><time>2026-04-12T11:41:48.035Z</time></trkpt><trkpt lat="44.0048717" lon="11.9310833"><ele>251.00000000000003</ele><time>2026-04-12T11:41:50.035Z</time></trkpt><trkpt lat="44.0048967" lon="11.9312133"><ele>251.0</ele><time>2026-04-12T11:41:52.035Z</time></trkpt><trkpt lat="44.0048767" lon="11.9313067"><ele>246.5</ele><time>2026-04-12T11:41:53.035Z</time></trkpt><trkpt lat="44.004835" lon="11.9314317"><ele>242.0</ele><time>2026-04-12T11:41:54.035Z</time></trkpt><trkpt lat="44.0047683" lon="11.9315783"><ele>237.5</ele><time>2026-04-12T11:41:55.035Z</time></trkpt><trkpt lat="44.0047" lon="11.9317567"><ele>233.0</ele><time>2026-04-12T11:41:56.035Z</time></trkpt><trkpt lat="44.0046317" lon="11.931925"><ele>229.75</ele><time>2026-04-12T11:41:57.035Z</time></trkpt><trkpt lat="44.00457" lon="11.9320817"><ele>226.5</ele><time>2026-04-12T11:41:58.035Z</time></trkpt><trkpt lat="44.0045133" lon="11.9322233"><ele>223.25</ele><time>2026-04-12T11:41:59.035Z</time></trkpt><trkpt lat="44.004455" lon="11.9323617"><ele>220.0</ele><time>2026-04-12T11:42:00.036Z</time></trkpt><trkpt lat="44.0044033" lon="11.9324917"><ele>218.2</ele><time>2026-04-12T11:42:01.036Z</time></trkpt><trkpt lat="44.00436" lon="11.93262"><ele>216.4</ele><time>2026-04-12T11:42:02.035Z</time></trkpt><trkpt lat="44.0043383" lon="11.932735"><ele>214.60000000000002</ele><time>2026-04-12T11:42:03.035Z</time></trkpt><trkpt lat="44.0043317" lon="11.9328367"><ele>212.8</ele><time>2026-04-12T11:42:04.035Z</time></trkpt><trkpt lat="44.00435" lon="11.932975"><ele>211.0</ele><time>2026-04-12T11:42:06.035Z</time></trkpt><trkpt lat="44.0044067" lon="11.9330683"><ele>210.99999999999997</ele><time>2026-04-12T11:42:08.035Z</time></trkpt><trkpt lat="44.0044733" lon="11.933145"><ele>211.0</ele><time>2026-04-12T11:42:10.035Z</time></trkpt><trkpt lat="44.0045733" lon="11.933245"><ele>211.0</ele><time>2026-04-12T11:42:12.035Z</time></trkpt><trkpt lat="44.00463" lon="11.9333"><ele>211.0</ele><time>2026-04-12T11:42:13.035Z</time></trkpt><trkpt lat="44.0046883" lon="11.9333583"><ele>210.99999999999997</ele><time>2026-04-12T11:42:14.035Z</time></trkpt><trkpt lat="44.0047417" lon="11.9334183"><ele>211.0</ele><time>2026-04-12T11:42:15.036Z</time></trkpt><trkpt lat="44.0047967" lon="11.9334733"><ele>211.0</ele><time>2026-04-12T11:42:16.035Z</time></trkpt><trkpt lat="44.0048483" lon="11.9335267"><ele>211.0</ele><time>2026-04-12T11:42:17.035Z</time></trkpt><trkpt lat="44.004935" lon="11.9336267"><ele>211.0</ele><time>2026-04-12T11:42:19.035Z</time></trkpt><trkpt lat="44.0050267" lon="11.9336833"><ele>211.0</ele><time>2026-04-12T11:42:21.035Z</time></trkpt><trkpt lat="44.0051667" lon="11.9336817"><ele>211.0</ele><time>2026-04-12T11:42:23.035Z</time></trkpt><trkpt lat="44.005255" lon="11.93366"><ele>213.0</ele><time>2026-04-12T11:42:24.036Z</time></trkpt><trkpt lat="44.00535" lon="11.9336283"><ele>215.0</ele><time>2026-04-12T11:42:25.035Z</time></trkpt><trkpt lat="44.0054533" lon="11.9335933"><ele>217.00000000000003</ele><time>2026-04-12T11:42:26.035Z</time></trkpt><trkpt lat="44.0055583" lon="11.9335433"><ele>219.0</ele><time>2026-04-12T11:42:27.035Z</time></trkpt><trkpt lat="44.0056617" lon="11.9335033"><ele>221.0</ele><time>2026-04-12T11:42:28.036Z</time></trkpt><trkpt lat="44.0057633" lon="11.93347"><ele>221.60000000000002</ele><time>2026-04-12T11:42:29.035Z</time></trkpt><trkpt lat="44.0058683" lon="11.9334517"><ele>222.20000000000002</ele><time>2026-04-12T11:42:30.036Z</time></trkpt><trkpt lat="44.0059717" lon="11.933445"><ele>222.79999999999998</ele><time>2026-04-12T11:42:31.035Z</time></trkpt><trkpt lat="44.0060733" lon="11.9334583"><ele>223.39999999999998</ele><time>2026-04-12T11:42:32.035Z</time></trkpt><trkpt lat="44.0061667" lon="11.9334767"><ele>224.0</ele><time>2026-04-12T11:42:33.035Z</time></trkpt><trkpt lat="44.00625" lon="11.9335133"><ele>224.00000000000003</ele><time>2026-04-12T11:42:34.035Z</time></trkpt><trkpt lat="44.006325" lon="11.933555"><ele>224.0</ele><time>2026-04-12T11:42:35.035Z</time></trkpt><trkpt lat="44.0063933" lon="11.9336083"><ele>224.0</ele><time>2026-04-12T11:42:36.035Z</time></trkpt><trkpt lat="44.00647" lon="11.933665"><ele>224.0</ele><time>2026-04-12T11:42:37.035Z</time></trkpt><trkpt lat="44.0065433" lon="11.9337317"><ele>224.00000000000003</ele><time>2026-04-12T11:42:38.035Z</time></trkpt><trkpt lat="44.006605" lon="11.9337933"><ele>224.0</ele><time>2026-04-12T11:42:39.035Z</time></trkpt><trkpt lat="44.006695" lon="11.9339333"><ele>222.75</ele><time>2026-04-12T11:42:41.035Z</time></trkpt><trkpt lat="44.0067467" lon="11.9340567"><ele>221.5</ele><time>2026-04-12T11:42:43.035Z</time></trkpt><trkpt lat="44.00681" lon="11.9341783"><ele>220.25</ele><time>2026-04-12T11:42:45.035Z</time></trkpt><trkpt lat="44.00687" lon="11.9343933"><ele>219.0</ele><time>2026-04-12T11:42:47.036Z</time></trkpt><trkpt lat="44.0068917" lon="11.93454"><ele>219.0</ele><time>2026-04-12T11:42:48.035Z</time></trkpt><trkpt lat="44.0069117" lon="11.9347067"><ele>219.0</ele><time>2026-04-12T11:42:49.035Z</time></trkpt><trkpt lat="44.006925" lon="11.9348683"><ele>219.0</ele><time>2026-04-12T11:42:50.035Z</time></trkpt><trkpt lat="44.00693" lon="11.93502"><ele>219.0</ele><time>2026-04-12T11:42:51.035Z</time></trkpt><trkpt lat="44.0069367" lon="11.9351733"><ele>219.0</ele><time>2026-04-12T11:42:52.035Z</time></trkpt><trkpt lat="44.00695" lon="11.9353117"><ele>218.99999999999997</ele><time>2026-04-12T11:42:53.035Z</time></trkpt><trkpt lat="44.006965" lon="11.9354383"><ele>218.99999999999997</ele><time>2026-04-12T11:42:54.029Z</time></trkpt><trkpt lat="44.0069667" lon="11.9355633"><ele>219.0</ele><time>2026-04-12T11:42:55.027Z</time></trkpt><trkpt lat="44.0069667" lon="11.9356783"><ele>219.0</ele><time>2026-04-12T11:42:56.035Z</time></trkpt><trkpt lat="44.0069883" lon="11.9360267"><ele>219.0</ele><time>2026-04-12T11:42:59.036Z</time></trkpt><trkpt lat="44.0069967" lon="11.9361633"><ele>218.99999999999997</ele><time>2026-04-12T11:43:00.035Z</time></trkpt><trkpt lat="44.0070083" lon="11.936295"><ele>218.99999999999997</ele><time>2026-04-12T11:43:01.035Z</time></trkpt><trkpt lat="44.0070167" lon="11.9364317"><ele>219.0</ele><time>2026-04-12T11:43:02.036Z</time></trkpt><trkpt lat="44.0070233" lon="11.936575"><ele>219.0</ele><time>2026-04-12T11:43:03.035Z</time></trkpt><trkpt lat="44.0070283" lon="11.936715"><ele>219.0</ele><time>2026-04-12T11:43:04.035Z</time></trkpt><trkpt lat="44.007035" lon="11.9368667"><ele>218.99999999999997</ele><time>2026-04-12T11:43:05.035Z</time></trkpt><trkpt lat="44.0070383" lon="11.9370183"><ele>218.99999999999997</ele><time>2026-04-12T11:43:06.036Z</time></trkpt><trkpt lat="44.0070483" lon="11.93717"><ele>219.0</ele><time>2026-04-12T11:43:07.035Z</time></trkpt><trkpt lat="44.0070583" lon="11.9373217"><ele>219.0</ele><time>2026-04-12T11:43:08.035Z</time></trkpt><trkpt lat="44.0070717" lon="11.9374717"><ele>218.6</ele><time>2026-04-12T11:43:09.035Z</time></trkpt><trkpt lat="44.00708" lon="11.9376217"><ele>218.2</ele><time>2026-04-12T11:43:10.035Z</time></trkpt><trkpt lat="44.0070933" lon="11.9377683"><ele>217.79999999999998</ele><time>2026-04-12T11:43:11.035Z</time></trkpt><trkpt lat="44.00711" lon="11.9379183"><ele>217.39999999999998</ele><time>2026-04-12T11:43:12.035Z</time></trkpt><trkpt lat="44.0071167" lon="11.938065"><ele>217.0</ele><time>2026-04-12T11:43:13.035Z</time></trkpt><trkpt lat="44.00713" lon="11.9382117"><ele>217.0</ele><time>2026-04-12T11:43:14.035Z</time></trkpt><trkpt lat="44.0071433" lon="11.9383567"><ele>217.0</ele><time>2026-04-12T11:43:15.035Z</time></trkpt><trkpt lat="44.0071433" lon="11.9385"><ele>217.0</ele><time>2026-04-12T11:43:16.035Z</time></trkpt><trkpt lat="44.0071517" lon="11.938645"><ele>217.0</ele><time>2026-04-12T11:43:17.036Z</time></trkpt><trkpt lat="44.0071617" lon="11.9387883"><ele>217.0</ele><time>2026-04-12T11:43:18.036Z</time></trkpt><trkpt lat="44.0071583" lon="11.938935"><ele>217.39999999999998</ele><time>2026-04-12T11:43:19.035Z</time></trkpt><trkpt lat="44.0071783" lon="11.9390783"><ele>217.79999999999998</ele><time>2026-04-12T11:43:20.036Z</time></trkpt><trkpt lat="44.0072" lon="11.9392233"><ele>218.2</ele><time>2026-04-12T11:43:21.035Z</time></trkpt><trkpt lat="44.0072067" lon="11.9393667"><ele>218.6</ele><time>2026-04-12T11:43:22.036Z</time></trkpt><trkpt lat="44.0072033" lon="11.9395167"><ele>219.0</ele><time>2026-04-12T11:43:23.035Z</time></trkpt><trkpt lat="44.0072083" lon="11.939665"><ele>219.2</ele><time>2026-04-12T11:43:24.036Z</time></trkpt><trkpt lat="44.0072167" lon="11.939805"><ele>219.39999999999998</ele><time>2026-04-12T11:43:25.036Z</time></trkpt><trkpt lat="44.0072267" lon="11.9399333"><ele>219.6</ele><time>2026-04-12T11:43:26.035Z</time></trkpt><trkpt lat="44.007245" lon="11.9400583"><ele>219.8</ele><time>2026-04-12T11:43:27.035Z</time></trkpt><trkpt lat="44.0072567" lon="11.9401867"><ele>220.0</ele><time>2026-04-12T11:43:28.035Z</time></trkpt><trkpt lat="44.0072667" lon="11.9403233"><ele>220.0</ele><time>2026-04-12T11:43:29.036Z</time></trkpt><trkpt lat="44.00727" lon="11.9404517"><ele>220.0</ele><time>2026-04-12T11:43:30.035Z</time></trkpt><trkpt lat="44.0072717" lon="11.9405833"><ele>220.0</ele><time>2026-04-12T11:43:31.035Z</time></trkpt><trkpt lat="44.00726" lon="11.9407133"><ele>220.0</ele><time>2026-04-12T11:43:32.035Z</time></trkpt><trkpt lat="44.00725" lon="11.940845"><ele>220.0</ele><time>2026-04-12T11:43:33.035Z</time></trkpt><trkpt lat="44.00722" lon="11.9409733"><ele>219.6</ele><time>2026-04-12T11:43:34.035Z</time></trkpt><trkpt lat="44.0071767" lon="11.9410983"><ele>219.2</ele><time>2026-04-12T11:43:35.035Z</time></trkpt><trkpt lat="44.0071167" lon="11.941215"><ele>218.8</ele><time>2026-04-12T11:43:36.035Z</time></trkpt><trkpt lat="44.007045" lon="11.9413233"><ele>218.4</ele><time>2026-04-12T11:43:37.035Z</time></trkpt><trkpt lat="44.0069633" lon="11.9414083"><ele>218.0</ele><time>2026-04-12T11:43:38.035Z</time></trkpt><trkpt lat="44.0068783" lon="11.9414933"><ele>218.0</ele><time>2026-04-12T11:43:39.035Z</time></trkpt><trkpt lat="44.0068067" lon="11.9415917"><ele>218.0</ele><time>2026-04-12T11:43:40.035Z</time></trkpt><trkpt lat="44.0067417" lon="11.9416983"><ele>218.0</ele><time>2026-04-12T11:43:41.035Z</time></trkpt><trkpt lat="44.0066733" lon="11.9418083"><ele>218.0</ele><time>2026-04-12T11:43:42.035Z</time></trkpt><trkpt lat="44.0066083" lon="11.94192"><ele>218.0</ele><time>2026-04-12T11:43:43.035Z</time></trkpt><trkpt lat="44.0065517" lon="11.9420417"><ele>219.0</ele><time>2026-04-12T11:43:44.035Z</time></trkpt><trkpt lat="44.0065067" lon="11.9421633"><ele>220.0</ele><time>2026-04-12T11:43:45.035Z</time></trkpt><trkpt lat="44.0064633" lon="11.942295"><ele>221.0</ele><time>2026-04-12T11:43:46.035Z</time></trkpt><trkpt lat="44.0064367" lon="11.942435"><ele>222.0</ele><time>2026-04-12T11:43:47.035Z</time></trkpt><trkpt lat="44.0064183" lon="11.94258"><ele>223.0</ele><time>2026-04-12T11:43:48.036Z</time></trkpt><trkpt lat="44.0064067" lon="11.9427283"><ele>223.0</ele><time>2026-04-12T11:43:49.035Z</time></trkpt><trkpt lat="44.0063883" lon="11.94287"><ele>223.0</ele><time>2026-04-12T11:43:50.035Z</time></trkpt><trkpt lat="44.0063733" lon="11.943005"><ele>223.0</ele><time>2026-04-12T11:43:51.035Z</time></trkpt><trkpt lat="44.0063667" lon="11.943125"><ele>223.0</ele><time>2026-04-12T11:43:52.035Z</time></trkpt><trkpt lat="44.006375" lon="11.94322"><ele>223.0</ele><time>2026-04-12T11:43:53.035Z</time></trkpt><trkpt lat="44.0063733" lon="11.9434733"><ele>223.4</ele><time>2026-04-12T11:43:55.03Z</time></trkpt><trkpt lat="44.0063933" lon="11.9436017"><ele>223.8</ele><time>2026-04-12T11:43:56.035Z</time></trkpt><trkpt lat="44.0064233" lon="11.9437333"><ele>224.2</ele><time>2026-04-12T11:43:57.028Z</time></trkpt><trkpt lat="44.0064633" lon="11.9438533"><ele>224.6</ele><time>2026-04-12T11:43:58.035Z</time></trkpt><trkpt lat="44.0065083" lon="11.9439717"><ele>225.0</ele><time>2026-04-12T11:43:59.035Z</time></trkpt><trkpt lat="44.0066167" lon="11.9441883"><ele>223.25</ele><time>2026-04-12T11:44:01.035Z</time></trkpt><trkpt lat="44.0066917" lon="11.9442867"><ele>221.5</ele><time>2026-04-12T11:44:02.035Z</time></trkpt><trkpt lat="44.00684" lon="11.9444483"><ele>219.75</ele><time>2026-04-12T11:44:04.035Z</time></trkpt><trkpt lat="44.0069133" lon="11.9445117"><ele>218.0</ele><time>2026-04-12T11:44:05.036Z</time></trkpt><trkpt lat="44.0069833" lon="11.9445583"><ele>218.0</ele><time>2026-04-12T11:44:06.036Z</time></trkpt><trkpt lat="44.0070483" lon="11.9446017"><ele>218.0</ele><time>2026-04-12T11:44:07.035Z</time></trkpt><trkpt lat="44.0071133" lon="11.9446417"><ele>218.0</ele><time>2026-04-12T11:44:08.035Z</time></trkpt><trkpt lat="44.00718" lon="11.9446867"><ele>218.0</ele><time>2026-04-12T11:44:09.035Z</time></trkpt><trkpt lat="44.0072483" lon="11.944725"><ele>218.0</ele><time>2026-04-12T11:44:10.036Z</time></trkpt><trkpt lat="44.00731" lon="11.9447683"><ele>218.0</ele><time>2026-04-12T11:44:11.035Z</time></trkpt><trkpt lat="44.0073717" lon="11.9448117"><ele>218.0</ele><time>2026-04-12T11:44:12.036Z</time></trkpt><trkpt lat="44.0074883" lon="11.9449"><ele>218.0</ele><time>2026-04-12T11:44:14.035Z</time></trkpt><trkpt lat="44.007705" lon="11.94505"><ele>218.0</ele><time>2026-04-12T11:44:17.035Z</time></trkpt><trkpt lat="44.0077833" lon="11.9451033"><ele>218.0</ele><time>2026-04-12T11:44:18.036Z</time></trkpt><trkpt lat="44.0078633" lon="11.9451583"><ele>218.0</ele><time>2026-04-12T11:44:19.036Z</time></trkpt><trkpt lat="44.0079433" lon="11.94522"><ele>218.0</ele><time>2026-04-12T11:44:20.036Z</time></trkpt><trkpt lat="44.008025" lon="11.9452767"><ele>218.0</ele><time>2026-04-12T11:44:21.035Z</time></trkpt><trkpt lat="44.00811" lon="11.94534"><ele>218.0</ele><time>2026-04-12T11:44:22.035Z</time></trkpt><trkpt lat="44.0081917" lon="11.9453967"><ele>218.0</ele><time>2026-04-12T11:44:23.035Z</time></trkpt><trkpt lat="44.0082733" lon="11.945455"><ele>218.0</ele><time>2026-04-12T11:44:24.03Z</time></trkpt><trkpt lat="44.008355" lon="11.94551"><ele>216.0</ele><time>2026-04-12T11:44:25.036Z</time></trkpt><trkpt lat="44.00843" lon="11.945575"><ele>214.0</ele><time>2026-04-12T11:44:26.035Z</time></trkpt><trkpt lat="44.0085033" lon="11.945635"><ele>212.0</ele><time>2026-04-12T11:44:27.036Z</time></trkpt><trkpt lat="44.00858" lon="11.9456967"><ele>210.0</ele><time>2026-04-12T11:44:28.035Z</time></trkpt><trkpt lat="44.008725" lon="11.9458533"><ele>208.0</ele><time>2026-04-12T11:44:30.036Z</time></trkpt><trkpt lat="44.008865" lon="11.9460533"><ele>208.0</ele><time>2026-04-12T11:44:32.034Z</time></trkpt><trkpt lat="44.00893" lon="11.9461667"><ele>208.0</ele><time>2026-04-12T11:44:33.035Z</time></trkpt><trkpt lat="44.0089933" lon="11.9462833"><ele>208.0</ele><time>2026-04-12T11:44:34.034Z</time></trkpt><trkpt lat="44.0090483" lon="11.9463933"><ele>208.0</ele><time>2026-04-12T11:44:35.035Z</time></trkpt><trkpt lat="44.0091017" lon="11.9464917"><ele>208.0</ele><time>2026-04-12T11:44:36.034Z</time></trkpt><trkpt lat="44.0091533" lon="11.9465833"><ele>206.49999999999997</ele><time>2026-04-12T11:44:37.034Z</time></trkpt><trkpt lat="44.0092" lon="11.9466833"><ele>205.0</ele><time>2026-04-12T11:44:38.035Z</time></trkpt><trkpt lat="44.0092483" lon="11.9467867"><ele>203.5</ele><time>2026-04-12T11:44:39.034Z</time></trkpt><trkpt lat="44.0092983" lon="11.94688"><ele>202.0</ele><time>2026-04-12T11:44:40.034Z</time></trkpt><trkpt lat="44.0093417" lon="11.94697"><ele>200.49999999999997</ele><time>2026-04-12T11:44:41.034Z</time></trkpt><trkpt lat="44.0093883" lon="11.947065"><ele>199.0</ele><time>2026-04-12T11:44:42.034Z</time></trkpt><trkpt lat="44.0094417" lon="11.9471833"><ele>199.0</ele><time>2026-04-12T11:44:43.034Z</time></trkpt><trkpt lat="44.0095017" lon="11.947305"><ele>199.0</ele><time>2026-04-12T11:44:44.035Z</time></trkpt><trkpt lat="44.0095617" lon="11.9474233"><ele>199.0</ele><time>2026-04-12T11:44:45.034Z</time></trkpt><trkpt lat="44.0096217" lon="11.9475317"><ele>199.0</ele><time>2026-04-12T11:44:46.034Z</time></trkpt><trkpt lat="44.0096733" lon="11.9476333"><ele>199.0</ele><time>2026-04-12T11:44:47.034Z</time></trkpt><trkpt lat="44.0097183" lon="11.9477267"><ele>199.99999999999997</ele><time>2026-04-12T11:44:48.034Z</time></trkpt><trkpt lat="44.00975" lon="11.947825"><ele>201.0</ele><time>2026-04-12T11:44:49.034Z</time></trkpt><trkpt lat="44.0097567" lon="11.9479267"><ele>202.0</ele><time>2026-04-12T11:44:50.034Z</time></trkpt><trkpt lat="44.00974" lon="11.9480333"><ele>203.0</ele><time>2026-04-12T11:44:51.034Z</time></trkpt><trkpt lat="44.009705" lon="11.9481567"><ele>203.99999999999997</ele><time>2026-04-12T11:44:52.034Z</time></trkpt><trkpt lat="44.00967" lon="11.9482867"><ele>205.0</ele><time>2026-04-12T11:44:53.034Z</time></trkpt><trkpt lat="44.0096567" lon="11.948415"><ele>205.99999999999997</ele><time>2026-04-12T11:44:54.034Z</time></trkpt><trkpt lat="44.0096683" lon="11.948535"><ele>207.0</ele><time>2026-04-12T11:44:55.034Z</time></trkpt><trkpt lat="44.0097017" lon="11.9486533"><ele>208.0</ele><time>2026-04-12T11:44:56.034Z</time></trkpt><trkpt lat="44.009735" lon="11.948775"><ele>209.0</ele><time>2026-04-12T11:44:57.034Z</time></trkpt><trkpt lat="44.0097767" lon="11.9488833"><ele>209.99999999999997</ele><time>2026-04-12T11:44:58.034Z</time></trkpt><trkpt lat="44.00981" lon="11.9489833"><ele>211.0</ele><time>2026-04-12T11:44:59.034Z</time></trkpt><trkpt lat="44.009845" lon="11.9490733"><ele>210.99999999999997</ele><time>2026-04-12T11:45:00.034Z</time></trkpt><trkpt lat="44.0098767" lon="11.9491833"><ele>211.0</ele><time>2026-04-12T11:45:01.034Z</time></trkpt><trkpt lat="44.0098967" lon="11.9492767"><ele>211.0</ele><time>2026-04-12T11:45:02.034Z</time></trkpt><trkpt lat="44.0099117" lon="11.9493667"><ele>211.0</ele><time>2026-04-12T11:45:03.034Z</time></trkpt><trkpt lat="44.009865" lon="11.9495083"><ele>210.99999999999997</ele><time>2026-04-12T11:45:05.035Z</time></trkpt><trkpt lat="44.0098017" lon="11.9495617"><ele>211.0</ele><time>2026-04-12T11:45:06.034Z</time></trkpt><trkpt lat="44.0097233" lon="11.9496"><ele>211.4</ele><time>2026-04-12T11:45:07.035Z</time></trkpt><trkpt lat="44.009635" lon="11.94965"><ele>211.8</ele><time>2026-04-12T11:45:08.034Z</time></trkpt><trkpt lat="44.0095433" lon="11.9497183"><ele>212.20000000000002</ele><time>2026-04-12T11:45:09.034Z</time></trkpt><trkpt lat="44.009455" lon="11.949785"><ele>212.60000000000002</ele><time>2026-04-12T11:45:10.034Z</time></trkpt><trkpt lat="44.0093567" lon="11.9498433"><ele>213.0</ele><time>2026-04-12T11:45:11.034Z</time></trkpt><trkpt lat="44.0092583" lon="11.9498967"><ele>213.0</ele><time>2026-04-12T11:45:12.034Z</time></trkpt><trkpt lat="44.00916" lon="11.94996"><ele>213.0</ele><time>2026-04-12T11:45:13.034Z</time></trkpt><trkpt lat="44.00907" lon="11.95003"><ele>213.0</ele><time>2026-04-12T11:45:14.034Z</time></trkpt><trkpt lat="44.0089717" lon="11.9501017"><ele>213.0</ele><time>2026-04-12T11:45:15.034Z</time></trkpt><trkpt lat="44.0088783" lon="11.9501683"><ele>213.0</ele><time>2026-04-12T11:45:16.035Z</time></trkpt><trkpt lat="44.0087783" lon="11.9502283"><ele>214.60000000000002</ele><time>2026-04-12T11:45:17.034Z</time></trkpt><trkpt lat="44.00868" lon="11.950295"><ele>216.20000000000002</ele><time>2026-04-12T11:45:18.035Z</time></trkpt><trkpt lat="44.0085917" lon="11.9503533"><ele>217.8</ele><time>2026-04-12T11:45:19.035Z</time></trkpt><trkpt lat="44.0085083" lon="11.9504083"><ele>219.4</ele><time>2026-04-12T11:45:20.034Z</time></trkpt><trkpt lat="44.00844" lon="11.9504517"><ele>221.0</ele><time>2026-04-12T11:45:21.034Z</time></trkpt><trkpt lat="44.0083667" lon="11.95049"><ele>221.83333333333334</ele><time>2026-04-12T11:45:24.034Z</time></trkpt><trkpt lat="44.0083" lon="11.950375"><ele>222.66666666666669</ele><time>2026-04-12T11:45:27.034Z</time></trkpt><trkpt lat="44.008265" lon="11.950295"><ele>223.5</ele><time>2026-04-12T11:45:28.034Z</time></trkpt><trkpt lat="44.0082233" lon="11.9502117"><ele>224.33333333333331</ele><time>2026-04-12T11:45:29.035Z</time></trkpt><trkpt lat="44.0081767" lon="11.9501483"><ele>225.16666666666666</ele><time>2026-04-12T11:45:30.034Z</time></trkpt><trkpt lat="44.00812" lon="11.9501017"><ele>226.0</ele><time>2026-04-12T11:45:31.034Z</time></trkpt><trkpt lat="44.0079967" lon="11.9501233"><ele>226.0</ele><time>2026-04-12T11:45:33.034Z</time></trkpt><trkpt lat="44.0079283" lon="11.9501783"><ele>226.00000000000003</ele><time>2026-04-12T11:45:34.034Z</time></trkpt><trkpt lat="44.0078567" lon="11.9502533"><ele>226.00000000000003</ele><time>2026-04-12T11:45:35.034Z</time></trkpt><trkpt lat="44.007775" lon="11.9503433"><ele>226.0</ele><time>2026-04-12T11:45:36.035Z</time></trkpt><trkpt lat="44.0076867" lon="11.95043"><ele>226.0</ele><time>2026-04-12T11:45:37.034Z</time></trkpt><trkpt lat="44.007605" lon="11.9505317"><ele>226.0</ele><time>2026-04-12T11:45:38.034Z</time></trkpt><trkpt lat="44.00752" lon="11.95062"><ele>226.00000000000003</ele><time>2026-04-12T11:45:39.034Z</time></trkpt><trkpt lat="44.007425" lon="11.9506983"><ele>226.00000000000003</ele><time>2026-04-12T11:45:40.034Z</time></trkpt><trkpt lat="44.007335" lon="11.95078"><ele>226.0</ele><time>2026-04-12T11:45:41.034Z</time></trkpt><trkpt lat="44.0072417" lon="11.9508617"><ele>226.0</ele><time>2026-04-12T11:45:42.034Z</time></trkpt><trkpt lat="44.0071467" lon="11.9509433"><ele>230.33333333333331</ele><time>2026-04-12T11:45:43.034Z</time></trkpt><trkpt lat="44.0070617" lon="11.9510217"><ele>234.66666666666666</ele><time>2026-04-12T11:45:44.034Z</time></trkpt><trkpt lat="44.0069833" lon="11.9511017"><ele>239.0</ele><time>2026-04-12T11:45:45.034Z</time></trkpt><trkpt lat="44.0069117" lon="11.9511817"><ele>243.33333333333331</ele><time>2026-04-12T11:45:46.034Z</time></trkpt><trkpt lat="44.0068533" lon="11.95126"><ele>247.66666666666666</ele><time>2026-04-12T11:45:47.034Z</time></trkpt><trkpt lat="44.0068" lon="11.951335"><ele>252.0</ele><time>2026-04-12T11:45:48.035Z</time></trkpt><trkpt lat="44.0067667" lon="11.9514117"><ele>252.0</ele><time>2026-04-12T11:45:49.034Z</time></trkpt><trkpt lat="44.00676" lon="11.951505"><ele>252.0</ele><time>2026-04-12T11:45:50.034Z</time></trkpt><trkpt lat="44.006785" lon="11.9516"><ele>252.0</ele><time>2026-04-12T11:45:51.034Z</time></trkpt><trkpt lat="44.006835" lon="11.9517183"><ele>252.0</ele><time>2026-04-12T11:45:52.034Z</time></trkpt><trkpt lat="44.0068967" lon="11.951865"><ele>252.0</ele><time>2026-04-12T11:45:53.034Z</time></trkpt><trkpt lat="44.0069517" lon="11.9519917"><ele>256.0</ele><time>2026-04-12T11:45:54.034Z</time></trkpt><trkpt lat="44.0069867" lon="11.952075"><ele>260.0</ele><time>2026-04-12T11:45:55.034Z</time></trkpt><trkpt lat="44.00703" lon="11.9521933"><ele>264.0</ele><time>2026-04-12T11:45:57.034Z</time></trkpt><trkpt lat="44.0070633" lon="11.9522883"><ele>268.0</ele><time>2026-04-12T11:45:58.034Z</time></trkpt><trkpt lat="44.0071183" lon="11.9524133"><ele>272.0</ele><time>2026-04-12T11:45:59.034Z</time></trkpt><trkpt lat="44.0071683" lon="11.9525567"><ele>276.75</ele><time>2026-04-12T11:46:00.035Z</time></trkpt><trkpt lat="44.0072167" lon="11.9527217"><ele>281.5</ele><time>2026-04-12T11:46:01.034Z</time></trkpt><trkpt lat="44.007265" lon="11.9528733"><ele>286.25</ele><time>2026-04-12T11:46:02.035Z</time></trkpt><trkpt lat="44.0073183" lon="11.95302"><ele>291.0</ele><time>2026-04-12T11:46:03.034Z</time></trkpt><trkpt lat="44.0073783" lon="11.9531367"><ele>291.0</ele><time>2026-04-12T11:46:04.034Z</time></trkpt><trkpt lat="44.0074117" lon="11.953245"><ele>291.0</ele><time>2026-04-12T11:46:05.035Z</time></trkpt><trkpt lat="44.0074283" lon="11.953355"><ele>291.0</ele><time>2026-04-12T11:46:06.035Z</time></trkpt><trkpt lat="44.0074083" lon="11.9534817"><ele>291.0</ele><time>2026-04-12T11:46:07.034Z</time></trkpt><trkpt lat="44.00736" lon="11.9536433"><ele>291.0</ele><time>2026-04-12T11:46:08.034Z</time></trkpt><trkpt lat="44.0073117" lon="11.9538067"><ele>290.2</ele><time>2026-04-12T11:46:09.034Z</time></trkpt><trkpt lat="44.0072483" lon="11.953945"><ele>289.40000000000003</ele><time>2026-04-12T11:46:10.035Z</time></trkpt><trkpt lat="44.0071733" lon="11.9540717"><ele>288.6</ele><time>2026-04-12T11:46:11.034Z</time></trkpt><trkpt lat="44.0070933" lon="11.9541767"><ele>287.8</ele><time>2026-04-12T11:46:12.034Z</time></trkpt><trkpt lat="44.007025" lon="11.954265"><ele>287.0</ele><time>2026-04-12T11:46:13.034Z</time></trkpt><trkpt lat="44.0069767" lon="11.954335"><ele>288.1666666666667</ele><time>2026-04-12T11:46:14.034Z</time></trkpt><trkpt lat="44.00689" lon="11.9544217"><ele>289.33333333333337</ele><time>2026-04-12T11:46:16.034Z</time></trkpt><trkpt lat="44.0068167" lon="11.9544867"><ele>290.5</ele><time>2026-04-12T11:46:18.035Z</time></trkpt><trkpt lat="44.0067567" lon="11.9545417"><ele>291.6666666666667</ele><time>2026-04-12T11:46:20.035Z</time></trkpt><trkpt lat="44.00669" lon="11.9545783"><ele>292.8333333333333</ele><time>2026-04-12T11:46:22.034Z</time></trkpt><trkpt lat="44.0066117" lon="11.9546117"><ele>294.0</ele><time>2026-04-12T11:46:24.035Z</time></trkpt><trkpt lat="44.00652" lon="11.9546683"><ele>294.0</ele><time>2026-04-12T11:46:26.034Z</time></trkpt><trkpt lat="44.00643" lon="11.9547217"><ele>294.0</ele><time>2026-04-12T11:46:28.034Z</time></trkpt><trkpt lat="44.00634" lon="11.954795"><ele>294.0</ele><time>2026-04-12T11:46:30.035Z</time></trkpt><trkpt lat="44.0062083" lon="11.9548583"><ele>294.0</ele><time>2026-04-12T11:46:32.034Z</time></trkpt><trkpt lat="44.0061317" lon="11.9548883"><ele>294.0</ele><time>2026-04-12T11:46:33.034Z</time></trkpt><trkpt lat="44.0060683" lon="11.9549167"><ele>294.0</ele><time>2026-04-12T11:46:34.034Z</time></trkpt><trkpt lat="44.0059717" lon="11.954995"><ele>294.0</ele><time>2026-04-12T11:46:36.035Z</time></trkpt><trkpt lat="44.005905" lon="11.9550917"><ele>294.0</ele><time>2026-04-12T11:46:38.034Z</time></trkpt><trkpt lat="44.0057983" lon="11.9551533"><ele>294.0</ele><time>2026-04-12T11:46:40.034Z</time></trkpt><trkpt lat="44.00573" lon="11.95516"><ele>294.0</ele><time>2026-04-12T11:46:41.035Z</time></trkpt><trkpt lat="44.005665" lon="11.9551667"><ele>297.3333333333333</ele><time>2026-04-12T11:46:42.034Z</time></trkpt><trkpt lat="44.0055767" lon="11.95519"><ele>300.6666666666667</ele><time>2026-04-12T11:46:44.035Z</time></trkpt><trkpt lat="44.0055333" lon="11.9552583"><ele>304.0</ele><time>2026-04-12T11:46:46.034Z</time></trkpt><trkpt lat="44.005535" lon="11.9553817"><ele>307.33333333333337</ele><time>2026-04-12T11:46:49.034Z</time></trkpt><trkpt lat="44.00557" lon="11.955455"><ele>310.6666666666667</ele><time>2026-04-12T11:46:51.034Z</time></trkpt><trkpt lat="44.0056183" lon="11.9555333"><ele>314.0</ele><time>2026-04-12T11:46:53.035Z</time></trkpt><trkpt lat="44.0056833" lon="11.9556433"><ele>314.0</ele><time>2026-04-12T11:46:55.034Z</time></trkpt><trkpt lat="44.005735" lon="11.9557083"><ele>314.0</ele><time>2026-04-12T11:46:56.034Z</time></trkpt><trkpt lat="44.0057917" lon="11.9557667"><ele>314.0</ele><time>2026-04-12T11:46:58.034Z</time></trkpt><trkpt lat="44.0058567" lon="11.955805"><ele>314.0</ele><time>2026-04-12T11:47:01.034Z</time></trkpt><trkpt lat="44.0059267" lon="11.955855"><ele>314.0</ele><time>2026-04-12T11:47:03.034Z</time></trkpt><trkpt lat="44.006025" lon="11.9559167"><ele>314.0</ele><time>2026-04-12T11:47:05.035Z</time></trkpt><trkpt lat="44.0061317" lon="11.9559733"><ele>316.6666666666667</ele><time>2026-04-12T11:47:07.034Z</time></trkpt><trkpt lat="44.0062317" lon="11.9560417"><ele>319.33333333333337</ele><time>2026-04-12T11:47:09.034Z</time></trkpt><trkpt lat="44.00632" lon="11.956105"><ele>322.0</ele><time>2026-04-12T11:47:11.034Z</time></trkpt><trkpt lat="44.0063767" lon="11.9561683"><ele>324.6666666666667</ele><time>2026-04-12T11:47:13.034Z</time></trkpt><trkpt lat="44.006445" lon="11.95624"><ele>327.3333333333333</ele><time>2026-04-12T11:47:15.035Z</time></trkpt><trkpt lat="44.00651" lon="11.9562817"><ele>330.0</ele><time>2026-04-12T11:47:17.035Z</time></trkpt><trkpt lat="44.006575" lon="11.9562967"><ele>330.0</ele><time>2026-04-12T11:47:19.035Z</time></trkpt><trkpt lat="44.0065883" lon="11.9563833"><ele>330.0</ele><time>2026-04-12T11:47:22.035Z</time></trkpt><trkpt lat="44.0065217" lon="11.9563867"><ele>330.0</ele><time>2026-04-12T11:47:24.034Z</time></trkpt><trkpt lat="44.0064333" lon="11.9563517"><ele>330.0</ele><time>2026-04-12T11:47:26.034Z</time></trkpt><trkpt lat="44.0063367" lon="11.9562867"><ele>330.0</ele><time>2026-04-12T11:47:28.034Z</time></trkpt><trkpt lat="44.0062567" lon="11.9562383"><ele>330.0</ele><time>2026-04-12T11:47:30.035Z</time></trkpt><trkpt lat="44.0061917" lon="11.9562317"><ele>330.0</ele><time>2026-04-12T11:55:46.033Z</time></trkpt><trkpt lat="44.0061133" lon="11.9562333"><ele>330.0</ele><time>2026-04-12T11:55:48.032Z</time></trkpt><trkpt lat="44.006" lon="11.9562467"><ele>330.0</ele><time>2026-04-12T11:55:50.032Z</time></trkpt><trkpt lat="44.005925" lon="11.9562633"><ele>330.0</ele><time>2026-04-12T11:55:51.032Z</time></trkpt><trkpt lat="44.0058517" lon="11.9562767"><ele>330.0</ele><time>2026-04-12T11:55:52.032Z</time></trkpt><trkpt lat="44.00578" lon="11.9562833"><ele>330.0</ele><time>2026-04-12T11:55:53.032Z</time></trkpt><trkpt lat="44.005665" lon="11.9562767"><ele>331.25</ele><time>2026-04-12T11:55:55.032Z</time></trkpt><trkpt lat="44.0055433" lon="11.9562883"><ele>332.5</ele><time>2026-04-12T11:55:57.033Z</time></trkpt><trkpt lat="44.0054317" lon="11.9562983"><ele>333.75</ele><time>2026-04-12T11:55:59.032Z</time></trkpt><trkpt lat="44.0053283" lon="11.9563117"><ele>335.0</ele><time>2026-04-12T11:56:01.032Z</time></trkpt><trkpt lat="44.005215" lon="11.956335"><ele>335.0</ele><time>2026-04-12T11:56:03.033Z</time></trkpt><trkpt lat="44.0050883" lon="11.9563517"><ele>335.0</ele><time>2026-04-12T11:56:05.032Z</time></trkpt><trkpt lat="44.0049717" lon="11.9563533"><ele>335.0</ele><time>2026-04-12T11:56:07.032Z</time></trkpt><trkpt lat="44.004885" lon="11.9563683"><ele>335.0</ele><time>2026-04-12T11:56:09.032Z</time></trkpt><trkpt lat="44.0048067" lon="11.95641"><ele>335.0</ele><time>2026-04-12T11:56:12.032Z</time></trkpt><trkpt lat="44.00473" lon="11.9564567"><ele>337.4285714285714</ele><time>2026-04-12T11:56:15.033Z</time></trkpt><trkpt lat="44.0046767" lon="11.956555"><ele>339.85714285714283</ele><time>2026-04-12T11:56:18.032Z</time></trkpt><trkpt lat="44.00463" lon="11.9566233"><ele>342.2857142857143</ele><time>2026-04-12T11:56:20.032Z</time></trkpt><trkpt lat="44.0045767" lon="11.95667"><ele>344.71428571428567</ele><time>2026-04-12T11:56:22.033Z</time></trkpt><trkpt lat="44.0045117" lon="11.956725"><ele>347.1428571428571</ele><time>2026-04-12T11:56:24.032Z</time></trkpt><trkpt lat="44.0044567" lon="11.9567883"><ele>349.57142857142856</ele><time>2026-04-12T11:56:26.032Z</time></trkpt><trkpt lat="44.0043967" lon="11.9568583"><ele>352.0</ele><time>2026-04-12T11:56:28.033Z</time></trkpt><trkpt lat="44.0043317" lon="11.9569117"><ele>355.3333333333333</ele><time>2026-04-12T11:56:30.033Z</time></trkpt><trkpt lat="44.0042533" lon="11.95695"><ele>358.66666666666663</ele><time>2026-04-12T11:56:32.032Z</time></trkpt><trkpt lat="44.004255" lon="11.957055"><ele>362.0</ele><time>2026-04-12T11:56:36.032Z</time></trkpt><trkpt lat="44.0043167" lon="11.9571317"><ele>365.3333333333333</ele><time>2026-04-12T11:56:38.032Z</time></trkpt><trkpt lat="44.0043717" lon="11.9572167"><ele>368.6666666666667</ele><time>2026-04-12T11:56:40.032Z</time></trkpt><trkpt lat="44.0044283" lon="11.9572867"><ele>372.0</ele><time>2026-04-12T11:56:42.032Z</time></trkpt><trkpt lat="44.0044767" lon="11.957355"><ele>372.0</ele><time>2026-04-12T11:56:44.032Z</time></trkpt><trkpt lat="44.0044867" lon="11.9574567"><ele>372.0</ele><time>2026-04-12T11:56:47.032Z</time></trkpt><trkpt lat="44.0043967" lon="11.957465"><ele>372.0</ele><time>2026-04-12T11:56:50.032Z</time></trkpt><trkpt lat="44.0043333" lon="11.9574683"><ele>372.0</ele><time>2026-04-12T11:56:52.032Z</time></trkpt><trkpt lat="44.0042433" lon="11.9574767"><ele>372.0</ele><time>2026-04-12T11:56:55.032Z</time></trkpt><trkpt lat="44.0041517" lon="11.95749"><ele>372.0</ele><time>2026-04-12T11:56:58.032Z</time></trkpt><trkpt lat="44.00406" lon="11.9575317"><ele>378.8333333333333</ele><time>2026-04-12T11:57:01.032Z</time></trkpt><trkpt lat="44.00397" lon="11.95758"><ele>385.66666666666663</ele><time>2026-04-12T11:57:04.032Z</time></trkpt><trkpt lat="44.0039067" lon="11.9576183"><ele>392.5</ele><time>2026-04-12T11:57:06.033Z</time></trkpt><trkpt lat="44.003835" lon="11.9576483"><ele>399.3333333333333</ele><time>2026-04-12T11:57:08.032Z</time></trkpt><trkpt lat="44.0037583" lon="11.9576767"><ele>406.16666666666663</ele><time>2026-04-12T11:57:10.032Z</time></trkpt><trkpt lat="44.003695" lon="11.9577017"><ele>413.0</ele><time>2026-04-12T11:57:12.031Z</time></trkpt><trkpt lat="44.003645" lon="11.9577733"><ele>412.99999999999994</ele><time>2026-04-12T11:57:14.031Z</time></trkpt><trkpt lat="44.00364" lon="11.9578783"><ele>413.0</ele><time>2026-04-12T11:57:16.032Z</time></trkpt><trkpt lat="44.0036717" lon="11.9579683"><ele>413.0</ele><time>2026-04-12T11:57:18.032Z</time></trkpt><trkpt lat="44.0037083" lon="11.9580683"><ele>413.0</ele><time>2026-04-12T11:57:20.031Z</time></trkpt><trkpt lat="44.0037417" lon="11.9581833"><ele>412.99999999999994</ele><time>2026-04-12T11:57:22.031Z</time></trkpt><trkpt lat="44.0037833" lon="11.9582717"><ele>413.0</ele><time>2026-04-12T11:57:24.031Z</time></trkpt><trkpt lat="44.0038183" lon="11.9583667"><ele>416.7142857142857</ele><time>2026-04-12T11:57:26.031Z</time></trkpt><trkpt lat="44.0038567" lon="11.9584533"><ele>420.42857142857144</ele><time>2026-04-12T11:57:28.031Z</time></trkpt><trkpt lat="44.0038867" lon="11.9585417"><ele>424.1428571428571</ele><time>2026-04-12T11:57:30.031Z</time></trkpt><trkpt lat="44.0038983" lon="11.95864"><ele>427.8571428571429</ele><time>2026-04-12T11:57:32.031Z</time></trkpt><trkpt lat="44.003885" lon="11.9587317"><ele>431.57142857142856</ele><time>2026-04-12T11:57:34.032Z</time></trkpt><trkpt lat="44.0038533" lon="11.958825"><ele>435.2857142857143</ele><time>2026-04-12T11:57:36.031Z</time></trkpt><trkpt lat="44.0038117" lon="11.9589183"><ele>439.0</ele><time>2026-04-12T11:57:38.031Z</time></trkpt><trkpt lat="44.0037933" lon="11.9590183"><ele>439.00000000000006</ele><time>2026-04-12T11:57:40.031Z</time></trkpt><trkpt lat="44.0038117" lon="11.9591167"><ele>439.0</ele><time>2026-04-12T11:57:42.031Z</time></trkpt><trkpt lat="44.0038417" lon="11.959215"><ele>439.0</ele><time>2026-04-12T11:57:44.031Z</time></trkpt><trkpt lat="44.0038683" lon="11.959325"><ele>439.0</ele><time>2026-04-12T11:57:47.031Z</time></trkpt><trkpt lat="44.00384" lon="11.959425"><ele>439.00000000000006</ele><time>2026-04-12T11:57:49.032Z</time></trkpt><trkpt lat="44.0038433" lon="11.959525"><ele>439.0</ele><time>2026-04-12T11:58:05.031Z</time></trkpt><trkpt lat="44.003835" lon="11.95966"><ele>439.6666666666667</ele><time>2026-04-12T11:58:07.032Z</time></trkpt><trkpt lat="44.0038567" lon="11.9597717"><ele>440.33333333333337</ele><time>2026-04-12T11:58:09.031Z</time></trkpt><trkpt lat="44.0039083" lon="11.9598367"><ele>441.0</ele><time>2026-04-12T11:58:11.031Z</time></trkpt><trkpt lat="44.0039917" lon="11.9598283"><ele>441.66666666666663</ele><time>2026-04-12T11:58:13.032Z</time></trkpt><trkpt lat="44.004075" lon="11.9598233"><ele>442.3333333333333</ele><time>2026-04-12T11:58:15.031Z</time></trkpt><trkpt lat="44.00415" lon="11.9598533"><ele>443.0</ele><time>2026-04-12T11:58:17.031Z</time></trkpt><trkpt lat="44.0041667" lon="11.9599383"><ele>446.59999999999997</ele><time>2026-04-12T11:58:19.031Z</time></trkpt><trkpt lat="44.0041383" lon="11.9600433"><ele>450.19999999999993</ele><time>2026-04-12T11:58:21.031Z</time></trkpt><trkpt lat="44.0041117" lon="11.960155"><ele>453.8</ele><time>2026-04-12T11:58:23.031Z</time></trkpt><trkpt lat="44.0040717" lon="11.9602833"><ele>457.4</ele><time>2026-04-12T11:58:25.031Z</time></trkpt><trkpt lat="44.004025" lon="11.9604217"><ele>461.0</ele><time>2026-04-12T11:58:27.032Z</time></trkpt><trkpt lat="44.0039783" lon="11.9605217"><ele>460.99999999999994</ele><time>2026-04-12T11:58:29.031Z</time></trkpt><trkpt lat="44.00392" lon="11.960585"><ele>461.0</ele><time>2026-04-12T11:58:31.031Z</time></trkpt><trkpt lat="44.0038367" lon="11.9606333"><ele>461.0</ele><time>2026-04-12T11:58:33.031Z</time></trkpt><trkpt lat="44.0037533" lon="11.960685"><ele>461.0</ele><time>2026-04-12T11:58:35.031Z</time></trkpt><trkpt lat="44.0036633" lon="11.96075"><ele>460.99999999999994</ele><time>2026-04-12T11:58:37.031Z</time></trkpt><trkpt lat="44.003585" lon="11.9608"><ele>461.0</ele><time>2026-04-12T11:58:39.032Z</time></trkpt><trkpt lat="44.0035233" lon="11.9608533"><ele>459.16666666666663</ele><time>2026-04-12T11:58:41.031Z</time></trkpt><trkpt lat="44.003505" lon="11.9609433"><ele>457.3333333333333</ele><time>2026-04-12T11:59:34.031Z</time></trkpt><trkpt lat="44.0035917" lon="11.9609917"><ele>455.5</ele><time>2026-04-12T11:59:36.031Z</time></trkpt><trkpt lat="44.0036683" lon="11.9610533"><ele>453.66666666666663</ele><time>2026-04-12T11:59:38.031Z</time></trkpt><trkpt lat="44.0037283" lon="11.9611783"><ele>451.8333333333333</ele><time>2026-04-12T11:59:40.031Z</time></trkpt><trkpt lat="44.0037917" lon="11.9612633"><ele>450.0</ele><time>2026-04-12T11:59:42.031Z</time></trkpt><trkpt lat="44.0038817" lon="11.9613417"><ele>450.0</ele><time>2026-04-12T11:59:44.031Z</time></trkpt><trkpt lat="44.0039867" lon="11.9613967"><ele>450.0</ele><time>2026-04-12T11:59:46.031Z</time></trkpt><trkpt lat="44.0040933" lon="11.9614233"><ele>450.0</ele><time>2026-04-12T11:59:48.032Z</time></trkpt><trkpt lat="44.0041933" lon="11.96145"><ele>450.0</ele><time>2026-04-12T11:59:50.031Z</time></trkpt><trkpt lat="44.0042817" lon="11.9614433"><ele>450.0</ele><time>2026-04-12T11:59:52.031Z</time></trkpt><trkpt lat="44.004365" lon="11.9614183"><ele>454.1666666666667</ele><time>2026-04-12T11:59:54.031Z</time></trkpt><trkpt lat="44.0044367" lon="11.9614"><ele>458.33333333333337</ele><time>2026-04-12T12:01:28.03Z</time></trkpt><trkpt lat="44.0045667" lon="11.9613433"><ele>462.5</ele><time>2026-04-12T12:01:30.03Z</time></trkpt><trkpt lat="44.00464" lon="11.9613117"><ele>466.6666666666667</ele><time>2026-04-12T12:01:31.03Z</time></trkpt><trkpt lat="44.0047133" lon="11.9612867"><ele>470.83333333333337</ele><time>2026-04-12T12:01:32.031Z</time></trkpt><trkpt lat="44.00479" lon="11.9612667"><ele>475.0</ele><time>2026-04-12T12:01:33.03Z</time></trkpt><trkpt lat="44.00486" lon="11.9612733"><ele>475.0</ele><time>2026-04-12T12:01:34.031Z</time></trkpt><trkpt lat="44.004925" lon="11.961275"><ele>475.00000000000006</ele><time>2026-04-12T12:01:35.03Z</time></trkpt><trkpt lat="44.0049883" lon="11.9612833"><ele>475.0</ele><time>2026-04-12T12:01:36.03Z</time></trkpt><trkpt lat="44.00505" lon="11.96131"><ele>475.0</ele><time>2026-04-12T12:01:37.03Z</time></trkpt><trkpt lat="44.0051117" lon="11.9613467"><ele>475.00000000000006</ele><time>2026-04-12T12:01:38.03Z</time></trkpt><trkpt lat="44.0051767" lon="11.96138"><ele>475.0</ele><time>2026-04-12T12:01:39.03Z</time></trkpt><trkpt lat="44.0052367" lon="11.96141"><ele>475.0</ele><time>2026-04-12T12:01:40.03Z</time></trkpt><trkpt lat="44.0053117" lon="11.9615167"><ele>476.6</ele><time>2026-04-12T12:01:42.03Z</time></trkpt><trkpt lat="44.0053567" lon="11.96164"><ele>478.2</ele><time>2026-04-12T12:01:44.03Z</time></trkpt><trkpt lat="44.0054283" lon="11.96175"><ele>479.79999999999995</ele><time>2026-04-12T12:01:46.03Z</time></trkpt><trkpt lat="44.0054933" lon="11.9618533"><ele>481.4</ele><time>2026-04-12T12:01:48.03Z</time></trkpt><trkpt lat="44.0055667" lon="11.9619667"><ele>483.0</ele><time>2026-04-12T12:01:50.03Z</time></trkpt><trkpt lat="44.0056117" lon="11.9620367"><ele>482.6666666666667</ele><time>2026-04-12T12:01:51.03Z</time></trkpt><trkpt lat="44.005665" lon="11.96211"><ele>482.33333333333337</ele><time>2026-04-12T12:01:52.03Z</time></trkpt><trkpt lat="44.0057217" lon="11.96218"><ele>482.0</ele><time>2026-04-12T12:01:53.03Z</time></trkpt><trkpt lat="44.00578" lon="11.9622517"><ele>481.6666666666667</ele><time>2026-04-12T12:01:54.03Z</time></trkpt><trkpt lat="44.005825" lon="11.9623167"><ele>481.33333333333337</ele><time>2026-04-12T12:01:55.03Z</time></trkpt><trkpt lat="44.0059267" lon="11.96239"><ele>481.0</ele><time>2026-04-12T12:01:57.03Z</time></trkpt><trkpt lat="44.0060083" lon="11.962485"><ele>478.6</ele><time>2026-04-12T12:01:59.03Z</time></trkpt><trkpt lat="44.006065" lon="11.962605"><ele>476.20000000000005</ele><time>2026-04-12T12:02:01.03Z</time></trkpt><trkpt lat="44.0061" lon="11.96275"><ele>473.79999999999995</ele><time>2026-04-12T12:02:03.03Z</time></trkpt><trkpt lat="44.0061383" lon="11.9628933"><ele>471.4</ele><time>2026-04-12T12:02:05.03Z</time></trkpt><trkpt lat="44.0061633" lon="11.9630333"><ele>469.0</ele><time>2026-04-12T12:02:07.03Z</time></trkpt><trkpt lat="44.0061817" lon="11.9632083"><ele>469.00000000000006</ele><time>2026-04-12T12:02:09.03Z</time></trkpt><trkpt lat="44.00619" lon="11.9633067"><ele>469.0</ele><time>2026-04-12T12:02:10.031Z</time></trkpt><trkpt lat="44.0061983" lon="11.9634017"><ele>469.0</ele><time>2026-04-12T12:02:11.03Z</time></trkpt><trkpt lat="44.0062117" lon="11.963495"><ele>469.0</ele><time>2026-04-12T12:02:12.03Z</time></trkpt><trkpt lat="44.0062283" lon="11.9636617"><ele>469.00000000000006</ele><time>2026-04-12T12:02:14.03Z</time></trkpt><trkpt lat="44.0062333" lon="11.9638067"><ele>469.0</ele><time>2026-04-12T12:02:16.03Z</time></trkpt><trkpt lat="44.006205" lon="11.9639483"><ele>468.79999999999995</ele><time>2026-04-12T12:02:18.03Z</time></trkpt><trkpt lat="44.00616" lon="11.9641033"><ele>468.59999999999997</ele><time>2026-04-12T12:02:20.03Z</time></trkpt><trkpt lat="44.006105" lon="11.9642267"><ele>468.4</ele><time>2026-04-12T12:02:22.03Z</time></trkpt><trkpt lat="44.00607" lon="11.9643417"><ele>468.2</ele><time>2026-04-12T12:02:24.03Z</time></trkpt><trkpt lat="44.0060583" lon="11.9644817"><ele>468.0</ele><time>2026-04-12T12:02:26.03Z</time></trkpt><trkpt lat="44.0060917" lon="11.96464"><ele>468.0</ele><time>2026-04-12T12:02:28.031Z</time></trkpt><trkpt lat="44.00611" lon="11.9647967"><ele>467.99999999999994</ele><time>2026-04-12T12:02:30.03Z</time></trkpt><trkpt lat="44.0060783" lon="11.964965"><ele>467.99999999999994</ele><time>2026-04-12T12:02:32.031Z</time></trkpt><trkpt lat="44.0060517" lon="11.9650517"><ele>468.0</ele><time>2026-04-12T12:02:33.03Z</time></trkpt><trkpt lat="44.006025" lon="11.965135"><ele>468.0</ele><time>2026-04-12T12:02:34.03Z</time></trkpt><trkpt lat="44.005995" lon="11.9652683"><ele>466.8571428571429</ele><time>2026-04-12T12:02:36.03Z</time></trkpt><trkpt lat="44.00599" lon="11.96537"><ele>465.7142857142858</ele><time>2026-04-12T12:02:40.03Z</time></trkpt><trkpt lat="44.0060333" lon="11.9654617"><ele>464.57142857142856</ele><time>2026-04-12T12:04:05.03Z</time></trkpt><trkpt lat="44.006105" lon="11.9654717"><ele>463.42857142857144</ele><time>2026-04-12T12:04:08.03Z</time></trkpt><trkpt lat="44.00617" lon="11.9654617"><ele>462.2857142857143</ele><time>2026-04-12T12:04:11.03Z</time></trkpt><trkpt lat="44.0062467" lon="11.9654583"><ele>461.1428571428571</ele><time>2026-04-12T12:04:15.03Z</time></trkpt><trkpt lat="44.00632" lon="11.9654533"><ele>459.99999999999994</ele><time>2026-04-12T12:04:18.031Z</time></trkpt><trkpt lat="44.0064317" lon="11.9654433"><ele>460.00000000000006</ele><time>2026-04-12T12:11:33.028Z</time></trkpt><trkpt lat="44.0063633" lon="11.9654717"><ele>460.0</ele><time>2026-04-12T12:11:36.028Z</time></trkpt><trkpt lat="44.0062917" lon="11.965475"><ele>460.0</ele><time>2026-04-12T12:11:39.028Z</time></trkpt><trkpt lat="44.006205" lon="11.96547"><ele>460.0</ele><time>2026-04-12T12:11:43.028Z</time></trkpt><trkpt lat="44.0061033" lon="11.96549"><ele>460.00000000000006</ele><time>2026-04-12T12:11:45.029Z</time></trkpt><trkpt lat="44.0060267" lon="11.96549"><ele>460.0</ele><time>2026-04-12T12:11:47.027Z</time></trkpt><trkpt lat="44.0060083" lon="11.9653967"><ele>460.0</ele><time>2026-04-12T12:11:49.027Z</time></trkpt><trkpt lat="44.0060233" lon="11.9652967"><ele>460.0</ele><time>2026-04-12T12:12:31.027Z</time></trkpt><trkpt lat="44.0060383" lon="11.9651533"><ele>460.0</ele><time>2026-04-12T12:12:33.027Z</time></trkpt><trkpt lat="44.0060783" lon="11.9649983"><ele>460.0</ele><time>2026-04-12T12:12:35.027Z</time></trkpt><trkpt lat="44.0061033" lon="11.9649167"><ele>460.0</ele><time>2026-04-12T12:12:36.028Z</time></trkpt><trkpt lat="44.0061283" lon="11.9647717"><ele>461.00000000000006</ele><time>2026-04-12T12:12:38.028Z</time></trkpt><trkpt lat="44.0061217" lon="11.96464"><ele>462.0</ele><time>2026-04-12T12:12:40.027Z</time></trkpt><trkpt lat="44.00609" lon="11.9645433"><ele>463.0</ele><time>2026-04-12T12:12:42.027Z</time></trkpt><trkpt lat="44.006085" lon="11.9644483"><ele>464.0</ele><time>2026-04-12T12:12:47.028Z</time></trkpt><trkpt lat="44.0061117" lon="11.96435"><ele>465.00000000000006</ele><time>2026-04-12T12:12:51.027Z</time></trkpt><trkpt lat="44.006145" lon="11.9642517"><ele>466.0</ele><time>2026-04-12T12:12:53.027Z</time></trkpt><trkpt lat="44.0061917" lon="11.96416"><ele>466.0</ele><time>2026-04-12T12:12:55.027Z</time></trkpt><trkpt lat="44.0062217" lon="11.96405"><ele>466.0</ele><time>2026-04-12T12:12:57.027Z</time></trkpt><trkpt lat="44.0062383" lon="11.96394"><ele>466.0</ele><time>2026-04-12T12:12:59.027Z</time></trkpt><trkpt lat="44.0062517" lon="11.9638217"><ele>466.0</ele><time>2026-04-12T12:13:01.028Z</time></trkpt><trkpt lat="44.006255" lon="11.9636933"><ele>466.0</ele><time>2026-04-12T12:13:03.027Z</time></trkpt><trkpt lat="44.0062467" lon="11.9635267"><ele>466.0</ele><time>2026-04-12T12:13:05.028Z</time></trkpt><trkpt lat="44.0062217" lon="11.9633683"><ele>466.0</ele><time>2026-04-12T12:13:07.027Z</time></trkpt><trkpt lat="44.0061983" lon="11.9632283"><ele>466.0</ele><time>2026-04-12T12:13:09.027Z</time></trkpt><trkpt lat="44.0061633" lon="11.9630717"><ele>466.0</ele><time>2026-04-12T12:13:11.028Z</time></trkpt><trkpt lat="44.0061283" lon="11.9629433"><ele>466.0</ele><time>2026-04-12T12:13:13.027Z</time></trkpt><trkpt lat="44.00609" lon="11.9628083"><ele>466.6</ele><time>2026-04-12T12:13:15.027Z</time></trkpt><trkpt lat="44.0060517" lon="11.9626383"><ele>467.20000000000005</ele><time>2026-04-12T12:13:17.027Z</time></trkpt><trkpt lat="44.0060033" lon="11.9625033"><ele>467.79999999999995</ele><time>2026-04-12T12:13:19.028Z</time></trkpt><trkpt lat="44.0059233" lon="11.962405"><ele>468.4</ele><time>2026-04-12T12:13:21.027Z</time></trkpt><trkpt lat="44.0058583" lon="11.9623483"><ele>469.0</ele><time>2026-04-12T12:13:23.027Z</time></trkpt><trkpt lat="44.0057983" lon="11.9622833"><ele>466.79999999999995</ele><time>2026-04-12T12:13:25.027Z</time></trkpt><trkpt lat="44.0056983" lon="11.9621483"><ele>464.59999999999997</ele><time>2026-04-12T12:13:27.027Z</time></trkpt><trkpt lat="44.00563" lon="11.9620583"><ele>462.4</ele><time>2026-04-12T12:13:28.027Z</time></trkpt><trkpt lat="44.005565" lon="11.9619733"><ele>460.2</ele><time>2026-04-12T12:13:29.027Z</time></trkpt><trkpt lat="44.005515" lon="11.96189"><ele>458.0</ele><time>2026-04-12T12:13:30.027Z</time></trkpt><trkpt lat="44.0054767" lon="11.9618083"><ele>457.99999999999994</ele><time>2026-04-12T12:13:31.027Z</time></trkpt><trkpt lat="44.0054233" lon="11.9617317"><ele>458.0</ele><time>2026-04-12T12:13:33.027Z</time></trkpt><trkpt lat="44.0053667" lon="11.961655"><ele>458.0</ele><time>2026-04-12T12:13:35.027Z</time></trkpt><trkpt lat="44.0053233" lon="11.9615617"><ele>458.0</ele><time>2026-04-12T12:13:37.027Z</time></trkpt><trkpt lat="44.0052917" lon="11.9614817"><ele>457.99999999999994</ele><time>2026-04-12T12:13:39.027Z</time></trkpt><trkpt lat="44.00524" lon="11.9614283"><ele>458.0</ele><time>2026-04-12T12:13:41.027Z</time></trkpt><trkpt lat="44.0051417" lon="11.9613817"><ele>460.8333333333333</ele><time>2026-04-12T12:13:43.027Z</time></trkpt><trkpt lat="44.0050433" lon="11.9613283"><ele>463.66666666666663</ele><time>2026-04-12T12:13:45.027Z</time></trkpt><trkpt lat="44.00494" lon="11.9612917"><ele>466.5</ele><time>2026-04-12T12:13:47.027Z</time></trkpt><trkpt lat="44.004875" lon="11.9612817"><ele>469.33333333333337</ele><time>2026-04-12T12:13:48.027Z</time></trkpt><trkpt lat="44.00481" lon="11.9612767"><ele>472.1666666666667</ele><time>2026-04-12T12:13:49.027Z</time></trkpt><trkpt lat="44.00474" lon="11.96129"><ele>475.0</ele><time>2026-04-12T12:13:50.027Z</time></trkpt><trkpt lat="44.0046733" lon="11.9613083"><ele>475.00000000000006</ele><time>2026-04-12T12:13:51.027Z</time></trkpt><trkpt lat="44.0046117" lon="11.961335"><ele>475.0</ele><time>2026-04-12T12:13:52.027Z</time></trkpt><trkpt lat="44.0045483" lon="11.9613667"><ele>475.0</ele><time>2026-04-12T12:13:53.027Z</time></trkpt><trkpt lat="44.00448" lon="11.961385"><ele>475.0</ele><time>2026-04-12T12:13:54.027Z</time></trkpt><trkpt lat="44.0044133" lon="11.9614117"><ele>475.00000000000006</ele><time>2026-04-12T12:13:55.027Z</time></trkpt><trkpt lat="44.0042917" lon="11.9614567"><ele>475.0</ele><time>2026-04-12T12:13:57.027Z</time></trkpt><trkpt lat="44.0041733" lon="11.96148"><ele>470.83333333333337</ele><time>2026-04-12T12:13:59.027Z</time></trkpt><trkpt lat="44.0040933" lon="11.9614583"><ele>466.6666666666667</ele><time>2026-04-12T12:14:01.027Z</time></trkpt><trkpt lat="44.0040033" lon="11.96141"><ele>462.5</ele><time>2026-04-12T12:17:29.026Z</time></trkpt><trkpt lat="44.003925" lon="11.9613567"><ele>458.33333333333337</ele><time>2026-04-12T12:17:31.027Z</time></trkpt><trkpt lat="44.00387" lon="11.9613117"><ele>454.1666666666667</ele><time>2026-04-12T12:17:33.026Z</time></trkpt><trkpt lat="44.0037983" lon="11.961275"><ele>450.0</ele><time>2026-04-12T12:17:36.026Z</time></trkpt><trkpt lat="44.0037417" lon="11.9611667"><ele>450.0</ele><time>2026-04-12T12:17:39.026Z</time></trkpt><trkpt lat="44.0036917" lon="11.9610633"><ele>450.0</ele><time>2026-04-12T12:17:42.026Z</time></trkpt><trkpt lat="44.0036467" lon="11.9610017"><ele>450.0</ele><time>2026-04-12T12:17:45.026Z</time></trkpt><trkpt lat="44.00357" lon="11.9609833"><ele>450.0</ele><time>2026-04-12T12:17:49.026Z</time></trkpt><trkpt lat="44.0035067" lon="11.9609783"><ele>450.0</ele><time>2026-04-12T12:18:28.026Z</time></trkpt><trkpt lat="44.0034783" lon="11.960875"><ele>450.0</ele><time>2026-04-12T12:18:31.026Z</time></trkpt><trkpt lat="44.00341" lon="11.9607983"><ele>451.0</ele><time>2026-04-12T12:18:34.026Z</time></trkpt><trkpt lat="44.0033433" lon="11.9607417"><ele>452.0</ele><time>2026-04-12T12:18:37.027Z</time></trkpt><trkpt lat="44.00329" lon="11.9606817"><ele>453.0</ele><time>2026-04-12T12:18:39.026Z</time></trkpt><trkpt lat="44.003235" lon="11.9606367"><ele>454.0</ele><time>2026-04-12T12:18:41.026Z</time></trkpt><trkpt lat="44.0031583" lon="11.9606083"><ele>455.0</ele><time>2026-04-12T12:18:44.027Z</time></trkpt><trkpt lat="44.0030633" lon="11.9605883"><ele>456.0</ele><time>2026-04-12T12:18:47.026Z</time></trkpt><trkpt lat="44.0029933" lon="11.960575"><ele>456.0</ele><time>2026-04-12T12:18:49.026Z</time></trkpt><trkpt lat="44.002905" lon="11.96055"><ele>456.0</ele><time>2026-04-12T12:18:51.026Z</time></trkpt><trkpt lat="44.0028183" lon="11.96052"><ele>456.0</ele><time>2026-04-12T12:18:53.026Z</time></trkpt><trkpt lat="44.0027417" lon="11.9605183"><ele>456.0</ele><time>2026-04-12T12:18:56.022Z</time></trkpt><trkpt lat="44.00268" lon="11.9604983"><ele>456.0</ele><time>2026-04-12T12:18:59.025Z</time></trkpt><trkpt lat="44.00261" lon="11.960475"><ele>456.0</ele><time>2026-04-12T12:19:04.025Z</time></trkpt><trkpt lat="44.0025117" lon="11.96038"><ele>454.8</ele><time>2026-04-12T12:20:20.025Z</time></trkpt><trkpt lat="44.0024483" lon="11.9603"><ele>453.6</ele><time>2026-04-12T12:20:21.025Z</time></trkpt><trkpt lat="44.002385" lon="11.960205"><ele>452.4</ele><time>2026-04-12T12:20:22.025Z</time></trkpt><trkpt lat="44.002325" lon="11.9600917"><ele>451.2</ele><time>2026-04-12T12:20:23.025Z</time></trkpt><trkpt lat="44.002265" lon="11.9599567"><ele>450.0</ele><time>2026-04-12T12:20:24.025Z</time></trkpt><trkpt lat="44.0022033" lon="11.9598183"><ele>450.0</ele><time>2026-04-12T12:20:25.025Z</time></trkpt><trkpt lat="44.0021467" lon="11.9596883"><ele>450.0</ele><time>2026-04-12T12:20:26.026Z</time></trkpt><trkpt lat="44.00209" lon="11.9595733"><ele>450.0</ele><time>2026-04-12T12:20:27.025Z</time></trkpt><trkpt lat="44.0020433" lon="11.959475"><ele>450.0</ele><time>2026-04-12T12:20:28.025Z</time></trkpt><trkpt lat="44.0019933" lon="11.9593817"><ele>450.0</ele><time>2026-04-12T12:20:29.026Z</time></trkpt><trkpt lat="44.001935" lon="11.959305"><ele>450.0</ele><time>2026-04-12T12:20:30.025Z</time></trkpt><trkpt lat="44.00187" lon="11.95924"><ele>450.0</ele><time>2026-04-12T12:20:31.025Z</time></trkpt><trkpt lat="44.0017917" lon="11.9592"><ele>450.0</ele><time>2026-04-12T12:20:32.025Z</time></trkpt><trkpt lat="44.0017" lon="11.9591617"><ele>450.0</ele><time>2026-04-12T12:20:33.025Z</time></trkpt><trkpt lat="44.0016133" lon="11.95911"><ele>450.0</ele><time>2026-04-12T12:20:34.026Z</time></trkpt><trkpt lat="44.0015283" lon="11.9590517"><ele>450.0</ele><time>2026-04-12T12:20:35.025Z</time></trkpt><trkpt lat="44.001445" lon="11.9589867"><ele>449.6666666666667</ele><time>2026-04-12T12:20:36.025Z</time></trkpt><trkpt lat="44.00136" lon="11.9589283"><ele>449.33333333333337</ele><time>2026-04-12T12:20:37.025Z</time></trkpt><trkpt lat="44.001285" lon="11.9588683"><ele>449.0</ele><time>2026-04-12T12:20:38.025Z</time></trkpt><trkpt lat="44.0012167" lon="11.9588083"><ele>448.6666666666667</ele><time>2026-04-12T12:20:39.025Z</time></trkpt><trkpt lat="44.00116" lon="11.9587617"><ele>448.33333333333337</ele><time>2026-04-12T12:20:40.026Z</time></trkpt><trkpt lat="44.0010533" lon="11.9586967"><ele>448.0</ele><time>2026-04-12T12:20:42.025Z</time></trkpt><trkpt lat="44.0009733" lon="11.9585783"><ele>448.0</ele><time>2026-04-12T12:20:44.025Z</time></trkpt><trkpt lat="44.000945" lon="11.9584083"><ele>447.99999999999994</ele><time>2026-04-12T12:20:46.025Z</time></trkpt><trkpt lat="44.0009533" lon="11.9582717"><ele>447.99999999999994</ele><time>2026-04-12T12:20:48.025Z</time></trkpt><trkpt lat="44.000945" lon="11.9581733"><ele>448.0</ele><time>2026-04-12T12:20:51.025Z</time></trkpt><trkpt lat="44.000885" lon="11.958215"><ele>448.0</ele><time>2026-04-12T12:20:55.025Z</time></trkpt><trkpt lat="44.0008367" lon="11.9583217"><ele>446.85714285714283</ele><time>2026-04-12T12:20:58.026Z</time></trkpt><trkpt lat="44.0007683" lon="11.958365"><ele>445.7142857142857</ele><time>2026-04-12T12:21:02.025Z</time></trkpt><trkpt lat="44.0007017" lon="11.958345"><ele>444.57142857142856</ele><time>2026-04-12T12:21:04.026Z</time></trkpt><trkpt lat="44.0006317" lon="11.958285"><ele>443.42857142857144</ele><time>2026-04-12T12:21:06.026Z</time></trkpt><trkpt lat="44.000575" lon="11.95822"><ele>442.2857142857143</ele><time>2026-04-12T12:21:08.026Z</time></trkpt><trkpt lat="44.0005083" lon="11.958165"><ele>441.1428571428571</ele><time>2026-04-12T12:21:11.025Z</time></trkpt><trkpt lat="44.0004517" lon="11.9582133"><ele>440.0</ele><time>2026-04-12T12:21:15.025Z</time></trkpt><trkpt lat="44.0004067" lon="11.9582783"><ele>437.49999999999994</ele><time>2026-04-12T12:21:18.026Z</time></trkpt><trkpt lat="44.0003367" lon="11.9584333"><ele>435.0</ele><time>2026-04-12T12:21:20.026Z</time></trkpt><trkpt lat="44.0002767" lon="11.9585183"><ele>432.5</ele><time>2026-04-12T12:21:21.025Z</time></trkpt><trkpt lat="44.0002133" lon="11.9585933"><ele>430.0</ele><time>2026-04-12T12:21:22.026Z</time></trkpt><trkpt lat="44.0001533" lon="11.9586467"><ele>427.49999999999994</ele><time>2026-04-12T12:21:23.025Z</time></trkpt><trkpt lat="44.0000917" lon="11.9586983"><ele>425.0</ele><time>2026-04-12T12:21:24.025Z</time></trkpt><trkpt lat="44.00004" lon="11.95883"><ele>424.99999999999994</ele><time>2026-04-12T12:21:26.026Z</time></trkpt><trkpt lat="44.0000733" lon="11.9589267"><ele>425.0</ele><time>2026-04-12T12:21:27.026Z</time></trkpt><trkpt lat="44.000135" lon="11.9590233"><ele>425.0</ele><time>2026-04-12T12:21:28.025Z</time></trkpt><trkpt lat="44.0002117" lon="11.9590883"><ele>425.0</ele><time>2026-04-12T12:21:29.025Z</time></trkpt><trkpt lat="44.0002783" lon="11.9591767"><ele>424.99999999999994</ele><time>2026-04-12T12:21:31.025Z</time></trkpt><trkpt lat="44.0002117" lon="11.9592367"><ele>425.0</ele><time>2026-04-12T12:21:34.025Z</time></trkpt><trkpt lat="44.0001383" lon="11.95923"><ele>420.66666666666663</ele><time>2026-04-12T12:21:36.025Z</time></trkpt><trkpt lat="44.00005" lon="11.9592183"><ele>416.3333333333333</ele><time>2026-04-12T12:21:38.025Z</time></trkpt><trkpt lat="43.9999717" lon="11.959215"><ele>412.0</ele><time>2026-04-12T12:21:40.026Z</time></trkpt><trkpt lat="44.0000467" lon="11.95922"><ele>407.66666666666663</ele><time>2026-04-12T12:22:04.024Z</time></trkpt><trkpt lat="44.00015" lon="11.9592233"><ele>403.3333333333333</ele><time>2026-04-12T12:22:06.024Z</time></trkpt><trkpt lat="44.0002317" lon="11.95922"><ele>399.0</ele><time>2026-04-12T12:22:08.024Z</time></trkpt><trkpt lat="44.0003" lon="11.95921"><ele>399.0</ele><time>2026-04-12T12:22:11.024Z</time></trkpt><trkpt lat="44.0003833" lon="11.9592733"><ele>399.0</ele><time>2026-04-12T12:22:14.024Z</time></trkpt><trkpt lat="44.0004617" lon="11.9593667"><ele>399.0</ele><time>2026-04-12T12:22:16.024Z</time></trkpt><trkpt lat="44.00051" lon="11.959425"><ele>399.0</ele><time>2026-04-12T12:22:17.025Z</time></trkpt><trkpt lat="44.000565" lon="11.9594983"><ele>399.0</ele><time>2026-04-12T12:22:18.024Z</time></trkpt><trkpt lat="44.0006183" lon="11.959575"><ele>399.0</ele><time>2026-04-12T12:22:19.024Z</time></trkpt><trkpt lat="44.000665" lon="11.9596467"><ele>399.0</ele><time>2026-04-12T12:22:20.025Z</time></trkpt><trkpt lat="44.0007133" lon="11.9597817"><ele>399.0</ele><time>2026-04-12T12:22:22.024Z</time></trkpt><trkpt lat="44.0007317" lon="11.95994"><ele>399.0</ele><time>2026-04-12T12:22:24.024Z</time></trkpt><trkpt lat="44.0007417" lon="11.96003"><ele>399.0</ele><time>2026-04-12T12:22:25.024Z</time></trkpt><trkpt lat="44.0007567" lon="11.9601233"><ele>399.0</ele><time>2026-04-12T12:22:26.025Z</time></trkpt><trkpt lat="44.00077" lon="11.96021"><ele>399.0</ele><time>2026-04-12T12:22:27.024Z</time></trkpt><trkpt lat="44.0007667" lon="11.9603083"><ele>395.0</ele><time>2026-04-12T12:22:28.024Z</time></trkpt><trkpt lat="44.0007617" lon="11.960405"><ele>391.0</ele><time>2026-04-12T12:22:29.024Z</time></trkpt><trkpt lat="44.0007467" lon="11.960565"><ele>387.0</ele><time>2026-04-12T12:22:31.024Z</time></trkpt><trkpt lat="44.000735" lon="11.960745"><ele>383.0</ele><time>2026-04-12T12:22:33.024Z</time></trkpt><trkpt lat="44.0007317" lon="11.960855"><ele>379.0</ele><time>2026-04-12T12:22:34.024Z</time></trkpt><trkpt lat="44.0007133" lon="11.9609617"><ele>378.00000000000006</ele><time>2026-04-12T12:22:35.024Z</time></trkpt><trkpt lat="44.00069" lon="11.9610683"><ele>377.0</ele><time>2026-04-12T12:22:36.024Z</time></trkpt><trkpt lat="44.0006883" lon="11.96117"><ele>376.0</ele><time>2026-04-12T12:22:37.024Z</time></trkpt><trkpt lat="44.0006917" lon="11.9612683"><ele>375.0</ele><time>2026-04-12T12:22:38.024Z</time></trkpt><trkpt lat="44.0007" lon="11.9613617"><ele>374.0</ele><time>2026-04-12T12:22:39.024Z</time></trkpt><trkpt lat="44.0007017" lon="11.96145"><ele>373.00000000000006</ele><time>2026-04-12T12:22:40.025Z</time></trkpt><trkpt lat="44.0006983" lon="11.9615467"><ele>372.0</ele><time>2026-04-12T12:22:41.024Z</time></trkpt><trkpt lat="44.000685" lon="11.96165"><ele>372.28571428571433</ele><time>2026-04-12T12:22:42.024Z</time></trkpt><trkpt lat="44.0006617" lon="11.96175"><ele>372.57142857142856</ele><time>2026-04-12T12:22:43.024Z</time></trkpt><trkpt lat="44.0006183" lon="11.9618367"><ele>372.8571428571429</ele><time>2026-04-12T12:22:44.025Z</time></trkpt><trkpt lat="44.0005733" lon="11.961925"><ele>373.14285714285717</ele><time>2026-04-12T12:22:45.024Z</time></trkpt><trkpt lat="44.00053" lon="11.9620067"><ele>373.42857142857144</ele><time>2026-04-12T12:22:46.025Z</time></trkpt><trkpt lat="44.000485" lon="11.9620783"><ele>373.7142857142857</ele><time>2026-04-12T12:22:47.024Z</time></trkpt><trkpt lat="44.0004367" lon="11.96214"><ele>374.0</ele><time>2026-04-12T12:22:48.024Z</time></trkpt><trkpt lat="44.0003883" lon="11.9621967"><ele>374.0</ele><time>2026-04-12T12:22:49.025Z</time></trkpt><trkpt lat="44.0002917" lon="11.9622783"><ele>374.0</ele><time>2026-04-12T12:22:51.024Z</time></trkpt><trkpt lat="44.0002317" lon="11.9623283"><ele>374.0</ele><time>2026-04-12T12:22:53.024Z</time></trkpt><trkpt lat="44.0002267" lon="11.9624483"><ele>374.0</ele><time>2026-04-12T12:22:56.025Z</time></trkpt><trkpt lat="44.0002533" lon="11.9625467"><ele>374.0</ele><time>2026-04-12T12:22:58.024Z</time></trkpt><trkpt lat="44.000305" lon="11.96266"><ele>374.0</ele><time>2026-04-12T12:23:01.024Z</time></trkpt><trkpt lat="44.0004" lon="11.9627017"><ele>370.79999999999995</ele><time>2026-04-12T12:23:03.024Z</time></trkpt><trkpt lat="44.0004633" lon="11.962695"><ele>367.59999999999997</ele><time>2026-04-12T12:23:04.025Z</time></trkpt><trkpt lat="44.000595" lon="11.962685"><ele>364.4</ele><time>2026-04-12T12:23:06.025Z</time></trkpt><trkpt lat="44.000665" lon="11.9626933"><ele>361.2</ele><time>2026-04-12T12:23:07.024Z</time></trkpt><trkpt lat="44.0007867" lon="11.9627233"><ele>358.0</ele><time>2026-04-12T12:23:09.024Z</time></trkpt><trkpt lat="44.0009117" lon="11.962745"><ele>356.0</ele><time>2026-04-12T12:23:11.024Z</time></trkpt><trkpt lat="44.0010317" lon="11.9627767"><ele>354.0</ele><time>2026-04-12T12:23:13.024Z</time></trkpt><trkpt lat="44.0010867" lon="11.96282"><ele>352.0</ele><time>2026-04-12T12:23:14.025Z</time></trkpt><trkpt lat="44.0011683" lon="11.9629267"><ele>350.0</ele><time>2026-04-12T12:23:16.024Z</time></trkpt><trkpt lat="44.00121" lon="11.9630333"><ele>348.0</ele><time>2026-04-12T12:23:18.024Z</time></trkpt><trkpt lat="44.0012333" lon="11.9631517"><ele>348.0</ele><time>2026-04-12T12:23:24.024Z</time></trkpt><trkpt lat="44.0012683" lon="11.9632667"><ele>348.0</ele><time>2026-04-12T12:23:27.025Z</time></trkpt><trkpt lat="44.0013183" lon="11.963355"><ele>348.0</ele><time>2026-04-12T12:23:30.025Z</time></trkpt><trkpt lat="44.00141" lon="11.9633467"><ele>348.0</ele><time>2026-04-12T12:23:33.025Z</time></trkpt><trkpt lat="44.0014767" lon="11.963325"><ele>348.0</ele><time>2026-04-12T12:23:35.024Z</time></trkpt><trkpt lat="44.00154" lon="11.9633133"><ele>348.0</ele><time>2026-04-12T12:23:37.024Z</time></trkpt><trkpt lat="44.001615" lon="11.9633833"><ele>348.1666666666667</ele><time>2026-04-12T12:23:40.024Z</time></trkpt><trkpt lat="44.0016517" lon="11.96348"><ele>348.3333333333333</ele><time>2026-04-12T12:23:42.024Z</time></trkpt><trkpt lat="44.001685" lon="11.963575"><ele>348.5</ele><time>2026-04-12T12:23:44.025Z</time></trkpt><trkpt lat="44.0017133" lon="11.963685"><ele>348.66666666666663</ele><time>2026-04-12T12:23:46.024Z</time></trkpt><trkpt lat="44.001745" lon="11.9638017"><ele>348.8333333333333</ele><time>2026-04-12T12:23:48.025Z</time></trkpt><trkpt lat="44.00179" lon="11.9639233"><ele>349.0</ele><time>2026-04-12T12:23:50.024Z</time></trkpt><trkpt lat="44.00182" lon="11.96404"><ele>349.0</ele><time>2026-04-12T12:23:52.024Z</time></trkpt><trkpt lat="44.0017967" lon="11.964195"><ele>349.0</ele><time>2026-04-12T12:23:54.024Z</time></trkpt><trkpt lat="44.0017933" lon="11.964355"><ele>349.0</ele><time>2026-04-12T12:23:56.024Z</time></trkpt><trkpt lat="44.0018067" lon="11.964525"><ele>349.0</ele><time>2026-04-12T12:23:58.024Z</time></trkpt><trkpt lat="44.0018483" lon="11.9646883"><ele>347.3333333333333</ele><time>2026-04-12T12:24:00.024Z</time></trkpt><trkpt lat="44.0018767" lon="11.9647933"><ele>345.66666666666663</ele><time>2026-04-12T12:24:01.024Z</time></trkpt><trkpt lat="44.0019033" lon="11.96491"><ele>344.0</ele><time>2026-04-12T12:24:02.025Z</time></trkpt><trkpt lat="44.001925" lon="11.9650117"><ele>342.3333333333333</ele><time>2026-04-12T12:24:03.024Z</time></trkpt><trkpt lat="44.001945" lon="11.9651567"><ele>340.6666666666667</ele><time>2026-04-12T12:24:05.025Z</time></trkpt><trkpt lat="44.002005" lon="11.96526"><ele>339.0</ele><time>2026-04-12T12:24:07.024Z</time></trkpt><trkpt lat="44.0020817" lon="11.96533"><ele>337.0</ele><time>2026-04-12T12:24:10.024Z</time></trkpt><trkpt lat="44.0021117" lon="11.9654217"><ele>335.0</ele><time>2026-04-12T12:24:13.024Z</time></trkpt><trkpt lat="44.0021617" lon="11.9654767"><ele>333.0</ele><time>2026-04-12T12:24:16.024Z</time></trkpt><trkpt lat="44.002255" lon="11.9654833"><ele>331.0</ele><time>2026-04-12T12:24:19.024Z</time></trkpt><trkpt lat="44.0023183" lon="11.9654383"><ele>329.0</ele><time>2026-04-12T12:24:21.024Z</time></trkpt><trkpt lat="44.0023767" lon="11.965375"><ele>327.0</ele><time>2026-04-12T12:24:23.025Z</time></trkpt><trkpt lat="44.0024533" lon="11.9653283"><ele>329.0</ele><time>2026-04-12T12:24:25.024Z</time></trkpt><trkpt lat="44.0025333" lon="11.96531"><ele>331.0</ele><time>2026-04-12T12:24:27.024Z</time></trkpt><trkpt lat="44.002615" lon="11.9653167"><ele>333.0</ele><time>2026-04-12T12:24:30.024Z</time></trkpt><trkpt lat="44.00267" lon="11.9653733"><ele>335.0</ele><time>2026-04-12T12:24:32.024Z</time></trkpt><trkpt lat="44.002715" lon="11.9654617"><ele>337.0</ele><time>2026-04-12T12:24:34.024Z</time></trkpt><trkpt lat="44.002745" lon="11.9655533"><ele>339.0</ele><time>2026-04-12T12:24:36.024Z</time></trkpt><trkpt lat="44.0027683" lon="11.9656467"><ele>339.0</ele><time>2026-04-12T12:24:38.024Z</time></trkpt><trkpt lat="44.00279" lon="11.965745"><ele>339.0</ele><time>2026-04-12T12:24:40.024Z</time></trkpt><trkpt lat="44.0028133" lon="11.9658417"><ele>339.0</ele><time>2026-04-12T12:24:42.025Z</time></trkpt><trkpt lat="44.002835" lon="11.965945"><ele>339.0</ele><time>2026-04-12T12:24:45.025Z</time></trkpt><trkpt lat="44.0028267" lon="11.9660733"><ele>339.0</ele><time>2026-04-12T12:24:48.025Z</time></trkpt><trkpt lat="44.0027917" lon="11.9661633"><ele>339.0</ele><time>2026-04-12T12:24:50.024Z</time></trkpt><trkpt lat="44.0027683" lon="11.9662583"><ele>335.8333333333333</ele><time>2026-04-12T12:24:52.024Z</time></trkpt><trkpt lat="44.002725" lon="11.9663783"><ele>332.6666666666667</ele><time>2026-04-12T12:24:55.024Z</time></trkpt><trkpt lat="44.0027017" lon="11.966485"><ele>329.5</ele><time>2026-04-12T12:24:57.024Z</time></trkpt><trkpt lat="44.00268" lon="11.96658"><ele>326.33333333333337</ele><time>2026-04-12T12:24:59.024Z</time></trkpt><trkpt lat="44.002685" lon="11.9666917"><ele>323.1666666666667</ele><time>2026-04-12T12:25:02.024Z</time></trkpt><trkpt lat="44.002765" lon="11.9667133"><ele>320.0</ele><time>2026-04-12T12:25:05.024Z</time></trkpt><trkpt lat="44.0028217" lon="11.9666683"><ele>320.0</ele><time>2026-04-12T12:25:07.024Z</time></trkpt><trkpt lat="44.00288" lon="11.9666283"><ele>320.0</ele><time>2026-04-12T12:25:11.025Z</time></trkpt><trkpt lat="44.0029383" lon="11.9665517"><ele>320.0</ele><time>2026-04-12T12:25:14.024Z</time></trkpt><trkpt lat="44.0029933" lon="11.966485"><ele>320.0</ele><time>2026-04-12T12:25:16.025Z</time></trkpt><trkpt lat="44.003055" lon="11.96642"><ele>320.0</ele><time>2026-04-12T12:25:18.024Z</time></trkpt><trkpt lat="44.00314" lon="11.9663167"><ele>320.0</ele><time>2026-04-12T12:26:17.023Z</time></trkpt><trkpt lat="44.003235" lon="11.9663683"><ele>320.0</ele><time>2026-04-12T12:27:52.023Z</time></trkpt><trkpt lat="44.003275" lon="11.9664383"><ele>320.0</ele><time>2026-04-12T12:27:55.023Z</time></trkpt><trkpt lat="44.00331" lon="11.9665467"><ele>320.0</ele><time>2026-04-12T12:27:58.023Z</time></trkpt><trkpt lat="44.0033567" lon="11.9666533"><ele>320.0</ele><time>2026-04-12T12:28:10.024Z</time></trkpt><trkpt lat="44.0033883" lon="11.9667383"><ele>320.0</ele><time>2026-04-12T12:28:12.023Z</time></trkpt><trkpt lat="44.0034117" lon="11.966835"><ele>320.0</ele><time>2026-04-12T12:28:14.024Z</time></trkpt><trkpt lat="44.0034267" lon="11.9669383"><ele>318.6</ele><time>2026-04-12T12:28:17.023Z</time></trkpt><trkpt lat="44.0034483" lon="11.9670683"><ele>317.2</ele><time>2026-04-12T12:28:20.023Z</time></trkpt><trkpt lat="44.0034717" lon="11.9671967"><ele>315.8</ele><time>2026-04-12T12:28:22.023Z</time></trkpt><trkpt lat="44.0034967" lon="11.967315"><ele>314.4</ele><time>2026-04-12T12:28:24.023Z</time></trkpt><trkpt lat="44.0035283" lon="11.96743"><ele>313.0</ele><time>2026-04-12T12:28:27.023Z</time></trkpt><trkpt lat="44.0035417" lon="11.96755"><ele>311.16666666666663</ele><time>2026-04-12T12:28:30.023Z</time></trkpt><trkpt lat="44.003555" lon="11.9676767"><ele>309.3333333333333</ele><time>2026-04-12T12:28:33.024Z</time></trkpt><trkpt lat="44.00354" lon="11.9678"><ele>307.5</ele><time>2026-04-12T12:28:36.023Z</time></trkpt><trkpt lat="44.00354" lon="11.9679083"><ele>305.6666666666667</ele><time>2026-04-12T12:28:39.023Z</time></trkpt><trkpt lat="44.0035467" lon="11.9680233"><ele>303.83333333333337</ele><time>2026-04-12T12:28:43.023Z</time></trkpt><trkpt lat="44.0035767" lon="11.9681083"><ele>302.0</ele><time>2026-04-12T12:28:46.023Z</time></trkpt><trkpt lat="44.0035333" lon="11.9680217"><ele>302.0</ele><time>2026-04-12T12:31:53.022Z</time></trkpt><trkpt lat="44.0035317" lon="11.9679167"><ele>302.0</ele><time>2026-04-12T12:31:55.022Z</time></trkpt><trkpt lat="44.0035367" lon="11.9678083"><ele>302.0</ele><time>2026-04-12T12:31:57.022Z</time></trkpt><trkpt lat="44.0035483" lon="11.9677033"><ele>302.0</ele><time>2026-04-12T12:31:59.023Z</time></trkpt><trkpt lat="44.0035533" lon="11.9676117"><ele>302.0</ele><time>2026-04-12T12:32:01.022Z</time></trkpt><trkpt lat="44.0035367" lon="11.9675033"><ele>302.0</ele><time>2026-04-12T12:32:03.022Z</time></trkpt><trkpt lat="44.0035183" lon="11.9673967"><ele>304.2</ele><time>2026-04-12T12:32:05.023Z</time></trkpt><trkpt lat="44.0034783" lon="11.9672567"><ele>306.4</ele><time>2026-04-12T12:32:07.022Z</time></trkpt><trkpt lat="44.0034483" lon="11.967095"><ele>308.6</ele><time>2026-04-12T12:32:09.022Z</time></trkpt><trkpt lat="44.0034383" lon="11.9669683"><ele>310.8</ele><time>2026-04-12T12:32:11.022Z</time></trkpt><trkpt lat="44.003435" lon="11.96685"><ele>313.0</ele><time>2026-04-12T12:32:14.022Z</time></trkpt><trkpt lat="44.0034117" lon="11.9667633"><ele>314.0</ele><time>2026-04-12T12:32:16.023Z</time></trkpt><trkpt lat="44.0033667" lon="11.9666833"><ele>315.0</ele><time>2026-04-12T12:32:18.022Z</time></trkpt><trkpt lat="44.00332" lon="11.9665867"><ele>316.0</ele><time>2026-04-12T12:32:21.022Z</time></trkpt><trkpt lat="44.0032833" lon="11.966505"><ele>317.0</ele><time>2026-04-12T12:32:23.022Z</time></trkpt><trkpt lat="44.00325" lon="11.96643"><ele>318.0</ele><time>2026-04-12T12:32:26.022Z</time></trkpt><trkpt lat="44.0032183" lon="11.966335"><ele>319.0</ele><time>2026-04-12T12:32:31.022Z</time></trkpt><trkpt lat="44.003155" lon="11.9663283"><ele>320.0</ele><time>2026-04-12T12:32:39.022Z</time></trkpt><trkpt lat="44.0031133" lon="11.9663983"><ele>320.0</ele><time>2026-04-12T12:32:42.022Z</time></trkpt><trkpt lat="44.0030417" lon="11.9664783"><ele>320.0</ele><time>2026-04-12T12:32:45.022Z</time></trkpt><trkpt lat="44.0029883" lon="11.966545"><ele>320.0</ele><time>2026-04-12T12:32:47.023Z</time></trkpt><trkpt lat="44.00291" lon="11.9666133"><ele>320.0</ele><time>2026-04-12T12:32:49.022Z</time></trkpt><trkpt lat="44.0028283" lon="11.9666717"><ele>320.0</ele><time>2026-04-12T12:32:51.022Z</time></trkpt><trkpt lat="44.0027517" lon="11.9667133"><ele>320.0</ele><time>2026-04-12T12:32:53.023Z</time></trkpt><trkpt lat="44.002685" lon="11.9666717"><ele>320.0</ele><time>2026-04-12T12:32:56.021Z</time></trkpt><trkpt lat="44.0027" lon="11.9665483"><ele>320.0</ele><time>2026-04-12T12:32:58.021Z</time></trkpt><trkpt lat="44.0027417" lon="11.9663917"><ele>320.0</ele><time>2026-04-12T12:33:00.022Z</time></trkpt><trkpt lat="44.0027833" lon="11.9662683"><ele>320.0</ele><time>2026-04-12T12:33:02.021Z</time></trkpt><trkpt lat="44.00281" lon="11.96615"><ele>320.0</ele><time>2026-04-12T12:33:04.022Z</time></trkpt><trkpt lat="44.0028433" lon="11.966055"><ele>320.0</ele><time>2026-04-12T12:33:06.021Z</time></trkpt><trkpt lat="44.00285" lon="11.9659667"><ele>320.0</ele><time>2026-04-12T12:33:08.021Z</time></trkpt><trkpt lat="44.00281" lon="11.9658317"><ele>320.0</ele><time>2026-04-12T12:33:11.021Z</time></trkpt><trkpt lat="44.002775" lon="11.9657133"><ele>320.0</ele><time>2026-04-12T12:33:13.022Z</time></trkpt><trkpt lat="44.0027417" lon="11.965595"><ele>320.0</ele><time>2026-04-12T12:33:15.022Z</time></trkpt><trkpt lat="44.002705" lon="11.9654817"><ele>320.0</ele><time>2026-04-12T12:33:17.022Z</time></trkpt><trkpt lat="44.00267" lon="11.9653983"><ele>321.1666666666667</ele><time>2026-04-12T12:33:20.021Z</time></trkpt><trkpt lat="44.0026017" lon="11.965355"><ele>322.33333333333337</ele><time>2026-04-12T12:33:23.021Z</time></trkpt><trkpt lat="44.0025267" lon="11.9653583"><ele>323.5</ele><time>2026-04-12T12:33:25.022Z</time></trkpt><trkpt lat="44.002435" lon="11.965375"><ele>324.6666666666667</ele><time>2026-04-12T12:33:27.021Z</time></trkpt><trkpt lat="44.002345" lon="11.9654267"><ele>325.8333333333333</ele><time>2026-04-12T12:33:29.022Z</time></trkpt><trkpt lat="44.00227" lon="11.9654833"><ele>327.0</ele><time>2026-04-12T12:33:31.021Z</time></trkpt><trkpt lat="44.0022017" lon="11.96552"><ele>327.0</ele><time>2026-04-12T12:33:33.021Z</time></trkpt><trkpt lat="44.00214" lon="11.9654917"><ele>327.0</ele><time>2026-04-12T12:33:35.021Z</time></trkpt><trkpt lat="44.0020967" lon="11.9654067"><ele>327.0</ele><time>2026-04-12T12:33:38.021Z</time></trkpt><trkpt lat="44.00203" lon="11.9653083"><ele>327.0</ele><time>2026-04-12T12:33:45.021Z</time></trkpt><trkpt lat="44.0019417" lon="11.9652367"><ele>327.0</ele><time>2026-04-12T12:33:47.021Z</time></trkpt><trkpt lat="44.00191" lon="11.965125"><ele>327.0</ele><time>2026-04-12T12:33:49.021Z</time></trkpt><trkpt lat="44.0019033" lon="11.9650167"><ele>328.7142857142857</ele><time>2026-04-12T12:33:50.021Z</time></trkpt><trkpt lat="44.0018917" lon="11.9649167"><ele>330.42857142857144</ele><time>2026-04-12T12:33:51.021Z</time></trkpt><trkpt lat="44.0018717" lon="11.9647983"><ele>332.1428571428571</ele><time>2026-04-12T12:33:52.021Z</time></trkpt><trkpt lat="44.0018517" lon="11.964695"><ele>333.8571428571429</ele><time>2026-04-12T12:33:53.021Z</time></trkpt><trkpt lat="44.00183" lon="11.964595"><ele>335.5714285714286</ele><time>2026-04-12T12:33:54.021Z</time></trkpt><trkpt lat="44.0018167" lon="11.9645067"><ele>337.2857142857143</ele><time>2026-04-12T12:33:55.021Z</time></trkpt><trkpt lat="44.0018133" lon="11.9644183"><ele>339.0</ele><time>2026-04-12T12:33:56.021Z</time></trkpt><trkpt lat="44.0018133" lon="11.9642517"><ele>341.5</ele><time>2026-04-12T12:33:58.021Z</time></trkpt><trkpt lat="44.001845" lon="11.9640933"><ele>344.0</ele><time>2026-04-12T12:34:00.021Z</time></trkpt><trkpt lat="44.0018367" lon="11.9639367"><ele>346.5</ele><time>2026-04-12T12:34:02.022Z</time></trkpt><trkpt lat="44.0017867" lon="11.9637783"><ele>349.0</ele><time>2026-04-12T12:34:04.021Z</time></trkpt><trkpt lat="44.0017383" lon="11.9636333"><ele>349.0</ele><time>2026-04-12T12:34:06.021Z</time></trkpt><trkpt lat="44.0016767" lon="11.9634883"><ele>349.0</ele><time>2026-04-12T12:34:08.021Z</time></trkpt><trkpt lat="44.0016183" lon="11.9633733"><ele>349.0</ele><time>2026-04-12T12:34:10.021Z</time></trkpt><trkpt lat="44.001545" lon="11.963345"><ele>349.0</ele><time>2026-04-12T12:34:13.021Z</time></trkpt><trkpt lat="44.0014483" lon="11.963365"><ele>349.0</ele><time>2026-04-12T12:34:15.021Z</time></trkpt><trkpt lat="44.0013767" lon="11.963385"><ele>348.8333333333333</ele><time>2026-04-12T12:34:17.021Z</time></trkpt><trkpt lat="44.001305" lon="11.9633683"><ele>348.66666666666663</ele><time>2026-04-12T12:34:20.021Z</time></trkpt><trkpt lat="44.00128" lon="11.9632617"><ele>348.5</ele><time>2026-04-12T12:34:23.021Z</time></trkpt><trkpt lat="44.0012217" lon="11.9631367"><ele>348.3333333333333</ele><time>2026-04-12T12:34:25.022Z</time></trkpt><trkpt lat="44.0011833" lon="11.9630417"><ele>348.1666666666667</ele><time>2026-04-12T12:34:26.021Z</time></trkpt><trkpt lat="44.0011533" lon="11.9629467"><ele>348.0</ele><time>2026-04-12T12:34:27.021Z</time></trkpt><trkpt lat="44.0010933" lon="11.9628483"><ele>348.0</ele><time>2026-04-12T12:34:29.021Z</time></trkpt><trkpt lat="44.0009817" lon="11.9627817"><ele>348.0</ele><time>2026-04-12T12:34:31.021Z</time></trkpt><trkpt lat="44.0009133" lon="11.9627683"><ele>348.0</ele><time>2026-04-12T12:34:32.021Z</time></trkpt><trkpt lat="44.0008483" lon="11.9627533"><ele>348.0</ele><time>2026-04-12T12:34:33.021Z</time></trkpt><trkpt lat="44.0007833" lon="11.9627383"><ele>348.0</ele><time>2026-04-12T12:34:34.021Z</time></trkpt><trkpt lat="44.0007167" lon="11.9627167"><ele>348.0</ele><time>2026-04-12T12:34:35.022Z</time></trkpt><trkpt lat="44.0006417" lon="11.9627033"><ele>349.6666666666667</ele><time>2026-04-12T12:34:36.021Z</time></trkpt><trkpt lat="44.00056" lon="11.9626933"><ele>351.3333333333333</ele><time>2026-04-12T12:34:37.021Z</time></trkpt><trkpt lat="44.0004783" lon="11.9626867"><ele>353.0</ele><time>2026-04-12T12:34:38.022Z</time></trkpt><trkpt lat="44.0003967" lon="11.9626967"><ele>354.66666666666663</ele><time>2026-04-12T12:34:39.021Z</time></trkpt><trkpt lat="44.0003283" lon="11.9626867"><ele>356.3333333333333</ele><time>2026-04-12T12:34:40.021Z</time></trkpt><trkpt lat="44.0002583" lon="11.962615"><ele>358.0</ele><time>2026-04-12T12:34:42.021Z</time></trkpt><trkpt lat="44.0002267" lon="11.9624867"><ele>361.2</ele><time>2026-04-12T12:34:44.021Z</time></trkpt><trkpt lat="44.00024" lon="11.9623533"><ele>364.4</ele><time>2026-04-12T12:34:46.021Z</time></trkpt><trkpt lat="44.000345" lon="11.9622583"><ele>367.59999999999997</ele><time>2026-04-12T12:34:48.022Z</time></trkpt><trkpt lat="44.0004167" lon="11.9621867"><ele>370.79999999999995</ele><time>2026-04-12T12:34:49.021Z</time></trkpt><trkpt lat="44.0004883" lon="11.96209"><ele>374.0</ele><time>2026-04-12T12:34:50.022Z</time></trkpt><trkpt lat="44.00056" lon="11.9619483"><ele>374.0</ele><time>2026-04-12T12:34:51.021Z</time></trkpt><trkpt lat="44.0006183" lon="11.961815"><ele>374.0</ele><time>2026-04-12T12:34:52.021Z</time></trkpt><trkpt lat="44.0006667" lon="11.9616933"><ele>374.0</ele><time>2026-04-12T12:34:53.021Z</time></trkpt><trkpt lat="44.0006933" lon="11.9615817"><ele>374.0</ele><time>2026-04-12T12:34:54.022Z</time></trkpt><trkpt lat="44.0007017" lon="11.9614683"><ele>374.0</ele><time>2026-04-12T12:34:55.021Z</time></trkpt><trkpt lat="44.0007017" lon="11.9613517"><ele>373.6</ele><time>2026-04-12T12:34:56.022Z</time></trkpt><trkpt lat="44.000695" lon="11.9612133"><ele>373.2</ele><time>2026-04-12T12:34:57.022Z</time></trkpt><trkpt lat="44.000695" lon="11.9610617"><ele>372.8</ele><time>2026-04-12T12:34:58.021Z</time></trkpt><trkpt lat="44.0007083" lon="11.96093"><ele>372.40000000000003</ele><time>2026-04-12T12:34:59.021Z</time></trkpt><trkpt lat="44.00073" lon="11.9608033"><ele>372.0</ele><time>2026-04-12T12:35:00.021Z</time></trkpt><trkpt lat="44.0007383" lon="11.9606717"><ele>373.40000000000003</ele><time>2026-04-12T12:35:01.021Z</time></trkpt><trkpt lat="44.0007433" lon="11.960535"><ele>374.8</ele><time>2026-04-12T12:35:02.021Z</time></trkpt><trkpt lat="44.0007617" lon="11.9603833"><ele>376.2</ele><time>2026-04-12T12:35:03.021Z</time></trkpt><trkpt lat="44.00077" lon="11.9602267"><ele>377.6</ele><time>2026-04-12T12:35:04.021Z</time></trkpt><trkpt lat="44.000755" lon="11.9600917"><ele>379.0</ele><time>2026-04-12T12:35:05.021Z</time></trkpt><trkpt lat="44.000725" lon="11.9599617"><ele>382.3333333333333</ele><time>2026-04-12T12:35:06.022Z</time></trkpt><trkpt lat="44.00071" lon="11.959845"><ele>385.66666666666663</ele><time>2026-04-12T12:35:07.022Z</time></trkpt><trkpt lat="44.000685" lon="11.9597333"><ele>389.0</ele><time>2026-04-12T12:35:08.021Z</time></trkpt><trkpt lat="44.00065" lon="11.9596383"><ele>392.3333333333333</ele><time>2026-04-12T12:35:09.021Z</time></trkpt><trkpt lat="44.000595" lon="11.9595467"><ele>395.6666666666667</ele><time>2026-04-12T12:35:10.021Z</time></trkpt><trkpt lat="44.0005217" lon="11.95946"><ele>399.0</ele><time>2026-04-12T12:35:11.021Z</time></trkpt><trkpt lat="44.0004383" lon="11.959355"><ele>399.0</ele><time>2026-04-12T12:35:12.021Z</time></trkpt><trkpt lat="44.000365" lon="11.9592633"><ele>399.0</ele><time>2026-04-12T12:35:13.022Z</time></trkpt><trkpt lat="44.0003133" lon="11.9592067"><ele>399.0</ele><time>2026-04-12T12:35:14.021Z</time></trkpt><trkpt lat="44.0002517" lon="11.9591417"><ele>399.0</ele><time>2026-04-12T12:35:16.022Z</time></trkpt><trkpt lat="44.0001617" lon="11.959035"><ele>399.0</ele><time>2026-04-12T12:35:18.021Z</time></trkpt><trkpt lat="44.0001033" lon="11.9589517"><ele>399.0</ele><time>2026-04-12T12:35:19.022Z</time></trkpt><trkpt lat="44.000065" lon="11.9588617"><ele>404.2</ele><time>2026-04-12T12:35:20.022Z</time></trkpt><trkpt lat="44.0000817" lon="11.958705"><ele>409.4</ele><time>2026-04-12T12:35:22.021Z</time></trkpt><trkpt lat="44.0001683" lon="11.95864"><ele>414.6</ele><time>2026-04-12T12:35:24.021Z</time></trkpt><trkpt lat="44.000235" lon="11.9585833"><ele>419.8</ele><time>2026-04-12T12:35:25.021Z</time></trkpt><trkpt lat="44.0003067" lon="11.9584933"><ele>425.0</ele><time>2026-04-12T12:35:26.021Z</time></trkpt><trkpt lat="44.000365" lon="11.9583967"><ele>428.0</ele><time>2026-04-12T12:35:27.021Z</time></trkpt><trkpt lat="44.0004167" lon="11.958295"><ele>431.0</ele><time>2026-04-12T12:35:28.021Z</time></trkpt><trkpt lat="44.0004567" lon="11.958215"><ele>434.0</ele><time>2026-04-12T12:35:29.021Z</time></trkpt><trkpt lat="44.0005483" lon="11.9581717"><ele>437.0</ele><time>2026-04-12T12:35:31.021Z</time></trkpt><trkpt lat="44.0006433" lon="11.958285"><ele>440.0</ele><time>2026-04-12T12:35:33.021Z</time></trkpt><trkpt lat="44.0007017" lon="11.9583567"><ele>439.99999999999994</ele><time>2026-04-12T12:35:34.021Z</time></trkpt><trkpt lat="44.000765" lon="11.95838"><ele>440.0</ele><time>2026-04-12T12:35:35.021Z</time></trkpt><trkpt lat="44.0008283" lon="11.9583483"><ele>440.0</ele><time>2026-04-12T12:35:36.022Z</time></trkpt><trkpt lat="44.0008867" lon="11.9582283"><ele>440.0</ele><time>2026-04-12T12:35:38.021Z</time></trkpt><trkpt lat="44.000955" lon="11.9582333"><ele>439.99999999999994</ele><time>2026-04-12T12:35:41.021Z</time></trkpt><trkpt lat="44.0009567" lon="11.9583833"><ele>440.0</ele><time>2026-04-12T12:35:43.021Z</time></trkpt><trkpt lat="44.00096" lon="11.9584817"><ele>441.6</ele><time>2026-04-12T12:35:44.021Z</time></trkpt><trkpt lat="44.0009717" lon="11.95858"><ele>443.2</ele><time>2026-04-12T12:35:45.021Z</time></trkpt><trkpt lat="44.0010367" lon="11.95871"><ele>444.79999999999995</ele><time>2026-04-12T12:35:47.021Z</time></trkpt><trkpt lat="44.0011517" lon="11.9587633"><ele>446.4</ele><time>2026-04-12T12:35:49.021Z</time></trkpt><trkpt lat="44.00124" lon="11.9588183"><ele>448.0</ele><time>2026-04-12T12:35:51.022Z</time></trkpt><trkpt lat="44.0013" lon="11.9588617"><ele>448.0</ele><time>2026-04-12T12:35:53.022Z</time></trkpt><trkpt lat="44.0013883" lon="11.9589333"><ele>447.99999999999994</ele><time>2026-04-12T12:36:11.021Z</time></trkpt><trkpt lat="44.0014717" lon="11.958995"><ele>447.99999999999994</ele><time>2026-04-12T12:36:14.021Z</time></trkpt><trkpt lat="44.00155" lon="11.9590583"><ele>448.0</ele><time>2026-04-12T12:36:16.021Z</time></trkpt><trkpt lat="44.0015867" lon="11.9591317"><ele>448.0</ele><time>2026-04-12T12:36:18.021Z</time></trkpt><trkpt lat="44.0014983" lon="11.959015"><ele>448.0</ele><time>2026-04-12T12:36:26.021Z</time></trkpt><trkpt lat="44.001415" lon="11.9589583"><ele>447.99999999999994</ele><time>2026-04-12T12:36:27.021Z</time></trkpt><trkpt lat="44.001325" lon="11.95889"><ele>447.99999999999994</ele><time>2026-04-12T12:36:28.021Z</time></trkpt><trkpt lat="44.001245" lon="11.9588217"><ele>448.0</ele><time>2026-04-12T12:36:29.02Z</time></trkpt><trkpt lat="44.001175" lon="11.9587617"><ele>448.0</ele><time>2026-04-12T12:36:30.02Z</time></trkpt><trkpt lat="44.0010717" lon="11.9587"><ele>448.0</ele><time>2026-04-12T12:36:32.02Z</time></trkpt><trkpt lat="44.000985" lon="11.9586333"><ele>447.99999999999994</ele><time>2026-04-12T12:36:34.02Z</time></trkpt><trkpt lat="44.000955" lon="11.9584717"><ele>447.99999999999994</ele><time>2026-04-12T12:36:36.02Z</time></trkpt><trkpt lat="44.000955" lon="11.95836"><ele>448.0</ele><time>2026-04-12T12:36:37.02Z</time></trkpt><trkpt lat="44.0009583" lon="11.958225"><ele>448.0</ele><time>2026-04-12T12:36:38.02Z</time></trkpt><trkpt lat="44.0009733" lon="11.9580483"><ele>451.25</ele><time>2026-04-12T12:36:39.021Z</time></trkpt><trkpt lat="44.0009917" lon="11.9578567"><ele>454.5</ele><time>2026-04-12T12:36:40.02Z</time></trkpt><trkpt lat="44.001" lon="11.95768"><ele>457.75</ele><time>2026-04-12T12:36:41.02Z</time></trkpt><trkpt lat="44.00099" lon="11.9574833"><ele>461.0</ele><time>2026-04-12T12:36:42.02Z</time></trkpt><trkpt lat="44.0009683" lon="11.9573"><ele>461.8</ele><time>2026-04-12T12:36:43.021Z</time></trkpt><trkpt lat="44.0009367" lon="11.9571567"><ele>462.6</ele><time>2026-04-12T12:36:44.02Z</time></trkpt><trkpt lat="44.000885" lon="11.95702"><ele>463.4</ele><time>2026-04-12T12:36:45.02Z</time></trkpt><trkpt lat="44.00083" lon="11.9569117"><ele>464.2</ele><time>2026-04-12T12:36:46.02Z</time></trkpt><trkpt lat="44.0007817" lon="11.9568333"><ele>465.0</ele><time>2026-04-12T12:36:47.02Z</time></trkpt><trkpt lat="44.0007233" lon="11.9567083"><ele>464.4</ele><time>2026-04-12T12:36:49.02Z</time></trkpt><trkpt lat="44.0006767" lon="11.956625"><ele>463.8</ele><time>2026-04-12T12:36:51.021Z</time></trkpt><trkpt lat="44.0006217" lon="11.9565367"><ele>463.20000000000005</ele><time>2026-04-12T12:36:53.02Z</time></trkpt><trkpt lat="44.0005783" lon="11.95642"><ele>462.6</ele><time>2026-04-12T12:36:55.021Z</time></trkpt><trkpt lat="44.0005083" lon="11.956235"><ele>462.0</ele><time>2026-04-12T12:36:58.02Z</time></trkpt><trkpt lat="44.0004683" lon="11.9561317"><ele>462.0</ele><time>2026-04-12T12:37:00.02Z</time></trkpt><trkpt lat="44.0004017" lon="11.9559433"><ele>462.00000000000006</ele><time>2026-04-12T12:37:03.02Z</time></trkpt><trkpt lat="44.000355" lon="11.9558083"><ele>462.00000000000006</ele><time>2026-04-12T12:37:05.021Z</time></trkpt><trkpt lat="44.0003083" lon="11.9557117"><ele>462.0</ele><time>2026-04-12T12:37:08.02Z</time></trkpt><trkpt lat="44.0003283" lon="11.9558017"><ele>462.0</ele><time>2026-04-12T12:37:25.02Z</time></trkpt><trkpt lat="44.0003933" lon="11.95591"><ele>462.0</ele><time>2026-04-12T12:37:27.021Z</time></trkpt><trkpt lat="44.0004333" lon="11.9559967"><ele>462.0</ele><time>2026-04-12T12:37:28.02Z</time></trkpt><trkpt lat="44.0005033" lon="11.956185"><ele>462.0</ele><time>2026-04-12T12:37:30.02Z</time></trkpt><trkpt lat="44.0006067" lon="11.9564383"><ele>462.0</ele><time>2026-04-12T12:37:33.021Z</time></trkpt><trkpt lat="44.0006717" lon="11.9565433"><ele>462.0</ele><time>2026-04-12T12:37:35.02Z</time></trkpt><trkpt lat="44.0008183" lon="11.95662"><ele>462.0</ele><time>2026-04-12T12:37:38.02Z</time></trkpt><trkpt lat="44.0009583" lon="11.9567767"><ele>462.0</ele><time>2026-04-12T12:37:41.02Z</time></trkpt><trkpt lat="44.0010383" lon="11.9567683"><ele>462.0</ele><time>2026-04-12T12:37:43.021Z</time></trkpt><trkpt lat="44.0010167" lon="11.9565933"><ele>466.75</ele><time>2026-04-12T12:37:46.02Z</time></trkpt><trkpt lat="44.0009483" lon="11.956435"><ele>471.5</ele><time>2026-04-12T12:37:49.02Z</time></trkpt><trkpt lat="44.0009567" lon="11.9562583"><ele>476.25</ele><time>2026-04-12T12:37:52.021Z</time></trkpt><trkpt lat="44.0009817" lon="11.9561067"><ele>481.0</ele><time>2026-04-12T12:37:54.02Z</time></trkpt><trkpt lat="44.0009783" lon="11.9559417"><ele>481.00000000000006</ele><time>2026-04-12T12:37:57.02Z</time></trkpt><trkpt lat="44.000965" lon="11.95607"><ele>481.0</ele><time>2026-04-12T12:38:03.02Z</time></trkpt><trkpt lat="44.0009583" lon="11.9562283"><ele>481.0</ele><time>2026-04-12T12:38:06.021Z</time></trkpt><trkpt lat="44.0009467" lon="11.9563267"><ele>481.0</ele><time>2026-04-12T12:38:08.02Z</time></trkpt><trkpt lat="44.0009517" lon="11.956425"><ele>481.00000000000006</ele><time>2026-04-12T12:38:11.02Z</time></trkpt><trkpt lat="44.0009867" lon="11.9565417"><ele>481.0</ele><time>2026-04-12T12:38:14.021Z</time></trkpt><trkpt lat="44.0010433" lon="11.9566283"><ele>477.8</ele><time>2026-04-12T12:38:16.02Z</time></trkpt><trkpt lat="44.0010633" lon="11.9567767"><ele>474.6</ele><time>2026-04-12T12:38:19.02Z</time></trkpt><trkpt lat="44.001125" lon="11.956895"><ele>471.4</ele><time>2026-04-12T12:38:22.02Z</time></trkpt><trkpt lat="44.0012067" lon="11.9569783"><ele>468.2</ele><time>2026-04-12T12:38:24.021Z</time></trkpt><trkpt lat="44.0012633" lon="11.9570267"><ele>465.0</ele><time>2026-04-12T12:38:25.021Z</time></trkpt><trkpt lat="44.00138" lon="11.9571367"><ele>465.0</ele><time>2026-04-12T12:38:27.02Z</time></trkpt><trkpt lat="44.0014567" lon="11.9572167"><ele>465.0</ele><time>2026-04-12T12:38:29.021Z</time></trkpt><trkpt lat="44.0015133" lon="11.957265"><ele>465.0</ele><time>2026-04-12T12:38:33.021Z</time></trkpt><trkpt lat="44.0015817" lon="11.957365"><ele>465.0</ele><time>2026-04-12T12:38:37.021Z</time></trkpt><trkpt lat="44.0015133" lon="11.957315"><ele>465.0</ele><time>2026-04-12T12:38:40.021Z</time></trkpt><trkpt lat="44.0014417" lon="11.957215"><ele>465.0</ele><time>2026-04-12T12:38:42.021Z</time></trkpt><trkpt lat="44.0013133" lon="11.95708"><ele>465.0</ele><time>2026-04-12T12:38:45.02Z</time></trkpt><trkpt lat="44.0012367" lon="11.9570067"><ele>465.0</ele><time>2026-04-12T12:38:47.02Z</time></trkpt><trkpt lat="44.001175" lon="11.95688"><ele>465.0</ele><time>2026-04-12T12:38:50.02Z</time></trkpt><trkpt lat="44.0011633" lon="11.9566983"><ele>465.0</ele><time>2026-04-12T12:38:53.02Z</time></trkpt><trkpt lat="44.001175" lon="11.956595"><ele>465.0</ele><time>2026-04-12T12:38:55.02Z</time></trkpt><trkpt lat="44.00118" lon="11.956415"><ele>467.6666666666667</ele><time>2026-04-12T12:39:00.02Z</time></trkpt><trkpt lat="44.0012083" lon="11.956335"><ele>470.33333333333337</ele><time>2026-04-12T12:39:03.021Z</time></trkpt><trkpt lat="44.0012533" lon="11.95623"><ele>473.0</ele><time>2026-04-12T12:39:08.02Z</time></trkpt><trkpt lat="44.0013067" lon="11.95615"><ele>475.6666666666667</ele><time>2026-04-12T12:39:11.02Z</time></trkpt><trkpt lat="44.0013633" lon="11.9560917"><ele>478.33333333333337</ele><time>2026-04-12T12:39:14.02Z</time></trkpt><trkpt lat="44.0014433" lon="11.9560117"><ele>481.0</ele><time>2026-04-12T12:39:17.02Z</time></trkpt><trkpt lat="44.00148" lon="11.9559267"><ele>483.0</ele><time>2026-04-12T12:39:19.02Z</time></trkpt><trkpt lat="44.001525" lon="11.95584"><ele>485.0</ele><time>2026-04-12T12:39:21.02Z</time></trkpt><trkpt lat="44.0015933" lon="11.95576"><ele>487.0</ele><time>2026-04-12T12:39:23.02Z</time></trkpt><trkpt lat="44.0016733" lon="11.9556783"><ele>489.0</ele><time>2026-04-12T12:39:25.02Z</time></trkpt><trkpt lat="44.001755" lon="11.9555883"><ele>491.0</ele><time>2026-04-12T12:39:27.021Z</time></trkpt><trkpt lat="44.001825" lon="11.955495"><ele>486.57142857142856</ele><time>2026-04-12T12:39:29.021Z</time></trkpt><trkpt lat="44.0018733" lon="11.9554167"><ele>482.1428571428571</ele><time>2026-04-12T12:39:31.02Z</time></trkpt><trkpt lat="44.0019083" lon="11.9553333"><ele>477.71428571428567</ele><time>2026-04-12T12:39:33.02Z</time></trkpt><trkpt lat="44.0019567" lon="11.9552433"><ele>473.2857142857142</ele><time>2026-04-12T12:39:35.02Z</time></trkpt><trkpt lat="44.0020033" lon="11.95518"><ele>468.85714285714283</ele><time>2026-04-12T12:39:37.021Z</time></trkpt><trkpt lat="44.00206" lon="11.9551133"><ele>464.42857142857133</ele><time>2026-04-12T12:39:39.02Z</time></trkpt><trkpt lat="44.00212" lon="11.955055"><ele>459.99999999999994</ele><time>2026-04-12T12:39:41.02Z</time></trkpt><trkpt lat="44.0022033" lon="11.955005"><ele>457.83333333333337</ele><time>2026-04-12T12:39:43.021Z</time></trkpt><trkpt lat="44.0022933" lon="11.9549833"><ele>455.6666666666667</ele><time>2026-04-12T12:39:45.021Z</time></trkpt><trkpt lat="44.00238" lon="11.9549533"><ele>453.5</ele><time>2026-04-12T12:39:47.02Z</time></trkpt><trkpt lat="44.0024533" lon="11.954915"><ele>451.33333333333337</ele><time>2026-04-12T12:39:49.02Z</time></trkpt><trkpt lat="44.0024917" lon="11.9548367"><ele>449.1666666666667</ele><time>2026-04-12T12:39:52.02Z</time></trkpt><trkpt lat="44.00251" lon="11.954745"><ele>447.0</ele><time>2026-04-12T12:39:54.02Z</time></trkpt><trkpt lat="44.0025533" lon="11.9546417"><ele>447.0</ele><time>2026-04-12T12:39:57.021Z</time></trkpt><trkpt lat="44.0025317" lon="11.9545317"><ele>447.0</ele><time>2026-04-12T12:40:32.019Z</time></trkpt><trkpt lat="44.0024633" lon="11.9544483"><ele>447.0</ele><time>2026-04-12T12:40:35.02Z</time></trkpt><trkpt lat="44.0024333" lon="11.954355"><ele>447.0</ele><time>2026-04-12T12:40:39.019Z</time></trkpt><trkpt lat="44.0024217" lon="11.9542533"><ele>447.0</ele><time>2026-04-12T12:40:42.019Z</time></trkpt><trkpt lat="44.002385" lon="11.9541633"><ele>447.0</ele><time>2026-04-12T12:40:45.02Z</time></trkpt><trkpt lat="44.0023683" lon="11.9540633"><ele>444.71428571428567</ele><time>2026-04-12T12:40:48.02Z</time></trkpt><trkpt lat="44.00235" lon="11.9539467"><ele>442.42857142857144</ele><time>2026-04-12T12:40:51.019Z</time></trkpt><trkpt lat="44.0023517" lon="11.953825"><ele>440.1428571428571</ele><time>2026-04-12T12:40:54.019Z</time></trkpt><trkpt lat="44.00235" lon="11.953735"><ele>437.85714285714283</ele><time>2026-04-12T12:40:56.019Z</time></trkpt><trkpt lat="44.0023517" lon="11.9536333"><ele>435.57142857142856</ele><time>2026-04-12T12:40:58.019Z</time></trkpt><trkpt lat="44.0023617" lon="11.9535383"><ele>433.2857142857143</ele><time>2026-04-12T12:41:00.02Z</time></trkpt><trkpt lat="44.002375" lon="11.95345"><ele>431.0</ele><time>2026-04-12T12:41:02.02Z</time></trkpt><trkpt lat="44.00238" lon="11.953355"><ele>430.99999999999994</ele><time>2026-04-12T12:41:04.019Z</time></trkpt><trkpt lat="44.002395" lon="11.9532567"><ele>431.0</ele><time>2026-04-12T12:41:06.019Z</time></trkpt><trkpt lat="44.002425" lon="11.9531683"><ele>431.0</ele><time>2026-04-12T12:41:08.019Z</time></trkpt><trkpt lat="44.0024717" lon="11.9530683"><ele>431.0</ele><time>2026-04-12T12:41:11.019Z</time></trkpt><trkpt lat="44.0025467" lon="11.9530717"><ele>430.99999999999994</ele><time>2026-04-12T12:41:14.02Z</time></trkpt><trkpt lat="44.0026367" lon="11.9531033"><ele>431.0</ele><time>2026-04-12T12:41:17.02Z</time></trkpt><trkpt lat="44.0027067" lon="11.953145"><ele>427.66666666666663</ele><time>2026-04-12T12:41:19.02Z</time></trkpt><trkpt lat="44.0027733" lon="11.9531967"><ele>424.3333333333333</ele><time>2026-04-12T12:41:21.02Z</time></trkpt><trkpt lat="44.0028467" lon="11.9532317"><ele>421.0</ele><time>2026-04-12T12:41:23.019Z</time></trkpt><trkpt lat="44.002915" lon="11.9532833"><ele>417.66666666666663</ele><time>2026-04-12T12:41:25.02Z</time></trkpt><trkpt lat="44.00299" lon="11.9533317"><ele>414.3333333333333</ele><time>2026-04-12T12:41:27.019Z</time></trkpt><trkpt lat="44.0030717" lon="11.9533767"><ele>411.0</ele><time>2026-04-12T12:41:29.019Z</time></trkpt><trkpt lat="44.003165" lon="11.953405"><ele>411.0</ele><time>2026-04-12T12:41:31.019Z</time></trkpt><trkpt lat="44.00326" lon="11.953425"><ele>411.0</ele><time>2026-04-12T12:41:33.019Z</time></trkpt><trkpt lat="44.0033467" lon="11.95344"><ele>411.0</ele><time>2026-04-12T12:41:35.019Z</time></trkpt><trkpt lat="44.00343" lon="11.9534667"><ele>411.0</ele><time>2026-04-12T12:41:37.019Z</time></trkpt><trkpt lat="44.00351" lon="11.9534967"><ele>411.0</ele><time>2026-04-12T12:41:39.019Z</time></trkpt><trkpt lat="44.003595" lon="11.953535"><ele>411.0</ele><time>2026-04-12T12:41:41.019Z</time></trkpt><trkpt lat="44.0036767" lon="11.9535767"><ele>407.5</ele><time>2026-04-12T12:41:43.019Z</time></trkpt><trkpt lat="44.00376" lon="11.95363"><ele>404.0</ele><time>2026-04-12T12:41:45.02Z</time></trkpt><trkpt lat="44.0038433" lon="11.95368"><ele>400.5</ele><time>2026-04-12T12:41:47.019Z</time></trkpt><trkpt lat="44.0039183" lon="11.95373"><ele>397.0</ele><time>2026-04-12T12:41:49.019Z</time></trkpt><trkpt lat="44.004" lon="11.9537817"><ele>393.5</ele><time>2026-04-12T12:41:51.019Z</time></trkpt><trkpt lat="44.0040817" lon="11.9538317"><ele>390.0</ele><time>2026-04-12T12:41:53.019Z</time></trkpt><trkpt lat="44.0041467" lon="11.9538667"><ele>385.5</ele><time>2026-04-12T12:41:55.02Z</time></trkpt><trkpt lat="44.0042083" lon="11.9538483"><ele>381.0</ele><time>2026-04-12T12:41:57.019Z</time></trkpt><trkpt lat="44.004295" lon="11.953815"><ele>376.5</ele><time>2026-04-12T12:41:59.019Z</time></trkpt><trkpt lat="44.0043767" lon="11.95379"><ele>372.0</ele><time>2026-04-12T12:42:01.02Z</time></trkpt><trkpt lat="44.0044383" lon="11.953755"><ele>367.5</ele><time>2026-04-12T12:42:03.02Z</time></trkpt><trkpt lat="44.00447" lon="11.9536533"><ele>363.0</ele><time>2026-04-12T12:42:05.019Z</time></trkpt><trkpt lat="44.0045033" lon="11.9535433"><ele>363.0</ele><time>2026-04-12T12:42:07.019Z</time></trkpt><trkpt lat="44.0045283" lon="11.95344"><ele>363.0</ele><time>2026-04-12T12:42:09.02Z</time></trkpt><trkpt lat="44.00452" lon="11.95334"><ele>363.0</ele><time>2026-04-12T12:42:11.019Z</time></trkpt><trkpt lat="44.00446" lon="11.9532517"><ele>363.0</ele><time>2026-04-12T12:42:13.019Z</time></trkpt><trkpt lat="44.0043533" lon="11.9532217"><ele>363.0</ele><time>2026-04-12T12:42:15.019Z</time></trkpt><trkpt lat="44.0042317" lon="11.953195"><ele>365.59999999999997</ele><time>2026-04-12T12:42:17.019Z</time></trkpt><trkpt lat="44.0041183" lon="11.9531667"><ele>368.2</ele><time>2026-04-12T12:42:19.019Z</time></trkpt><trkpt lat="44.004005" lon="11.9531383"><ele>370.8</ele><time>2026-04-12T12:42:21.019Z</time></trkpt><trkpt lat="44.0039" lon="11.9531033"><ele>373.4</ele><time>2026-04-12T12:42:23.019Z</time></trkpt><trkpt lat="44.0038167" lon="11.9530033"><ele>376.0</ele><time>2026-04-12T12:42:25.019Z</time></trkpt><trkpt lat="44.00377" lon="11.9528417"><ele>376.0</ele><time>2026-04-12T12:42:27.019Z</time></trkpt><trkpt lat="44.0037583" lon="11.95274"><ele>376.0</ele><time>2026-04-12T12:42:28.019Z</time></trkpt><trkpt lat="44.00376" lon="11.95263"><ele>376.0</ele><time>2026-04-12T12:42:29.019Z</time></trkpt><trkpt lat="44.003765" lon="11.9525183"><ele>376.0</ele><time>2026-04-12T12:42:30.019Z</time></trkpt><trkpt lat="44.0037717" lon="11.95241"><ele>376.0</ele><time>2026-04-12T12:42:31.019Z</time></trkpt><trkpt lat="44.0037683" lon="11.9522983"><ele>376.0</ele><time>2026-04-12T12:42:32.02Z</time></trkpt><trkpt lat="44.0037683" lon="11.9521967"><ele>374.42857142857144</ele><time>2026-04-12T12:42:33.02Z</time></trkpt><trkpt lat="44.0037683" lon="11.9520967"><ele>372.85714285714283</ele><time>2026-04-12T12:42:34.019Z</time></trkpt><trkpt lat="44.003765" lon="11.952"><ele>371.28571428571433</ele><time>2026-04-12T12:42:35.02Z</time></trkpt><trkpt lat="44.0037567" lon="11.9519017"><ele>369.7142857142857</ele><time>2026-04-12T12:42:36.02Z</time></trkpt><trkpt lat="44.0037417" lon="11.9518067"><ele>368.14285714285717</ele><time>2026-04-12T12:42:37.019Z</time></trkpt><trkpt lat="44.00372" lon="11.9517117"><ele>366.5714285714286</ele><time>2026-04-12T12:42:38.019Z</time></trkpt><trkpt lat="44.0036817" lon="11.9516183"><ele>365.0</ele><time>2026-04-12T12:42:39.019Z</time></trkpt><trkpt lat="44.003635" lon="11.9515233"><ele>362.5</ele><time>2026-04-12T12:42:40.019Z</time></trkpt><trkpt lat="44.0035917" lon="11.9514233"><ele>360.0</ele><time>2026-04-12T12:42:41.019Z</time></trkpt><trkpt lat="44.00355" lon="11.9513217"><ele>357.5</ele><time>2026-04-12T12:42:42.02Z</time></trkpt><trkpt lat="44.00351" lon="11.95122"><ele>355.0</ele><time>2026-04-12T12:42:43.019Z</time></trkpt><trkpt lat="44.0034667" lon="11.95112"><ele>352.5</ele><time>2026-04-12T12:42:44.019Z</time></trkpt><trkpt lat="44.0034317" lon="11.9510317"><ele>350.0</ele><time>2026-04-12T12:42:45.019Z</time></trkpt><trkpt lat="44.0034117" lon="11.95089"><ele>350.0</ele><time>2026-04-12T12:42:47.019Z</time></trkpt><trkpt lat="44.0034883" lon="11.9508217"><ele>350.0</ele><time>2026-04-12T12:42:49.019Z</time></trkpt><trkpt lat="44.0035567" lon="11.95083"><ele>350.0</ele><time>2026-04-12T12:42:50.02Z</time></trkpt><trkpt lat="44.003625" lon="11.9508533"><ele>350.0</ele><time>2026-04-12T12:42:51.019Z</time></trkpt><trkpt lat="44.0036967" lon="11.950885"><ele>350.0</ele><time>2026-04-12T12:42:52.019Z</time></trkpt><trkpt lat="44.0037667" lon="11.95091"><ele>350.0</ele><time>2026-04-12T12:42:53.019Z</time></trkpt><trkpt lat="44.0038383" lon="11.950915"><ele>350.0</ele><time>2026-04-12T12:42:54.019Z</time></trkpt><trkpt lat="44.00391" lon="11.95089"><ele>347.5</ele><time>2026-04-12T12:42:55.019Z</time></trkpt><trkpt lat="44.003975" lon="11.9508383"><ele>345.0</ele><time>2026-04-12T12:42:56.019Z</time></trkpt><trkpt lat="44.00403" lon="11.9507667"><ele>342.5</ele><time>2026-04-12T12:42:57.019Z</time></trkpt><trkpt lat="44.0040833" lon="11.950695"><ele>340.0</ele><time>2026-04-12T12:42:58.019Z</time></trkpt><trkpt lat="44.0041433" lon="11.9506267"><ele>337.5</ele><time>2026-04-12T12:42:59.019Z</time></trkpt><trkpt lat="44.0042033" lon="11.95056"><ele>335.0</ele><time>2026-04-12T12:43:00.019Z</time></trkpt><trkpt lat="44.00426" lon="11.9504967"><ele>333.0</ele><time>2026-04-12T12:43:01.019Z</time></trkpt><trkpt lat="44.004305" lon="11.9504233"><ele>331.0</ele><time>2026-04-12T12:43:02.02Z</time></trkpt><trkpt lat="44.0043383" lon="11.9503367"><ele>329.0</ele><time>2026-04-12T12:43:03.019Z</time></trkpt><trkpt lat="44.004365" lon="11.95025"><ele>327.0</ele><time>2026-04-12T12:43:04.02Z</time></trkpt><trkpt lat="44.0043883" lon="11.9501667"><ele>325.0</ele><time>2026-04-12T12:43:05.019Z</time></trkpt><trkpt lat="44.0043983" lon="11.9500317"><ele>323.0</ele><time>2026-04-12T12:43:07.019Z</time></trkpt><trkpt lat="44.00432" lon="11.949935"><ele>323.0</ele><time>2026-04-12T12:43:09.02Z</time></trkpt><trkpt lat="44.0042583" lon="11.949915"><ele>323.0</ele><time>2026-04-12T12:43:10.019Z</time></trkpt><trkpt lat="44.0041883" lon="11.949905"><ele>323.0</ele><time>2026-04-12T12:43:11.019Z</time></trkpt><trkpt lat="44.004115" lon="11.9498867"><ele>323.0</ele><time>2026-04-12T12:43:12.019Z</time></trkpt><trkpt lat="44.004035" lon="11.94984"><ele>323.0</ele><time>2026-04-12T12:43:13.019Z</time></trkpt><trkpt lat="44.0039633" lon="11.9497917"><ele>323.0</ele><time>2026-04-12T12:43:14.02Z</time></trkpt><trkpt lat="44.0038917" lon="11.9497433"><ele>323.00000000000006</ele><time>2026-04-12T12:43:15.019Z</time></trkpt><trkpt lat="44.0038233" lon="11.9497033"><ele>323.0</ele><time>2026-04-12T12:43:16.02Z</time></trkpt><trkpt lat="44.00376" lon="11.9496533"><ele>323.0</ele><time>2026-04-12T12:43:17.02Z</time></trkpt><trkpt lat="44.0037" lon="11.9496033"><ele>323.0</ele><time>2026-04-12T12:43:18.019Z</time></trkpt><trkpt lat="44.00364" lon="11.949545"><ele>323.0</ele><time>2026-04-12T12:43:19.02Z</time></trkpt><trkpt lat="44.0035917" lon="11.94948"><ele>323.00000000000006</ele><time>2026-04-12T12:43:20.019Z</time></trkpt><trkpt lat="44.0035533" lon="11.94941"><ele>323.0</ele><time>2026-04-12T12:43:21.02Z</time></trkpt><trkpt lat="44.0035667" lon="11.9492383"><ele>322.8571428571429</ele><time>2026-04-12T12:43:23.019Z</time></trkpt><trkpt lat="44.0035967" lon="11.9491433"><ele>322.7142857142857</ele><time>2026-04-12T12:43:24.02Z</time></trkpt><trkpt lat="44.0036217" lon="11.949045"><ele>322.57142857142856</ele><time>2026-04-12T12:43:25.019Z</time></trkpt><trkpt lat="44.003645" lon="11.9489483"><ele>322.42857142857144</ele><time>2026-04-12T12:43:26.019Z</time></trkpt><trkpt lat="44.0036717" lon="11.9488567"><ele>322.2857142857143</ele><time>2026-04-12T12:43:27.019Z</time></trkpt><trkpt lat="44.0036933" lon="11.948765"><ele>322.14285714285717</ele><time>2026-04-12T12:43:28.019Z</time></trkpt><trkpt lat="44.0037033" lon="11.9486767"><ele>322.0</ele><time>2026-04-12T12:43:29.019Z</time></trkpt><trkpt lat="44.0036967" lon="11.9485883"><ele>322.0</ele><time>2026-04-12T12:43:30.019Z</time></trkpt><trkpt lat="44.0036567" lon="11.9484383"><ele>322.0</ele><time>2026-04-12T12:43:32.019Z</time></trkpt><trkpt lat="44.00368" lon="11.94835"><ele>322.0</ele><time>2026-04-12T12:43:34.019Z</time></trkpt><trkpt lat="44.00377" lon="11.9484133"><ele>322.0</ele><time>2026-04-12T12:43:36.019Z</time></trkpt><trkpt lat="44.00381" lon="11.948495"><ele>322.0</ele><time>2026-04-12T12:43:37.019Z</time></trkpt><trkpt lat="44.00384" lon="11.9485917"><ele>322.0</ele><time>2026-04-12T12:43:38.019Z</time></trkpt><trkpt lat="44.0038667" lon="11.9486983"><ele>322.0</ele><time>2026-04-12T12:43:39.02Z</time></trkpt><trkpt lat="44.0038667" lon="11.94881"><ele>322.0</ele><time>2026-04-12T12:43:40.02Z</time></trkpt><trkpt lat="44.0038617" lon="11.9489233"><ele>322.0</ele><time>2026-04-12T12:43:41.019Z</time></trkpt><trkpt lat="44.00386" lon="11.94903"><ele>322.0</ele><time>2026-04-12T12:43:42.019Z</time></trkpt><trkpt lat="44.0038567" lon="11.9491233"><ele>322.0</ele><time>2026-04-12T12:43:43.019Z</time></trkpt><trkpt lat="44.0039033" lon="11.94926"><ele>322.0</ele><time>2026-04-12T12:43:45.02Z</time></trkpt><trkpt lat="44.00403" lon="11.949285"><ele>322.20000000000005</ele><time>2026-04-12T12:43:47.019Z</time></trkpt><trkpt lat="44.0041167" lon="11.9492533"><ele>322.4</ele><time>2026-04-12T12:43:48.019Z</time></trkpt><trkpt lat="44.00421" lon="11.9491933"><ele>322.6</ele><time>2026-04-12T12:43:49.019Z</time></trkpt><trkpt lat="44.0042883" lon="11.94912"><ele>322.79999999999995</ele><time>2026-04-12T12:43:50.019Z</time></trkpt><trkpt lat="44.0043583" lon="11.9490267"><ele>323.0</ele><time>2026-04-12T12:43:51.019Z</time></trkpt><trkpt lat="44.004425" lon="11.94894"><ele>318.5</ele><time>2026-04-12T12:43:52.019Z</time></trkpt><trkpt lat="44.0044883" lon="11.948865"><ele>314.0</ele><time>2026-04-12T12:43:53.019Z</time></trkpt><trkpt lat="44.004555" lon="11.9488283"><ele>309.5</ele><time>2026-04-12T12:43:54.019Z</time></trkpt><trkpt lat="44.00464" lon="11.9488317"><ele>305.0</ele><time>2026-04-12T12:43:55.019Z</time></trkpt><trkpt lat="44.0047333" lon="11.9488633"><ele>300.5</ele><time>2026-04-12T12:43:56.019Z</time></trkpt><trkpt lat="44.00482" lon="11.9488883"><ele>296.0</ele><time>2026-04-12T12:43:57.019Z</time></trkpt><trkpt lat="44.0049167" lon="11.9489067"><ele>293.0</ele><time>2026-04-12T12:43:58.019Z</time></trkpt><trkpt lat="44.0050133" lon="11.9489233"><ele>290.0</ele><time>2026-04-12T12:43:59.019Z</time></trkpt><trkpt lat="44.0051083" lon="11.9489317"><ele>287.0</ele><time>2026-04-12T12:44:00.019Z</time></trkpt><trkpt lat="44.0051983" lon="11.94893"><ele>284.0</ele><time>2026-04-12T12:44:01.019Z</time></trkpt><trkpt lat="44.0052917" lon="11.9489333"><ele>281.0</ele><time>2026-04-12T12:44:02.018Z</time></trkpt><trkpt lat="44.005375" lon="11.9489383"><ele>281.0</ele><time>2026-04-12T12:44:03.018Z</time></trkpt><trkpt lat="44.0054467" lon="11.948945"><ele>281.0</ele><time>2026-04-12T12:44:04.018Z</time></trkpt><trkpt lat="44.00555" lon="11.9489267"><ele>281.0</ele><time>2026-04-12T12:44:06.018Z</time></trkpt><trkpt lat="44.0055767" lon="11.948835"><ele>281.0</ele><time>2026-04-12T12:44:08.019Z</time></trkpt><trkpt lat="44.0054833" lon="11.9487533"><ele>281.0</ele><time>2026-04-12T12:44:10.019Z</time></trkpt><trkpt lat="44.00538" lon="11.9486917"><ele>281.0</ele><time>2026-04-12T12:44:12.018Z</time></trkpt><trkpt lat="44.0053283" lon="11.9485867"><ele>281.0</ele><time>2026-04-12T12:44:14.018Z</time></trkpt><trkpt lat="44.0054033" lon="11.9484633"><ele>281.0</ele><time>2026-04-12T12:44:16.019Z</time></trkpt><trkpt lat="44.00547" lon="11.9484233"><ele>281.0</ele><time>2026-04-12T12:44:17.018Z</time></trkpt><trkpt lat="44.0055383" lon="11.9484"><ele>281.0</ele><time>2026-04-12T12:44:18.018Z</time></trkpt><trkpt lat="44.0056433" lon="11.94837"><ele>278.0</ele><time>2026-04-12T12:44:20.018Z</time></trkpt><trkpt lat="44.0057283" lon="11.9483483"><ele>275.0</ele><time>2026-04-12T12:44:22.018Z</time></trkpt><trkpt lat="44.0058217" lon="11.9482967"><ele>272.0</ele><time>2026-04-12T12:44:24.018Z</time></trkpt><trkpt lat="44.0059167" lon="11.94821"><ele>269.0</ele><time>2026-04-12T12:44:26.018Z</time></trkpt><trkpt lat="44.00604" lon="11.9482017"><ele>266.0</ele><time>2026-04-12T12:44:28.018Z</time></trkpt><trkpt lat="44.0061483" lon="11.9482767"><ele>265.83333333333337</ele><time>2026-04-12T12:44:30.018Z</time></trkpt><trkpt lat="44.00624" lon="11.94837"><ele>265.6666666666667</ele><time>2026-04-12T12:44:32.018Z</time></trkpt><trkpt lat="44.006295" lon="11.9484283"><ele>265.5</ele><time>2026-04-12T12:44:33.018Z</time></trkpt><trkpt lat="44.00635" lon="11.94849"><ele>265.3333333333333</ele><time>2026-04-12T12:44:34.018Z</time></trkpt><trkpt lat="44.00641" lon="11.9485517"><ele>265.16666666666663</ele><time>2026-04-12T12:44:35.018Z</time></trkpt><trkpt lat="44.0064667" lon="11.9486067"><ele>265.0</ele><time>2026-04-12T12:44:36.019Z</time></trkpt><trkpt lat="44.0065633" lon="11.94866"><ele>265.0</ele><time>2026-04-12T12:44:38.018Z</time></trkpt><trkpt lat="44.0066517" lon="11.9486233"><ele>265.0</ele><time>2026-04-12T12:44:40.018Z</time></trkpt><trkpt lat="44.006695" lon="11.948455"><ele>265.0</ele><time>2026-04-12T12:44:42.018Z</time></trkpt><trkpt lat="44.0066833" lon="11.94834"><ele>265.0</ele><time>2026-04-12T12:44:43.018Z</time></trkpt><trkpt lat="44.0066467" lon="11.9482267"><ele>265.0</ele><time>2026-04-12T12:44:44.018Z</time></trkpt><trkpt lat="44.0066133" lon="11.9481267"><ele>262.6</ele><time>2026-04-12T12:44:45.018Z</time></trkpt><trkpt lat="44.006585" lon="11.9480467"><ele>260.2</ele><time>2026-04-12T12:44:46.018Z</time></trkpt><trkpt lat="44.0065467" lon="11.947885"><ele>257.8</ele><time>2026-04-12T12:44:48.018Z</time></trkpt><trkpt lat="44.0065183" lon="11.9477133"><ele>255.4</ele><time>2026-04-12T12:44:50.018Z</time></trkpt><trkpt lat="44.006505" lon="11.9476217"><ele>253.0</ele><time>2026-04-12T12:44:51.018Z</time></trkpt><trkpt lat="44.0064917" lon="11.9475267"><ele>251.14285714285717</ele><time>2026-04-12T12:44:52.018Z</time></trkpt><trkpt lat="44.006485" lon="11.94743"><ele>249.28571428571428</ele><time>2026-04-12T12:44:53.018Z</time></trkpt><trkpt lat="44.0064767" lon="11.9473333"><ele>247.42857142857144</ele><time>2026-04-12T12:44:54.018Z</time></trkpt><trkpt lat="44.0064733" lon="11.9472333"><ele>245.57142857142858</ele><time>2026-04-12T12:44:55.018Z</time></trkpt><trkpt lat="44.00647" lon="11.9471383"><ele>243.71428571428572</ele><time>2026-04-12T12:44:56.018Z</time></trkpt><trkpt lat="44.0064717" lon="11.947045"><ele>241.85714285714286</ele><time>2026-04-12T12:44:57.018Z</time></trkpt><trkpt lat="44.0064783" lon="11.94695"><ele>240.0</ele><time>2026-04-12T12:44:58.018Z</time></trkpt><trkpt lat="44.0064867" lon="11.9468617"><ele>239.16666666666666</ele><time>2026-04-12T12:44:59.018Z</time></trkpt><trkpt lat="44.0064983" lon="11.9467"><ele>238.33333333333331</ele><time>2026-04-12T12:45:01.018Z</time></trkpt><trkpt lat="44.0065217" lon="11.946615"><ele>237.5</ele><time>2026-04-12T12:45:02.019Z</time></trkpt><trkpt lat="44.0065467" lon="11.946525"><ele>236.66666666666666</ele><time>2026-04-12T12:45:03.018Z</time></trkpt><trkpt lat="44.00658" lon="11.9464383"><ele>235.83333333333331</ele><time>2026-04-12T12:45:04.019Z</time></trkpt><trkpt lat="44.00662" lon="11.9463667"><ele>235.0</ele><time>2026-04-12T12:45:05.018Z</time></trkpt><trkpt lat="44.0066633" lon="11.9462983"><ele>233.42857142857142</ele><time>2026-04-12T12:45:06.019Z</time></trkpt><trkpt lat="44.0067133" lon="11.9462333"><ele>231.85714285714283</ele><time>2026-04-12T12:45:07.018Z</time></trkpt><trkpt lat="44.0067683" lon="11.9461717"><ele>230.28571428571428</ele><time>2026-04-12T12:45:08.018Z</time></trkpt><trkpt lat="44.0068317" lon="11.9461167"><ele>228.71428571428572</ele><time>2026-04-12T12:45:09.018Z</time></trkpt><trkpt lat="44.0068983" lon="11.9460733"><ele>227.14285714285714</ele><time>2026-04-12T12:45:10.019Z</time></trkpt><trkpt lat="44.0069633" lon="11.94602"><ele>225.57142857142856</ele><time>2026-04-12T12:45:11.019Z</time></trkpt><trkpt lat="44.0070233" lon="11.94597"><ele>224.0</ele><time>2026-04-12T12:45:12.019Z</time></trkpt><trkpt lat="44.007085" lon="11.9459383"><ele>224.00000000000003</ele><time>2026-04-12T12:45:13.019Z</time></trkpt><trkpt lat="44.0071917" lon="11.9458733"><ele>224.0</ele><time>2026-04-12T12:45:15.019Z</time></trkpt><trkpt lat="44.00726" lon="11.9459"><ele>224.0</ele><time>2026-04-12T12:45:17.018Z</time></trkpt><trkpt lat="44.0073033" lon="11.946015"><ele>224.0</ele><time>2026-04-12T12:45:19.019Z</time></trkpt><trkpt lat="44.00732" lon="11.94612"><ele>224.00000000000003</ele><time>2026-04-12T12:45:20.018Z</time></trkpt><trkpt lat="44.0073383" lon="11.946235"><ele>224.0</ele><time>2026-04-12T12:45:21.018Z</time></trkpt><trkpt lat="44.007355" lon="11.946365"><ele>224.0</ele><time>2026-04-12T12:45:22.019Z</time></trkpt><trkpt lat="44.0073783" lon="11.9465033"><ele>223.99999999999997</ele><time>2026-04-12T12:45:23.018Z</time></trkpt><trkpt lat="44.0074033" lon="11.94665"><ele>223.99999999999997</ele><time>2026-04-12T12:45:24.018Z</time></trkpt><trkpt lat="44.0074233" lon="11.946795"><ele>224.0</ele><time>2026-04-12T12:45:25.018Z</time></trkpt><trkpt lat="44.0074467" lon="11.9469417"><ele>224.0</ele><time>2026-04-12T12:45:26.018Z</time></trkpt><trkpt lat="44.0074733" lon="11.9470933"><ele>223.79999999999998</ele><time>2026-04-12T12:45:27.018Z</time></trkpt><trkpt lat="44.0075" lon="11.9472383"><ele>223.59999999999997</ele><time>2026-04-12T12:45:28.018Z</time></trkpt><trkpt lat="44.0075267" lon="11.9473817"><ele>223.4</ele><time>2026-04-12T12:45:29.019Z</time></trkpt><trkpt lat="44.0075483" lon="11.9475183"><ele>223.2</ele><time>2026-04-12T12:45:30.018Z</time></trkpt><trkpt lat="44.0075683" lon="11.9476517"><ele>223.0</ele><time>2026-04-12T12:45:31.019Z</time></trkpt><trkpt lat="44.0075883" lon="11.9477833"><ele>223.0</ele><time>2026-04-12T12:45:32.018Z</time></trkpt><trkpt lat="44.0076083" lon="11.9479167"><ele>223.0</ele><time>2026-04-12T12:45:33.018Z</time></trkpt><trkpt lat="44.0076267" lon="11.948045"><ele>223.0</ele><time>2026-04-12T12:45:34.018Z</time></trkpt><trkpt lat="44.0076433" lon="11.9481783"><ele>223.0</ele><time>2026-04-12T12:45:35.018Z</time></trkpt><trkpt lat="44.0076667" lon="11.94831"><ele>223.0</ele><time>2026-04-12T12:45:36.018Z</time></trkpt><trkpt lat="44.0076917" lon="11.9484417"><ele>223.2</ele><time>2026-04-12T12:45:37.019Z</time></trkpt><trkpt lat="44.0077183" lon="11.9485783"><ele>223.4</ele><time>2026-04-12T12:45:38.018Z</time></trkpt><trkpt lat="44.0077483" lon="11.948715"><ele>223.59999999999997</ele><time>2026-04-12T12:45:39.019Z</time></trkpt><trkpt lat="44.0077817" lon="11.9488467"><ele>223.79999999999998</ele><time>2026-04-12T12:45:40.018Z</time></trkpt><trkpt lat="44.00781" lon="11.9489717"><ele>224.0</ele><time>2026-04-12T12:45:41.018Z</time></trkpt><trkpt lat="44.0078417" lon="11.9490967"><ele>224.2</ele><time>2026-04-12T12:45:42.018Z</time></trkpt><trkpt lat="44.007875" lon="11.9492217"><ele>224.39999999999998</ele><time>2026-04-12T12:45:43.018Z</time></trkpt><trkpt lat="44.0079017" lon="11.9493467"><ele>224.6</ele><time>2026-04-12T12:45:44.018Z</time></trkpt><trkpt lat="44.0079333" lon="11.9494717"><ele>224.8</ele><time>2026-04-12T12:45:45.019Z</time></trkpt><trkpt lat="44.0079667" lon="11.9495983"><ele>225.0</ele><time>2026-04-12T12:45:46.018Z</time></trkpt><trkpt lat="44.0080083" lon="11.949725"><ele>225.0</ele><time>2026-04-12T12:45:47.018Z</time></trkpt><trkpt lat="44.00805" lon="11.94985"><ele>225.0</ele><time>2026-04-12T12:45:48.018Z</time></trkpt><trkpt lat="44.0080967" lon="11.9499717"><ele>225.0</ele><time>2026-04-12T12:45:49.018Z</time></trkpt><trkpt lat="44.008145" lon="11.9500933"><ele>225.0</ele><time>2026-04-12T12:45:50.018Z</time></trkpt><trkpt lat="44.0081967" lon="11.95021"><ele>225.0</ele><time>2026-04-12T12:45:51.018Z</time></trkpt><trkpt lat="44.00825" lon="11.9503267"><ele>225.2</ele><time>2026-04-12T12:45:52.018Z</time></trkpt><trkpt lat="44.0083083" lon="11.95044"><ele>225.4</ele><time>2026-04-12T12:45:53.018Z</time></trkpt><trkpt lat="44.008365" lon="11.9505567"><ele>225.60000000000002</ele><time>2026-04-12T12:45:54.018Z</time></trkpt><trkpt lat="44.0084183" lon="11.9506783"><ele>225.8</ele><time>2026-04-12T12:45:55.018Z</time></trkpt><trkpt lat="44.008475" lon="11.950805"><ele>226.0</ele><time>2026-04-12T12:45:56.018Z</time></trkpt><trkpt lat="44.008535" lon="11.9509267"><ele>225.4</ele><time>2026-04-12T12:45:57.018Z</time></trkpt><trkpt lat="44.008595" lon="11.9510367"><ele>224.8</ele><time>2026-04-12T12:45:58.019Z</time></trkpt><trkpt lat="44.008665" lon="11.9511433"><ele>224.20000000000002</ele><time>2026-04-12T12:45:59.019Z</time></trkpt><trkpt lat="44.0087433" lon="11.9512417"><ele>223.60000000000002</ele><time>2026-04-12T12:46:00.018Z</time></trkpt><trkpt lat="44.008815" lon="11.9513433"><ele>223.0</ele><time>2026-04-12T12:46:01.018Z</time></trkpt><trkpt lat="44.00888" lon="11.95143"><ele>222.99999999999997</ele><time>2026-04-12T12:46:02.018Z</time></trkpt><trkpt lat="44.0089383" lon="11.951505"><ele>223.0</ele><time>2026-04-12T12:46:03.019Z</time></trkpt><trkpt lat="44.00898" lon="11.9515817"><ele>223.0</ele><time>2026-04-12T12:46:04.018Z</time></trkpt><trkpt lat="44.00906" lon="11.9517083"><ele>223.0</ele><time>2026-04-12T12:46:06.018Z</time></trkpt><trkpt lat="44.0091183" lon="11.9518133"><ele>222.99999999999997</ele><time>2026-04-12T12:46:08.018Z</time></trkpt><trkpt lat="44.0091667" lon="11.951885"><ele>223.0</ele><time>2026-04-12T12:46:11.018Z</time></trkpt><trkpt lat="44.0091783" lon="11.95179"><ele>223.0</ele><time>2026-04-12T12:46:14.018Z</time></trkpt><trkpt lat="44.0090983" lon="11.95169"><ele>223.0</ele><time>2026-04-12T12:46:16.018Z</time></trkpt><trkpt lat="44.009015" lon="11.951585"><ele>223.0</ele><time>2026-04-12T12:46:18.018Z</time></trkpt><trkpt lat="44.00898" lon="11.9514717"><ele>223.0</ele><time>2026-04-12T12:46:20.018Z</time></trkpt><trkpt lat="44.0090483" lon="11.95135"><ele>223.0</ele><time>2026-04-12T12:46:22.018Z</time></trkpt><trkpt lat="44.0091117" lon="11.9513083"><ele>221.8</ele><time>2026-04-12T12:46:23.018Z</time></trkpt><trkpt lat="44.00919" lon="11.9512683"><ele>220.60000000000002</ele><time>2026-04-12T12:46:24.018Z</time></trkpt><trkpt lat="44.0092683" lon="11.9512117"><ele>219.39999999999998</ele><time>2026-04-12T12:46:25.018Z</time></trkpt><trkpt lat="44.0093517" lon="11.9511533"><ele>218.2</ele><time>2026-04-12T12:46:26.019Z</time></trkpt><trkpt lat="44.0094367" lon="11.9510867"><ele>217.0</ele><time>2026-04-12T12:46:27.018Z</time></trkpt><trkpt lat="44.00952" lon="11.9510233"><ele>216.99999999999997</ele><time>2026-04-12T12:46:28.018Z</time></trkpt><trkpt lat="44.009605" lon="11.9509633"><ele>217.0</ele><time>2026-04-12T12:46:29.018Z</time></trkpt><trkpt lat="44.00969" lon="11.950905"><ele>217.0</ele><time>2026-04-12T12:46:30.018Z</time></trkpt><trkpt lat="44.00976" lon="11.9508617"><ele>217.0</ele><time>2026-04-12T12:46:31.018Z</time></trkpt><trkpt lat="44.0098317" lon="11.9508317"><ele>216.99999999999997</ele><time>2026-04-12T12:46:32.018Z</time></trkpt><trkpt lat="44.009895" lon="11.950835"><ele>217.0</ele><time>2026-04-12T12:46:33.018Z</time></trkpt><trkpt lat="44.0099467" lon="11.9508883"><ele>217.0</ele><time>2026-04-12T12:46:34.019Z</time></trkpt><trkpt lat="44.00999" lon="11.95099"><ele>217.0</ele><time>2026-04-12T12:46:35.019Z</time></trkpt><trkpt lat="44.010035" lon="11.9511217"><ele>217.0</ele><time>2026-04-12T12:46:36.019Z</time></trkpt><trkpt lat="44.0100917" lon="11.95127"><ele>217.0</ele><time>2026-04-12T12:46:37.019Z</time></trkpt><trkpt lat="44.010145" lon="11.95142"><ele>217.0</ele><time>2026-04-12T12:46:38.019Z</time></trkpt><trkpt lat="44.0101983" lon="11.95157"><ele>216.0</ele><time>2026-04-12T12:46:39.018Z</time></trkpt><trkpt lat="44.0102517" lon="11.951705"><ele>215.0</ele><time>2026-04-12T12:46:40.018Z</time></trkpt><trkpt lat="44.01031" lon="11.9518367"><ele>214.0</ele><time>2026-04-12T12:46:41.018Z</time></trkpt><trkpt lat="44.0103683" lon="11.9519717"><ele>213.0</ele><time>2026-04-12T12:46:42.018Z</time></trkpt><trkpt lat="44.0104283" lon="11.9521133"><ele>213.0</ele><time>2026-04-12T12:46:43.018Z</time></trkpt><trkpt lat="44.0104883" lon="11.9522533"><ele>213.0</ele><time>2026-04-12T12:46:44.018Z</time></trkpt><trkpt lat="44.0105433" lon="11.9523967"><ele>213.0</ele><time>2026-04-12T12:46:45.019Z</time></trkpt><trkpt lat="44.0105983" lon="11.9525433"><ele>213.0</ele><time>2026-04-12T12:46:46.018Z</time></trkpt><trkpt lat="44.010655" lon="11.9526883"><ele>214.0</ele><time>2026-04-12T12:46:47.018Z</time></trkpt><trkpt lat="44.0107133" lon="11.95283"><ele>215.0</ele><time>2026-04-12T12:46:48.018Z</time></trkpt><trkpt lat="44.0107733" lon="11.9529683"><ele>216.0</ele><time>2026-04-12T12:46:49.019Z</time></trkpt><trkpt lat="44.0108317" lon="11.9531117"><ele>217.0</ele><time>2026-04-12T12:46:50.018Z</time></trkpt><trkpt lat="44.0108867" lon="11.95325"><ele>213.8</ele><time>2026-04-12T12:46:51.018Z</time></trkpt><trkpt lat="44.0109433" lon="11.953385"><ele>210.6</ele><time>2026-04-12T12:46:52.018Z</time></trkpt><trkpt lat="44.010995" lon="11.953515"><ele>207.4</ele><time>2026-04-12T12:46:53.018Z</time></trkpt><trkpt lat="44.0110383" lon="11.9536367"><ele>204.20000000000002</ele><time>2026-04-12T12:46:54.019Z</time></trkpt><trkpt lat="44.011085" lon="11.9537267"><ele>201.0</ele><time>2026-04-12T12:46:55.019Z</time></trkpt><trkpt lat="44.0111833" lon="11.9538117"><ele>201.0</ele><time>2026-04-12T12:46:57.018Z</time></trkpt><trkpt lat="44.0112667" lon="11.9538033"><ele>201.0</ele><time>2026-04-12T12:46:58.018Z</time></trkpt><trkpt lat="44.011345" lon="11.9537667"><ele>201.0</ele><time>2026-04-12T12:46:59.018Z</time></trkpt><trkpt lat="44.01142" lon="11.9537083"><ele>201.0</ele><time>2026-04-12T12:47:00.018Z</time></trkpt><trkpt lat="44.0114933" lon="11.9536467"><ele>201.0</ele><time>2026-04-12T12:47:01.018Z</time></trkpt><trkpt lat="44.0115633" lon="11.9536"><ele>201.0</ele><time>2026-04-12T12:47:02.018Z</time></trkpt><trkpt lat="44.0116217" lon="11.953565"><ele>198.8</ele><time>2026-04-12T12:47:03.018Z</time></trkpt><trkpt lat="44.01172" lon="11.9535367"><ele>196.60000000000002</ele><time>2026-04-12T12:47:05.019Z</time></trkpt><trkpt lat="44.0117867" lon="11.953555"><ele>194.4</ele><time>2026-04-12T12:47:07.018Z</time></trkpt><trkpt lat="44.0118583" lon="11.953685"><ele>192.2</ele><time>2026-04-12T12:47:09.018Z</time></trkpt><trkpt lat="44.0118883" lon="11.9537983"><ele>190.0</ele><time>2026-04-12T12:47:10.018Z</time></trkpt><trkpt lat="44.0119267" lon="11.9539183"><ele>190.0</ele><time>2026-04-12T12:47:11.018Z</time></trkpt><trkpt lat="44.0119617" lon="11.9540483"><ele>190.0</ele><time>2026-04-12T12:47:12.018Z</time></trkpt><trkpt lat="44.0120017" lon="11.95418"><ele>190.0</ele><time>2026-04-12T12:47:13.018Z</time></trkpt><trkpt lat="44.0120383" lon="11.9543267"><ele>190.0</ele><time>2026-04-12T12:47:14.018Z</time></trkpt><trkpt lat="44.012075" lon="11.9544867"><ele>190.0</ele><time>2026-04-12T12:47:15.019Z</time></trkpt><trkpt lat="44.0121133" lon="11.95465"><ele>190.75</ele><time>2026-04-12T12:47:16.018Z</time></trkpt><trkpt lat="44.0121533" lon="11.9548183"><ele>191.5</ele><time>2026-04-12T12:47:17.018Z</time></trkpt><trkpt lat="44.0121917" lon="11.954995"><ele>192.25</ele><time>2026-04-12T12:47:18.019Z</time></trkpt><trkpt lat="44.0122233" lon="11.9551733"><ele>193.0</ele><time>2026-04-12T12:47:19.019Z</time></trkpt><trkpt lat="44.0122517" lon="11.9553467"><ele>193.0</ele><time>2026-04-12T12:47:20.019Z</time></trkpt><trkpt lat="44.0122833" lon="11.95552"><ele>193.0</ele><time>2026-04-12T12:47:21.018Z</time></trkpt><trkpt lat="44.0123183" lon="11.9557017"><ele>193.0</ele><time>2026-04-12T12:47:22.019Z</time></trkpt><trkpt lat="44.0123483" lon="11.955885"><ele>193.0</ele><time>2026-04-12T12:47:23.018Z</time></trkpt><trkpt lat="44.0123767" lon="11.9560683"><ele>193.25</ele><time>2026-04-12T12:47:24.018Z</time></trkpt><trkpt lat="44.0124083" lon="11.9562533"><ele>193.5</ele><time>2026-04-12T12:47:25.018Z</time></trkpt><trkpt lat="44.012435" lon="11.956435"><ele>193.75</ele><time>2026-04-12T12:47:26.018Z</time></trkpt><trkpt lat="44.0124617" lon="11.9566217"><ele>194.0</ele><time>2026-04-12T12:47:27.018Z</time></trkpt><trkpt lat="44.01249" lon="11.95681"><ele>191.75</ele><time>2026-04-12T12:47:28.018Z</time></trkpt><trkpt lat="44.0125183" lon="11.957"><ele>189.5</ele><time>2026-04-12T12:47:29.019Z</time></trkpt><trkpt lat="44.0125467" lon="11.95719"><ele>187.25</ele><time>2026-04-12T12:47:30.018Z</time></trkpt><trkpt lat="44.012575" lon="11.957385"><ele>185.0</ele><time>2026-04-12T12:47:31.019Z</time></trkpt><trkpt lat="44.0126017" lon="11.9575767"><ele>185.0</ele><time>2026-04-12T12:47:32.018Z</time></trkpt><trkpt lat="44.0126267" lon="11.95777"><ele>185.0</ele><time>2026-04-12T12:47:33.018Z</time></trkpt><trkpt lat="44.0126533" lon="11.9579617"><ele>185.0</ele><time>2026-04-12T12:47:34.018Z</time></trkpt><trkpt lat="44.0126817" lon="11.95816"><ele>185.0</ele><time>2026-04-12T12:47:35.019Z</time></trkpt><trkpt lat="44.0127133" lon="11.9583533"><ele>185.75</ele><time>2026-04-12T12:47:36.019Z</time></trkpt><trkpt lat="44.0127433" lon="11.9585483"><ele>186.5</ele><time>2026-04-12T12:47:37.018Z</time></trkpt><trkpt lat="44.0127717" lon="11.958745"><ele>187.25</ele><time>2026-04-12T12:47:38.018Z</time></trkpt><trkpt lat="44.0128" lon="11.9589383"><ele>188.0</ele><time>2026-04-12T12:47:39.018Z</time></trkpt><trkpt lat="44.0128317" lon="11.9591367"><ele>189.25</ele><time>2026-04-12T12:47:40.019Z</time></trkpt><trkpt lat="44.01286" lon="11.9593333"><ele>190.5</ele><time>2026-04-12T12:47:41.018Z</time></trkpt><trkpt lat="44.0128883" lon="11.9595283"><ele>191.75</ele><time>2026-04-12T12:47:42.018Z</time></trkpt><trkpt lat="44.0129233" lon="11.9597233"><ele>193.0</ele><time>2026-04-12T12:47:43.019Z</time></trkpt><trkpt lat="44.01295" lon="11.959915"><ele>195.25</ele><time>2026-04-12T12:47:44.018Z</time></trkpt><trkpt lat="44.0129783" lon="11.9601067"><ele>197.5</ele><time>2026-04-12T12:47:45.018Z</time></trkpt><trkpt lat="44.013005" lon="11.960295"><ele>199.75</ele><time>2026-04-12T12:47:46.018Z</time></trkpt><trkpt lat="44.0130283" lon="11.9604767"><ele>202.0</ele><time>2026-04-12T12:47:47.018Z</time></trkpt><trkpt lat="44.0130583" lon="11.9606567"><ele>202.0</ele><time>2026-04-12T12:47:48.018Z</time></trkpt><trkpt lat="44.0130917" lon="11.960835"><ele>202.0</ele><time>2026-04-12T12:47:49.018Z</time></trkpt><trkpt lat="44.0131317" lon="11.9610067"><ele>202.0</ele><time>2026-04-12T12:47:50.018Z</time></trkpt><trkpt lat="44.013185" lon="11.961165"><ele>202.0</ele><time>2026-04-12T12:47:51.018Z</time></trkpt><trkpt lat="44.013245" lon="11.9613217"><ele>203.5</ele><time>2026-04-12T12:47:52.018Z</time></trkpt><trkpt lat="44.0133183" lon="11.961475"><ele>205.0</ele><time>2026-04-12T12:47:53.018Z</time></trkpt><trkpt lat="44.013385" lon="11.961625"><ele>206.5</ele><time>2026-04-12T12:47:54.018Z</time></trkpt><trkpt lat="44.0134583" lon="11.9617733"><ele>208.0</ele><time>2026-04-12T12:47:55.018Z</time></trkpt><trkpt lat="44.0135317" lon="11.9619283"><ele>207.75</ele><time>2026-04-12T12:47:56.018Z</time></trkpt><trkpt lat="44.0136133" lon="11.9620883"><ele>207.5</ele><time>2026-04-12T12:47:57.019Z</time></trkpt><trkpt lat="44.0136967" lon="11.962245"><ele>207.25</ele><time>2026-04-12T12:47:58.019Z</time></trkpt><trkpt lat="44.01378" lon="11.9624083"><ele>207.0</ele><time>2026-04-12T12:47:59.018Z</time></trkpt><trkpt lat="44.0138633" lon="11.9625717"><ele>207.0</ele><time>2026-04-12T12:48:00.018Z</time></trkpt><trkpt lat="44.0139517" lon="11.9627317"><ele>207.0</ele><time>2026-04-12T12:48:01.018Z</time></trkpt><trkpt lat="44.0140467" lon="11.962885"><ele>207.0</ele><time>2026-04-12T12:48:02.019Z</time></trkpt><trkpt lat="44.0141433" lon="11.963035"><ele>207.0</ele><time>2026-04-12T12:48:03.019Z</time></trkpt><trkpt lat="44.0142467" lon="11.9631717"><ele>204.5</ele><time>2026-04-12T12:48:04.018Z</time></trkpt><trkpt lat="44.0143533" lon="11.9632983"><ele>202.0</ele><time>2026-04-12T12:48:05.019Z</time></trkpt><trkpt lat="44.0144583" lon="11.9634283"><ele>199.5</ele><time>2026-04-12T12:48:06.018Z</time></trkpt><trkpt lat="44.0145667" lon="11.9635517"><ele>197.0</ele><time>2026-04-12T12:48:07.018Z</time></trkpt><trkpt lat="44.0146767" lon="11.9636717"><ele>197.0</ele><time>2026-04-12T12:48:08.018Z</time></trkpt><trkpt lat="44.0147783" lon="11.963805"><ele>197.0</ele><time>2026-04-12T12:48:09.018Z</time></trkpt><trkpt lat="44.0148833" lon="11.9639267"><ele>197.0</ele><time>2026-04-12T12:48:10.019Z</time></trkpt><trkpt lat="44.0149917" lon="11.9640517"><ele>197.0</ele><time>2026-04-12T12:48:11.018Z</time></trkpt><trkpt lat="44.0150983" lon="11.96418"><ele>194.0</ele><time>2026-04-12T12:48:12.018Z</time></trkpt><trkpt lat="44.0152" lon="11.964305"><ele>191.0</ele><time>2026-04-12T12:48:13.018Z</time></trkpt><trkpt lat="44.0153033" lon="11.9644317"><ele>188.0</ele><time>2026-04-12T12:48:14.018Z</time></trkpt><trkpt lat="44.015405" lon="11.964555"><ele>185.0</ele><time>2026-04-12T12:48:15.018Z</time></trkpt><trkpt lat="44.0155067" lon="11.9646783"><ele>185.0</ele><time>2026-04-12T12:48:16.018Z</time></trkpt><trkpt lat="44.015605" lon="11.9647983"><ele>185.0</ele><time>2026-04-12T12:48:17.019Z</time></trkpt><trkpt lat="44.0157" lon="11.96491"><ele>185.0</ele><time>2026-04-12T12:48:18.018Z</time></trkpt><trkpt lat="44.0157967" lon="11.9650233"><ele>185.0</ele><time>2026-04-12T12:48:19.019Z</time></trkpt><trkpt lat="44.0158933" lon="11.9651383"><ele>183.25</ele><time>2026-04-12T12:48:20.019Z</time></trkpt><trkpt lat="44.0159917" lon="11.965255"><ele>181.5</ele><time>2026-04-12T12:48:21.018Z</time></trkpt><trkpt lat="44.0160833" lon="11.9653733"><ele>179.75</ele><time>2026-04-12T12:48:22.017Z</time></trkpt><trkpt lat="44.01618" lon="11.9654933"><ele>178.0</ele><time>2026-04-12T12:48:23.017Z</time></trkpt><trkpt lat="44.016275" lon="11.9656183"><ele>178.0</ele><time>2026-04-12T12:48:24.018Z</time></trkpt><trkpt lat="44.0163617" lon="11.9657517"><ele>178.0</ele><time>2026-04-12T12:48:25.017Z</time></trkpt><trkpt lat="44.016445" lon="11.9659033"><ele>178.0</ele><time>2026-04-12T12:48:26.018Z</time></trkpt><trkpt lat="44.0165217" lon="11.96606"><ele>178.0</ele><time>2026-04-12T12:48:27.017Z</time></trkpt><trkpt lat="44.0165867" lon="11.9662233"><ele>179.25</ele><time>2026-04-12T12:48:28.017Z</time></trkpt><trkpt lat="44.0166517" lon="11.9663817"><ele>180.5</ele><time>2026-04-12T12:48:29.017Z</time></trkpt><trkpt lat="44.0167067" lon="11.9665517"><ele>181.75</ele><time>2026-04-12T12:48:30.017Z</time></trkpt><trkpt lat="44.016755" lon="11.9667217"><ele>183.0</ele><time>2026-04-12T12:48:31.017Z</time></trkpt><trkpt lat="44.0168017" lon="11.966895"><ele>185.0</ele><time>2026-04-12T12:48:32.017Z</time></trkpt><trkpt lat="44.0168467" lon="11.96707"><ele>187.0</ele><time>2026-04-12T12:48:33.017Z</time></trkpt><trkpt lat="44.0168933" lon="11.967245"><ele>189.0</ele><time>2026-04-12T12:48:34.017Z</time></trkpt><trkpt lat="44.0169417" lon="11.9674183"><ele>191.0</ele><time>2026-04-12T12:48:35.017Z</time></trkpt><trkpt lat="44.0169933" lon="11.9675883"><ele>192.75</ele><time>2026-04-12T12:48:36.018Z</time></trkpt><trkpt lat="44.0170467" lon="11.9677617"><ele>194.5</ele><time>2026-04-12T12:48:37.017Z</time></trkpt><trkpt lat="44.0171033" lon="11.967935"><ele>196.25</ele><time>2026-04-12T12:48:38.017Z</time></trkpt><trkpt lat="44.0171583" lon="11.9680983"><ele>198.0</ele><time>2026-04-12T12:48:39.017Z</time></trkpt><trkpt lat="44.01723" lon="11.968255"><ele>198.5</ele><time>2026-04-12T12:48:40.017Z</time></trkpt><trkpt lat="44.0172967" lon="11.9684133"><ele>199.0</ele><time>2026-04-12T12:48:41.017Z</time></trkpt><trkpt lat="44.0173717" lon="11.96857"><ele>199.5</ele><time>2026-04-12T12:48:42.017Z</time></trkpt><trkpt lat="44.017455" lon="11.9687233"><ele>200.0</ele><time>2026-04-12T12:48:43.017Z</time></trkpt><trkpt lat="44.0175467" lon="11.9688667"><ele>200.0</ele><time>2026-04-12T12:48:44.017Z</time></trkpt><trkpt lat="44.017725" lon="11.9691383"><ele>200.0</ele><time>2026-04-12T12:48:46.018Z</time></trkpt><trkpt lat="44.0179233" lon="11.9693933"><ele>200.0</ele><time>2026-04-12T12:48:48.017Z</time></trkpt><trkpt lat="44.0180267" lon="11.96951"><ele>200.0</ele><time>2026-04-12T12:48:49.017Z</time></trkpt><trkpt lat="44.01814" lon="11.9696167"><ele>200.0</ele><time>2026-04-12T12:48:50.017Z</time></trkpt><trkpt lat="44.01826" lon="11.969725"><ele>200.0</ele><time>2026-04-12T12:48:51.017Z</time></trkpt><trkpt lat="44.0183767" lon="11.9698383"><ele>203.66666666666669</ele><time>2026-04-12T12:48:52.017Z</time></trkpt><trkpt lat="44.018625" lon="11.9700383"><ele>207.33333333333331</ele><time>2026-04-12T12:48:54.018Z</time></trkpt><trkpt lat="44.0187433" lon="11.97014"><ele>211.0</ele><time>2026-04-12T12:48:55.017Z</time></trkpt><trkpt lat="44.0188567" lon="11.9702433"><ele>211.0</ele><time>2026-04-12T12:48:56.017Z</time></trkpt><trkpt lat="44.0189733" lon="11.970345"><ele>211.0</ele><time>2026-04-12T12:48:57.017Z</time></trkpt><trkpt lat="44.0190883" lon="11.9704483"><ele>211.0</ele><time>2026-04-12T12:48:58.017Z</time></trkpt><trkpt lat="44.0193217" lon="11.9706533"><ele>209.0</ele><time>2026-04-12T12:49:00.018Z</time></trkpt><trkpt lat="44.01954" lon="11.9708633"><ele>207.0</ele><time>2026-04-12T12:49:02.017Z</time></trkpt><trkpt lat="44.01965" lon="11.9709633"><ele>205.0</ele><time>2026-04-12T12:49:03.017Z</time></trkpt><trkpt lat="44.0197583" lon="11.9710633"><ele>205.0</ele><time>2026-04-12T12:49:04.017Z</time></trkpt><trkpt lat="44.019865" lon="11.9711617"><ele>205.0</ele><time>2026-04-12T12:49:05.018Z</time></trkpt><trkpt lat="44.019975" lon="11.9712617"><ele>205.0</ele><time>2026-04-12T12:49:06.017Z</time></trkpt><trkpt lat="44.0201917" lon="11.9714633"><ele>204.0</ele><time>2026-04-12T12:49:08.017Z</time></trkpt><trkpt lat="44.0203017" lon="11.971565"><ele>203.0</ele><time>2026-04-12T12:49:09.017Z</time></trkpt><trkpt lat="44.0204117" lon="11.971665"><ele>202.0</ele><time>2026-04-12T12:49:10.017Z</time></trkpt><trkpt lat="44.0205217" lon="11.9717717"><ele>201.0</ele><time>2026-04-12T12:49:11.017Z</time></trkpt><trkpt lat="44.0206333" lon="11.97188"><ele>201.0</ele><time>2026-04-12T12:49:12.017Z</time></trkpt><trkpt lat="44.0207483" lon="11.97199"><ele>201.0</ele><time>2026-04-12T12:49:13.018Z</time></trkpt><trkpt lat="44.0208617" lon="11.9720967"><ele>201.0</ele><time>2026-04-12T12:49:14.017Z</time></trkpt><trkpt lat="44.0209767" lon="11.9722"><ele>201.0</ele><time>2026-04-12T12:49:15.017Z</time></trkpt><trkpt lat="44.0210883" lon="11.97231"><ele>200.0</ele><time>2026-04-12T12:49:16.017Z</time></trkpt><trkpt lat="44.021205" lon="11.9724167"><ele>199.0</ele><time>2026-04-12T12:49:17.017Z</time></trkpt><trkpt lat="44.0214367" lon="11.9726267"><ele>198.0</ele><time>2026-04-12T12:49:19.018Z</time></trkpt><trkpt lat="44.0215533" lon="11.9727367"><ele>196.0</ele><time>2026-04-12T12:49:20.017Z</time></trkpt><trkpt lat="44.0216717" lon="11.9728467"><ele>194.0</ele><time>2026-04-12T12:49:21.018Z</time></trkpt><trkpt lat="44.0217933" lon="11.9729583"><ele>192.0</ele><time>2026-04-12T12:49:22.018Z</time></trkpt><trkpt lat="44.02204" lon="11.9731783"><ele>192.0</ele><time>2026-04-12T12:49:24.017Z</time></trkpt><trkpt lat="44.02216" lon="11.9732933"><ele>192.0</ele><time>2026-04-12T12:49:25.017Z</time></trkpt><trkpt lat="44.02228" lon="11.9734117"><ele>192.0</ele><time>2026-04-12T12:49:26.017Z</time></trkpt><trkpt lat="44.0224" lon="11.973525"><ele>192.0</ele><time>2026-04-12T12:49:27.017Z</time></trkpt><trkpt lat="44.0225183" lon="11.9736433"><ele>192.75</ele><time>2026-04-12T12:49:28.017Z</time></trkpt><trkpt lat="44.0226417" lon="11.9737533"><ele>193.5</ele><time>2026-04-12T12:49:29.017Z</time></trkpt><trkpt lat="44.02276" lon="11.9738717"><ele>194.25</ele><time>2026-04-12T12:49:30.018Z</time></trkpt><trkpt lat="44.0228817" lon="11.9739833"><ele>195.0</ele><time>2026-04-12T12:49:31.017Z</time></trkpt><trkpt lat="44.0231233" lon="11.9742083"><ele>195.66666666666669</ele><time>2026-04-12T12:49:33.017Z</time></trkpt><trkpt lat="44.0233633" lon="11.9744317"><ele>196.33333333333334</ele><time>2026-04-12T12:49:35.017Z</time></trkpt><trkpt lat="44.0234833" lon="11.974545"><ele>197.0</ele><time>2026-04-12T12:49:36.017Z</time></trkpt><trkpt lat="44.0235983" lon="11.9746633"><ele>197.0</ele><time>2026-04-12T12:49:37.018Z</time></trkpt><trkpt lat="44.0237183" lon="11.9747767"><ele>197.0</ele><time>2026-04-12T12:49:38.017Z</time></trkpt><trkpt lat="44.0243267" lon="11.9753333"><ele>195.5</ele><time>2026-04-12T12:49:43.017Z</time></trkpt><trkpt lat="44.0244367" lon="11.975435"><ele>194.0</ele><time>2026-04-12T12:49:44.017Z</time></trkpt><trkpt lat="44.0245433" lon="11.975535"><ele>192.5</ele><time>2026-04-12T12:49:45.018Z</time></trkpt><trkpt lat="44.0246467" lon="11.9756317"><ele>191.0</ele><time>2026-04-12T12:49:46.017Z</time></trkpt><trkpt lat="44.02475" lon="11.9757283"><ele>191.0</ele><time>2026-04-12T12:49:47.017Z</time></trkpt><trkpt lat="44.02485" lon="11.9758283"><ele>191.0</ele><time>2026-04-12T12:49:48.017Z</time></trkpt><trkpt lat="44.0249517" lon="11.9759433"><ele>191.0</ele><time>2026-04-12T12:49:49.017Z</time></trkpt><trkpt lat="44.0250583" lon="11.97607"><ele>191.0</ele><time>2026-04-12T12:49:50.017Z</time></trkpt><trkpt lat="44.0251517" lon="11.9762083"><ele>189.0</ele><time>2026-04-12T12:49:51.017Z</time></trkpt><trkpt lat="44.0252283" lon="11.9763617"><ele>187.0</ele><time>2026-04-12T12:49:52.017Z</time></trkpt><trkpt lat="44.0253033" lon="11.9765217"><ele>185.0</ele><time>2026-04-12T12:49:53.018Z</time></trkpt><trkpt lat="44.0253717" lon="11.976685"><ele>183.0</ele><time>2026-04-12T12:49:54.017Z</time></trkpt><trkpt lat="44.0254417" lon="11.9768467"><ele>183.0</ele><time>2026-04-12T12:49:55.018Z</time></trkpt><trkpt lat="44.025515" lon="11.9770083"><ele>183.0</ele><time>2026-04-12T12:49:56.018Z</time></trkpt><trkpt lat="44.0255917" lon="11.9771717"><ele>183.0</ele><time>2026-04-12T12:49:57.017Z</time></trkpt><trkpt lat="44.0256667" lon="11.9773367"><ele>183.0</ele><time>2026-04-12T12:49:58.017Z</time></trkpt><trkpt lat="44.0257417" lon="11.9775"><ele>182.5</ele><time>2026-04-12T12:49:59.017Z</time></trkpt><trkpt lat="44.0258233" lon="11.97766"><ele>182.0</ele><time>2026-04-12T12:50:00.017Z</time></trkpt><trkpt lat="44.025895" lon="11.9778183"><ele>181.5</ele><time>2026-04-12T12:50:01.017Z</time></trkpt><trkpt lat="44.025965" lon="11.9779667"><ele>181.0</ele><time>2026-04-12T12:50:02.017Z</time></trkpt><trkpt lat="44.0260367" lon="11.9781183"><ele>181.0</ele><time>2026-04-12T12:50:03.017Z</time></trkpt><trkpt lat="44.0261017" lon="11.9782617"><ele>181.0</ele><time>2026-04-12T12:50:04.017Z</time></trkpt><trkpt lat="44.026165" lon="11.9784"><ele>181.0</ele><time>2026-04-12T12:50:05.018Z</time></trkpt><trkpt lat="44.0262317" lon="11.9785433"><ele>181.0</ele><time>2026-04-12T12:50:06.017Z</time></trkpt><trkpt lat="44.0263033" lon="11.9786817"><ele>181.5</ele><time>2026-04-12T12:50:07.017Z</time></trkpt><trkpt lat="44.026385" lon="11.9788083"><ele>182.0</ele><time>2026-04-12T12:50:08.018Z</time></trkpt><trkpt lat="44.0264717" lon="11.978915"><ele>182.5</ele><time>2026-04-12T12:50:09.017Z</time></trkpt><trkpt lat="44.0265617" lon="11.9790167"><ele>183.0</ele><time>2026-04-12T12:50:10.017Z</time></trkpt><trkpt lat="44.02665" lon="11.97912"><ele>182.5</ele><time>2026-04-12T12:50:11.017Z</time></trkpt><trkpt lat="44.0267417" lon="11.9792333"><ele>182.0</ele><time>2026-04-12T12:50:12.018Z</time></trkpt><trkpt lat="44.0268333" lon="11.979345"><ele>181.5</ele><time>2026-04-12T12:50:13.017Z</time></trkpt><trkpt lat="44.0269267" lon="11.979455"><ele>181.0</ele><time>2026-04-12T12:50:14.017Z</time></trkpt><trkpt lat="44.0270217" lon="11.979555"><ele>181.0</ele><time>2026-04-12T12:50:15.017Z</time></trkpt><trkpt lat="44.0271033" lon="11.97967"><ele>181.0</ele><time>2026-04-12T12:50:16.017Z</time></trkpt><trkpt lat="44.0271733" lon="11.9798083"><ele>181.0</ele><time>2026-04-12T12:50:17.017Z</time></trkpt><trkpt lat="44.0272383" lon="11.979965"><ele>181.0</ele><time>2026-04-12T12:50:18.018Z</time></trkpt><trkpt lat="44.0273017" lon="11.9801167"><ele>181.0</ele><time>2026-04-12T12:50:19.017Z</time></trkpt><trkpt lat="44.0273633" lon="11.9802667"><ele>181.0</ele><time>2026-04-12T12:50:20.018Z</time></trkpt><trkpt lat="44.0274233" lon="11.9804183"><ele>181.0</ele><time>2026-04-12T12:50:21.017Z</time></trkpt><trkpt lat="44.0274817" lon="11.9805717"><ele>181.0</ele><time>2026-04-12T12:50:22.018Z</time></trkpt><trkpt lat="44.02754" lon="11.98072"><ele>179.25</ele><time>2026-04-12T12:50:23.018Z</time></trkpt><trkpt lat="44.027605" lon="11.9808733"><ele>177.5</ele><time>2026-04-12T12:50:24.017Z</time></trkpt><trkpt lat="44.0276783" lon="11.9810267"><ele>175.75</ele><time>2026-04-12T12:50:25.017Z</time></trkpt><trkpt lat="44.0277567" lon="11.98117"><ele>174.0</ele><time>2026-04-12T12:50:26.017Z</time></trkpt><trkpt lat="44.0278433" lon="11.9813067"><ele>174.0</ele><time>2026-04-12T12:50:27.017Z</time></trkpt><trkpt lat="44.0279417" lon="11.98143"><ele>174.0</ele><time>2026-04-12T12:50:28.018Z</time></trkpt><trkpt lat="44.028045" lon="11.98155"><ele>174.0</ele><time>2026-04-12T12:50:29.017Z</time></trkpt><trkpt lat="44.0281483" lon="11.981675"><ele>174.0</ele><time>2026-04-12T12:50:30.018Z</time></trkpt><trkpt lat="44.02825" lon="11.98181"><ele>172.0</ele><time>2026-04-12T12:50:31.017Z</time></trkpt><trkpt lat="44.02836" lon="11.9819467"><ele>170.0</ele><time>2026-04-12T12:50:32.018Z</time></trkpt><trkpt lat="44.0284683" lon="11.98208"><ele>168.0</ele><time>2026-04-12T12:50:33.017Z</time></trkpt><trkpt lat="44.0285783" lon="11.9822083"><ele>166.0</ele><time>2026-04-12T12:50:34.017Z</time></trkpt><trkpt lat="44.028685" lon="11.982335"><ele>166.0</ele><time>2026-04-12T12:50:35.017Z</time></trkpt><trkpt lat="44.028795" lon="11.9824617"><ele>166.0</ele><time>2026-04-12T12:50:36.017Z</time></trkpt><trkpt lat="44.02891" lon="11.98259"><ele>166.0</ele><time>2026-04-12T12:50:37.018Z</time></trkpt><trkpt lat="44.0290167" lon="11.9827167"><ele>166.0</ele><time>2026-04-12T12:50:38.018Z</time></trkpt><trkpt lat="44.02912" lon="11.9828483"><ele>164.25</ele><time>2026-04-12T12:50:39.017Z</time></trkpt><trkpt lat="44.02922" lon="11.9829783"><ele>162.5</ele><time>2026-04-12T12:50:40.018Z</time></trkpt><trkpt lat="44.0293283" lon="11.9830983"><ele>160.75</ele><time>2026-04-12T12:50:41.018Z</time></trkpt><trkpt lat="44.0294333" lon="11.9832167"><ele>159.0</ele><time>2026-04-12T12:50:42.017Z</time></trkpt><trkpt lat="44.02954" lon="11.98334"><ele>159.25</ele><time>2026-04-12T12:50:43.017Z</time></trkpt><trkpt lat="44.0296467" lon="11.9834617"><ele>159.5</ele><time>2026-04-12T12:50:44.018Z</time></trkpt><trkpt lat="44.029755" lon="11.9835833"><ele>159.75</ele><time>2026-04-12T12:50:45.017Z</time></trkpt><trkpt lat="44.02987" lon="11.9837033"><ele>160.0</ele><time>2026-04-12T12:50:46.017Z</time></trkpt><trkpt lat="44.0299833" lon="11.9838267"><ele>160.0</ele><time>2026-04-12T12:50:47.017Z</time></trkpt><trkpt lat="44.0300967" lon="11.983955"><ele>160.0</ele><time>2026-04-12T12:50:48.017Z</time></trkpt><trkpt lat="44.030215" lon="11.9840783"><ele>160.0</ele><time>2026-04-12T12:50:49.018Z</time></trkpt><trkpt lat="44.030325" lon="11.9842033"><ele>160.0</ele><time>2026-04-12T12:50:50.017Z</time></trkpt><trkpt lat="44.0304367" lon="11.9843267"><ele>159.75</ele><time>2026-04-12T12:50:51.017Z</time></trkpt><trkpt lat="44.03055" lon="11.9844517"><ele>159.5</ele><time>2026-04-12T12:50:52.017Z</time></trkpt><trkpt lat="44.030665" lon="11.9845817"><ele>159.25</ele><time>2026-04-12T12:50:53.017Z</time></trkpt><trkpt lat="44.0307783" lon="11.98471"><ele>159.0</ele><time>2026-04-12T12:50:54.017Z</time></trkpt><trkpt lat="44.0308933" lon="11.98484"><ele>159.0</ele><time>2026-04-12T12:50:55.017Z</time></trkpt><trkpt lat="44.0310083" lon="11.9849667"><ele>159.0</ele><time>2026-04-12T12:50:56.017Z</time></trkpt><trkpt lat="44.0311217" lon="11.9850933"><ele>159.0</ele><time>2026-04-12T12:50:57.017Z</time></trkpt><trkpt lat="44.0312367" lon="11.9852217"><ele>159.0</ele><time>2026-04-12T12:50:58.017Z</time></trkpt><trkpt lat="44.03135" lon="11.98535"><ele>159.0</ele><time>2026-04-12T12:50:59.017Z</time></trkpt><trkpt lat="44.031465" lon="11.9854783"><ele>159.0</ele><time>2026-04-12T12:51:00.018Z</time></trkpt><trkpt lat="44.03158" lon="11.9856083"><ele>159.0</ele><time>2026-04-12T12:51:01.017Z</time></trkpt><trkpt lat="44.0316917" lon="11.9857333"><ele>159.0</ele><time>2026-04-12T12:51:02.018Z</time></trkpt><trkpt lat="44.0318033" lon="11.9858667"><ele>159.5</ele><time>2026-04-12T12:51:03.017Z</time></trkpt><trkpt lat="44.0319233" lon="11.9859867"><ele>160.0</ele><time>2026-04-12T12:51:04.017Z</time></trkpt><trkpt lat="44.0320433" lon="11.98611"><ele>160.5</ele><time>2026-04-12T12:51:05.017Z</time></trkpt><trkpt lat="44.0321567" lon="11.9862383"><ele>161.0</ele><time>2026-04-12T12:51:06.017Z</time></trkpt><trkpt lat="44.032275" lon="11.9863633"><ele>161.0</ele><time>2026-04-12T12:51:07.017Z</time></trkpt><trkpt lat="44.0323867" lon="11.9864917"><ele>161.0</ele><time>2026-04-12T12:51:08.017Z</time></trkpt><trkpt lat="44.0325" lon="11.9866233"><ele>161.0</ele><time>2026-04-12T12:51:09.018Z</time></trkpt><trkpt lat="44.0326133" lon="11.9867483"><ele>161.0</ele><time>2026-04-12T12:51:10.018Z</time></trkpt><trkpt lat="44.032725" lon="11.9868717"><ele>161.25</ele><time>2026-04-12T12:51:11.017Z</time></trkpt><trkpt lat="44.032835" lon="11.9869967"><ele>161.5</ele><time>2026-04-12T12:51:12.018Z</time></trkpt><trkpt lat="44.0329483" lon="11.9871233"><ele>161.75</ele><time>2026-04-12T12:51:13.017Z</time></trkpt><trkpt lat="44.0330617" lon="11.9872517"><ele>162.0</ele><time>2026-04-12T12:51:14.017Z</time></trkpt><trkpt lat="44.0331733" lon="11.9873817"><ele>161.25</ele><time>2026-04-12T12:51:15.018Z</time></trkpt><trkpt lat="44.033275" lon="11.9875117"><ele>160.5</ele><time>2026-04-12T12:51:16.017Z</time></trkpt><trkpt lat="44.033375" lon="11.98765"><ele>159.75</ele><time>2026-04-12T12:51:17.018Z</time></trkpt><trkpt lat="44.03348" lon="11.98779"><ele>159.0</ele><time>2026-04-12T12:51:18.017Z</time></trkpt><trkpt lat="44.033585" lon="11.9879317"><ele>159.0</ele><time>2026-04-12T12:51:19.017Z</time></trkpt><trkpt lat="44.0336833" lon="11.9880817"><ele>159.0</ele><time>2026-04-12T12:51:20.017Z</time></trkpt><trkpt lat="44.0337767" lon="11.988235"><ele>159.0</ele><time>2026-04-12T12:51:21.017Z</time></trkpt><trkpt lat="44.03387" lon="11.9883883"><ele>159.0</ele><time>2026-04-12T12:51:22.017Z</time></trkpt><trkpt lat="44.0339667" lon="11.9885433"><ele>159.0</ele><time>2026-04-12T12:51:23.017Z</time></trkpt><trkpt lat="44.034065" lon="11.9886933"><ele>159.0</ele><time>2026-04-12T12:51:24.018Z</time></trkpt><trkpt lat="44.03416" lon="11.988845"><ele>159.0</ele><time>2026-04-12T12:51:25.017Z</time></trkpt><trkpt lat="44.03426" lon="11.9889967"><ele>159.0</ele><time>2026-04-12T12:51:26.017Z</time></trkpt><trkpt lat="44.0343583" lon="11.9891467"><ele>157.5</ele><time>2026-04-12T12:51:27.017Z</time></trkpt><trkpt lat="44.0344583" lon="11.9892967"><ele>156.0</ele><time>2026-04-12T12:51:28.017Z</time></trkpt><trkpt lat="44.0345567" lon="11.9894467"><ele>154.5</ele><time>2026-04-12T12:51:29.017Z</time></trkpt><trkpt lat="44.0346533" lon="11.9895917"><ele>153.0</ele><time>2026-04-12T12:51:30.018Z</time></trkpt><trkpt lat="44.0347467" lon="11.9897433"><ele>153.0</ele><time>2026-04-12T12:51:31.018Z</time></trkpt><trkpt lat="44.03484" lon="11.9898967"><ele>153.0</ele><time>2026-04-12T12:51:32.017Z</time></trkpt><trkpt lat="44.0349367" lon="11.990045"><ele>153.0</ele><time>2026-04-12T12:51:33.017Z</time></trkpt><trkpt lat="44.0350267" lon="11.9902017"><ele>153.0</ele><time>2026-04-12T12:51:34.017Z</time></trkpt><trkpt lat="44.0351217" lon="11.9903533"><ele>153.5</ele><time>2026-04-12T12:51:35.018Z</time></trkpt><trkpt lat="44.035215" lon="11.9905067"><ele>154.0</ele><time>2026-04-12T12:51:36.017Z</time></trkpt><trkpt lat="44.0353133" lon="11.990655"><ele>154.5</ele><time>2026-04-12T12:51:37.017Z</time></trkpt><trkpt lat="44.0354133" lon="11.9908"><ele>155.0</ele><time>2026-04-12T12:51:38.017Z</time></trkpt><trkpt lat="44.035505" lon="11.99095"><ele>155.0</ele><time>2026-04-12T12:51:39.017Z</time></trkpt><trkpt lat="44.0356033" lon="11.9910967"><ele>155.0</ele><time>2026-04-12T12:51:40.017Z</time></trkpt><trkpt lat="44.035695" lon="11.9912483"><ele>155.0</ele><time>2026-04-12T12:51:41.017Z</time></trkpt><trkpt lat="44.0357867" lon="11.9913983"><ele>155.0</ele><time>2026-04-12T12:51:42.017Z</time></trkpt><trkpt lat="44.0358817" lon="11.9915483"><ele>153.5</ele><time>2026-04-12T12:51:43.017Z</time></trkpt><trkpt lat="44.0359817" lon="11.9916983"><ele>152.0</ele><time>2026-04-12T12:51:44.017Z</time></trkpt><trkpt lat="44.0360783" lon="11.9918533"><ele>150.5</ele><time>2026-04-12T12:51:45.018Z</time></trkpt><trkpt lat="44.0361733" lon="11.992005"><ele>149.0</ele><time>2026-04-12T12:51:46.017Z</time></trkpt><trkpt lat="44.0362683" lon="11.9921533"><ele>149.0</ele><time>2026-04-12T12:51:47.017Z</time></trkpt><trkpt lat="44.0363567" lon="11.9922983"><ele>149.0</ele><time>2026-04-12T12:51:48.018Z</time></trkpt><trkpt lat="44.0364467" lon="11.9924267"><ele>149.0</ele><time>2026-04-12T12:51:49.017Z</time></trkpt><trkpt lat="44.0365517" lon="11.9925467"><ele>149.0</ele><time>2026-04-12T12:51:50.017Z</time></trkpt><trkpt lat="44.0366667" lon="11.992655"><ele>149.0</ele><time>2026-04-12T12:51:51.017Z</time></trkpt><trkpt lat="44.0367867" lon="11.9927567"><ele>149.0</ele><time>2026-04-12T12:51:52.018Z</time></trkpt><trkpt lat="44.0369033" lon="11.9928617"><ele>149.0</ele><time>2026-04-12T12:51:53.017Z</time></trkpt><trkpt lat="44.0370233" lon="11.9929617"><ele>149.0</ele><time>2026-04-12T12:51:54.017Z</time></trkpt><trkpt lat="44.0371483" lon="11.9930583"><ele>149.0</ele><time>2026-04-12T12:51:55.017Z</time></trkpt><trkpt lat="44.0372667" lon="11.9931617"><ele>149.0</ele><time>2026-04-12T12:51:56.017Z</time></trkpt><trkpt lat="44.0373867" lon="11.9932633"><ele>149.0</ele><time>2026-04-12T12:51:57.017Z</time></trkpt><trkpt lat="44.037505" lon="11.9933667"><ele>149.0</ele><time>2026-04-12T12:51:58.017Z</time></trkpt><trkpt lat="44.0376233" lon="11.9934733"><ele>148.25</ele><time>2026-04-12T12:51:59.018Z</time></trkpt><trkpt lat="44.037745" lon="11.99357"><ele>147.5</ele><time>2026-04-12T12:52:00.017Z</time></trkpt><trkpt lat="44.0378633" lon="11.99366"><ele>146.75</ele><time>2026-04-12T12:52:01.017Z</time></trkpt><trkpt lat="44.03798" lon="11.9937467"><ele>146.0</ele><time>2026-04-12T12:52:02.017Z</time></trkpt><trkpt lat="44.03809" lon="11.993845"><ele>146.0</ele><time>2026-04-12T12:52:03.017Z</time></trkpt><trkpt lat="44.0381967" lon="11.9939483"><ele>146.0</ele><time>2026-04-12T12:52:04.017Z</time></trkpt><trkpt lat="44.0382983" lon="11.9940667"><ele>146.0</ele><time>2026-04-12T12:52:05.018Z</time></trkpt><trkpt lat="44.0383833" lon="11.9941967"><ele>146.0</ele><time>2026-04-12T12:52:06.018Z</time></trkpt><trkpt lat="44.038465" lon="11.9943483"><ele>145.25</ele><time>2026-04-12T12:52:07.017Z</time></trkpt><trkpt lat="44.0385317" lon="11.994515"><ele>144.5</ele><time>2026-04-12T12:52:08.017Z</time></trkpt><trkpt lat="44.0385867" lon="11.9947"><ele>143.75</ele><time>2026-04-12T12:52:09.018Z</time></trkpt><trkpt lat="44.0386283" lon="11.9948917"><ele>143.0</ele><time>2026-04-12T12:52:10.017Z</time></trkpt><trkpt lat="44.038655" lon="11.9950883"><ele>143.0</ele><time>2026-04-12T12:52:11.017Z</time></trkpt><trkpt lat="44.0386683" lon="11.995285"><ele>143.0</ele><time>2026-04-12T12:52:12.017Z</time></trkpt><trkpt lat="44.03867" lon="11.99548"><ele>143.0</ele><time>2026-04-12T12:52:13.017Z</time></trkpt><trkpt lat="44.0386733" lon="11.9956667"><ele>143.0</ele><time>2026-04-12T12:52:14.018Z</time></trkpt><trkpt lat="44.03868" lon="11.9958483"><ele>141.0</ele><time>2026-04-12T12:52:15.017Z</time></trkpt><trkpt lat="44.0387" lon="11.9960283"><ele>139.0</ele><time>2026-04-12T12:52:16.017Z</time></trkpt><trkpt lat="44.03873" lon="11.9962133"><ele>137.0</ele><time>2026-04-12T12:52:17.018Z</time></trkpt><trkpt lat="44.038765" lon="11.996395"><ele>135.0</ele><time>2026-04-12T12:52:18.017Z</time></trkpt><trkpt lat="44.0388033" lon="11.996575"><ele>132.0</ele><time>2026-04-12T12:52:19.017Z</time></trkpt><trkpt lat="44.0388533" lon="11.9967433"><ele>129.0</ele><time>2026-04-12T12:52:20.018Z</time></trkpt><trkpt lat="44.0389217" lon="11.996895"><ele>126.0</ele><time>2026-04-12T12:52:21.017Z</time></trkpt><trkpt lat="44.039" lon="11.997035"><ele>123.0</ele><time>2026-04-12T12:52:22.017Z</time></trkpt><trkpt lat="44.0390833" lon="11.99717"><ele>122.5</ele><time>2026-04-12T12:52:23.017Z</time></trkpt><trkpt lat="44.03917" lon="11.997295"><ele>122.0</ele><time>2026-04-12T12:52:24.017Z</time></trkpt><trkpt lat="44.039245" lon="11.9974167"><ele>121.5</ele><time>2026-04-12T12:52:25.017Z</time></trkpt><trkpt lat="44.0393133" lon="11.9975333"><ele>121.0</ele><time>2026-04-12T12:52:26.017Z</time></trkpt><trkpt lat="44.03938" lon="11.99764"><ele>121.0</ele><time>2026-04-12T12:52:27.018Z</time></trkpt><trkpt lat="44.0394383" lon="11.9977333"><ele>121.0</ele><time>2026-04-12T12:52:28.017Z</time></trkpt><trkpt lat="44.0394867" lon="11.9978133"><ele>121.0</ele><time>2026-04-12T12:52:29.017Z</time></trkpt><trkpt lat="44.0395233" lon="11.9979317"><ele>121.0</ele><time>2026-04-12T12:52:31.017Z</time></trkpt><trkpt lat="44.0394717" lon="11.998035"><ele>121.0</ele><time>2026-04-12T12:52:33.017Z</time></trkpt><trkpt lat="44.0393817" lon="11.998145"><ele>121.00000000000001</ele><time>2026-04-12T12:52:35.017Z</time></trkpt><trkpt lat="44.039325" lon="11.9982217"><ele>121.0</ele><time>2026-04-12T12:52:36.017Z</time></trkpt><trkpt lat="44.03927" lon="11.9983133"><ele>121.0</ele><time>2026-04-12T12:52:37.017Z</time></trkpt><trkpt lat="44.0392117" lon="11.998415"><ele>121.0</ele><time>2026-04-12T12:52:38.018Z</time></trkpt><trkpt lat="44.0391583" lon="11.9985117"><ele>121.00000000000001</ele><time>2026-04-12T12:52:39.018Z</time></trkpt><trkpt lat="44.0391067" lon="11.9986"><ele>121.0</ele><time>2026-04-12T12:52:40.017Z</time></trkpt><trkpt lat="44.039065" lon="11.99868"><ele>120.83333333333334</ele><time>2026-04-12T12:52:41.017Z</time></trkpt><trkpt lat="44.0390217" lon="11.998755"><ele>120.66666666666667</ele><time>2026-04-12T12:52:42.018Z</time></trkpt><trkpt lat="44.038975" lon="11.9988783"><ele>120.5</ele><time>2026-04-12T12:52:44.017Z</time></trkpt><trkpt lat="44.0389333" lon="11.9989783"><ele>120.33333333333334</ele><time>2026-04-12T12:52:46.017Z</time></trkpt><trkpt lat="44.0388717" lon="11.999065"><ele>120.16666666666667</ele><time>2026-04-12T12:52:49.018Z</time></trkpt><trkpt lat="44.0388367" lon="11.9991383"><ele>120.0</ele><time>2026-04-12T12:52:53.017Z</time></trkpt><trkpt lat="44.0388433" lon="11.9992367"><ele>120.0</ele><time>2026-04-12T12:52:56.017Z</time></trkpt></trkseg></trk></gpx>